<?xml version="1.0" encoding="UTF-8" standalone="no" ?>
<gpx xmlns="http://www.topografix.com/GPX/1/1" xmlns:xsi="http://www.w3.org/2001/XMLSchema-instance" xsi:schemaLocation="http://www.topografix.com/GPX/1/1 http://www.topografix.com/GPX/1/1/gpx.xsd" version="1.1" creator="VisuGPX - https://www.visugpx.com">
  <metadata>
    <name>20140901 Salvagny Morde Anterne</name>
    <desc><![CDATA[7 ème étape du circuit sur le GR5 entre Thonon les bains et Chamonix]]></desc>
  </metadata>
  <trk>
    <name><![CDATA[20140901 Salvagny Morde Anterne_1]]></name>
    <trkseg>
      <trkpt lat="46.04634" lon="6.76945">
        <ele>834.6</ele>
        <time>2014-09-01T08:19:25Z</time>
      </trkpt>
      <trkpt lat="46.0463" lon="6.76949">
        <ele>834.6</ele>
        <time>2014-09-01T08:19:30Z</time>
      </trkpt>
      <trkpt lat="46.04625" lon="6.76952">
        <ele>834.8823</ele>
        <time>2014-09-01T08:19:35Z</time>
      </trkpt>
      <trkpt lat="46.04618" lon="6.76953">
        <ele>834.8823</ele>
        <time>2014-09-01T08:19:40Z</time>
      </trkpt>
      <trkpt lat="46.04614" lon="6.76954">
        <ele>839.5103</ele>
        <time>2014-09-01T08:19:45Z</time>
      </trkpt>
      <trkpt lat="46.04606" lon="6.76958">
        <ele>839.5103</ele>
        <time>2014-09-01T08:19:50Z</time>
      </trkpt>
      <trkpt lat="46.04599" lon="6.76963">
        <ele>844.2744</ele>
        <time>2014-09-01T08:19:55Z</time>
      </trkpt>
      <trkpt lat="46.04596" lon="6.76967">
        <ele>844.2744</ele>
        <time>2014-09-01T08:20:00Z</time>
      </trkpt>
      <trkpt lat="46.0459" lon="6.7697">
        <ele>849.0313</ele>
        <time>2014-09-01T08:20:05Z</time>
      </trkpt>
      <trkpt lat="46.04593" lon="6.76968">
        <ele>849.0313</ele>
        <time>2014-09-01T08:20:10Z</time>
      </trkpt>
      <trkpt lat="46.04593" lon="6.76968">
        <ele>849.0313</ele>
        <time>2014-09-01T08:20:15Z</time>
      </trkpt>
      <trkpt lat="46.04589" lon="6.76971">
        <ele>849.0313</ele>
        <time>2014-09-01T08:20:20Z</time>
      </trkpt>
      <trkpt lat="46.04584" lon="6.76975">
        <ele>853.3702</ele>
        <time>2014-09-01T08:20:25Z</time>
      </trkpt>
      <trkpt lat="46.0458" lon="6.76978">
        <ele>853.3702</ele>
        <time>2014-09-01T08:20:30Z</time>
      </trkpt>
      <trkpt lat="46.04574" lon="6.76979">
        <ele>857.14526</ele>
        <time>2014-09-01T08:20:35Z</time>
      </trkpt>
      <trkpt lat="46.04568" lon="6.76979">
        <ele>857.14526</ele>
        <time>2014-09-01T08:20:40Z</time>
      </trkpt>
      <trkpt lat="46.04565" lon="6.76981">
        <ele>860.38885</ele>
        <time>2014-09-01T08:20:45Z</time>
      </trkpt>
      <trkpt lat="46.04559" lon="6.76985">
        <ele>860.38885</ele>
        <time>2014-09-01T08:20:50Z</time>
      </trkpt>
      <trkpt lat="46.04553" lon="6.76988">
        <ele>862.9355</ele>
        <time>2014-09-01T08:20:55Z</time>
      </trkpt>
      <trkpt lat="46.04549" lon="6.76987">
        <ele>862.9355</ele>
        <time>2014-09-01T08:21:00Z</time>
      </trkpt>
      <trkpt lat="46.04542" lon="6.76991">
        <ele>864.8113</ele>
        <time>2014-09-01T08:21:05Z</time>
      </trkpt>
      <trkpt lat="46.04537" lon="6.76995">
        <ele>864.8113</ele>
        <time>2014-09-01T08:21:10Z</time>
      </trkpt>
      <trkpt lat="46.04533" lon="6.76996">
        <ele>866.03735</ele>
        <time>2014-09-01T08:21:15Z</time>
      </trkpt>
      <trkpt lat="46.04527" lon="6.76997">
        <ele>866.03735</ele>
        <time>2014-09-01T08:21:20Z</time>
      </trkpt>
      <trkpt lat="46.04523" lon="6.76998">
        <ele>866.74304</ele>
        <time>2014-09-01T08:21:25Z</time>
      </trkpt>
      <trkpt lat="46.04516" lon="6.76999">
        <ele>866.74304</ele>
        <time>2014-09-01T08:21:30Z</time>
      </trkpt>
      <trkpt lat="46.04512" lon="6.77">
        <ele>866.9855</ele>
        <time>2014-09-01T08:21:35Z</time>
      </trkpt>
      <trkpt lat="46.04507" lon="6.77001">
        <ele>866.9855</ele>
        <time>2014-09-01T08:21:40Z</time>
      </trkpt>
      <trkpt lat="46.04502" lon="6.77002">
        <ele>866.7943</ele>
        <time>2014-09-01T08:21:45Z</time>
      </trkpt>
      <trkpt lat="46.04497" lon="6.77004">
        <ele>866.7943</ele>
        <time>2014-09-01T08:21:50Z</time>
      </trkpt>
      <trkpt lat="46.04491" lon="6.77008">
        <ele>866.32825</ele>
        <time>2014-09-01T08:21:55Z</time>
      </trkpt>
      <trkpt lat="46.04485" lon="6.7701">
        <ele>866.32825</ele>
        <time>2014-09-01T08:22:00Z</time>
      </trkpt>
      <trkpt lat="46.0448" lon="6.77011">
        <ele>865.6865</ele>
        <time>2014-09-01T08:22:05Z</time>
      </trkpt>
      <trkpt lat="46.04474" lon="6.77014">
        <ele>865.6865</ele>
        <time>2014-09-01T08:22:10Z</time>
      </trkpt>
      <trkpt lat="46.0447" lon="6.77017">
        <ele>864.9723</ele>
        <time>2014-09-01T08:22:15Z</time>
      </trkpt>
      <trkpt lat="46.04465" lon="6.77022">
        <ele>864.9723</ele>
        <time>2014-09-01T08:22:20Z</time>
      </trkpt>
      <trkpt lat="46.04461" lon="6.77023">
        <ele>864.20593</ele>
        <time>2014-09-01T08:22:25Z</time>
      </trkpt>
      <trkpt lat="46.04456" lon="6.77025">
        <ele>864.20593</ele>
        <time>2014-09-01T08:22:30Z</time>
      </trkpt>
      <trkpt lat="46.0445" lon="6.77027">
        <ele>863.4143</ele>
        <time>2014-09-01T08:22:35Z</time>
      </trkpt>
      <trkpt lat="46.04443" lon="6.77028">
        <ele>863.4143</ele>
        <time>2014-09-01T08:22:40Z</time>
      </trkpt>
      <trkpt lat="46.04437" lon="6.77029">
        <ele>862.7413</ele>
        <time>2014-09-01T08:22:45Z</time>
      </trkpt>
      <trkpt lat="46.04432" lon="6.7703">
        <ele>862.7413</ele>
        <time>2014-09-01T08:22:50Z</time>
      </trkpt>
      <trkpt lat="46.04427" lon="6.77032">
        <ele>862.06995</ele>
        <time>2014-09-01T08:22:55Z</time>
      </trkpt>
      <trkpt lat="46.04421" lon="6.77035">
        <ele>862.06995</ele>
        <time>2014-09-01T08:23:00Z</time>
      </trkpt>
      <trkpt lat="46.04415" lon="6.77035">
        <ele>861.49384</ele>
        <time>2014-09-01T08:23:05Z</time>
      </trkpt>
      <trkpt lat="46.04411" lon="6.77035">
        <ele>861.49384</ele>
        <time>2014-09-01T08:23:10Z</time>
      </trkpt>
      <trkpt lat="46.04406" lon="6.77038">
        <ele>861.02875</ele>
        <time>2014-09-01T08:23:15Z</time>
      </trkpt>
      <trkpt lat="46.044" lon="6.77037">
        <ele>861.02875</ele>
        <time>2014-09-01T08:23:20Z</time>
      </trkpt>
      <trkpt lat="46.04393" lon="6.77034">
        <ele>860.6547</ele>
        <time>2014-09-01T08:23:25Z</time>
      </trkpt>
      <trkpt lat="46.04387" lon="6.77036">
        <ele>860.6547</ele>
        <time>2014-09-01T08:23:30Z</time>
      </trkpt>
      <trkpt lat="46.0438" lon="6.77037">
        <ele>860.4843</ele>
        <time>2014-09-01T08:23:35Z</time>
      </trkpt>
      <trkpt lat="46.04374" lon="6.7704">
        <ele>860.4843</ele>
        <time>2014-09-01T08:23:40Z</time>
      </trkpt>
      <trkpt lat="46.0437" lon="6.77042">
        <ele>860.4684</ele>
        <time>2014-09-01T08:23:45Z</time>
      </trkpt>
      <trkpt lat="46.04366" lon="6.77045">
        <ele>860.4684</ele>
        <time>2014-09-01T08:23:50Z</time>
      </trkpt>
      <trkpt lat="46.04361" lon="6.77046">
        <ele>860.5337</ele>
        <time>2014-09-01T08:23:55Z</time>
      </trkpt>
      <trkpt lat="46.04355" lon="6.77048">
        <ele>860.5337</ele>
        <time>2014-09-01T08:24:00Z</time>
      </trkpt>
      <trkpt lat="46.04348" lon="6.77049">
        <ele>860.6998</ele>
        <time>2014-09-01T08:24:05Z</time>
      </trkpt>
      <trkpt lat="46.04343" lon="6.77052">
        <ele>860.6998</ele>
        <time>2014-09-01T08:24:10Z</time>
      </trkpt>
      <trkpt lat="46.0434" lon="6.77053">
        <ele>860.6998</ele>
        <time>2014-09-01T08:24:15Z</time>
      </trkpt>
      <trkpt lat="46.04334" lon="6.77054">
        <ele>860.95575</ele>
        <time>2014-09-01T08:24:20Z</time>
      </trkpt>
      <trkpt lat="46.04328" lon="6.77054">
        <ele>860.95575</ele>
        <time>2014-09-01T08:24:25Z</time>
      </trkpt>
      <trkpt lat="46.0432" lon="6.77054">
        <ele>861.33374</ele>
        <time>2014-09-01T08:24:30Z</time>
      </trkpt>
      <trkpt lat="46.04315" lon="6.77053">
        <ele>861.33374</ele>
        <time>2014-09-01T08:24:35Z</time>
      </trkpt>
      <trkpt lat="46.0431" lon="6.77054">
        <ele>861.73773</ele>
        <time>2014-09-01T08:24:40Z</time>
      </trkpt>
      <trkpt lat="46.04305" lon="6.77052">
        <ele>861.73773</ele>
        <time>2014-09-01T08:24:45Z</time>
      </trkpt>
      <trkpt lat="46.043" lon="6.77052">
        <ele>862.164</ele>
        <time>2014-09-01T08:24:50Z</time>
      </trkpt>
      <trkpt lat="46.04295" lon="6.77051">
        <ele>862.164</ele>
        <time>2014-09-01T08:24:55Z</time>
      </trkpt>
      <trkpt lat="46.04289" lon="6.77052">
        <ele>862.62335</ele>
        <time>2014-09-01T08:25:00Z</time>
      </trkpt>
      <trkpt lat="46.04282" lon="6.77052">
        <ele>862.62335</ele>
        <time>2014-09-01T08:25:05Z</time>
      </trkpt>
      <trkpt lat="46.04276" lon="6.77051">
        <ele>863.1679</ele>
        <time>2014-09-01T08:25:10Z</time>
      </trkpt>
      <trkpt lat="46.0427" lon="6.77052">
        <ele>863.1679</ele>
        <time>2014-09-01T08:25:15Z</time>
      </trkpt>
      <trkpt lat="46.04264" lon="6.77052">
        <ele>863.7358</ele>
        <time>2014-09-01T08:25:20Z</time>
      </trkpt>
      <trkpt lat="46.04258" lon="6.77054">
        <ele>863.7358</ele>
        <time>2014-09-01T08:25:25Z</time>
      </trkpt>
      <trkpt lat="46.04252" lon="6.77058">
        <ele>864.35315</ele>
        <time>2014-09-01T08:25:30Z</time>
      </trkpt>
      <trkpt lat="46.04245" lon="6.77061">
        <ele>864.35315</ele>
        <time>2014-09-01T08:25:35Z</time>
      </trkpt>
      <trkpt lat="46.04241" lon="6.77061">
        <ele>865.08746</ele>
        <time>2014-09-01T08:25:40Z</time>
      </trkpt>
      <trkpt lat="46.04237" lon="6.77062">
        <ele>865.08746</ele>
        <time>2014-09-01T08:25:45Z</time>
      </trkpt>
      <trkpt lat="46.0423" lon="6.77063">
        <ele>865.72095</ele>
        <time>2014-09-01T08:25:50Z</time>
      </trkpt>
      <trkpt lat="46.04224" lon="6.77063">
        <ele>865.72095</ele>
        <time>2014-09-01T08:25:55Z</time>
      </trkpt>
      <trkpt lat="46.0422" lon="6.77064">
        <ele>866.1471</ele>
        <time>2014-09-01T08:26:00Z</time>
      </trkpt>
      <trkpt lat="46.04213" lon="6.77068">
        <ele>866.1471</ele>
        <time>2014-09-01T08:26:05Z</time>
      </trkpt>
      <trkpt lat="46.04209" lon="6.77068">
        <ele>866.30853</ele>
        <time>2014-09-01T08:26:10Z</time>
      </trkpt>
      <trkpt lat="46.04203" lon="6.77068">
        <ele>866.30853</ele>
        <time>2014-09-01T08:26:15Z</time>
      </trkpt>
      <trkpt lat="46.04197" lon="6.77071">
        <ele>866.32404</ele>
        <time>2014-09-01T08:26:20Z</time>
      </trkpt>
      <trkpt lat="46.04189" lon="6.77073">
        <ele>866.32404</ele>
        <time>2014-09-01T08:26:25Z</time>
      </trkpt>
      <trkpt lat="46.04188" lon="6.77073">
        <ele>866.4666</ele>
        <time>2014-09-01T08:26:30Z</time>
      </trkpt>
      <trkpt lat="46.04188" lon="6.77073">
        <ele>866.4666</ele>
        <time>2014-09-01T08:26:35Z</time>
      </trkpt>
      <trkpt lat="46.04184" lon="6.77074">
        <ele>866.4666</ele>
        <time>2014-09-01T08:26:55Z</time>
      </trkpt>
      <trkpt lat="46.04177" lon="6.77079">
        <ele>866.6749</ele>
        <time>2014-09-01T08:27:00Z</time>
      </trkpt>
      <trkpt lat="46.04171" lon="6.77081">
        <ele>866.6749</ele>
        <time>2014-09-01T08:27:05Z</time>
      </trkpt>
      <trkpt lat="46.04167" lon="6.77084">
        <ele>866.83185</ele>
        <time>2014-09-01T08:27:10Z</time>
      </trkpt>
      <trkpt lat="46.04162" lon="6.77089">
        <ele>866.83185</ele>
        <time>2014-09-01T08:27:15Z</time>
      </trkpt>
      <trkpt lat="46.04159" lon="6.77093">
        <ele>867.03314</ele>
        <time>2014-09-01T08:27:20Z</time>
      </trkpt>
      <trkpt lat="46.04154" lon="6.77098">
        <ele>867.03314</ele>
        <time>2014-09-01T08:27:25Z</time>
      </trkpt>
      <trkpt lat="46.04151" lon="6.77097">
        <ele>867.38385</ele>
        <time>2014-09-01T08:27:30Z</time>
      </trkpt>
      <trkpt lat="46.04145" lon="6.77098">
        <ele>867.38385</ele>
        <time>2014-09-01T08:27:35Z</time>
      </trkpt>
      <trkpt lat="46.04137" lon="6.77102">
        <ele>867.65436</ele>
        <time>2014-09-01T08:27:40Z</time>
      </trkpt>
      <trkpt lat="46.0413" lon="6.77107">
        <ele>867.65436</ele>
        <time>2014-09-01T08:27:45Z</time>
      </trkpt>
      <trkpt lat="46.04125" lon="6.77114">
        <ele>867.95795</ele>
        <time>2014-09-01T08:27:50Z</time>
      </trkpt>
      <trkpt lat="46.04119" lon="6.7712">
        <ele>867.95795</ele>
        <time>2014-09-01T08:27:55Z</time>
      </trkpt>
      <trkpt lat="46.04114" lon="6.77122">
        <ele>868.20544</ele>
        <time>2014-09-01T08:28:00Z</time>
      </trkpt>
      <trkpt lat="46.0411" lon="6.77126">
        <ele>868.20544</ele>
        <time>2014-09-01T08:28:05Z</time>
      </trkpt>
      <trkpt lat="46.04106" lon="6.7713">
        <ele>868.4942</ele>
        <time>2014-09-01T08:28:10Z</time>
      </trkpt>
      <trkpt lat="46.041" lon="6.77134">
        <ele>868.4942</ele>
        <time>2014-09-01T08:28:15Z</time>
      </trkpt>
      <trkpt lat="46.04093" lon="6.77136">
        <ele>868.7638</ele>
        <time>2014-09-01T08:28:20Z</time>
      </trkpt>
      <trkpt lat="46.04087" lon="6.77141">
        <ele>868.7638</ele>
        <time>2014-09-01T08:28:25Z</time>
      </trkpt>
      <trkpt lat="46.04082" lon="6.77146">
        <ele>869.15405</ele>
        <time>2014-09-01T08:28:30Z</time>
      </trkpt>
      <trkpt lat="46.04075" lon="6.77152">
        <ele>869.15405</ele>
        <time>2014-09-01T08:28:35Z</time>
      </trkpt>
      <trkpt lat="46.04071" lon="6.77157">
        <ele>869.4919</ele>
        <time>2014-09-01T08:28:40Z</time>
      </trkpt>
      <trkpt lat="46.04066" lon="6.77164">
        <ele>869.4919</ele>
        <time>2014-09-01T08:28:45Z</time>
      </trkpt>
      <trkpt lat="46.0406" lon="6.77169">
        <ele>869.7684</ele>
        <time>2014-09-01T08:28:50Z</time>
      </trkpt>
      <trkpt lat="46.04056" lon="6.77174">
        <ele>869.7684</ele>
        <time>2014-09-01T08:28:55Z</time>
      </trkpt>
      <trkpt lat="46.04052" lon="6.77181">
        <ele>869.945</ele>
        <time>2014-09-01T08:29:00Z</time>
      </trkpt>
      <trkpt lat="46.04047" lon="6.77185">
        <ele>869.945</ele>
        <time>2014-09-01T08:29:05Z</time>
      </trkpt>
      <trkpt lat="46.04042" lon="6.77192">
        <ele>869.98694</ele>
        <time>2014-09-01T08:29:10Z</time>
      </trkpt>
      <trkpt lat="46.04037" lon="6.77202">
        <ele>869.98694</ele>
        <time>2014-09-01T08:29:15Z</time>
      </trkpt>
      <trkpt lat="46.04032" lon="6.77209">
        <ele>869.9376</ele>
        <time>2014-09-01T08:29:20Z</time>
      </trkpt>
      <trkpt lat="46.04027" lon="6.77214">
        <ele>869.9376</ele>
        <time>2014-09-01T08:29:25Z</time>
      </trkpt>
      <trkpt lat="46.04024" lon="6.77214">
        <ele>869.9376</ele>
        <time>2014-09-01T08:29:30Z</time>
      </trkpt>
      <trkpt lat="46.04024" lon="6.77214">
        <ele>869.9376</ele>
        <time>2014-09-01T08:29:35Z</time>
      </trkpt>
      <trkpt lat="46.04024" lon="6.77214">
        <ele>869.7321</ele>
        <time>2014-09-01T08:29:40Z</time>
      </trkpt>
      <trkpt lat="46.0402" lon="6.77223">
        <ele>869.7321</ele>
        <time>2014-09-01T08:29:45Z</time>
      </trkpt>
      <trkpt lat="46.04015" lon="6.77235">
        <ele>869.4163</ele>
        <time>2014-09-01T08:29:50Z</time>
      </trkpt>
      <trkpt lat="46.04013" lon="6.77242">
        <ele>869.4163</ele>
        <time>2014-09-01T08:29:55Z</time>
      </trkpt>
      <trkpt lat="46.04008" lon="6.77247">
        <ele>869.31683</ele>
        <time>2014-09-01T08:30:00Z</time>
      </trkpt>
      <trkpt lat="46.04004" lon="6.77251">
        <ele>869.31683</ele>
        <time>2014-09-01T08:30:05Z</time>
      </trkpt>
      <trkpt lat="46.04" lon="6.77253">
        <ele>869.31683</ele>
        <time>2014-09-01T08:30:10Z</time>
      </trkpt>
      <trkpt lat="46.03998" lon="6.77257">
        <ele>869.43353</ele>
        <time>2014-09-01T08:30:15Z</time>
      </trkpt>
      <trkpt lat="46.03993" lon="6.77261">
        <ele>869.43353</ele>
        <time>2014-09-01T08:30:20Z</time>
      </trkpt>
      <trkpt lat="46.03988" lon="6.77264">
        <ele>869.46747</ele>
        <time>2014-09-01T08:30:25Z</time>
      </trkpt>
      <trkpt lat="46.03983" lon="6.77268">
        <ele>869.46747</ele>
        <time>2014-09-01T08:30:30Z</time>
      </trkpt>
      <trkpt lat="46.03978" lon="6.77272">
        <ele>869.32336</ele>
        <time>2014-09-01T08:30:35Z</time>
      </trkpt>
      <trkpt lat="46.03974" lon="6.77274">
        <ele>869.32336</ele>
        <time>2014-09-01T08:30:40Z</time>
      </trkpt>
      <trkpt lat="46.03968" lon="6.77272">
        <ele>869.0477</ele>
        <time>2014-09-01T08:30:45Z</time>
      </trkpt>
      <trkpt lat="46.0396" lon="6.77278">
        <ele>868.6687</ele>
        <time>2014-09-01T08:30:50Z</time>
      </trkpt>
      <trkpt lat="46.03953" lon="6.77284">
        <ele>868.6687</ele>
        <time>2014-09-01T08:30:55Z</time>
      </trkpt>
      <trkpt lat="46.03951" lon="6.77283">
        <ele>868.1237</ele>
        <time>2014-09-01T08:31:00Z</time>
      </trkpt>
      <trkpt lat="46.03951" lon="6.77284">
        <ele>868.1237</ele>
        <time>2014-09-01T08:31:05Z</time>
      </trkpt>
      <trkpt lat="46.03952" lon="6.77285">
        <ele>868.1237</ele>
        <time>2014-09-01T08:31:10Z</time>
      </trkpt>
      <trkpt lat="46.03952" lon="6.77285">
        <ele>868.1237</ele>
        <time>2014-09-01T08:31:15Z</time>
      </trkpt>
      <trkpt lat="46.03947" lon="6.77285">
        <ele>868.1237</ele>
        <time>2014-09-01T08:31:40Z</time>
      </trkpt>
      <trkpt lat="46.03941" lon="6.77287">
        <ele>867.4441</ele>
        <time>2014-09-01T08:31:45Z</time>
      </trkpt>
      <trkpt lat="46.03936" lon="6.77288">
        <ele>867.4441</ele>
        <time>2014-09-01T08:31:50Z</time>
      </trkpt>
      <trkpt lat="46.03927" lon="6.77293">
        <ele>866.9522</ele>
        <time>2014-09-01T08:31:55Z</time>
      </trkpt>
      <trkpt lat="46.03922" lon="6.77297">
        <ele>866.9522</ele>
        <time>2014-09-01T08:32:00Z</time>
      </trkpt>
      <trkpt lat="46.03915" lon="6.77303">
        <ele>866.8409</ele>
        <time>2014-09-01T08:32:05Z</time>
      </trkpt>
      <trkpt lat="46.03907" lon="6.7731">
        <ele>866.8915</ele>
        <time>2014-09-01T08:32:10Z</time>
      </trkpt>
      <trkpt lat="46.03902" lon="6.77313">
        <ele>866.8915</ele>
        <time>2014-09-01T08:32:15Z</time>
      </trkpt>
      <trkpt lat="46.03894" lon="6.77315">
        <ele>867.06323</ele>
        <time>2014-09-01T08:32:20Z</time>
      </trkpt>
      <trkpt lat="46.03887" lon="6.77319">
        <ele>867.06323</ele>
        <time>2014-09-01T08:32:25Z</time>
      </trkpt>
      <trkpt lat="46.03881" lon="6.77321">
        <ele>867.4349</ele>
        <time>2014-09-01T08:32:30Z</time>
      </trkpt>
      <trkpt lat="46.03878" lon="6.77322">
        <ele>867.4349</ele>
        <time>2014-09-01T08:32:35Z</time>
      </trkpt>
      <trkpt lat="46.03872" lon="6.77325">
        <ele>867.8747</ele>
        <time>2014-09-01T08:32:40Z</time>
      </trkpt>
      <trkpt lat="46.03866" lon="6.77325">
        <ele>867.8747</ele>
        <time>2014-09-01T08:32:45Z</time>
      </trkpt>
      <trkpt lat="46.03861" lon="6.77327">
        <ele>868.40656</ele>
        <time>2014-09-01T08:32:50Z</time>
      </trkpt>
      <trkpt lat="46.03859" lon="6.77327">
        <ele>868.40656</ele>
        <time>2014-09-01T08:32:55Z</time>
      </trkpt>
      <trkpt lat="46.03853" lon="6.77324">
        <ele>869.1682</ele>
        <time>2014-09-01T08:33:00Z</time>
      </trkpt>
      <trkpt lat="46.03847" lon="6.77323">
        <ele>869.1682</ele>
        <time>2014-09-01T08:33:05Z</time>
      </trkpt>
      <trkpt lat="46.03842" lon="6.77321">
        <ele>869.9382</ele>
        <time>2014-09-01T08:33:10Z</time>
      </trkpt>
      <trkpt lat="46.03836" lon="6.77317">
        <ele>869.9382</ele>
        <time>2014-09-01T08:33:15Z</time>
      </trkpt>
      <trkpt lat="46.03828" lon="6.77311">
        <ele>870.6716</ele>
        <time>2014-09-01T08:33:20Z</time>
      </trkpt>
      <trkpt lat="46.03822" lon="6.7731">
        <ele>870.6716</ele>
        <time>2014-09-01T08:33:25Z</time>
      </trkpt>
      <trkpt lat="46.03818" lon="6.7731">
        <ele>871.3558</ele>
        <time>2014-09-01T08:33:30Z</time>
      </trkpt>
      <trkpt lat="46.03808" lon="6.77307">
        <ele>872.008</ele>
        <time>2014-09-01T08:33:35Z</time>
      </trkpt>
      <trkpt lat="46.03801" lon="6.77308">
        <ele>872.008</ele>
        <time>2014-09-01T08:33:40Z</time>
      </trkpt>
      <trkpt lat="46.038" lon="6.77311">
        <ele>872.702</ele>
        <time>2014-09-01T08:33:45Z</time>
      </trkpt>
      <trkpt lat="46.03797" lon="6.77317">
        <ele>872.702</ele>
        <time>2014-09-01T08:33:50Z</time>
      </trkpt>
      <trkpt lat="46.0379" lon="6.7732">
        <ele>873.4049</ele>
        <time>2014-09-01T08:33:55Z</time>
      </trkpt>
      <trkpt lat="46.03777" lon="6.77323">
        <ele>874.12933</ele>
        <time>2014-09-01T08:34:00Z</time>
      </trkpt>
      <trkpt lat="46.03769" lon="6.77324">
        <ele>874.12933</ele>
        <time>2014-09-01T08:34:05Z</time>
      </trkpt>
      <trkpt lat="46.03761" lon="6.77327">
        <ele>874.93024</ele>
        <time>2014-09-01T08:34:10Z</time>
      </trkpt>
      <trkpt lat="46.03757" lon="6.77331">
        <ele>874.93024</ele>
        <time>2014-09-01T08:34:15Z</time>
      </trkpt>
      <trkpt lat="46.03753" lon="6.77333">
        <ele>875.85815</ele>
        <time>2014-09-01T08:34:20Z</time>
      </trkpt>
      <trkpt lat="46.03746" lon="6.77337">
        <ele>875.85815</ele>
        <time>2014-09-01T08:34:25Z</time>
      </trkpt>
      <trkpt lat="46.0374" lon="6.77343">
        <ele>876.628</ele>
        <time>2014-09-01T08:34:30Z</time>
      </trkpt>
      <trkpt lat="46.03735" lon="6.77343">
        <ele>876.628</ele>
        <time>2014-09-01T08:34:35Z</time>
      </trkpt>
      <trkpt lat="46.03734" lon="6.77348">
        <ele>876.628</ele>
        <time>2014-09-01T08:34:40Z</time>
      </trkpt>
      <trkpt lat="46.03733" lon="6.77351">
        <ele>877.3942</ele>
        <time>2014-09-01T08:34:45Z</time>
      </trkpt>
      <trkpt lat="46.03729" lon="6.77355">
        <ele>877.3942</ele>
        <time>2014-09-01T08:34:50Z</time>
      </trkpt>
      <trkpt lat="46.0372" lon="6.77359">
        <ele>878.1413</ele>
        <time>2014-09-01T08:34:55Z</time>
      </trkpt>
      <trkpt lat="46.03717" lon="6.77361">
        <ele>878.1413</ele>
        <time>2014-09-01T08:35:00Z</time>
      </trkpt>
      <trkpt lat="46.03712" lon="6.77363">
        <ele>878.1413</ele>
        <time>2014-09-01T08:35:05Z</time>
      </trkpt>
      <trkpt lat="46.03703" lon="6.77365">
        <ele>879.02795</ele>
        <time>2014-09-01T08:35:10Z</time>
      </trkpt>
      <trkpt lat="46.03691" lon="6.77359">
        <ele>879.81146</ele>
        <time>2014-09-01T08:35:15Z</time>
      </trkpt>
      <trkpt lat="46.03687" lon="6.77362">
        <ele>879.81146</ele>
        <time>2014-09-01T08:35:20Z</time>
      </trkpt>
      <trkpt lat="46.03683" lon="6.77364">
        <ele>880.4404</ele>
        <time>2014-09-01T08:35:25Z</time>
      </trkpt>
      <trkpt lat="46.03673" lon="6.77364">
        <ele>881.1269</ele>
        <time>2014-09-01T08:35:30Z</time>
      </trkpt>
      <trkpt lat="46.03671" lon="6.77364">
        <ele>881.1269</ele>
        <time>2014-09-01T08:35:35Z</time>
      </trkpt>
      <trkpt lat="46.03666" lon="6.77361">
        <ele>881.1269</ele>
        <time>2014-09-01T08:35:40Z</time>
      </trkpt>
      <trkpt lat="46.03664" lon="6.77361">
        <ele>881.82245</ele>
        <time>2014-09-01T08:35:45Z</time>
      </trkpt>
      <trkpt lat="46.03657" lon="6.77359">
        <ele>881.82245</ele>
        <time>2014-09-01T08:35:50Z</time>
      </trkpt>
      <trkpt lat="46.03655" lon="6.77362">
        <ele>882.2512</ele>
        <time>2014-09-01T08:35:55Z</time>
      </trkpt>
      <trkpt lat="46.03644" lon="6.7736">
        <ele>882.5045</ele>
        <time>2014-09-01T08:36:00Z</time>
      </trkpt>
      <trkpt lat="46.03638" lon="6.77358">
        <ele>882.5045</ele>
        <time>2014-09-01T08:36:05Z</time>
      </trkpt>
      <trkpt lat="46.03624" lon="6.77348">
        <ele>882.73956</ele>
        <time>2014-09-01T08:36:10Z</time>
      </trkpt>
      <trkpt lat="46.03618" lon="6.77343">
        <ele>882.73956</ele>
        <time>2014-09-01T08:36:15Z</time>
      </trkpt>
      <trkpt lat="46.03609" lon="6.77338">
        <ele>883.20325</ele>
        <time>2014-09-01T08:36:20Z</time>
      </trkpt>
      <trkpt lat="46.03598" lon="6.77336">
        <ele>883.86383</ele>
        <time>2014-09-01T08:36:25Z</time>
      </trkpt>
      <trkpt lat="46.03588" lon="6.77333">
        <ele>884.8502</ele>
        <time>2014-09-01T08:36:30Z</time>
      </trkpt>
      <trkpt lat="46.03584" lon="6.77332">
        <ele>884.8502</ele>
        <time>2014-09-01T08:36:35Z</time>
      </trkpt>
      <trkpt lat="46.03577" lon="6.77329">
        <ele>886.33856</ele>
        <time>2014-09-01T08:36:40Z</time>
      </trkpt>
      <trkpt lat="46.03573" lon="6.77327">
        <ele>886.33856</ele>
        <time>2014-09-01T08:36:45Z</time>
      </trkpt>
      <trkpt lat="46.03571" lon="6.77327">
        <ele>886.33856</ele>
        <time>2014-09-01T08:36:50Z</time>
      </trkpt>
      <trkpt lat="46.03564" lon="6.77323">
        <ele>887.7695</ele>
        <time>2014-09-01T08:36:55Z</time>
      </trkpt>
      <trkpt lat="46.03557" lon="6.7732">
        <ele>887.7695</ele>
        <time>2014-09-01T08:37:00Z</time>
      </trkpt>
      <trkpt lat="46.03548" lon="6.77315">
        <ele>888.8701</ele>
        <time>2014-09-01T08:37:05Z</time>
      </trkpt>
      <trkpt lat="46.03539" lon="6.77311">
        <ele>889.6771</ele>
        <time>2014-09-01T08:37:10Z</time>
      </trkpt>
      <trkpt lat="46.03534" lon="6.77307">
        <ele>889.6771</ele>
        <time>2014-09-01T08:37:15Z</time>
      </trkpt>
      <trkpt lat="46.03527" lon="6.77302">
        <ele>890.0955</ele>
        <time>2014-09-01T08:37:20Z</time>
      </trkpt>
      <trkpt lat="46.03519" lon="6.77295">
        <ele>890.51434</ele>
        <time>2014-09-01T08:37:25Z</time>
      </trkpt>
      <trkpt lat="46.03515" lon="6.7729">
        <ele>890.51434</ele>
        <time>2014-09-01T08:37:30Z</time>
      </trkpt>
      <trkpt lat="46.03509" lon="6.77289">
        <ele>890.9048</ele>
        <time>2014-09-01T08:37:35Z</time>
      </trkpt>
      <trkpt lat="46.03507" lon="6.77286">
        <ele>890.9048</ele>
        <time>2014-09-01T08:37:40Z</time>
      </trkpt>
      <trkpt lat="46.03501" lon="6.77275">
        <ele>891.0527</ele>
        <time>2014-09-01T08:37:45Z</time>
      </trkpt>
      <trkpt lat="46.03497" lon="6.77268">
        <ele>891.0527</ele>
        <time>2014-09-01T08:37:50Z</time>
      </trkpt>
      <trkpt lat="46.03492" lon="6.77263">
        <ele>890.87573</ele>
        <time>2014-09-01T08:37:55Z</time>
      </trkpt>
      <trkpt lat="46.03488" lon="6.77257">
        <ele>890.87573</ele>
        <time>2014-09-01T08:38:00Z</time>
      </trkpt>
      <trkpt lat="46.03483" lon="6.7725">
        <ele>890.29865</ele>
        <time>2014-09-01T08:38:05Z</time>
      </trkpt>
      <trkpt lat="46.03478" lon="6.77241">
        <ele>890.29865</ele>
        <time>2014-09-01T08:38:10Z</time>
      </trkpt>
      <trkpt lat="46.03474" lon="6.77231">
        <ele>889.5124</ele>
        <time>2014-09-01T08:38:15Z</time>
      </trkpt>
      <trkpt lat="46.03468" lon="6.77224">
        <ele>889.5124</ele>
        <time>2014-09-01T08:38:20Z</time>
      </trkpt>
      <trkpt lat="46.03461" lon="6.77216">
        <ele>888.47815</ele>
        <time>2014-09-01T08:38:25Z</time>
      </trkpt>
      <trkpt lat="46.03457" lon="6.77212">
        <ele>888.47815</ele>
        <time>2014-09-01T08:38:30Z</time>
      </trkpt>
      <trkpt lat="46.03455" lon="6.77205">
        <ele>887.11743</ele>
        <time>2014-09-01T08:38:35Z</time>
      </trkpt>
      <trkpt lat="46.03448" lon="6.77199">
        <ele>887.11743</ele>
        <time>2014-09-01T08:38:40Z</time>
      </trkpt>
      <trkpt lat="46.03442" lon="6.77192">
        <ele>885.4594</ele>
        <time>2014-09-01T08:38:45Z</time>
      </trkpt>
      <trkpt lat="46.03436" lon="6.77188">
        <ele>885.4594</ele>
        <time>2014-09-01T08:38:50Z</time>
      </trkpt>
      <trkpt lat="46.0343" lon="6.77182">
        <ele>883.77686</ele>
        <time>2014-09-01T08:38:55Z</time>
      </trkpt>
      <trkpt lat="46.03425" lon="6.77177">
        <ele>883.77686</ele>
        <time>2014-09-01T08:39:00Z</time>
      </trkpt>
      <trkpt lat="46.03421" lon="6.77173">
        <ele>882.1784</ele>
        <time>2014-09-01T08:39:05Z</time>
      </trkpt>
      <trkpt lat="46.0342" lon="6.77169">
        <ele>882.1784</ele>
        <time>2014-09-01T08:39:10Z</time>
      </trkpt>
      <trkpt lat="46.0342" lon="6.77169">
        <ele>882.1784</ele>
        <time>2014-09-01T08:39:15Z</time>
      </trkpt>
      <trkpt lat="46.03419" lon="6.7717">
        <ele>882.1784</ele>
        <time>2014-09-01T08:39:50Z</time>
      </trkpt>
      <trkpt lat="46.03416" lon="6.77172">
        <ele>882.1784</ele>
        <time>2014-09-01T08:39:55Z</time>
      </trkpt>
      <trkpt lat="46.03412" lon="6.77175">
        <ele>880.7356</ele>
        <time>2014-09-01T08:40:00Z</time>
      </trkpt>
      <trkpt lat="46.03408" lon="6.77177">
        <ele>880.7356</ele>
        <time>2014-09-01T08:40:05Z</time>
      </trkpt>
      <trkpt lat="46.03403" lon="6.77178">
        <ele>879.6006</ele>
        <time>2014-09-01T08:40:10Z</time>
      </trkpt>
      <trkpt lat="46.034" lon="6.77179">
        <ele>879.6006</ele>
        <time>2014-09-01T08:40:15Z</time>
      </trkpt>
      <trkpt lat="46.03396" lon="6.7718">
        <ele>879.6006</ele>
        <time>2014-09-01T08:40:20Z</time>
      </trkpt>
      <trkpt lat="46.03389" lon="6.77184">
        <ele>878.79816</ele>
        <time>2014-09-01T08:40:25Z</time>
      </trkpt>
      <trkpt lat="46.03381" lon="6.77185">
        <ele>878.79816</ele>
        <time>2014-09-01T08:40:30Z</time>
      </trkpt>
      <trkpt lat="46.03375" lon="6.77184">
        <ele>878.29254</ele>
        <time>2014-09-01T08:40:35Z</time>
      </trkpt>
      <trkpt lat="46.03372" lon="6.77189">
        <ele>878.29254</ele>
        <time>2014-09-01T08:40:40Z</time>
      </trkpt>
      <trkpt lat="46.0337" lon="6.77191">
        <ele>878.29254</ele>
        <time>2014-09-01T08:40:45Z</time>
      </trkpt>
      <trkpt lat="46.0337" lon="6.77191">
        <ele>878.29254</ele>
        <time>2014-09-01T08:40:50Z</time>
      </trkpt>
      <trkpt lat="46.03366" lon="6.77196">
        <ele>878.2515</ele>
        <time>2014-09-01T08:40:55Z</time>
      </trkpt>
      <trkpt lat="46.0336" lon="6.77203">
        <ele>878.2515</ele>
        <time>2014-09-01T08:41:00Z</time>
      </trkpt>
      <trkpt lat="46.03354" lon="6.77208">
        <ele>878.25256</ele>
        <time>2014-09-01T08:41:05Z</time>
      </trkpt>
      <trkpt lat="46.03352" lon="6.77209">
        <ele>878.25256</ele>
        <time>2014-09-01T08:41:10Z</time>
      </trkpt>
      <trkpt lat="46.03346" lon="6.77211">
        <ele>878.25256</ele>
        <time>2014-09-01T08:41:15Z</time>
      </trkpt>
      <trkpt lat="46.03333" lon="6.77214">
        <ele>878.2644</ele>
        <time>2014-09-01T08:41:20Z</time>
      </trkpt>
      <trkpt lat="46.03332" lon="6.77214">
        <ele>878.2644</ele>
        <time>2014-09-01T08:41:25Z</time>
      </trkpt>
      <trkpt lat="46.03331" lon="6.77216">
        <ele>878.2644</ele>
        <time>2014-09-01T08:41:30Z</time>
      </trkpt>
      <trkpt lat="46.03328" lon="6.77218">
        <ele>878.2644</ele>
        <time>2014-09-01T08:41:35Z</time>
      </trkpt>
      <trkpt lat="46.03323" lon="6.77219">
        <ele>877.667</ele>
        <time>2014-09-01T08:41:40Z</time>
      </trkpt>
      <trkpt lat="46.03318" lon="6.77219">
        <ele>877.667</ele>
        <time>2014-09-01T08:41:45Z</time>
      </trkpt>
      <trkpt lat="46.03316" lon="6.77219">
        <ele>877.667</ele>
        <time>2014-09-01T08:41:50Z</time>
      </trkpt>
      <trkpt lat="46.03312" lon="6.77218">
        <ele>876.98285</ele>
        <time>2014-09-01T08:41:55Z</time>
      </trkpt>
      <trkpt lat="46.03304" lon="6.77214">
        <ele>876.98285</ele>
        <time>2014-09-01T08:42:00Z</time>
      </trkpt>
      <trkpt lat="46.03297" lon="6.77208">
        <ele>876.264</ele>
        <time>2014-09-01T08:42:05Z</time>
      </trkpt>
      <trkpt lat="46.03296" lon="6.77205">
        <ele>876.264</ele>
        <time>2014-09-01T08:42:10Z</time>
      </trkpt>
      <trkpt lat="46.03296" lon="6.77205">
        <ele>876.264</ele>
        <time>2014-09-01T08:42:15Z</time>
      </trkpt>
      <trkpt lat="46.03297" lon="6.77206">
        <ele>876.264</ele>
        <time>2014-09-01T08:42:20Z</time>
      </trkpt>
      <trkpt lat="46.03296" lon="6.77206">
        <ele>876.264</ele>
        <time>2014-09-01T08:42:30Z</time>
      </trkpt>
      <trkpt lat="46.03296" lon="6.77206">
        <ele>876.264</ele>
        <time>2014-09-01T08:42:35Z</time>
      </trkpt>
      <trkpt lat="46.03295" lon="6.77207">
        <ele>876.264</ele>
        <time>2014-09-01T08:42:55Z</time>
      </trkpt>
      <trkpt lat="46.03291" lon="6.77203">
        <ele>874.7514</ele>
        <time>2014-09-01T08:43:00Z</time>
      </trkpt>
      <trkpt lat="46.03291" lon="6.77202">
        <ele>874.7514</ele>
        <time>2014-09-01T08:43:05Z</time>
      </trkpt>
      <trkpt lat="46.03289" lon="6.77198">
        <ele>874.7514</ele>
        <time>2014-09-01T08:43:10Z</time>
      </trkpt>
      <trkpt lat="46.03284" lon="6.77187">
        <ele>873.2429</ele>
        <time>2014-09-01T08:43:15Z</time>
      </trkpt>
      <trkpt lat="46.03282" lon="6.77178">
        <ele>873.2429</ele>
        <time>2014-09-01T08:43:20Z</time>
      </trkpt>
      <trkpt lat="46.03282" lon="6.77176">
        <ele>873.2429</ele>
        <time>2014-09-01T08:43:25Z</time>
      </trkpt>
      <trkpt lat="46.03282" lon="6.77176">
        <ele>873.2429</ele>
        <time>2014-09-01T08:43:30Z</time>
      </trkpt>
      <trkpt lat="46.03282" lon="6.77176">
        <ele>873.2429</ele>
        <time>2014-09-01T08:43:35Z</time>
      </trkpt>
      <trkpt lat="46.03282" lon="6.77175">
        <ele>871.48315</ele>
        <time>2014-09-01T08:43:40Z</time>
      </trkpt>
      <trkpt lat="46.03286" lon="6.77174">
        <ele>871.48315</ele>
        <time>2014-09-01T08:43:45Z</time>
      </trkpt>
      <trkpt lat="46.03289" lon="6.7717">
        <ele>871.48315</ele>
        <time>2014-09-01T08:43:50Z</time>
      </trkpt>
      <trkpt lat="46.03295" lon="6.77165">
        <ele>869.84143</ele>
        <time>2014-09-01T08:43:55Z</time>
      </trkpt>
      <trkpt lat="46.03302" lon="6.77156">
        <ele>868.37134</ele>
        <time>2014-09-01T08:44:00Z</time>
      </trkpt>
      <trkpt lat="46.03309" lon="6.77149">
        <ele>868.37134</ele>
        <time>2014-09-01T08:44:05Z</time>
      </trkpt>
      <trkpt lat="46.03314" lon="6.77144">
        <ele>867.15063</ele>
        <time>2014-09-01T08:44:10Z</time>
      </trkpt>
      <trkpt lat="46.03319" lon="6.77138">
        <ele>867.15063</ele>
        <time>2014-09-01T08:44:15Z</time>
      </trkpt>
      <trkpt lat="46.03321" lon="6.7713">
        <ele>866.40924</ele>
        <time>2014-09-01T08:44:20Z</time>
      </trkpt>
      <trkpt lat="46.03323" lon="6.77124">
        <ele>866.40924</ele>
        <time>2014-09-01T08:44:25Z</time>
      </trkpt>
      <trkpt lat="46.03323" lon="6.77121">
        <ele>866.40924</ele>
        <time>2014-09-01T08:44:30Z</time>
      </trkpt>
      <trkpt lat="46.03326" lon="6.77111">
        <ele>866.2432</ele>
        <time>2014-09-01T08:44:35Z</time>
      </trkpt>
      <trkpt lat="46.03328" lon="6.77105">
        <ele>866.2432</ele>
        <time>2014-09-01T08:44:40Z</time>
      </trkpt>
      <trkpt lat="46.03329" lon="6.77105">
        <ele>866.2432</ele>
        <time>2014-09-01T08:44:45Z</time>
      </trkpt>
      <trkpt lat="46.03332" lon="6.77095">
        <ele>866.39417</ele>
        <time>2014-09-01T08:44:50Z</time>
      </trkpt>
      <trkpt lat="46.03332" lon="6.77087">
        <ele>866.39417</ele>
        <time>2014-09-01T08:44:55Z</time>
      </trkpt>
      <trkpt lat="46.03331" lon="6.77085">
        <ele>866.39417</ele>
        <time>2014-09-01T08:45:00Z</time>
      </trkpt>
      <trkpt lat="46.03331" lon="6.77085">
        <ele>866.39417</ele>
        <time>2014-09-01T08:45:05Z</time>
      </trkpt>
      <trkpt lat="46.03331" lon="6.77082">
        <ele>866.39417</ele>
        <time>2014-09-01T08:45:10Z</time>
      </trkpt>
      <trkpt lat="46.0333" lon="6.77082">
        <ele>866.9099</ele>
        <time>2014-09-01T08:45:15Z</time>
      </trkpt>
      <trkpt lat="46.0333" lon="6.77082">
        <ele>866.9099</ele>
        <time>2014-09-01T08:45:20Z</time>
      </trkpt>
      <trkpt lat="46.0333" lon="6.77083">
        <ele>866.9099</ele>
        <time>2014-09-01T08:45:35Z</time>
      </trkpt>
      <trkpt lat="46.03329" lon="6.77082">
        <ele>866.9099</ele>
        <time>2014-09-01T08:45:40Z</time>
      </trkpt>
      <trkpt lat="46.03329" lon="6.77083">
        <ele>866.9099</ele>
        <time>2014-09-01T08:45:45Z</time>
      </trkpt>
      <trkpt lat="46.03327" lon="6.77085">
        <ele>866.9099</ele>
        <time>2014-09-01T08:45:50Z</time>
      </trkpt>
      <trkpt lat="46.03326" lon="6.77085">
        <ele>866.9099</ele>
        <time>2014-09-01T08:45:55Z</time>
      </trkpt>
      <trkpt lat="46.03326" lon="6.77086">
        <ele>866.9099</ele>
        <time>2014-09-01T08:46:00Z</time>
      </trkpt>
      <trkpt lat="46.03326" lon="6.77087">
        <ele>866.9099</ele>
        <time>2014-09-01T08:46:05Z</time>
      </trkpt>
      <trkpt lat="46.03326" lon="6.77089">
        <ele>866.9099</ele>
        <time>2014-09-01T08:46:10Z</time>
      </trkpt>
      <trkpt lat="46.03325" lon="6.77091">
        <ele>868.26587</ele>
        <time>2014-09-01T08:46:15Z</time>
      </trkpt>
      <trkpt lat="46.03325" lon="6.77096">
        <ele>868.26587</ele>
        <time>2014-09-01T08:46:20Z</time>
      </trkpt>
      <trkpt lat="46.03322" lon="6.77103">
        <ele>869.9347</ele>
        <time>2014-09-01T08:46:25Z</time>
      </trkpt>
      <trkpt lat="46.0332" lon="6.77107">
        <ele>869.9347</ele>
        <time>2014-09-01T08:46:30Z</time>
      </trkpt>
      <trkpt lat="46.03319" lon="6.77107">
        <ele>869.9347</ele>
        <time>2014-09-01T08:46:35Z</time>
      </trkpt>
      <trkpt lat="46.03318" lon="6.77106">
        <ele>869.9347</ele>
        <time>2014-09-01T08:46:40Z</time>
      </trkpt>
      <trkpt lat="46.03318" lon="6.77106">
        <ele>869.9347</ele>
        <time>2014-09-01T08:46:45Z</time>
      </trkpt>
      <trkpt lat="46.0331" lon="6.77107">
        <ele>872.9975</ele>
        <time>2014-09-01T08:46:50Z</time>
      </trkpt>
      <trkpt lat="46.03306" lon="6.77114">
        <ele>872.9975</ele>
        <time>2014-09-01T08:46:55Z</time>
      </trkpt>
      <trkpt lat="46.03306" lon="6.77116">
        <ele>872.9975</ele>
        <time>2014-09-01T08:47:00Z</time>
      </trkpt>
      <trkpt lat="46.03305" lon="6.77121">
        <ele>876.8093</ele>
        <time>2014-09-01T08:47:05Z</time>
      </trkpt>
      <trkpt lat="46.033" lon="6.77124">
        <ele>876.8093</ele>
        <time>2014-09-01T08:47:10Z</time>
      </trkpt>
      <trkpt lat="46.033" lon="6.77125">
        <ele>876.8093</ele>
        <time>2014-09-01T08:47:15Z</time>
      </trkpt>
      <trkpt lat="46.033" lon="6.77125">
        <ele>876.8093</ele>
        <time>2014-09-01T08:47:20Z</time>
      </trkpt>
      <trkpt lat="46.03299" lon="6.77127">
        <ele>876.8093</ele>
        <time>2014-09-01T08:47:30Z</time>
      </trkpt>
      <trkpt lat="46.03297" lon="6.77131">
        <ele>880.98663</ele>
        <time>2014-09-01T08:47:35Z</time>
      </trkpt>
      <trkpt lat="46.03296" lon="6.77135">
        <ele>880.98663</ele>
        <time>2014-09-01T08:47:40Z</time>
      </trkpt>
      <trkpt lat="46.03296" lon="6.77135">
        <ele>880.98663</ele>
        <time>2014-09-01T08:47:45Z</time>
      </trkpt>
      <trkpt lat="46.03295" lon="6.77135">
        <ele>880.98663</ele>
        <time>2014-09-01T08:47:50Z</time>
      </trkpt>
      <trkpt lat="46.0329" lon="6.77146">
        <ele>885.1585</ele>
        <time>2014-09-01T08:47:55Z</time>
      </trkpt>
      <trkpt lat="46.03289" lon="6.77147">
        <ele>885.1585</ele>
        <time>2014-09-01T08:48:00Z</time>
      </trkpt>
      <trkpt lat="46.03279" lon="6.77154">
        <ele>888.95276</ele>
        <time>2014-09-01T08:48:05Z</time>
      </trkpt>
      <trkpt lat="46.03279" lon="6.77155">
        <ele>888.95276</ele>
        <time>2014-09-01T08:48:10Z</time>
      </trkpt>
      <trkpt lat="46.03276" lon="6.77155">
        <ele>888.95276</ele>
        <time>2014-09-01T08:48:15Z</time>
      </trkpt>
      <trkpt lat="46.03271" lon="6.77158">
        <ele>888.95276</ele>
        <time>2014-09-01T08:48:20Z</time>
      </trkpt>
      <trkpt lat="46.0327" lon="6.77158">
        <ele>892.40015</ele>
        <time>2014-09-01T08:48:25Z</time>
      </trkpt>
      <trkpt lat="46.03268" lon="6.77154">
        <ele>892.40015</ele>
        <time>2014-09-01T08:48:30Z</time>
      </trkpt>
      <trkpt lat="46.03268" lon="6.77154">
        <ele>892.40015</ele>
        <time>2014-09-01T08:48:35Z</time>
      </trkpt>
      <trkpt lat="46.03263" lon="6.77156">
        <ele>892.40015</ele>
        <time>2014-09-01T08:48:40Z</time>
      </trkpt>
      <trkpt lat="46.03258" lon="6.77155">
        <ele>895.7466</ele>
        <time>2014-09-01T08:48:45Z</time>
      </trkpt>
      <trkpt lat="46.03257" lon="6.77153">
        <ele>895.7466</ele>
        <time>2014-09-01T08:48:50Z</time>
      </trkpt>
      <trkpt lat="46.03254" lon="6.77146">
        <ele>895.7466</ele>
        <time>2014-09-01T08:48:55Z</time>
      </trkpt>
      <trkpt lat="46.0325" lon="6.77141">
        <ele>898.62946</ele>
        <time>2014-09-01T08:49:00Z</time>
      </trkpt>
      <trkpt lat="46.03247" lon="6.77136">
        <ele>898.62946</ele>
        <time>2014-09-01T08:49:05Z</time>
      </trkpt>
      <trkpt lat="46.03244" lon="6.77134">
        <ele>898.62946</ele>
        <time>2014-09-01T08:49:10Z</time>
      </trkpt>
      <trkpt lat="46.03241" lon="6.7713">
        <ele>901.2619</ele>
        <time>2014-09-01T08:49:15Z</time>
      </trkpt>
      <trkpt lat="46.03235" lon="6.77128">
        <ele>901.2619</ele>
        <time>2014-09-01T08:49:20Z</time>
      </trkpt>
      <trkpt lat="46.03232" lon="6.77128">
        <ele>903.75574</ele>
        <time>2014-09-01T08:49:25Z</time>
      </trkpt>
      <trkpt lat="46.03229" lon="6.77128">
        <ele>903.75574</ele>
        <time>2014-09-01T08:49:30Z</time>
      </trkpt>
      <trkpt lat="46.03226" lon="6.77127">
        <ele>903.75574</ele>
        <time>2014-09-01T08:49:35Z</time>
      </trkpt>
      <trkpt lat="46.03224" lon="6.77126">
        <ele>903.75574</ele>
        <time>2014-09-01T08:49:40Z</time>
      </trkpt>
      <trkpt lat="46.03219" lon="6.77128">
        <ele>906.6188</ele>
        <time>2014-09-01T08:49:45Z</time>
      </trkpt>
      <trkpt lat="46.03215" lon="6.77126">
        <ele>906.6188</ele>
        <time>2014-09-01T08:49:50Z</time>
      </trkpt>
      <trkpt lat="46.03212" lon="6.77124">
        <ele>906.6188</ele>
        <time>2014-09-01T08:49:55Z</time>
      </trkpt>
      <trkpt lat="46.03209" lon="6.7712">
        <ele>909.4558</ele>
        <time>2014-09-01T08:50:00Z</time>
      </trkpt>
      <trkpt lat="46.03207" lon="6.77119">
        <ele>909.4558</ele>
        <time>2014-09-01T08:50:05Z</time>
      </trkpt>
      <trkpt lat="46.03205" lon="6.77118">
        <ele>909.4558</ele>
        <time>2014-09-01T08:50:10Z</time>
      </trkpt>
      <trkpt lat="46.03205" lon="6.77115">
        <ele>909.4558</ele>
        <time>2014-09-01T08:50:15Z</time>
      </trkpt>
      <trkpt lat="46.03205" lon="6.77114">
        <ele>909.4558</ele>
        <time>2014-09-01T08:50:20Z</time>
      </trkpt>
      <trkpt lat="46.03204" lon="6.77113">
        <ele>909.4558</ele>
        <time>2014-09-01T08:50:25Z</time>
      </trkpt>
      <trkpt lat="46.03203" lon="6.77113">
        <ele>911.8003</ele>
        <time>2014-09-01T08:50:30Z</time>
      </trkpt>
      <trkpt lat="46.03202" lon="6.77113">
        <ele>911.8003</ele>
        <time>2014-09-01T08:50:35Z</time>
      </trkpt>
      <trkpt lat="46.032" lon="6.77114">
        <ele>911.8003</ele>
        <time>2014-09-01T08:50:40Z</time>
      </trkpt>
      <trkpt lat="46.03196" lon="6.77113">
        <ele>911.8003</ele>
        <time>2014-09-01T08:50:45Z</time>
      </trkpt>
      <trkpt lat="46.03195" lon="6.77114">
        <ele>911.8003</ele>
        <time>2014-09-01T08:50:50Z</time>
      </trkpt>
      <trkpt lat="46.03194" lon="6.77116">
        <ele>914.1004</ele>
        <time>2014-09-01T08:50:55Z</time>
      </trkpt>
      <trkpt lat="46.03182" lon="6.77117">
        <ele>916.354</ele>
        <time>2014-09-01T08:51:00Z</time>
      </trkpt>
      <trkpt lat="46.0318" lon="6.77115">
        <ele>916.354</ele>
        <time>2014-09-01T08:51:05Z</time>
      </trkpt>
      <trkpt lat="46.03179" lon="6.77116">
        <ele>916.354</ele>
        <time>2014-09-01T08:51:10Z</time>
      </trkpt>
      <trkpt lat="46.03177" lon="6.77117">
        <ele>916.354</ele>
        <time>2014-09-01T08:51:15Z</time>
      </trkpt>
      <trkpt lat="46.03169" lon="6.77116">
        <ele>918.9341</ele>
        <time>2014-09-01T08:51:20Z</time>
      </trkpt>
      <trkpt lat="46.03163" lon="6.77114">
        <ele>918.9341</ele>
        <time>2014-09-01T08:51:25Z</time>
      </trkpt>
      <trkpt lat="46.03161" lon="6.77113">
        <ele>921.34955</ele>
        <time>2014-09-01T08:51:30Z</time>
      </trkpt>
      <trkpt lat="46.03152" lon="6.77104">
        <ele>923.60736</ele>
        <time>2014-09-01T08:51:35Z</time>
      </trkpt>
      <trkpt lat="46.03151" lon="6.77106">
        <ele>923.60736</ele>
        <time>2014-09-01T08:51:40Z</time>
      </trkpt>
      <trkpt lat="46.03149" lon="6.77106">
        <ele>923.60736</ele>
        <time>2014-09-01T08:51:45Z</time>
      </trkpt>
      <trkpt lat="46.03145" lon="6.77105">
        <ele>923.60736</ele>
        <time>2014-09-01T08:51:50Z</time>
      </trkpt>
      <trkpt lat="46.03136" lon="6.771">
        <ele>926.49274</ele>
        <time>2014-09-01T08:51:55Z</time>
      </trkpt>
      <trkpt lat="46.03135" lon="6.77103">
        <ele>926.49274</ele>
        <time>2014-09-01T08:52:00Z</time>
      </trkpt>
      <trkpt lat="46.03133" lon="6.77104">
        <ele>926.49274</ele>
        <time>2014-09-01T08:52:05Z</time>
      </trkpt>
      <trkpt lat="46.03132" lon="6.77106">
        <ele>926.49274</ele>
        <time>2014-09-01T08:52:10Z</time>
      </trkpt>
      <trkpt lat="46.0313" lon="6.77105">
        <ele>926.49274</ele>
        <time>2014-09-01T08:52:15Z</time>
      </trkpt>
      <trkpt lat="46.0313" lon="6.77105">
        <ele>926.49274</ele>
        <time>2014-09-01T08:52:20Z</time>
      </trkpt>
      <trkpt lat="46.0313" lon="6.77104">
        <ele>926.49274</ele>
        <time>2014-09-01T08:52:25Z</time>
      </trkpt>
      <trkpt lat="46.0313" lon="6.77105">
        <ele>930.5301</ele>
        <time>2014-09-01T08:52:30Z</time>
      </trkpt>
      <trkpt lat="46.03129" lon="6.77105">
        <ele>930.5301</ele>
        <time>2014-09-01T08:52:35Z</time>
      </trkpt>
      <trkpt lat="46.03125" lon="6.77107">
        <ele>930.5301</ele>
        <time>2014-09-01T08:52:40Z</time>
      </trkpt>
      <trkpt lat="46.03125" lon="6.77108">
        <ele>930.5301</ele>
        <time>2014-09-01T08:52:45Z</time>
      </trkpt>
      <trkpt lat="46.03124" lon="6.77109">
        <ele>930.5301</ele>
        <time>2014-09-01T08:52:50Z</time>
      </trkpt>
      <trkpt lat="46.0312" lon="6.77104">
        <ele>934.50146</ele>
        <time>2014-09-01T08:52:55Z</time>
      </trkpt>
      <trkpt lat="46.0312" lon="6.77104">
        <ele>934.50146</ele>
        <time>2014-09-01T08:53:00Z</time>
      </trkpt>
      <trkpt lat="46.03117" lon="6.77105">
        <ele>934.50146</ele>
        <time>2014-09-01T08:53:05Z</time>
      </trkpt>
      <trkpt lat="46.03117" lon="6.77105">
        <ele>934.50146</ele>
        <time>2014-09-01T08:53:10Z</time>
      </trkpt>
      <trkpt lat="46.03116" lon="6.77106">
        <ele>934.50146</ele>
        <time>2014-09-01T08:53:15Z</time>
      </trkpt>
      <trkpt lat="46.03114" lon="6.77106">
        <ele>934.50146</ele>
        <time>2014-09-01T08:53:20Z</time>
      </trkpt>
      <trkpt lat="46.03113" lon="6.77106">
        <ele>934.50146</ele>
        <time>2014-09-01T08:53:25Z</time>
      </trkpt>
      <trkpt lat="46.03103" lon="6.77103">
        <ele>937.97076</ele>
        <time>2014-09-01T08:53:30Z</time>
      </trkpt>
      <trkpt lat="46.031" lon="6.77101">
        <ele>937.97076</ele>
        <time>2014-09-01T08:53:35Z</time>
      </trkpt>
      <trkpt lat="46.03087" lon="6.77096">
        <ele>941.1264</ele>
        <time>2014-09-01T08:53:40Z</time>
      </trkpt>
      <trkpt lat="46.03087" lon="6.77096">
        <ele>941.1264</ele>
        <time>2014-09-01T08:53:45Z</time>
      </trkpt>
      <trkpt lat="46.03086" lon="6.77095">
        <ele>941.1264</ele>
        <time>2014-09-01T08:53:50Z</time>
      </trkpt>
      <trkpt lat="46.03083" lon="6.77094">
        <ele>941.1264</ele>
        <time>2014-09-01T08:53:55Z</time>
      </trkpt>
      <trkpt lat="46.03083" lon="6.77094">
        <ele>941.1264</ele>
        <time>2014-09-01T08:54:00Z</time>
      </trkpt>
      <trkpt lat="46.03082" lon="6.77094">
        <ele>941.1264</ele>
        <time>2014-09-01T08:54:10Z</time>
      </trkpt>
      <trkpt lat="46.03079" lon="6.77097">
        <ele>944.1295</ele>
        <time>2014-09-01T08:54:15Z</time>
      </trkpt>
      <trkpt lat="46.03079" lon="6.77098">
        <ele>944.1295</ele>
        <time>2014-09-01T08:54:20Z</time>
      </trkpt>
      <trkpt lat="46.03079" lon="6.77098">
        <ele>944.1295</ele>
        <time>2014-09-01T08:54:25Z</time>
      </trkpt>
      <trkpt lat="46.03073" lon="6.77097">
        <ele>944.1295</ele>
        <time>2014-09-01T08:54:30Z</time>
      </trkpt>
      <trkpt lat="46.03068" lon="6.771">
        <ele>946.7699</ele>
        <time>2014-09-01T08:54:35Z</time>
      </trkpt>
      <trkpt lat="46.03061" lon="6.77095">
        <ele>946.7699</ele>
        <time>2014-09-01T08:54:40Z</time>
      </trkpt>
      <trkpt lat="46.0306" lon="6.77096">
        <ele>946.7699</ele>
        <time>2014-09-01T08:54:45Z</time>
      </trkpt>
      <trkpt lat="46.03056" lon="6.77094">
        <ele>949.0558</ele>
        <time>2014-09-01T08:54:50Z</time>
      </trkpt>
      <trkpt lat="46.03052" lon="6.77089">
        <ele>949.0558</ele>
        <time>2014-09-01T08:54:55Z</time>
      </trkpt>
      <trkpt lat="46.03049" lon="6.77086">
        <ele>949.0558</ele>
        <time>2014-09-01T08:55:00Z</time>
      </trkpt>
      <trkpt lat="46.03046" lon="6.77086">
        <ele>951.18335</ele>
        <time>2014-09-01T08:55:05Z</time>
      </trkpt>
      <trkpt lat="46.03043" lon="6.77083">
        <ele>951.18335</ele>
        <time>2014-09-01T08:55:10Z</time>
      </trkpt>
      <trkpt lat="46.0304" lon="6.77076">
        <ele>952.90265</ele>
        <time>2014-09-01T08:55:15Z</time>
      </trkpt>
      <trkpt lat="46.03033" lon="6.77066">
        <ele>954.387</ele>
        <time>2014-09-01T08:55:20Z</time>
      </trkpt>
      <trkpt lat="46.03031" lon="6.77064">
        <ele>954.387</ele>
        <time>2014-09-01T08:55:25Z</time>
      </trkpt>
      <trkpt lat="46.0303" lon="6.77064">
        <ele>954.387</ele>
        <time>2014-09-01T08:55:30Z</time>
      </trkpt>
      <trkpt lat="46.03027" lon="6.77067">
        <ele>954.387</ele>
        <time>2014-09-01T08:55:35Z</time>
      </trkpt>
      <trkpt lat="46.03026" lon="6.77067">
        <ele>954.387</ele>
        <time>2014-09-01T08:55:40Z</time>
      </trkpt>
      <trkpt lat="46.03025" lon="6.77068">
        <ele>954.387</ele>
        <time>2014-09-01T08:55:45Z</time>
      </trkpt>
      <trkpt lat="46.03024" lon="6.7707">
        <ele>955.5529</ele>
        <time>2014-09-01T08:55:50Z</time>
      </trkpt>
      <trkpt lat="46.03022" lon="6.77071">
        <ele>955.5529</ele>
        <time>2014-09-01T08:55:55Z</time>
      </trkpt>
      <trkpt lat="46.03018" lon="6.77071">
        <ele>955.5529</ele>
        <time>2014-09-01T08:56:00Z</time>
      </trkpt>
      <trkpt lat="46.03014" lon="6.77072">
        <ele>956.55457</ele>
        <time>2014-09-01T08:56:05Z</time>
      </trkpt>
      <trkpt lat="46.03013" lon="6.77073">
        <ele>956.55457</ele>
        <time>2014-09-01T08:56:10Z</time>
      </trkpt>
      <trkpt lat="46.03011" lon="6.77073">
        <ele>956.55457</ele>
        <time>2014-09-01T08:56:15Z</time>
      </trkpt>
      <trkpt lat="46.03011" lon="6.77073">
        <ele>956.55457</ele>
        <time>2014-09-01T08:56:20Z</time>
      </trkpt>
      <trkpt lat="46.03011" lon="6.77074">
        <ele>956.55457</ele>
        <time>2014-09-01T08:56:25Z</time>
      </trkpt>
      <trkpt lat="46.03011" lon="6.77074">
        <ele>956.55457</ele>
        <time>2014-09-01T08:56:30Z</time>
      </trkpt>
      <trkpt lat="46.0301" lon="6.77076">
        <ele>956.55457</ele>
        <time>2014-09-01T08:56:35Z</time>
      </trkpt>
      <trkpt lat="46.03007" lon="6.77077">
        <ele>956.55457</ele>
        <time>2014-09-01T08:56:40Z</time>
      </trkpt>
      <trkpt lat="46.03007" lon="6.77078">
        <ele>956.55457</ele>
        <time>2014-09-01T08:56:45Z</time>
      </trkpt>
      <trkpt lat="46.03" lon="6.7708">
        <ele>957.95337</ele>
        <time>2014-09-01T08:56:50Z</time>
      </trkpt>
      <trkpt lat="46.03" lon="6.7708">
        <ele>957.95337</ele>
        <time>2014-09-01T08:56:55Z</time>
      </trkpt>
      <trkpt lat="46.02999" lon="6.7708">
        <ele>957.95337</ele>
        <time>2014-09-01T08:57:00Z</time>
      </trkpt>
      <trkpt lat="46.02998" lon="6.77081">
        <ele>957.95337</ele>
        <time>2014-09-01T08:57:05Z</time>
      </trkpt>
      <trkpt lat="46.02996" lon="6.77084">
        <ele>957.95337</ele>
        <time>2014-09-01T08:57:10Z</time>
      </trkpt>
      <trkpt lat="46.02982" lon="6.77087">
        <ele>959.087</ele>
        <time>2014-09-01T08:57:15Z</time>
      </trkpt>
      <trkpt lat="46.02976" lon="6.77088">
        <ele>959.087</ele>
        <time>2014-09-01T08:57:20Z</time>
      </trkpt>
      <trkpt lat="46.02971" lon="6.77095">
        <ele>960.207</ele>
        <time>2014-09-01T08:57:25Z</time>
      </trkpt>
      <trkpt lat="46.02965" lon="6.77096">
        <ele>960.207</ele>
        <time>2014-09-01T08:57:30Z</time>
      </trkpt>
      <trkpt lat="46.0296" lon="6.77102">
        <ele>961.3451</ele>
        <time>2014-09-01T08:57:35Z</time>
      </trkpt>
      <trkpt lat="46.0296" lon="6.77102">
        <ele>961.3451</ele>
        <time>2014-09-01T08:57:40Z</time>
      </trkpt>
      <trkpt lat="46.0296" lon="6.77106">
        <ele>961.3451</ele>
        <time>2014-09-01T08:57:45Z</time>
      </trkpt>
      <trkpt lat="46.02959" lon="6.7711">
        <ele>961.3451</ele>
        <time>2014-09-01T08:57:50Z</time>
      </trkpt>
      <trkpt lat="46.02954" lon="6.77113">
        <ele>962.3722</ele>
        <time>2014-09-01T08:57:55Z</time>
      </trkpt>
      <trkpt lat="46.02948" lon="6.77115">
        <ele>962.3722</ele>
        <time>2014-09-01T08:58:00Z</time>
      </trkpt>
      <trkpt lat="46.02943" lon="6.77113">
        <ele>963.19775</ele>
        <time>2014-09-01T08:58:05Z</time>
      </trkpt>
      <trkpt lat="46.02941" lon="6.77115">
        <ele>963.19775</ele>
        <time>2014-09-01T08:58:10Z</time>
      </trkpt>
      <trkpt lat="46.02941" lon="6.77115">
        <ele>963.19775</ele>
        <time>2014-09-01T08:58:15Z</time>
      </trkpt>
      <trkpt lat="46.02936" lon="6.77116">
        <ele>963.19775</ele>
        <time>2014-09-01T08:58:20Z</time>
      </trkpt>
      <trkpt lat="46.02931" lon="6.77116">
        <ele>963.6522</ele>
        <time>2014-09-01T08:58:25Z</time>
      </trkpt>
      <trkpt lat="46.02931" lon="6.77116">
        <ele>963.6522</ele>
        <time>2014-09-01T08:58:30Z</time>
      </trkpt>
      <trkpt lat="46.0293" lon="6.77116">
        <ele>963.6522</ele>
        <time>2014-09-01T08:58:40Z</time>
      </trkpt>
      <trkpt lat="46.0293" lon="6.77116">
        <ele>963.6522</ele>
        <time>2014-09-01T08:58:45Z</time>
      </trkpt>
      <trkpt lat="46.02927" lon="6.77112">
        <ele>963.6522</ele>
        <time>2014-09-01T08:59:20Z</time>
      </trkpt>
      <trkpt lat="46.02927" lon="6.77112">
        <ele>963.6522</ele>
        <time>2014-09-01T08:59:25Z</time>
      </trkpt>
      <trkpt lat="46.02924" lon="6.77112">
        <ele>963.6522</ele>
        <time>2014-09-01T09:00:15Z</time>
      </trkpt>
      <trkpt lat="46.0292" lon="6.7711">
        <ele>963.6803</ele>
        <time>2014-09-01T09:00:20Z</time>
      </trkpt>
      <trkpt lat="46.0292" lon="6.7711">
        <ele>963.6803</ele>
        <time>2014-09-01T09:00:25Z</time>
      </trkpt>
      <trkpt lat="46.02919" lon="6.77109">
        <ele>963.6803</ele>
        <time>2014-09-01T09:00:35Z</time>
      </trkpt>
      <trkpt lat="46.02918" lon="6.7711">
        <ele>963.6803</ele>
        <time>2014-09-01T09:00:40Z</time>
      </trkpt>
      <trkpt lat="46.02916" lon="6.77109">
        <ele>963.6803</ele>
        <time>2014-09-01T09:00:45Z</time>
      </trkpt>
      <trkpt lat="46.02916" lon="6.77109">
        <ele>963.6803</ele>
        <time>2014-09-01T09:00:50Z</time>
      </trkpt>
      <trkpt lat="46.02913" lon="6.77109">
        <ele>963.6803</ele>
        <time>2014-09-01T09:00:55Z</time>
      </trkpt>
      <trkpt lat="46.02912" lon="6.77111">
        <ele>963.6803</ele>
        <time>2014-09-01T09:01:00Z</time>
      </trkpt>
      <trkpt lat="46.0291" lon="6.77111">
        <ele>964.15454</ele>
        <time>2014-09-01T09:01:05Z</time>
      </trkpt>
      <trkpt lat="46.02902" lon="6.77117">
        <ele>964.4985</ele>
        <time>2014-09-01T09:01:10Z</time>
      </trkpt>
      <trkpt lat="46.02901" lon="6.77118">
        <ele>964.4985</ele>
        <time>2014-09-01T09:01:15Z</time>
      </trkpt>
      <trkpt lat="46.02901" lon="6.77118">
        <ele>964.4985</ele>
        <time>2014-09-01T09:01:20Z</time>
      </trkpt>
      <trkpt lat="46.02899" lon="6.77117">
        <ele>964.4985</ele>
        <time>2014-09-01T09:01:30Z</time>
      </trkpt>
      <trkpt lat="46.02899" lon="6.77117">
        <ele>964.4985</ele>
        <time>2014-09-01T09:01:35Z</time>
      </trkpt>
      <trkpt lat="46.02893" lon="6.77112">
        <ele>964.6829</ele>
        <time>2014-09-01T09:02:10Z</time>
      </trkpt>
      <trkpt lat="46.02891" lon="6.77112">
        <ele>964.6829</ele>
        <time>2014-09-01T09:02:15Z</time>
      </trkpt>
      <trkpt lat="46.02891" lon="6.77112">
        <ele>964.6829</ele>
        <time>2014-09-01T09:02:20Z</time>
      </trkpt>
      <trkpt lat="46.02891" lon="6.77112">
        <ele>964.6829</ele>
        <time>2014-09-01T09:02:35Z</time>
      </trkpt>
      <trkpt lat="46.02891" lon="6.77111">
        <ele>964.6829</ele>
        <time>2014-09-01T09:02:40Z</time>
      </trkpt>
      <trkpt lat="46.02891" lon="6.77111">
        <ele>964.6829</ele>
        <time>2014-09-01T09:02:45Z</time>
      </trkpt>
      <trkpt lat="46.02891" lon="6.77112">
        <ele>964.6829</ele>
        <time>2014-09-01T09:03:20Z</time>
      </trkpt>
      <trkpt lat="46.0289" lon="6.77112">
        <ele>964.6829</ele>
        <time>2014-09-01T09:03:25Z</time>
      </trkpt>
      <trkpt lat="46.0289" lon="6.77112">
        <ele>964.6829</ele>
        <time>2014-09-01T09:03:30Z</time>
      </trkpt>
      <trkpt lat="46.0289" lon="6.77112">
        <ele>964.6829</ele>
        <time>2014-09-01T09:03:35Z</time>
      </trkpt>
      <trkpt lat="46.02889" lon="6.77112">
        <ele>964.6829</ele>
        <time>2014-09-01T09:03:40Z</time>
      </trkpt>
      <trkpt lat="46.02889" lon="6.77112">
        <ele>964.6829</ele>
        <time>2014-09-01T09:03:45Z</time>
      </trkpt>
      <trkpt lat="46.02888" lon="6.77112">
        <ele>964.6829</ele>
        <time>2014-09-01T09:04:25Z</time>
      </trkpt>
      <trkpt lat="46.02888" lon="6.77112">
        <ele>964.6829</ele>
        <time>2014-09-01T09:04:30Z</time>
      </trkpt>
      <trkpt lat="46.02882" lon="6.77113">
        <ele>964.58026</ele>
        <time>2014-09-01T09:04:35Z</time>
      </trkpt>
      <trkpt lat="46.02881" lon="6.77114">
        <ele>964.58026</ele>
        <time>2014-09-01T09:04:40Z</time>
      </trkpt>
      <trkpt lat="46.02879" lon="6.77115">
        <ele>964.58026</ele>
        <time>2014-09-01T09:04:45Z</time>
      </trkpt>
      <trkpt lat="46.02877" lon="6.77118">
        <ele>964.58026</ele>
        <time>2014-09-01T09:04:50Z</time>
      </trkpt>
      <trkpt lat="46.02877" lon="6.77121">
        <ele>964.58026</ele>
        <time>2014-09-01T09:04:55Z</time>
      </trkpt>
      <trkpt lat="46.02877" lon="6.77125">
        <ele>964.419</ele>
        <time>2014-09-01T09:05:00Z</time>
      </trkpt>
      <trkpt lat="46.02876" lon="6.77134">
        <ele>964.419</ele>
        <time>2014-09-01T09:05:05Z</time>
      </trkpt>
      <trkpt lat="46.02876" lon="6.77137">
        <ele>964.419</ele>
        <time>2014-09-01T09:05:10Z</time>
      </trkpt>
      <trkpt lat="46.02876" lon="6.77142">
        <ele>964.3245</ele>
        <time>2014-09-01T09:05:15Z</time>
      </trkpt>
      <trkpt lat="46.02874" lon="6.77151">
        <ele>964.3245</ele>
        <time>2014-09-01T09:05:20Z</time>
      </trkpt>
      <trkpt lat="46.02874" lon="6.77159">
        <ele>964.19653</ele>
        <time>2014-09-01T09:05:25Z</time>
      </trkpt>
      <trkpt lat="46.02873" lon="6.77162">
        <ele>964.19653</ele>
        <time>2014-09-01T09:05:30Z</time>
      </trkpt>
      <trkpt lat="46.02869" lon="6.77171">
        <ele>964.1728</ele>
        <time>2014-09-01T09:05:35Z</time>
      </trkpt>
      <trkpt lat="46.02866" lon="6.7718">
        <ele>964.1728</ele>
        <time>2014-09-01T09:05:40Z</time>
      </trkpt>
      <trkpt lat="46.02859" lon="6.77187">
        <ele>964.3661</ele>
        <time>2014-09-01T09:05:45Z</time>
      </trkpt>
      <trkpt lat="46.02859" lon="6.77192">
        <ele>964.3661</ele>
        <time>2014-09-01T09:05:50Z</time>
      </trkpt>
      <trkpt lat="46.02855" lon="6.77198">
        <ele>964.4768</ele>
        <time>2014-09-01T09:05:55Z</time>
      </trkpt>
      <trkpt lat="46.02853" lon="6.77202">
        <ele>964.4768</ele>
        <time>2014-09-01T09:06:00Z</time>
      </trkpt>
      <trkpt lat="46.02852" lon="6.77204">
        <ele>964.4768</ele>
        <time>2014-09-01T09:06:05Z</time>
      </trkpt>
      <trkpt lat="46.02843" lon="6.77209">
        <ele>964.32825</ele>
        <time>2014-09-01T09:06:10Z</time>
      </trkpt>
      <trkpt lat="46.02839" lon="6.77217">
        <ele>964.32825</ele>
        <time>2014-09-01T09:06:15Z</time>
      </trkpt>
      <trkpt lat="46.02835" lon="6.77222">
        <ele>964.0601</ele>
        <time>2014-09-01T09:06:20Z</time>
      </trkpt>
      <trkpt lat="46.02833" lon="6.77226">
        <ele>964.0601</ele>
        <time>2014-09-01T09:06:25Z</time>
      </trkpt>
      <trkpt lat="46.02829" lon="6.77228">
        <ele>964.0601</ele>
        <time>2014-09-01T09:06:30Z</time>
      </trkpt>
      <trkpt lat="46.02829" lon="6.77228">
        <ele>964.0601</ele>
        <time>2014-09-01T09:06:35Z</time>
      </trkpt>
      <trkpt lat="46.02828" lon="6.77228">
        <ele>964.0601</ele>
        <time>2014-09-01T09:06:45Z</time>
      </trkpt>
      <trkpt lat="46.02828" lon="6.77228">
        <ele>964.0601</ele>
        <time>2014-09-01T09:06:50Z</time>
      </trkpt>
      <trkpt lat="46.02828" lon="6.77228">
        <ele>964.09015</ele>
        <time>2014-09-01T09:07:05Z</time>
      </trkpt>
      <trkpt lat="46.02827" lon="6.77227">
        <ele>964.09015</ele>
        <time>2014-09-01T09:07:10Z</time>
      </trkpt>
      <trkpt lat="46.02826" lon="6.77226">
        <ele>964.09015</ele>
        <time>2014-09-01T09:07:15Z</time>
      </trkpt>
      <trkpt lat="46.02827" lon="6.77225">
        <ele>964.09015</ele>
        <time>2014-09-01T09:07:20Z</time>
      </trkpt>
      <trkpt lat="46.02826" lon="6.77225">
        <ele>964.09015</ele>
        <time>2014-09-01T09:07:25Z</time>
      </trkpt>
      <trkpt lat="46.02822" lon="6.77224">
        <ele>964.09015</ele>
        <time>2014-09-01T09:07:30Z</time>
      </trkpt>
      <trkpt lat="46.02819" lon="6.77226">
        <ele>965.1648</ele>
        <time>2014-09-01T09:07:35Z</time>
      </trkpt>
      <trkpt lat="46.02815" lon="6.77232">
        <ele>965.1648</ele>
        <time>2014-09-01T09:07:40Z</time>
      </trkpt>
      <trkpt lat="46.02815" lon="6.77233">
        <ele>965.1648</ele>
        <time>2014-09-01T09:07:45Z</time>
      </trkpt>
      <trkpt lat="46.02811" lon="6.77238">
        <ele>965.955</ele>
        <time>2014-09-01T09:07:50Z</time>
      </trkpt>
      <trkpt lat="46.02805" lon="6.7724">
        <ele>965.955</ele>
        <time>2014-09-01T09:07:55Z</time>
      </trkpt>
      <trkpt lat="46.028" lon="6.77249">
        <ele>966.4119</ele>
        <time>2014-09-01T09:08:00Z</time>
      </trkpt>
      <trkpt lat="46.02798" lon="6.77262">
        <ele>966.4119</ele>
        <time>2014-09-01T09:08:05Z</time>
      </trkpt>
      <trkpt lat="46.02799" lon="6.77268">
        <ele>966.73596</ele>
        <time>2014-09-01T09:08:10Z</time>
      </trkpt>
      <trkpt lat="46.02797" lon="6.77275">
        <ele>966.73596</ele>
        <time>2014-09-01T09:08:15Z</time>
      </trkpt>
      <trkpt lat="46.02793" lon="6.77286">
        <ele>967.185</ele>
        <time>2014-09-01T09:08:20Z</time>
      </trkpt>
      <trkpt lat="46.02793" lon="6.7729">
        <ele>967.185</ele>
        <time>2014-09-01T09:08:25Z</time>
      </trkpt>
      <trkpt lat="46.02793" lon="6.77298">
        <ele>967.185</ele>
        <time>2014-09-01T09:08:30Z</time>
      </trkpt>
      <trkpt lat="46.02795" lon="6.77304">
        <ele>968.214</ele>
        <time>2014-09-01T09:08:35Z</time>
      </trkpt>
      <trkpt lat="46.02796" lon="6.77308">
        <ele>968.214</ele>
        <time>2014-09-01T09:08:40Z</time>
      </trkpt>
      <trkpt lat="46.028" lon="6.77312">
        <ele>968.214</ele>
        <time>2014-09-01T09:08:45Z</time>
      </trkpt>
      <trkpt lat="46.02806" lon="6.77319">
        <ele>969.8966</ele>
        <time>2014-09-01T09:08:50Z</time>
      </trkpt>
      <trkpt lat="46.02812" lon="6.77322">
        <ele>969.8966</ele>
        <time>2014-09-01T09:08:55Z</time>
      </trkpt>
      <trkpt lat="46.02817" lon="6.77329">
        <ele>971.8525</ele>
        <time>2014-09-01T09:09:00Z</time>
      </trkpt>
      <trkpt lat="46.02817" lon="6.77328">
        <ele>971.8525</ele>
        <time>2014-09-01T09:09:05Z</time>
      </trkpt>
      <trkpt lat="46.02822" lon="6.77335">
        <ele>971.8525</ele>
        <time>2014-09-01T09:09:10Z</time>
      </trkpt>
      <trkpt lat="46.02826" lon="6.77348">
        <ele>974.1895</ele>
        <time>2014-09-01T09:09:15Z</time>
      </trkpt>
      <trkpt lat="46.02826" lon="6.77355">
        <ele>974.1895</ele>
        <time>2014-09-01T09:09:20Z</time>
      </trkpt>
      <trkpt lat="46.02825" lon="6.77361">
        <ele>976.6895</ele>
        <time>2014-09-01T09:09:25Z</time>
      </trkpt>
      <trkpt lat="46.02824" lon="6.77363">
        <ele>976.6895</ele>
        <time>2014-09-01T09:09:30Z</time>
      </trkpt>
      <trkpt lat="46.02822" lon="6.77367">
        <ele>976.6895</ele>
        <time>2014-09-01T09:09:35Z</time>
      </trkpt>
      <trkpt lat="46.02818" lon="6.77369">
        <ele>979.2074</ele>
        <time>2014-09-01T09:09:40Z</time>
      </trkpt>
      <trkpt lat="46.02818" lon="6.77374">
        <ele>979.2074</ele>
        <time>2014-09-01T09:09:45Z</time>
      </trkpt>
      <trkpt lat="46.02815" lon="6.77377">
        <ele>979.2074</ele>
        <time>2014-09-01T09:09:50Z</time>
      </trkpt>
      <trkpt lat="46.02811" lon="6.7738">
        <ele>981.53656</ele>
        <time>2014-09-01T09:09:55Z</time>
      </trkpt>
      <trkpt lat="46.02812" lon="6.77383">
        <ele>981.53656</ele>
        <time>2014-09-01T09:10:00Z</time>
      </trkpt>
      <trkpt lat="46.02808" lon="6.77391">
        <ele>981.53656</ele>
        <time>2014-09-01T09:10:05Z</time>
      </trkpt>
      <trkpt lat="46.02807" lon="6.77395">
        <ele>983.7454</ele>
        <time>2014-09-01T09:10:10Z</time>
      </trkpt>
      <trkpt lat="46.02806" lon="6.77402">
        <ele>983.7454</ele>
        <time>2014-09-01T09:10:15Z</time>
      </trkpt>
      <trkpt lat="46.02802" lon="6.77408">
        <ele>985.6384</ele>
        <time>2014-09-01T09:10:20Z</time>
      </trkpt>
      <trkpt lat="46.02802" lon="6.77411">
        <ele>985.6384</ele>
        <time>2014-09-01T09:10:25Z</time>
      </trkpt>
      <trkpt lat="46.02796" lon="6.77416">
        <ele>987.2945</ele>
        <time>2014-09-01T09:10:30Z</time>
      </trkpt>
      <trkpt lat="46.02791" lon="6.77418">
        <ele>987.2945</ele>
        <time>2014-09-01T09:10:35Z</time>
      </trkpt>
      <trkpt lat="46.02787" lon="6.77421">
        <ele>988.65784</ele>
        <time>2014-09-01T09:10:40Z</time>
      </trkpt>
      <trkpt lat="46.02785" lon="6.77426">
        <ele>988.65784</ele>
        <time>2014-09-01T09:10:45Z</time>
      </trkpt>
      <trkpt lat="46.02782" lon="6.77427">
        <ele>988.65784</ele>
        <time>2014-09-01T09:10:50Z</time>
      </trkpt>
      <trkpt lat="46.0278" lon="6.77427">
        <ele>989.8072</ele>
        <time>2014-09-01T09:10:55Z</time>
      </trkpt>
      <trkpt lat="46.02779" lon="6.77427">
        <ele>989.8072</ele>
        <time>2014-09-01T09:11:10Z</time>
      </trkpt>
      <trkpt lat="46.02777" lon="6.77426">
        <ele>989.8072</ele>
        <time>2014-09-01T09:11:15Z</time>
      </trkpt>
      <trkpt lat="46.02771" lon="6.77424">
        <ele>990.58545</ele>
        <time>2014-09-01T09:11:20Z</time>
      </trkpt>
      <trkpt lat="46.0277" lon="6.77423">
        <ele>990.58545</ele>
        <time>2014-09-01T09:11:25Z</time>
      </trkpt>
      <trkpt lat="46.0277" lon="6.77423">
        <ele>990.58545</ele>
        <time>2014-09-01T09:11:30Z</time>
      </trkpt>
      <trkpt lat="46.02769" lon="6.77422">
        <ele>990.58545</ele>
        <time>2014-09-01T09:11:35Z</time>
      </trkpt>
      <trkpt lat="46.02768" lon="6.77421">
        <ele>990.58545</ele>
        <time>2014-09-01T09:11:40Z</time>
      </trkpt>
      <trkpt lat="46.02768" lon="6.77421">
        <ele>990.58545</ele>
        <time>2014-09-01T09:11:45Z</time>
      </trkpt>
      <trkpt lat="46.02768" lon="6.77421">
        <ele>990.58545</ele>
        <time>2014-09-01T09:11:50Z</time>
      </trkpt>
      <trkpt lat="46.02767" lon="6.7742">
        <ele>990.58545</ele>
        <time>2014-09-01T09:11:55Z</time>
      </trkpt>
      <trkpt lat="46.02767" lon="6.7742">
        <ele>990.58545</ele>
        <time>2014-09-01T09:12:00Z</time>
      </trkpt>
      <trkpt lat="46.02766" lon="6.77419">
        <ele>990.58545</ele>
        <time>2014-09-01T09:12:05Z</time>
      </trkpt>
      <trkpt lat="46.02766" lon="6.77419">
        <ele>990.58545</ele>
        <time>2014-09-01T09:12:10Z</time>
      </trkpt>
      <trkpt lat="46.02766" lon="6.77419">
        <ele>990.58545</ele>
        <time>2014-09-01T09:12:20Z</time>
      </trkpt>
      <trkpt lat="46.02765" lon="6.7742">
        <ele>990.58545</ele>
        <time>2014-09-01T09:12:25Z</time>
      </trkpt>
      <trkpt lat="46.02765" lon="6.7742">
        <ele>990.58545</ele>
        <time>2014-09-01T09:12:30Z</time>
      </trkpt>
      <trkpt lat="46.02762" lon="6.77421">
        <ele>992.18854</ele>
        <time>2014-09-01T09:12:35Z</time>
      </trkpt>
      <trkpt lat="46.02758" lon="6.7742">
        <ele>992.18854</ele>
        <time>2014-09-01T09:12:40Z</time>
      </trkpt>
      <trkpt lat="46.02755" lon="6.77416">
        <ele>992.18854</ele>
        <time>2014-09-01T09:12:45Z</time>
      </trkpt>
      <trkpt lat="46.02755" lon="6.77416">
        <ele>993.70447</ele>
        <time>2014-09-01T09:12:50Z</time>
      </trkpt>
      <trkpt lat="46.02749" lon="6.7741">
        <ele>993.70447</ele>
        <time>2014-09-01T09:12:55Z</time>
      </trkpt>
      <trkpt lat="46.02738" lon="6.77401">
        <ele>995.16766</ele>
        <time>2014-09-01T09:13:00Z</time>
      </trkpt>
      <trkpt lat="46.02732" lon="6.77401">
        <ele>995.16766</ele>
        <time>2014-09-01T09:13:05Z</time>
      </trkpt>
      <trkpt lat="46.02728" lon="6.77403">
        <ele>996.7542</ele>
        <time>2014-09-01T09:13:10Z</time>
      </trkpt>
      <trkpt lat="46.02726" lon="6.77403">
        <ele>996.7542</ele>
        <time>2014-09-01T09:13:15Z</time>
      </trkpt>
      <trkpt lat="46.02722" lon="6.77403">
        <ele>996.7542</ele>
        <time>2014-09-01T09:13:20Z</time>
      </trkpt>
      <trkpt lat="46.02722" lon="6.77403">
        <ele>996.7542</ele>
        <time>2014-09-01T09:13:25Z</time>
      </trkpt>
      <trkpt lat="46.02722" lon="6.77403">
        <ele>996.7542</ele>
        <time>2014-09-01T09:13:30Z</time>
      </trkpt>
      <trkpt lat="46.02722" lon="6.77403">
        <ele>996.7542</ele>
        <time>2014-09-01T09:13:35Z</time>
      </trkpt>
      <trkpt lat="46.0272" lon="6.77404">
        <ele>996.7542</ele>
        <time>2014-09-01T09:13:50Z</time>
      </trkpt>
      <trkpt lat="46.0272" lon="6.77404">
        <ele>996.7542</ele>
        <time>2014-09-01T09:13:55Z</time>
      </trkpt>
      <trkpt lat="46.02712" lon="6.77406">
        <ele>998.5693</ele>
        <time>2014-09-01T09:14:00Z</time>
      </trkpt>
      <trkpt lat="46.02707" lon="6.77419">
        <ele>1000.39264</ele>
        <time>2014-09-01T09:14:05Z</time>
      </trkpt>
      <trkpt lat="46.02698" lon="6.77431">
        <ele>1002.20764</ele>
        <time>2014-09-01T09:14:10Z</time>
      </trkpt>
      <trkpt lat="46.02697" lon="6.77431">
        <ele>1002.20764</ele>
        <time>2014-09-01T09:14:15Z</time>
      </trkpt>
      <trkpt lat="46.02695" lon="6.77441">
        <ele>1002.20764</ele>
        <time>2014-09-01T09:14:20Z</time>
      </trkpt>
      <trkpt lat="46.02694" lon="6.77444">
        <ele>1004.27264</ele>
        <time>2014-09-01T09:14:25Z</time>
      </trkpt>
      <trkpt lat="46.02691" lon="6.77452">
        <ele>1004.27264</ele>
        <time>2014-09-01T09:14:30Z</time>
      </trkpt>
      <trkpt lat="46.02691" lon="6.77454">
        <ele>1004.27264</ele>
        <time>2014-09-01T09:14:35Z</time>
      </trkpt>
      <trkpt lat="46.02691" lon="6.77454">
        <ele>1004.27264</ele>
        <time>2014-09-01T09:14:40Z</time>
      </trkpt>
      <trkpt lat="46.0269" lon="6.77454">
        <ele>1004.27264</ele>
        <time>2014-09-01T09:14:45Z</time>
      </trkpt>
      <trkpt lat="46.0269" lon="6.77454">
        <ele>1004.27264</ele>
        <time>2014-09-01T09:14:50Z</time>
      </trkpt>
      <trkpt lat="46.02686" lon="6.77449">
        <ele>1006.3652</ele>
        <time>2014-09-01T09:15:00Z</time>
      </trkpt>
      <trkpt lat="46.02686" lon="6.77449">
        <ele>1006.3652</ele>
        <time>2014-09-01T09:15:05Z</time>
      </trkpt>
      <trkpt lat="46.02685" lon="6.7745">
        <ele>1006.3652</ele>
        <time>2014-09-01T09:15:10Z</time>
      </trkpt>
      <trkpt lat="46.02686" lon="6.7745">
        <ele>1006.3652</ele>
        <time>2014-09-01T09:15:30Z</time>
      </trkpt>
      <trkpt lat="46.02684" lon="6.77449">
        <ele>1006.3652</ele>
        <time>2014-09-01T09:15:35Z</time>
      </trkpt>
      <trkpt lat="46.02683" lon="6.7745">
        <ele>1006.3652</ele>
        <time>2014-09-01T09:15:40Z</time>
      </trkpt>
      <trkpt lat="46.0268" lon="6.77452">
        <ele>1006.3652</ele>
        <time>2014-09-01T09:15:45Z</time>
      </trkpt>
      <trkpt lat="46.0268" lon="6.77452">
        <ele>1006.3652</ele>
        <time>2014-09-01T09:15:50Z</time>
      </trkpt>
      <trkpt lat="46.02679" lon="6.77453">
        <ele>1006.3652</ele>
        <time>2014-09-01T09:15:55Z</time>
      </trkpt>
      <trkpt lat="46.02677" lon="6.77453">
        <ele>1009.11487</ele>
        <time>2014-09-01T09:16:00Z</time>
      </trkpt>
      <trkpt lat="46.02676" lon="6.77455">
        <ele>1009.11487</ele>
        <time>2014-09-01T09:16:05Z</time>
      </trkpt>
      <trkpt lat="46.02674" lon="6.77457">
        <ele>1009.11487</ele>
        <time>2014-09-01T09:16:10Z</time>
      </trkpt>
      <trkpt lat="46.02674" lon="6.77459">
        <ele>1009.11487</ele>
        <time>2014-09-01T09:16:15Z</time>
      </trkpt>
      <trkpt lat="46.02675" lon="6.7746">
        <ele>1009.11487</ele>
        <time>2014-09-01T09:16:20Z</time>
      </trkpt>
      <trkpt lat="46.02674" lon="6.77465">
        <ele>1011.7488</ele>
        <time>2014-09-01T09:16:25Z</time>
      </trkpt>
      <trkpt lat="46.02669" lon="6.77471">
        <ele>1011.7488</ele>
        <time>2014-09-01T09:16:30Z</time>
      </trkpt>
      <trkpt lat="46.02663" lon="6.77474">
        <ele>1014.1562</ele>
        <time>2014-09-01T09:16:35Z</time>
      </trkpt>
      <trkpt lat="46.02663" lon="6.7748">
        <ele>1014.1562</ele>
        <time>2014-09-01T09:16:40Z</time>
      </trkpt>
      <trkpt lat="46.02661" lon="6.77485">
        <ele>1014.1562</ele>
        <time>2014-09-01T09:16:45Z</time>
      </trkpt>
      <trkpt lat="46.02661" lon="6.77485">
        <ele>1014.1562</ele>
        <time>2014-09-01T09:16:50Z</time>
      </trkpt>
      <trkpt lat="46.02658" lon="6.77489">
        <ele>1016.3507</ele>
        <time>2014-09-01T09:16:55Z</time>
      </trkpt>
      <trkpt lat="46.02649" lon="6.77503">
        <ele>1018.35974</ele>
        <time>2014-09-01T09:17:00Z</time>
      </trkpt>
      <trkpt lat="46.02649" lon="6.77506">
        <ele>1018.35974</ele>
        <time>2014-09-01T09:17:05Z</time>
      </trkpt>
      <trkpt lat="46.02646" lon="6.77506">
        <ele>1018.35974</ele>
        <time>2014-09-01T09:17:10Z</time>
      </trkpt>
      <trkpt lat="46.02644" lon="6.77506">
        <ele>1018.35974</ele>
        <time>2014-09-01T09:17:15Z</time>
      </trkpt>
      <trkpt lat="46.02642" lon="6.77505">
        <ele>1020.20953</ele>
        <time>2014-09-01T09:17:20Z</time>
      </trkpt>
      <trkpt lat="46.02636" lon="6.77505">
        <ele>1020.20953</ele>
        <time>2014-09-01T09:17:25Z</time>
      </trkpt>
      <trkpt lat="46.02635" lon="6.77506">
        <ele>1020.20953</ele>
        <time>2014-09-01T09:17:30Z</time>
      </trkpt>
      <trkpt lat="46.02635" lon="6.77505">
        <ele>1020.20953</ele>
        <time>2014-09-01T09:17:35Z</time>
      </trkpt>
      <trkpt lat="46.02635" lon="6.77505">
        <ele>1020.20953</ele>
        <time>2014-09-01T09:17:40Z</time>
      </trkpt>
      <trkpt lat="46.02633" lon="6.77511">
        <ele>1022.0687</ele>
        <time>2014-09-01T09:17:45Z</time>
      </trkpt>
      <trkpt lat="46.02627" lon="6.77514">
        <ele>1022.0687</ele>
        <time>2014-09-01T09:17:50Z</time>
      </trkpt>
      <trkpt lat="46.02627" lon="6.77518">
        <ele>1022.0687</ele>
        <time>2014-09-01T09:17:55Z</time>
      </trkpt>
      <trkpt lat="46.02625" lon="6.7752">
        <ele>1023.79126</ele>
        <time>2014-09-01T09:18:00Z</time>
      </trkpt>
      <trkpt lat="46.02624" lon="6.7752">
        <ele>1023.79126</ele>
        <time>2014-09-01T09:18:05Z</time>
      </trkpt>
      <trkpt lat="46.02624" lon="6.7752">
        <ele>1023.79126</ele>
        <time>2014-09-01T09:18:10Z</time>
      </trkpt>
      <trkpt lat="46.02624" lon="6.77519">
        <ele>1023.79126</ele>
        <time>2014-09-01T09:18:15Z</time>
      </trkpt>
      <trkpt lat="46.02623" lon="6.77515">
        <ele>1023.79126</ele>
        <time>2014-09-01T09:18:20Z</time>
      </trkpt>
      <trkpt lat="46.02622" lon="6.77515">
        <ele>1023.79126</ele>
        <time>2014-09-01T09:18:25Z</time>
      </trkpt>
      <trkpt lat="46.02622" lon="6.77514">
        <ele>1023.79126</ele>
        <time>2014-09-01T09:18:30Z</time>
      </trkpt>
      <trkpt lat="46.02621" lon="6.7751">
        <ele>1023.79126</ele>
        <time>2014-09-01T09:18:35Z</time>
      </trkpt>
      <trkpt lat="46.02621" lon="6.77509">
        <ele>1025.5591</ele>
        <time>2014-09-01T09:18:40Z</time>
      </trkpt>
      <trkpt lat="46.02621" lon="6.77502">
        <ele>1025.5591</ele>
        <time>2014-09-01T09:18:45Z</time>
      </trkpt>
      <trkpt lat="46.0262" lon="6.77501">
        <ele>1025.5591</ele>
        <time>2014-09-01T09:18:50Z</time>
      </trkpt>
      <trkpt lat="46.02619" lon="6.775">
        <ele>1025.5591</ele>
        <time>2014-09-01T09:18:55Z</time>
      </trkpt>
      <trkpt lat="46.02618" lon="6.77495">
        <ele>1027.1373</ele>
        <time>2014-09-01T09:19:00Z</time>
      </trkpt>
      <trkpt lat="46.02617" lon="6.77492">
        <ele>1027.1373</ele>
        <time>2014-09-01T09:19:05Z</time>
      </trkpt>
      <trkpt lat="46.02616" lon="6.77488">
        <ele>1027.1373</ele>
        <time>2014-09-01T09:19:10Z</time>
      </trkpt>
      <trkpt lat="46.02616" lon="6.77488">
        <ele>1027.1373</ele>
        <time>2014-09-01T09:19:15Z</time>
      </trkpt>
      <trkpt lat="46.02616" lon="6.77488">
        <ele>1027.1373</ele>
        <time>2014-09-01T09:19:25Z</time>
      </trkpt>
      <trkpt lat="46.02613" lon="6.77488">
        <ele>1028.7411</ele>
        <time>2014-09-01T09:19:30Z</time>
      </trkpt>
      <trkpt lat="46.02612" lon="6.77488">
        <ele>1028.7411</ele>
        <time>2014-09-01T09:19:35Z</time>
      </trkpt>
      <trkpt lat="46.0261" lon="6.77485">
        <ele>1028.7411</ele>
        <time>2014-09-01T09:19:40Z</time>
      </trkpt>
      <trkpt lat="46.02606" lon="6.77481">
        <ele>1028.7411</ele>
        <time>2014-09-01T09:19:45Z</time>
      </trkpt>
      <trkpt lat="46.02606" lon="6.77478">
        <ele>1030.6565</ele>
        <time>2014-09-01T09:19:50Z</time>
      </trkpt>
      <trkpt lat="46.02606" lon="6.77478">
        <ele>1030.6565</ele>
        <time>2014-09-01T09:19:55Z</time>
      </trkpt>
      <trkpt lat="46.02606" lon="6.77476">
        <ele>1030.6565</ele>
        <time>2014-09-01T09:20:00Z</time>
      </trkpt>
      <trkpt lat="46.02607" lon="6.77469">
        <ele>1030.6565</ele>
        <time>2014-09-01T09:20:05Z</time>
      </trkpt>
      <trkpt lat="46.02607" lon="6.77467">
        <ele>1030.6565</ele>
        <time>2014-09-01T09:20:10Z</time>
      </trkpt>
      <trkpt lat="46.02602" lon="6.7746">
        <ele>1031.7218</ele>
        <time>2014-09-01T09:20:15Z</time>
      </trkpt>
      <trkpt lat="46.02598" lon="6.77453">
        <ele>1032.7871</ele>
        <time>2014-09-01T09:20:20Z</time>
      </trkpt>
      <trkpt lat="46.02597" lon="6.7745">
        <ele>1032.7871</ele>
        <time>2014-09-01T09:20:25Z</time>
      </trkpt>
      <trkpt lat="46.02597" lon="6.7743">
        <ele>1034.7983</ele>
        <time>2014-09-01T09:20:30Z</time>
      </trkpt>
      <trkpt lat="46.02598" lon="6.77422">
        <ele>1034.7983</ele>
        <time>2014-09-01T09:20:35Z</time>
      </trkpt>
      <trkpt lat="46.02598" lon="6.77422">
        <ele>1034.7983</ele>
        <time>2014-09-01T09:20:40Z</time>
      </trkpt>
      <trkpt lat="46.026" lon="6.77419">
        <ele>1034.7983</ele>
        <time>2014-09-01T09:20:45Z</time>
      </trkpt>
      <trkpt lat="46.026" lon="6.77417">
        <ele>1036.8271</ele>
        <time>2014-09-01T09:20:50Z</time>
      </trkpt>
      <trkpt lat="46.02597" lon="6.77416">
        <ele>1036.8271</ele>
        <time>2014-09-01T09:20:55Z</time>
      </trkpt>
      <trkpt lat="46.02587" lon="6.77414">
        <ele>1038.7411</ele>
        <time>2014-09-01T09:21:00Z</time>
      </trkpt>
      <trkpt lat="46.02579" lon="6.77415">
        <ele>1038.7411</ele>
        <time>2014-09-01T09:21:05Z</time>
      </trkpt>
      <trkpt lat="46.02578" lon="6.77421">
        <ele>1040.6774</ele>
        <time>2014-09-01T09:21:10Z</time>
      </trkpt>
      <trkpt lat="46.02571" lon="6.77424">
        <ele>1040.6774</ele>
        <time>2014-09-01T09:21:15Z</time>
      </trkpt>
      <trkpt lat="46.02565" lon="6.77432">
        <ele>1042.4891</ele>
        <time>2014-09-01T09:21:20Z</time>
      </trkpt>
      <trkpt lat="46.0256" lon="6.77439">
        <ele>1042.4891</ele>
        <time>2014-09-01T09:21:25Z</time>
      </trkpt>
      <trkpt lat="46.02554" lon="6.77443">
        <ele>1044.0261</ele>
        <time>2014-09-01T09:21:30Z</time>
      </trkpt>
      <trkpt lat="46.02547" lon="6.77443">
        <ele>1044.0261</ele>
        <time>2014-09-01T09:21:35Z</time>
      </trkpt>
      <trkpt lat="46.02544" lon="6.77442">
        <ele>1045.381</ele>
        <time>2014-09-01T09:21:40Z</time>
      </trkpt>
      <trkpt lat="46.02541" lon="6.7744">
        <ele>1045.381</ele>
        <time>2014-09-01T09:21:45Z</time>
      </trkpt>
      <trkpt lat="46.02538" lon="6.77439">
        <ele>1045.381</ele>
        <time>2014-09-01T09:21:50Z</time>
      </trkpt>
      <trkpt lat="46.02536" lon="6.77438">
        <ele>1045.381</ele>
        <time>2014-09-01T09:21:55Z</time>
      </trkpt>
      <trkpt lat="46.02533" lon="6.77438">
        <ele>1046.3082</ele>
        <time>2014-09-01T09:22:00Z</time>
      </trkpt>
      <trkpt lat="46.0253" lon="6.77437">
        <ele>1046.3082</ele>
        <time>2014-09-01T09:22:05Z</time>
      </trkpt>
      <trkpt lat="46.02524" lon="6.77436">
        <ele>1046.3082</ele>
        <time>2014-09-01T09:22:10Z</time>
      </trkpt>
      <trkpt lat="46.02524" lon="6.77436">
        <ele>1046.3082</ele>
        <time>2014-09-01T09:22:15Z</time>
      </trkpt>
      <trkpt lat="46.02523" lon="6.77439">
        <ele>1046.87</ele>
        <time>2014-09-01T09:22:20Z</time>
      </trkpt>
      <trkpt lat="46.02519" lon="6.7744">
        <ele>1046.87</ele>
        <time>2014-09-01T09:22:25Z</time>
      </trkpt>
      <trkpt lat="46.02514" lon="6.77441">
        <ele>1046.87</ele>
        <time>2014-09-01T09:22:30Z</time>
      </trkpt>
      <trkpt lat="46.02514" lon="6.77441">
        <ele>1046.87</ele>
        <time>2014-09-01T09:22:35Z</time>
      </trkpt>
      <trkpt lat="46.02514" lon="6.77441">
        <ele>1046.87</ele>
        <time>2014-09-01T09:22:40Z</time>
      </trkpt>
      <trkpt lat="46.02513" lon="6.77441">
        <ele>1047.8024</ele>
        <time>2014-09-01T09:22:55Z</time>
      </trkpt>
      <trkpt lat="46.02512" lon="6.7744">
        <ele>1047.8024</ele>
        <time>2014-09-01T09:23:00Z</time>
      </trkpt>
      <trkpt lat="46.02507" lon="6.77434">
        <ele>1047.8024</ele>
        <time>2014-09-01T09:23:05Z</time>
      </trkpt>
      <trkpt lat="46.02507" lon="6.77434">
        <ele>1047.8024</ele>
        <time>2014-09-01T09:23:10Z</time>
      </trkpt>
      <trkpt lat="46.02502" lon="6.77432">
        <ele>1049.0945</ele>
        <time>2014-09-01T09:23:15Z</time>
      </trkpt>
      <trkpt lat="46.02499" lon="6.77431">
        <ele>1049.0945</ele>
        <time>2014-09-01T09:23:20Z</time>
      </trkpt>
      <trkpt lat="46.02499" lon="6.77431">
        <ele>1049.0945</ele>
        <time>2014-09-01T09:23:25Z</time>
      </trkpt>
      <trkpt lat="46.02497" lon="6.77434">
        <ele>1049.0945</ele>
        <time>2014-09-01T09:23:30Z</time>
      </trkpt>
      <trkpt lat="46.02496" lon="6.77435">
        <ele>1049.0945</ele>
        <time>2014-09-01T09:23:35Z</time>
      </trkpt>
      <trkpt lat="46.02492" lon="6.7744">
        <ele>1050.4757</ele>
        <time>2014-09-01T09:23:40Z</time>
      </trkpt>
      <trkpt lat="46.02488" lon="6.77442">
        <ele>1050.4757</ele>
        <time>2014-09-01T09:23:45Z</time>
      </trkpt>
      <trkpt lat="46.02486" lon="6.77443">
        <ele>1050.4757</ele>
        <time>2014-09-01T09:23:50Z</time>
      </trkpt>
      <trkpt lat="46.02486" lon="6.77443">
        <ele>1050.4757</ele>
        <time>2014-09-01T09:23:55Z</time>
      </trkpt>
      <trkpt lat="46.02486" lon="6.77444">
        <ele>1050.4757</ele>
        <time>2014-09-01T09:24:05Z</time>
      </trkpt>
      <trkpt lat="46.02479" lon="6.77439">
        <ele>1052.3728</ele>
        <time>2014-09-01T09:24:10Z</time>
      </trkpt>
      <trkpt lat="46.02479" lon="6.7744">
        <ele>1052.3728</ele>
        <time>2014-09-01T09:24:15Z</time>
      </trkpt>
      <trkpt lat="46.02478" lon="6.77441">
        <ele>1052.3728</ele>
        <time>2014-09-01T09:24:20Z</time>
      </trkpt>
      <trkpt lat="46.02473" lon="6.77442">
        <ele>1052.3728</ele>
        <time>2014-09-01T09:24:25Z</time>
      </trkpt>
      <trkpt lat="46.02473" lon="6.77442">
        <ele>1052.3728</ele>
        <time>2014-09-01T09:24:30Z</time>
      </trkpt>
      <trkpt lat="46.02473" lon="6.77442">
        <ele>1052.3728</ele>
        <time>2014-09-01T09:24:35Z</time>
      </trkpt>
      <trkpt lat="46.02472" lon="6.77441">
        <ele>1052.3728</ele>
        <time>2014-09-01T09:24:45Z</time>
      </trkpt>
      <trkpt lat="46.0247" lon="6.7744">
        <ele>1054.9777</ele>
        <time>2014-09-01T09:24:50Z</time>
      </trkpt>
      <trkpt lat="46.02468" lon="6.77442">
        <ele>1054.9777</ele>
        <time>2014-09-01T09:24:55Z</time>
      </trkpt>
      <trkpt lat="46.02468" lon="6.77442">
        <ele>1054.9777</ele>
        <time>2014-09-01T09:25:00Z</time>
      </trkpt>
      <trkpt lat="46.02467" lon="6.77442">
        <ele>1054.9777</ele>
        <time>2014-09-01T09:25:05Z</time>
      </trkpt>
      <trkpt lat="46.02467" lon="6.77442">
        <ele>1054.9777</ele>
        <time>2014-09-01T09:25:10Z</time>
      </trkpt>
      <trkpt lat="46.02466" lon="6.77443">
        <ele>1054.9777</ele>
        <time>2014-09-01T09:25:15Z</time>
      </trkpt>
      <trkpt lat="46.02465" lon="6.77443">
        <ele>1054.9777</ele>
        <time>2014-09-01T09:25:20Z</time>
      </trkpt>
      <trkpt lat="46.02464" lon="6.77442">
        <ele>1054.9777</ele>
        <time>2014-09-01T09:25:25Z</time>
      </trkpt>
      <trkpt lat="46.02464" lon="6.77442">
        <ele>1054.9777</ele>
        <time>2014-09-01T09:25:30Z</time>
      </trkpt>
      <trkpt lat="46.02463" lon="6.7744">
        <ele>1054.9777</ele>
        <time>2014-09-01T09:25:35Z</time>
      </trkpt>
      <trkpt lat="46.02463" lon="6.7744">
        <ele>1054.9777</ele>
        <time>2014-09-01T09:25:40Z</time>
      </trkpt>
      <trkpt lat="46.02461" lon="6.77441">
        <ele>1057.3566</ele>
        <time>2014-09-01T09:25:45Z</time>
      </trkpt>
      <trkpt lat="46.02455" lon="6.77441">
        <ele>1057.3566</ele>
        <time>2014-09-01T09:25:50Z</time>
      </trkpt>
      <trkpt lat="46.02451" lon="6.7744">
        <ele>1059.4663</ele>
        <time>2014-09-01T09:25:55Z</time>
      </trkpt>
      <trkpt lat="46.02439" lon="6.77436">
        <ele>1061.412</ele>
        <time>2014-09-01T09:26:00Z</time>
      </trkpt>
      <trkpt lat="46.02438" lon="6.77438">
        <ele>1061.412</ele>
        <time>2014-09-01T09:26:05Z</time>
      </trkpt>
      <trkpt lat="46.02437" lon="6.77439">
        <ele>1061.412</ele>
        <time>2014-09-01T09:26:10Z</time>
      </trkpt>
      <trkpt lat="46.02433" lon="6.7744">
        <ele>1061.412</ele>
        <time>2014-09-01T09:26:15Z</time>
      </trkpt>
      <trkpt lat="46.0243" lon="6.77438">
        <ele>1063.2192</ele>
        <time>2014-09-01T09:26:20Z</time>
      </trkpt>
      <trkpt lat="46.02429" lon="6.77438">
        <ele>1063.2192</ele>
        <time>2014-09-01T09:26:25Z</time>
      </trkpt>
      <trkpt lat="46.02428" lon="6.77437">
        <ele>1063.2192</ele>
        <time>2014-09-01T09:26:30Z</time>
      </trkpt>
      <trkpt lat="46.02426" lon="6.77437">
        <ele>1063.2192</ele>
        <time>2014-09-01T09:26:35Z</time>
      </trkpt>
      <trkpt lat="46.02423" lon="6.77436">
        <ele>1063.2192</ele>
        <time>2014-09-01T09:26:40Z</time>
      </trkpt>
      <trkpt lat="46.02423" lon="6.77436">
        <ele>1063.2192</ele>
        <time>2014-09-01T09:26:45Z</time>
      </trkpt>
      <trkpt lat="46.02419" lon="6.77439">
        <ele>1065.7048</ele>
        <time>2014-09-01T09:27:00Z</time>
      </trkpt>
      <trkpt lat="46.02416" lon="6.77439">
        <ele>1065.7048</ele>
        <time>2014-09-01T09:27:05Z</time>
      </trkpt>
      <trkpt lat="46.02404" lon="6.77442">
        <ele>1068.3412</ele>
        <time>2014-09-01T09:27:10Z</time>
      </trkpt>
      <trkpt lat="46.02399" lon="6.77444">
        <ele>1068.3412</ele>
        <time>2014-09-01T09:27:15Z</time>
      </trkpt>
      <trkpt lat="46.02396" lon="6.77449">
        <ele>1070.7976</ele>
        <time>2014-09-01T09:27:20Z</time>
      </trkpt>
      <trkpt lat="46.02393" lon="6.77455">
        <ele>1070.7976</ele>
        <time>2014-09-01T09:27:25Z</time>
      </trkpt>
      <trkpt lat="46.02391" lon="6.77459">
        <ele>1070.7976</ele>
        <time>2014-09-01T09:27:30Z</time>
      </trkpt>
      <trkpt lat="46.02386" lon="6.77462">
        <ele>1072.7103</ele>
        <time>2014-09-01T09:27:35Z</time>
      </trkpt>
      <trkpt lat="46.02382" lon="6.77466">
        <ele>1072.7103</ele>
        <time>2014-09-01T09:27:40Z</time>
      </trkpt>
      <trkpt lat="46.02378" lon="6.77468">
        <ele>1074.2054</ele>
        <time>2014-09-01T09:27:45Z</time>
      </trkpt>
      <trkpt lat="46.02375" lon="6.7747">
        <ele>1074.2054</ele>
        <time>2014-09-01T09:27:50Z</time>
      </trkpt>
      <trkpt lat="46.02375" lon="6.7747">
        <ele>1074.2054</ele>
        <time>2014-09-01T09:27:55Z</time>
      </trkpt>
      <trkpt lat="46.02375" lon="6.7747">
        <ele>1074.2054</ele>
        <time>2014-09-01T09:28:00Z</time>
      </trkpt>
      <trkpt lat="46.02375" lon="6.7747">
        <ele>1074.2054</ele>
        <time>2014-09-01T09:28:05Z</time>
      </trkpt>
      <trkpt lat="46.02374" lon="6.77469">
        <ele>1074.2054</ele>
        <time>2014-09-01T09:28:20Z</time>
      </trkpt>
      <trkpt lat="46.02372" lon="6.77468">
        <ele>1074.2054</ele>
        <time>2014-09-01T09:28:25Z</time>
      </trkpt>
      <trkpt lat="46.02369" lon="6.77471">
        <ele>1075.9481</ele>
        <time>2014-09-01T09:28:30Z</time>
      </trkpt>
      <trkpt lat="46.02369" lon="6.77471">
        <ele>1075.9481</ele>
        <time>2014-09-01T09:28:35Z</time>
      </trkpt>
      <trkpt lat="46.02367" lon="6.77469">
        <ele>1075.9481</ele>
        <time>2014-09-01T09:28:40Z</time>
      </trkpt>
      <trkpt lat="46.02367" lon="6.77469">
        <ele>1075.9481</ele>
        <time>2014-09-01T09:28:45Z</time>
      </trkpt>
      <trkpt lat="46.02366" lon="6.77468">
        <ele>1075.9481</ele>
        <time>2014-09-01T09:28:50Z</time>
      </trkpt>
      <trkpt lat="46.02359" lon="6.77461">
        <ele>1077.9059</ele>
        <time>2014-09-01T09:28:55Z</time>
      </trkpt>
      <trkpt lat="46.02358" lon="6.77457">
        <ele>1077.9059</ele>
        <time>2014-09-01T09:29:00Z</time>
      </trkpt>
      <trkpt lat="46.02356" lon="6.77456">
        <ele>1077.9059</ele>
        <time>2014-09-01T09:29:05Z</time>
      </trkpt>
      <trkpt lat="46.02355" lon="6.77455">
        <ele>1077.9059</ele>
        <time>2014-09-01T09:29:10Z</time>
      </trkpt>
      <trkpt lat="46.0235" lon="6.7745">
        <ele>1080.0336</ele>
        <time>2014-09-01T09:29:15Z</time>
      </trkpt>
      <trkpt lat="46.02342" lon="6.77442">
        <ele>1082.0582</ele>
        <time>2014-09-01T09:29:20Z</time>
      </trkpt>
      <trkpt lat="46.02344" lon="6.77435">
        <ele>1082.0582</ele>
        <time>2014-09-01T09:29:25Z</time>
      </trkpt>
      <trkpt lat="46.02341" lon="6.77426">
        <ele>1084.1597</ele>
        <time>2014-09-01T09:29:30Z</time>
      </trkpt>
      <trkpt lat="46.02341" lon="6.77426">
        <ele>1084.1597</ele>
        <time>2014-09-01T09:29:35Z</time>
      </trkpt>
      <trkpt lat="46.0234" lon="6.77425">
        <ele>1084.1597</ele>
        <time>2014-09-01T09:29:40Z</time>
      </trkpt>
      <trkpt lat="46.0234" lon="6.77419">
        <ele>1084.1597</ele>
        <time>2014-09-01T09:29:45Z</time>
      </trkpt>
      <trkpt lat="46.0234" lon="6.77418">
        <ele>1084.1597</ele>
        <time>2014-09-01T09:29:50Z</time>
      </trkpt>
      <trkpt lat="46.02341" lon="6.77415">
        <ele>1084.1597</ele>
        <time>2014-09-01T09:29:55Z</time>
      </trkpt>
      <trkpt lat="46.02341" lon="6.77415">
        <ele>1084.1597</ele>
        <time>2014-09-01T09:30:00Z</time>
      </trkpt>
      <trkpt lat="46.02336" lon="6.77407">
        <ele>1085.9423</ele>
        <time>2014-09-01T09:30:05Z</time>
      </trkpt>
      <trkpt lat="46.02336" lon="6.77407">
        <ele>1085.9423</ele>
        <time>2014-09-01T09:30:10Z</time>
      </trkpt>
      <trkpt lat="46.02336" lon="6.77407">
        <ele>1085.9423</ele>
        <time>2014-09-01T09:30:15Z</time>
      </trkpt>
      <trkpt lat="46.02334" lon="6.77406">
        <ele>1085.9423</ele>
        <time>2014-09-01T09:30:20Z</time>
      </trkpt>
      <trkpt lat="46.02334" lon="6.77406">
        <ele>1085.9423</ele>
        <time>2014-09-01T09:30:25Z</time>
      </trkpt>
      <trkpt lat="46.02335" lon="6.77405">
        <ele>1085.9423</ele>
        <time>2014-09-01T09:30:30Z</time>
      </trkpt>
      <trkpt lat="46.02334" lon="6.77405">
        <ele>1085.9423</ele>
        <time>2014-09-01T09:30:35Z</time>
      </trkpt>
      <trkpt lat="46.02329" lon="6.77399">
        <ele>1088.2795</ele>
        <time>2014-09-01T09:30:40Z</time>
      </trkpt>
      <trkpt lat="46.02329" lon="6.77399">
        <ele>1088.2795</ele>
        <time>2014-09-01T09:30:45Z</time>
      </trkpt>
      <trkpt lat="46.02321" lon="6.77399">
        <ele>1088.2795</ele>
        <time>2014-09-01T09:30:50Z</time>
      </trkpt>
      <trkpt lat="46.02317" lon="6.77402">
        <ele>1090.8845</ele>
        <time>2014-09-01T09:30:55Z</time>
      </trkpt>
      <trkpt lat="46.02316" lon="6.77404">
        <ele>1090.8845</ele>
        <time>2014-09-01T09:31:00Z</time>
      </trkpt>
      <trkpt lat="46.02312" lon="6.77405">
        <ele>1090.8845</ele>
        <time>2014-09-01T09:31:05Z</time>
      </trkpt>
      <trkpt lat="46.02312" lon="6.77405">
        <ele>1090.8845</ele>
        <time>2014-09-01T09:31:10Z</time>
      </trkpt>
      <trkpt lat="46.02311" lon="6.77406">
        <ele>1090.8845</ele>
        <time>2014-09-01T09:31:15Z</time>
      </trkpt>
      <trkpt lat="46.02308" lon="6.77407">
        <ele>1093.3318</ele>
        <time>2014-09-01T09:31:20Z</time>
      </trkpt>
      <trkpt lat="46.02303" lon="6.7741">
        <ele>1093.3318</ele>
        <time>2014-09-01T09:31:25Z</time>
      </trkpt>
      <trkpt lat="46.02294" lon="6.77417">
        <ele>1095.775</ele>
        <time>2014-09-01T09:31:30Z</time>
      </trkpt>
      <trkpt lat="46.02288" lon="6.77422">
        <ele>1095.775</ele>
        <time>2014-09-01T09:31:35Z</time>
      </trkpt>
      <trkpt lat="46.02285" lon="6.77423">
        <ele>1098.1555</ele>
        <time>2014-09-01T09:31:40Z</time>
      </trkpt>
      <trkpt lat="46.0228" lon="6.77424">
        <ele>1098.1555</ele>
        <time>2014-09-01T09:31:45Z</time>
      </trkpt>
      <trkpt lat="46.02279" lon="6.77423">
        <ele>1098.1555</ele>
        <time>2014-09-01T09:31:50Z</time>
      </trkpt>
      <trkpt lat="46.02279" lon="6.77422">
        <ele>1098.1555</ele>
        <time>2014-09-01T09:31:55Z</time>
      </trkpt>
      <trkpt lat="46.02281" lon="6.77415">
        <ele>1100.5627</ele>
        <time>2014-09-01T09:32:00Z</time>
      </trkpt>
      <trkpt lat="46.02282" lon="6.77411">
        <ele>1100.5627</ele>
        <time>2014-09-01T09:32:05Z</time>
      </trkpt>
      <trkpt lat="46.02284" lon="6.77401">
        <ele>1102.5464</ele>
        <time>2014-09-01T09:32:10Z</time>
      </trkpt>
      <trkpt lat="46.02285" lon="6.77399">
        <ele>1102.5464</ele>
        <time>2014-09-01T09:32:15Z</time>
      </trkpt>
      <trkpt lat="46.02285" lon="6.77399">
        <ele>1102.5464</ele>
        <time>2014-09-01T09:32:20Z</time>
      </trkpt>
      <trkpt lat="46.02287" lon="6.77396">
        <ele>1102.5464</ele>
        <time>2014-09-01T09:32:25Z</time>
      </trkpt>
      <trkpt lat="46.02288" lon="6.77395">
        <ele>1102.5464</ele>
        <time>2014-09-01T09:32:30Z</time>
      </trkpt>
      <trkpt lat="46.02289" lon="6.7739">
        <ele>1104.5265</ele>
        <time>2014-09-01T09:32:35Z</time>
      </trkpt>
      <trkpt lat="46.0229" lon="6.77389">
        <ele>1104.5265</ele>
        <time>2014-09-01T09:32:40Z</time>
      </trkpt>
      <trkpt lat="46.0229" lon="6.77388">
        <ele>1104.5265</ele>
        <time>2014-09-01T09:32:45Z</time>
      </trkpt>
      <trkpt lat="46.02291" lon="6.77387">
        <ele>1104.5265</ele>
        <time>2014-09-01T09:32:50Z</time>
      </trkpt>
      <trkpt lat="46.02292" lon="6.77386">
        <ele>1104.5265</ele>
        <time>2014-09-01T09:32:55Z</time>
      </trkpt>
      <trkpt lat="46.0229" lon="6.77383">
        <ele>1104.5265</ele>
        <time>2014-09-01T09:33:00Z</time>
      </trkpt>
      <trkpt lat="46.02288" lon="6.77373">
        <ele>1106.0417</ele>
        <time>2014-09-01T09:33:05Z</time>
      </trkpt>
      <trkpt lat="46.02286" lon="6.7737">
        <ele>1106.0417</ele>
        <time>2014-09-01T09:33:10Z</time>
      </trkpt>
      <trkpt lat="46.02284" lon="6.77363">
        <ele>1106.0417</ele>
        <time>2014-09-01T09:33:15Z</time>
      </trkpt>
      <trkpt lat="46.02284" lon="6.77352">
        <ele>1107.4015</ele>
        <time>2014-09-01T09:33:20Z</time>
      </trkpt>
      <trkpt lat="46.02282" lon="6.77347">
        <ele>1107.4015</ele>
        <time>2014-09-01T09:33:25Z</time>
      </trkpt>
      <trkpt lat="46.02281" lon="6.77343">
        <ele>1107.4015</ele>
        <time>2014-09-01T09:33:30Z</time>
      </trkpt>
      <trkpt lat="46.02282" lon="6.77336">
        <ele>1108.5321</ele>
        <time>2014-09-01T09:33:35Z</time>
      </trkpt>
      <trkpt lat="46.02285" lon="6.77329">
        <ele>1108.5321</ele>
        <time>2014-09-01T09:33:40Z</time>
      </trkpt>
      <trkpt lat="46.02286" lon="6.77327">
        <ele>1108.5321</ele>
        <time>2014-09-01T09:33:45Z</time>
      </trkpt>
      <trkpt lat="46.02286" lon="6.77324">
        <ele>1109.4381</ele>
        <time>2014-09-01T09:33:50Z</time>
      </trkpt>
      <trkpt lat="46.02285" lon="6.77321">
        <ele>1109.4381</ele>
        <time>2014-09-01T09:33:55Z</time>
      </trkpt>
      <trkpt lat="46.02283" lon="6.77316">
        <ele>1109.4381</ele>
        <time>2014-09-01T09:34:00Z</time>
      </trkpt>
      <trkpt lat="46.02283" lon="6.77314">
        <ele>1109.4381</ele>
        <time>2014-09-01T09:34:05Z</time>
      </trkpt>
      <trkpt lat="46.02285" lon="6.77309">
        <ele>1110.6147</ele>
        <time>2014-09-01T09:34:10Z</time>
      </trkpt>
      <trkpt lat="46.02286" lon="6.77301">
        <ele>1110.6147</ele>
        <time>2014-09-01T09:34:15Z</time>
      </trkpt>
      <trkpt lat="46.02286" lon="6.77299">
        <ele>1110.6147</ele>
        <time>2014-09-01T09:34:20Z</time>
      </trkpt>
      <trkpt lat="46.02284" lon="6.77297">
        <ele>1111.9863</ele>
        <time>2014-09-01T09:34:25Z</time>
      </trkpt>
      <trkpt lat="46.02284" lon="6.77297">
        <ele>1111.9863</ele>
        <time>2014-09-01T09:34:30Z</time>
      </trkpt>
      <trkpt lat="46.02284" lon="6.77293">
        <ele>1111.9863</ele>
        <time>2014-09-01T09:34:35Z</time>
      </trkpt>
      <trkpt lat="46.02284" lon="6.77293">
        <ele>1111.9863</ele>
        <time>2014-09-01T09:34:40Z</time>
      </trkpt>
      <trkpt lat="46.02284" lon="6.77292">
        <ele>1111.9863</ele>
        <time>2014-09-01T09:34:50Z</time>
      </trkpt>
      <trkpt lat="46.02284" lon="6.77292">
        <ele>1111.9863</ele>
        <time>2014-09-01T09:34:55Z</time>
      </trkpt>
      <trkpt lat="46.02283" lon="6.77293">
        <ele>1111.9863</ele>
        <time>2014-09-01T09:35:00Z</time>
      </trkpt>
      <trkpt lat="46.02282" lon="6.77295">
        <ele>1111.9863</ele>
        <time>2014-09-01T09:35:05Z</time>
      </trkpt>
      <trkpt lat="46.02281" lon="6.77296">
        <ele>1111.9863</ele>
        <time>2014-09-01T09:35:10Z</time>
      </trkpt>
      <trkpt lat="46.02279" lon="6.77298">
        <ele>1113.9294</ele>
        <time>2014-09-01T09:35:15Z</time>
      </trkpt>
      <trkpt lat="46.02279" lon="6.77301">
        <ele>1113.9294</ele>
        <time>2014-09-01T09:35:20Z</time>
      </trkpt>
      <trkpt lat="46.02274" lon="6.77305">
        <ele>1113.9294</ele>
        <time>2014-09-01T09:35:25Z</time>
      </trkpt>
      <trkpt lat="46.02273" lon="6.77306">
        <ele>1115.6093</ele>
        <time>2014-09-01T09:35:30Z</time>
      </trkpt>
      <trkpt lat="46.02273" lon="6.77303">
        <ele>1115.6093</ele>
        <time>2014-09-01T09:35:35Z</time>
      </trkpt>
      <trkpt lat="46.02271" lon="6.77295">
        <ele>1115.6093</ele>
        <time>2014-09-01T09:35:40Z</time>
      </trkpt>
      <trkpt lat="46.02273" lon="6.77283">
        <ele>1117.4639</ele>
        <time>2014-09-01T09:35:45Z</time>
      </trkpt>
      <trkpt lat="46.02273" lon="6.77273">
        <ele>1117.4639</ele>
        <time>2014-09-01T09:35:50Z</time>
      </trkpt>
      <trkpt lat="46.02272" lon="6.77271">
        <ele>1117.4639</ele>
        <time>2014-09-01T09:35:55Z</time>
      </trkpt>
      <trkpt lat="46.02275" lon="6.77265">
        <ele>1119.4087</ele>
        <time>2014-09-01T09:36:00Z</time>
      </trkpt>
      <trkpt lat="46.02275" lon="6.7726">
        <ele>1119.4087</ele>
        <time>2014-09-01T09:36:05Z</time>
      </trkpt>
      <trkpt lat="46.02275" lon="6.7725">
        <ele>1121.1198</ele>
        <time>2014-09-01T09:36:10Z</time>
      </trkpt>
      <trkpt lat="46.02275" lon="6.77248">
        <ele>1121.1198</ele>
        <time>2014-09-01T09:36:15Z</time>
      </trkpt>
      <trkpt lat="46.02274" lon="6.77243">
        <ele>1121.1198</ele>
        <time>2014-09-01T09:36:20Z</time>
      </trkpt>
      <trkpt lat="46.02276" lon="6.77234">
        <ele>1122.6438</ele>
        <time>2014-09-01T09:36:25Z</time>
      </trkpt>
      <trkpt lat="46.02278" lon="6.7723">
        <ele>1122.6438</ele>
        <time>2014-09-01T09:36:30Z</time>
      </trkpt>
      <trkpt lat="46.02279" lon="6.77228">
        <ele>1122.6438</ele>
        <time>2014-09-01T09:36:35Z</time>
      </trkpt>
      <trkpt lat="46.02279" lon="6.77228">
        <ele>1122.6438</ele>
        <time>2014-09-01T09:36:40Z</time>
      </trkpt>
      <trkpt lat="46.02279" lon="6.77228">
        <ele>1122.6438</ele>
        <time>2014-09-01T09:36:50Z</time>
      </trkpt>
      <trkpt lat="46.02279" lon="6.77228">
        <ele>1122.6438</ele>
        <time>2014-09-01T09:36:55Z</time>
      </trkpt>
      <trkpt lat="46.02279" lon="6.77228">
        <ele>1122.6438</ele>
        <time>2014-09-01T09:37:10Z</time>
      </trkpt>
      <trkpt lat="46.02279" lon="6.77227">
        <ele>1122.6438</ele>
        <time>2014-09-01T09:37:15Z</time>
      </trkpt>
      <trkpt lat="46.0228" lon="6.77223">
        <ele>1123.9236</ele>
        <time>2014-09-01T09:37:35Z</time>
      </trkpt>
      <trkpt lat="46.0228" lon="6.7722">
        <ele>1123.9236</ele>
        <time>2014-09-01T09:37:40Z</time>
      </trkpt>
      <trkpt lat="46.02281" lon="6.77212">
        <ele>1123.9236</ele>
        <time>2014-09-01T09:37:45Z</time>
      </trkpt>
      <trkpt lat="46.02282" lon="6.77206">
        <ele>1125.1375</ele>
        <time>2014-09-01T09:37:50Z</time>
      </trkpt>
      <trkpt lat="46.02285" lon="6.77203">
        <ele>1125.1375</ele>
        <time>2014-09-01T09:37:55Z</time>
      </trkpt>
      <trkpt lat="46.02285" lon="6.77203">
        <ele>1125.1375</ele>
        <time>2014-09-01T09:38:00Z</time>
      </trkpt>
      <trkpt lat="46.02286" lon="6.77202">
        <ele>1125.1375</ele>
        <time>2014-09-01T09:38:05Z</time>
      </trkpt>
      <trkpt lat="46.02291" lon="6.77198">
        <ele>1126.2201</ele>
        <time>2014-09-01T09:38:10Z</time>
      </trkpt>
      <trkpt lat="46.02291" lon="6.77197">
        <ele>1126.2201</ele>
        <time>2014-09-01T09:38:15Z</time>
      </trkpt>
      <trkpt lat="46.02292" lon="6.77195">
        <ele>1126.2201</ele>
        <time>2014-09-01T09:38:20Z</time>
      </trkpt>
      <trkpt lat="46.02297" lon="6.77188">
        <ele>1127.0536</ele>
        <time>2014-09-01T09:38:25Z</time>
      </trkpt>
      <trkpt lat="46.023" lon="6.77185">
        <ele>1127.0536</ele>
        <time>2014-09-01T09:38:30Z</time>
      </trkpt>
      <trkpt lat="46.02301" lon="6.77179">
        <ele>1127.0536</ele>
        <time>2014-09-01T09:38:35Z</time>
      </trkpt>
      <trkpt lat="46.02302" lon="6.77176">
        <ele>1127.6307</ele>
        <time>2014-09-01T09:38:40Z</time>
      </trkpt>
      <trkpt lat="46.02302" lon="6.77176">
        <ele>1127.6307</ele>
        <time>2014-09-01T09:38:45Z</time>
      </trkpt>
      <trkpt lat="46.02302" lon="6.77174">
        <ele>1127.6307</ele>
        <time>2014-09-01T09:39:05Z</time>
      </trkpt>
      <trkpt lat="46.02302" lon="6.77174">
        <ele>1127.6307</ele>
        <time>2014-09-01T09:39:10Z</time>
      </trkpt>
      <trkpt lat="46.02298" lon="6.77163">
        <ele>1127.671</ele>
        <time>2014-09-01T09:39:15Z</time>
      </trkpt>
      <trkpt lat="46.02297" lon="6.77148">
        <ele>1127.6516</ele>
        <time>2014-09-01T09:39:20Z</time>
      </trkpt>
      <trkpt lat="46.02297" lon="6.77147">
        <ele>1127.6516</ele>
        <time>2014-09-01T09:39:25Z</time>
      </trkpt>
      <trkpt lat="46.02297" lon="6.77147">
        <ele>1127.6516</ele>
        <time>2014-09-01T09:39:30Z</time>
      </trkpt>
      <trkpt lat="46.02295" lon="6.77145">
        <ele>1127.6516</ele>
        <time>2014-09-01T09:39:35Z</time>
      </trkpt>
      <trkpt lat="46.02295" lon="6.77145">
        <ele>1127.6516</ele>
        <time>2014-09-01T09:39:40Z</time>
      </trkpt>
      <trkpt lat="46.02294" lon="6.77142">
        <ele>1127.6516</ele>
        <time>2014-09-01T09:39:45Z</time>
      </trkpt>
      <trkpt lat="46.02293" lon="6.77139">
        <ele>1127.6516</ele>
        <time>2014-09-01T09:39:50Z</time>
      </trkpt>
      <trkpt lat="46.02291" lon="6.77136">
        <ele>1127.6685</ele>
        <time>2014-09-01T09:39:55Z</time>
      </trkpt>
      <trkpt lat="46.02288" lon="6.7713">
        <ele>1127.6685</ele>
        <time>2014-09-01T09:40:00Z</time>
      </trkpt>
      <trkpt lat="46.02288" lon="6.77128">
        <ele>1127.6685</ele>
        <time>2014-09-01T09:40:05Z</time>
      </trkpt>
      <trkpt lat="46.02288" lon="6.77128">
        <ele>1127.6685</ele>
        <time>2014-09-01T09:40:10Z</time>
      </trkpt>
      <trkpt lat="46.02285" lon="6.77126">
        <ele>1128.7039</ele>
        <time>2014-09-01T09:40:20Z</time>
      </trkpt>
      <trkpt lat="46.02285" lon="6.77126">
        <ele>1128.7039</ele>
        <time>2014-09-01T09:40:25Z</time>
      </trkpt>
      <trkpt lat="46.02281" lon="6.7712">
        <ele>1128.7039</ele>
        <time>2014-09-01T09:40:30Z</time>
      </trkpt>
      <trkpt lat="46.0228" lon="6.7712">
        <ele>1128.7039</ele>
        <time>2014-09-01T09:40:35Z</time>
      </trkpt>
      <trkpt lat="46.02278" lon="6.77112">
        <ele>1130.6566</ele>
        <time>2014-09-01T09:40:40Z</time>
      </trkpt>
      <trkpt lat="46.02276" lon="6.77108">
        <ele>1130.6566</ele>
        <time>2014-09-01T09:40:45Z</time>
      </trkpt>
      <trkpt lat="46.02274" lon="6.77107">
        <ele>1130.6566</ele>
        <time>2014-09-01T09:40:50Z</time>
      </trkpt>
      <trkpt lat="46.02274" lon="6.77107">
        <ele>1130.6566</ele>
        <time>2014-09-01T09:40:55Z</time>
      </trkpt>
      <trkpt lat="46.02271" lon="6.771">
        <ele>1132.6803</ele>
        <time>2014-09-01T09:42:25Z</time>
      </trkpt>
      <trkpt lat="46.02265" lon="6.77085">
        <ele>1134.4808</ele>
        <time>2014-09-01T09:42:30Z</time>
      </trkpt>
      <trkpt lat="46.02264" lon="6.77081">
        <ele>1134.4808</ele>
        <time>2014-09-01T09:42:35Z</time>
      </trkpt>
      <trkpt lat="46.02257" lon="6.77069">
        <ele>1136.1178</ele>
        <time>2014-09-01T09:42:40Z</time>
      </trkpt>
      <trkpt lat="46.02254" lon="6.77066">
        <ele>1136.1178</ele>
        <time>2014-09-01T09:42:45Z</time>
      </trkpt>
      <trkpt lat="46.02252" lon="6.77062">
        <ele>1136.1178</ele>
        <time>2014-09-01T09:42:50Z</time>
      </trkpt>
      <trkpt lat="46.02252" lon="6.77061">
        <ele>1136.1178</ele>
        <time>2014-09-01T09:42:55Z</time>
      </trkpt>
      <trkpt lat="46.02252" lon="6.7706">
        <ele>1136.1178</ele>
        <time>2014-09-01T09:43:00Z</time>
      </trkpt>
      <trkpt lat="46.02251" lon="6.77059">
        <ele>1136.1178</ele>
        <time>2014-09-01T09:43:05Z</time>
      </trkpt>
      <trkpt lat="46.02251" lon="6.77059">
        <ele>1137.3438</ele>
        <time>2014-09-01T09:43:10Z</time>
      </trkpt>
      <trkpt lat="46.0225" lon="6.77056">
        <ele>1137.3438</ele>
        <time>2014-09-01T09:43:20Z</time>
      </trkpt>
      <trkpt lat="46.02249" lon="6.77052">
        <ele>1137.3438</ele>
        <time>2014-09-01T09:43:25Z</time>
      </trkpt>
      <trkpt lat="46.02248" lon="6.7705">
        <ele>1137.3438</ele>
        <time>2014-09-01T09:43:30Z</time>
      </trkpt>
      <trkpt lat="46.02245" lon="6.77038">
        <ele>1138.6659</ele>
        <time>2014-09-01T09:43:35Z</time>
      </trkpt>
      <trkpt lat="46.0224" lon="6.77027">
        <ele>1139.8475</ele>
        <time>2014-09-01T09:43:40Z</time>
      </trkpt>
      <trkpt lat="46.0224" lon="6.77027">
        <ele>1139.8475</ele>
        <time>2014-09-01T09:43:45Z</time>
      </trkpt>
      <trkpt lat="46.02238" lon="6.77024">
        <ele>1139.8475</ele>
        <time>2014-09-01T09:43:50Z</time>
      </trkpt>
      <trkpt lat="46.02237" lon="6.7702">
        <ele>1139.8475</ele>
        <time>2014-09-01T09:43:55Z</time>
      </trkpt>
      <trkpt lat="46.02237" lon="6.77018">
        <ele>1139.8475</ele>
        <time>2014-09-01T09:44:00Z</time>
      </trkpt>
      <trkpt lat="46.02238" lon="6.77016">
        <ele>1139.8475</ele>
        <time>2014-09-01T09:44:05Z</time>
      </trkpt>
      <trkpt lat="46.02238" lon="6.77014">
        <ele>1141.2462</ele>
        <time>2014-09-01T09:44:10Z</time>
      </trkpt>
      <trkpt lat="46.02237" lon="6.77012">
        <ele>1141.2462</ele>
        <time>2014-09-01T09:44:15Z</time>
      </trkpt>
      <trkpt lat="46.02234" lon="6.7701">
        <ele>1141.2462</ele>
        <time>2014-09-01T09:44:20Z</time>
      </trkpt>
      <trkpt lat="46.02234" lon="6.7701">
        <ele>1141.2462</ele>
        <time>2014-09-01T09:44:25Z</time>
      </trkpt>
      <trkpt lat="46.02232" lon="6.77008">
        <ele>1141.2462</ele>
        <time>2014-09-01T09:44:30Z</time>
      </trkpt>
      <trkpt lat="46.02232" lon="6.77007">
        <ele>1141.2462</ele>
        <time>2014-09-01T09:44:35Z</time>
      </trkpt>
      <trkpt lat="46.02231" lon="6.77005">
        <ele>1142.9619</ele>
        <time>2014-09-01T09:44:40Z</time>
      </trkpt>
      <trkpt lat="46.02231" lon="6.77005">
        <ele>1142.9619</ele>
        <time>2014-09-01T09:44:45Z</time>
      </trkpt>
      <trkpt lat="46.02225" lon="6.77">
        <ele>1142.9619</ele>
        <time>2014-09-01T09:45:10Z</time>
      </trkpt>
      <trkpt lat="46.02225" lon="6.77">
        <ele>1142.9619</ele>
        <time>2014-09-01T09:45:15Z</time>
      </trkpt>
      <trkpt lat="46.02224" lon="6.76992">
        <ele>1144.7404</ele>
        <time>2014-09-01T09:45:25Z</time>
      </trkpt>
      <trkpt lat="46.02224" lon="6.76992">
        <ele>1144.7404</ele>
        <time>2014-09-01T09:45:30Z</time>
      </trkpt>
      <trkpt lat="46.02223" lon="6.7699">
        <ele>1144.7404</ele>
        <time>2014-09-01T09:45:40Z</time>
      </trkpt>
      <trkpt lat="46.02216" lon="6.76982">
        <ele>1147.0234</ele>
        <time>2014-09-01T09:45:45Z</time>
      </trkpt>
      <trkpt lat="46.02215" lon="6.7698">
        <ele>1147.0234</ele>
        <time>2014-09-01T09:45:50Z</time>
      </trkpt>
      <trkpt lat="46.02212" lon="6.76965">
        <ele>1149.1378</ele>
        <time>2014-09-01T09:45:55Z</time>
      </trkpt>
      <trkpt lat="46.02212" lon="6.76965">
        <ele>1149.1378</ele>
        <time>2014-09-01T09:46:00Z</time>
      </trkpt>
      <trkpt lat="46.02211" lon="6.76964">
        <ele>1149.1378</ele>
        <time>2014-09-01T09:46:05Z</time>
      </trkpt>
      <trkpt lat="46.02211" lon="6.76964">
        <ele>1149.1378</ele>
        <time>2014-09-01T09:46:10Z</time>
      </trkpt>
      <trkpt lat="46.02209" lon="6.76962">
        <ele>1149.1378</ele>
        <time>2014-09-01T09:46:20Z</time>
      </trkpt>
      <trkpt lat="46.02209" lon="6.76962">
        <ele>1149.1378</ele>
        <time>2014-09-01T09:46:25Z</time>
      </trkpt>
      <trkpt lat="46.02209" lon="6.76961">
        <ele>1149.1378</ele>
        <time>2014-09-01T09:46:30Z</time>
      </trkpt>
      <trkpt lat="46.02209" lon="6.76961">
        <ele>1149.1378</ele>
        <time>2014-09-01T09:46:35Z</time>
      </trkpt>
      <trkpt lat="46.02207" lon="6.76961">
        <ele>1149.1378</ele>
        <time>2014-09-01T09:46:40Z</time>
      </trkpt>
      <trkpt lat="46.02207" lon="6.76961">
        <ele>1149.1378</ele>
        <time>2014-09-01T09:46:45Z</time>
      </trkpt>
      <trkpt lat="46.02203" lon="6.76953">
        <ele>1151.9592</ele>
        <time>2014-09-01T09:46:50Z</time>
      </trkpt>
      <trkpt lat="46.02202" lon="6.76948">
        <ele>1151.9592</ele>
        <time>2014-09-01T09:46:55Z</time>
      </trkpt>
      <trkpt lat="46.02201" lon="6.76946">
        <ele>1151.9592</ele>
        <time>2014-09-01T09:47:00Z</time>
      </trkpt>
      <trkpt lat="46.02191" lon="6.76939">
        <ele>1155.1294</ele>
        <time>2014-09-01T09:47:05Z</time>
      </trkpt>
      <trkpt lat="46.02191" lon="6.76939">
        <ele>1155.1294</ele>
        <time>2014-09-01T09:47:10Z</time>
      </trkpt>
      <trkpt lat="46.02184" lon="6.76931">
        <ele>1158.0995</ele>
        <time>2014-09-01T09:47:15Z</time>
      </trkpt>
      <trkpt lat="46.02183" lon="6.76929">
        <ele>1158.0995</ele>
        <time>2014-09-01T09:47:20Z</time>
      </trkpt>
      <trkpt lat="46.02183" lon="6.76929">
        <ele>1158.0995</ele>
        <time>2014-09-01T09:47:25Z</time>
      </trkpt>
      <trkpt lat="46.02182" lon="6.76927">
        <ele>1158.0995</ele>
        <time>2014-09-01T09:47:35Z</time>
      </trkpt>
      <trkpt lat="46.02182" lon="6.76926">
        <ele>1158.0995</ele>
        <time>2014-09-01T09:47:40Z</time>
      </trkpt>
      <trkpt lat="46.02182" lon="6.76926">
        <ele>1158.0995</ele>
        <time>2014-09-01T09:47:45Z</time>
      </trkpt>
      <trkpt lat="46.02181" lon="6.76918">
        <ele>1161.356</ele>
        <time>2014-09-01T09:47:50Z</time>
      </trkpt>
      <trkpt lat="46.02181" lon="6.76918">
        <ele>1161.356</ele>
        <time>2014-09-01T09:47:55Z</time>
      </trkpt>
      <trkpt lat="46.0218" lon="6.76912">
        <ele>1161.356</ele>
        <time>2014-09-01T09:48:10Z</time>
      </trkpt>
      <trkpt lat="46.0218" lon="6.76912">
        <ele>1161.356</ele>
        <time>2014-09-01T09:48:15Z</time>
      </trkpt>
      <trkpt lat="46.02179" lon="6.76909">
        <ele>1161.356</ele>
        <time>2014-09-01T09:48:25Z</time>
      </trkpt>
      <trkpt lat="46.02178" lon="6.76908">
        <ele>1161.356</ele>
        <time>2014-09-01T09:48:30Z</time>
      </trkpt>
      <trkpt lat="46.02176" lon="6.76907">
        <ele>1164.2244</ele>
        <time>2014-09-01T09:48:35Z</time>
      </trkpt>
      <trkpt lat="46.02175" lon="6.76907">
        <ele>1164.2244</ele>
        <time>2014-09-01T09:48:40Z</time>
      </trkpt>
      <trkpt lat="46.02166" lon="6.76901">
        <ele>1166.5854</ele>
        <time>2014-09-01T09:48:45Z</time>
      </trkpt>
      <trkpt lat="46.02166" lon="6.76901">
        <ele>1166.5854</ele>
        <time>2014-09-01T09:48:50Z</time>
      </trkpt>
      <trkpt lat="46.02161" lon="6.769">
        <ele>1166.5854</ele>
        <time>2014-09-01T09:48:55Z</time>
      </trkpt>
      <trkpt lat="46.02161" lon="6.769">
        <ele>1166.5854</ele>
        <time>2014-09-01T09:49:00Z</time>
      </trkpt>
      <trkpt lat="46.02159" lon="6.769">
        <ele>1166.5854</ele>
        <time>2014-09-01T09:49:10Z</time>
      </trkpt>
      <trkpt lat="46.02153" lon="6.76899">
        <ele>1168.2296</ele>
        <time>2014-09-01T09:49:15Z</time>
      </trkpt>
      <trkpt lat="46.02152" lon="6.76898">
        <ele>1168.2296</ele>
        <time>2014-09-01T09:49:20Z</time>
      </trkpt>
      <trkpt lat="46.02149" lon="6.76897">
        <ele>1168.2296</ele>
        <time>2014-09-01T09:49:25Z</time>
      </trkpt>
      <trkpt lat="46.02147" lon="6.76896">
        <ele>1168.2296</ele>
        <time>2014-09-01T09:49:30Z</time>
      </trkpt>
      <trkpt lat="46.02137" lon="6.76892">
        <ele>1169.3677</ele>
        <time>2014-09-01T09:49:35Z</time>
      </trkpt>
      <trkpt lat="46.02137" lon="6.76892">
        <ele>1169.3677</ele>
        <time>2014-09-01T09:49:40Z</time>
      </trkpt>
      <trkpt lat="46.02136" lon="6.76889">
        <ele>1169.3677</ele>
        <time>2014-09-01T09:49:45Z</time>
      </trkpt>
      <trkpt lat="46.02136" lon="6.76889">
        <ele>1169.3677</ele>
        <time>2014-09-01T09:49:50Z</time>
      </trkpt>
      <trkpt lat="46.02135" lon="6.76888">
        <ele>1169.3677</ele>
        <time>2014-09-01T09:49:55Z</time>
      </trkpt>
      <trkpt lat="46.02134" lon="6.76888">
        <ele>1169.3677</ele>
        <time>2014-09-01T09:50:00Z</time>
      </trkpt>
      <trkpt lat="46.02133" lon="6.76888">
        <ele>1169.3677</ele>
        <time>2014-09-01T09:50:05Z</time>
      </trkpt>
      <trkpt lat="46.0213" lon="6.76886">
        <ele>1169.3677</ele>
        <time>2014-09-01T09:50:45Z</time>
      </trkpt>
      <trkpt lat="46.0213" lon="6.76886">
        <ele>1169.3677</ele>
        <time>2014-09-01T09:50:50Z</time>
      </trkpt>
      <trkpt lat="46.02129" lon="6.76886">
        <ele>1171.436</ele>
        <time>2014-09-01T09:50:55Z</time>
      </trkpt>
      <trkpt lat="46.02128" lon="6.76886">
        <ele>1171.436</ele>
        <time>2014-09-01T09:51:00Z</time>
      </trkpt>
      <trkpt lat="46.02127" lon="6.76885">
        <ele>1171.436</ele>
        <time>2014-09-01T09:51:05Z</time>
      </trkpt>
      <trkpt lat="46.02127" lon="6.76885">
        <ele>1171.436</ele>
        <time>2014-09-01T09:51:10Z</time>
      </trkpt>
      <trkpt lat="46.02125" lon="6.76883">
        <ele>1171.436</ele>
        <time>2014-09-01T09:51:20Z</time>
      </trkpt>
      <trkpt lat="46.02124" lon="6.76881">
        <ele>1171.436</ele>
        <time>2014-09-01T09:51:25Z</time>
      </trkpt>
      <trkpt lat="46.02123" lon="6.76881">
        <ele>1171.436</ele>
        <time>2014-09-01T09:51:30Z</time>
      </trkpt>
      <trkpt lat="46.02123" lon="6.76881">
        <ele>1171.436</ele>
        <time>2014-09-01T09:51:35Z</time>
      </trkpt>
      <trkpt lat="46.02119" lon="6.76877">
        <ele>1173.7168</ele>
        <time>2014-09-01T09:51:40Z</time>
      </trkpt>
      <trkpt lat="46.02111" lon="6.76871">
        <ele>1175.7745</ele>
        <time>2014-09-01T09:51:45Z</time>
      </trkpt>
      <trkpt lat="46.02111" lon="6.76871">
        <ele>1175.7745</ele>
        <time>2014-09-01T09:51:50Z</time>
      </trkpt>
      <trkpt lat="46.02106" lon="6.76863">
        <ele>1175.7745</ele>
        <time>2014-09-01T09:51:55Z</time>
      </trkpt>
      <trkpt lat="46.02106" lon="6.76863">
        <ele>1175.7745</ele>
        <time>2014-09-01T09:52:00Z</time>
      </trkpt>
      <trkpt lat="46.02106" lon="6.76862">
        <ele>1175.7745</ele>
        <time>2014-09-01T09:52:35Z</time>
      </trkpt>
      <trkpt lat="46.02106" lon="6.7686">
        <ele>1175.7745</ele>
        <time>2014-09-01T09:52:40Z</time>
      </trkpt>
      <trkpt lat="46.02107" lon="6.76856">
        <ele>1177.9991</ele>
        <time>2014-09-01T09:52:45Z</time>
      </trkpt>
      <trkpt lat="46.02107" lon="6.76856">
        <ele>1177.9991</ele>
        <time>2014-09-01T09:52:50Z</time>
      </trkpt>
      <trkpt lat="46.02107" lon="6.76856">
        <ele>1177.9991</ele>
        <time>2014-09-01T09:53:00Z</time>
      </trkpt>
      <trkpt lat="46.02107" lon="6.76851">
        <ele>1177.9991</ele>
        <time>2014-09-01T09:53:05Z</time>
      </trkpt>
      <trkpt lat="46.02107" lon="6.76837">
        <ele>1179.6564</ele>
        <time>2014-09-01T09:53:10Z</time>
      </trkpt>
      <trkpt lat="46.02109" lon="6.7683">
        <ele>1179.6564</ele>
        <time>2014-09-01T09:53:15Z</time>
      </trkpt>
      <trkpt lat="46.02109" lon="6.76824">
        <ele>1181.3354</ele>
        <time>2014-09-01T09:53:20Z</time>
      </trkpt>
      <trkpt lat="46.02108" lon="6.76822">
        <ele>1181.3354</ele>
        <time>2014-09-01T09:53:25Z</time>
      </trkpt>
      <trkpt lat="46.02108" lon="6.76822">
        <ele>1181.3354</ele>
        <time>2014-09-01T09:53:30Z</time>
      </trkpt>
      <trkpt lat="46.02107" lon="6.76818">
        <ele>1181.3354</ele>
        <time>2014-09-01T09:53:40Z</time>
      </trkpt>
      <trkpt lat="46.02104" lon="6.7681">
        <ele>1183.0782</ele>
        <time>2014-09-01T09:53:45Z</time>
      </trkpt>
      <trkpt lat="46.02103" lon="6.76807">
        <ele>1183.0782</ele>
        <time>2014-09-01T09:53:50Z</time>
      </trkpt>
      <trkpt lat="46.02103" lon="6.76807">
        <ele>1183.0782</ele>
        <time>2014-09-01T09:53:55Z</time>
      </trkpt>
      <trkpt lat="46.02102" lon="6.76806">
        <ele>1183.0782</ele>
        <time>2014-09-01T09:54:00Z</time>
      </trkpt>
      <trkpt lat="46.02098" lon="6.76804">
        <ele>1183.0782</ele>
        <time>2014-09-01T09:54:05Z</time>
      </trkpt>
      <trkpt lat="46.02094" lon="6.76801">
        <ele>1184.7932</ele>
        <time>2014-09-01T09:54:10Z</time>
      </trkpt>
      <trkpt lat="46.0209" lon="6.768">
        <ele>1184.7932</ele>
        <time>2014-09-01T09:54:15Z</time>
      </trkpt>
      <trkpt lat="46.0209" lon="6.76799">
        <ele>1184.7932</ele>
        <time>2014-09-01T09:54:20Z</time>
      </trkpt>
      <trkpt lat="46.02088" lon="6.76797">
        <ele>1184.7932</ele>
        <time>2014-09-01T09:54:25Z</time>
      </trkpt>
      <trkpt lat="46.02082" lon="6.76792">
        <ele>1186.2665</ele>
        <time>2014-09-01T09:54:30Z</time>
      </trkpt>
      <trkpt lat="46.0208" lon="6.76786">
        <ele>1186.2665</ele>
        <time>2014-09-01T09:54:35Z</time>
      </trkpt>
      <trkpt lat="46.0208" lon="6.76786">
        <ele>1186.2665</ele>
        <time>2014-09-01T09:54:40Z</time>
      </trkpt>
      <trkpt lat="46.02079" lon="6.76782">
        <ele>1186.2665</ele>
        <time>2014-09-01T09:54:45Z</time>
      </trkpt>
      <trkpt lat="46.02077" lon="6.76771">
        <ele>1187.79</ele>
        <time>2014-09-01T09:54:50Z</time>
      </trkpt>
      <trkpt lat="46.02077" lon="6.76769">
        <ele>1187.79</ele>
        <time>2014-09-01T09:54:55Z</time>
      </trkpt>
      <trkpt lat="46.02075" lon="6.76756">
        <ele>1189.4908</ele>
        <time>2014-09-01T09:55:00Z</time>
      </trkpt>
      <trkpt lat="46.02075" lon="6.76751">
        <ele>1189.4908</ele>
        <time>2014-09-01T09:55:05Z</time>
      </trkpt>
      <trkpt lat="46.02071" lon="6.76745">
        <ele>1191.3124</ele>
        <time>2014-09-01T09:55:10Z</time>
      </trkpt>
      <trkpt lat="46.02068" lon="6.76742">
        <ele>1191.3124</ele>
        <time>2014-09-01T09:55:15Z</time>
      </trkpt>
      <trkpt lat="46.02067" lon="6.76742">
        <ele>1191.3124</ele>
        <time>2014-09-01T09:55:20Z</time>
      </trkpt>
      <trkpt lat="46.02067" lon="6.76742">
        <ele>1191.3124</ele>
        <time>2014-09-01T09:55:25Z</time>
      </trkpt>
      <trkpt lat="46.02066" lon="6.76739">
        <ele>1191.3124</ele>
        <time>2014-09-01T09:55:30Z</time>
      </trkpt>
      <trkpt lat="46.02066" lon="6.76739">
        <ele>1191.3124</ele>
        <time>2014-09-01T09:55:35Z</time>
      </trkpt>
      <trkpt lat="46.02061" lon="6.76737">
        <ele>1193.6206</ele>
        <time>2014-09-01T09:55:40Z</time>
      </trkpt>
      <trkpt lat="46.02056" lon="6.76731">
        <ele>1193.6206</ele>
        <time>2014-09-01T09:55:45Z</time>
      </trkpt>
      <trkpt lat="46.02054" lon="6.76728">
        <ele>1193.6206</ele>
        <time>2014-09-01T09:55:50Z</time>
      </trkpt>
      <trkpt lat="46.02052" lon="6.76718">
        <ele>1195.715</ele>
        <time>2014-09-01T09:55:55Z</time>
      </trkpt>
      <trkpt lat="46.02053" lon="6.76717">
        <ele>1195.715</ele>
        <time>2014-09-01T09:56:00Z</time>
      </trkpt>
      <trkpt lat="46.0205" lon="6.76712">
        <ele>1195.715</ele>
        <time>2014-09-01T09:56:05Z</time>
      </trkpt>
      <trkpt lat="46.0205" lon="6.7671">
        <ele>1195.715</ele>
        <time>2014-09-01T09:56:10Z</time>
      </trkpt>
      <trkpt lat="46.0205" lon="6.7671">
        <ele>1195.715</ele>
        <time>2014-09-01T09:56:15Z</time>
      </trkpt>
      <trkpt lat="46.02049" lon="6.76709">
        <ele>1195.715</ele>
        <time>2014-09-01T09:56:20Z</time>
      </trkpt>
      <trkpt lat="46.02049" lon="6.76709">
        <ele>1195.715</ele>
        <time>2014-09-01T09:56:25Z</time>
      </trkpt>
      <trkpt lat="46.02048" lon="6.76706">
        <ele>1198.2734</ele>
        <time>2014-09-01T09:56:30Z</time>
      </trkpt>
      <trkpt lat="46.02046" lon="6.76698">
        <ele>1198.2734</ele>
        <time>2014-09-01T09:56:35Z</time>
      </trkpt>
      <trkpt lat="46.02042" lon="6.76684">
        <ele>1200.6398</ele>
        <time>2014-09-01T09:56:40Z</time>
      </trkpt>
      <trkpt lat="46.02039" lon="6.76675">
        <ele>1200.6398</ele>
        <time>2014-09-01T09:56:45Z</time>
      </trkpt>
      <trkpt lat="46.02037" lon="6.76672">
        <ele>1202.6681</ele>
        <time>2014-09-01T09:56:50Z</time>
      </trkpt>
      <trkpt lat="46.02037" lon="6.76667">
        <ele>1202.6681</ele>
        <time>2014-09-01T09:56:55Z</time>
      </trkpt>
      <trkpt lat="46.02037" lon="6.76666">
        <ele>1202.6681</ele>
        <time>2014-09-01T09:57:00Z</time>
      </trkpt>
      <trkpt lat="46.02036" lon="6.76663">
        <ele>1202.6681</ele>
        <time>2014-09-01T09:57:05Z</time>
      </trkpt>
      <trkpt lat="46.02033" lon="6.7666">
        <ele>1204.6996</ele>
        <time>2014-09-01T09:57:10Z</time>
      </trkpt>
      <trkpt lat="46.02029" lon="6.7666">
        <ele>1204.6996</ele>
        <time>2014-09-01T09:57:15Z</time>
      </trkpt>
      <trkpt lat="46.02023" lon="6.76656">
        <ele>1206.7189</ele>
        <time>2014-09-01T09:57:20Z</time>
      </trkpt>
      <trkpt lat="46.02016" lon="6.76653">
        <ele>1206.7189</ele>
        <time>2014-09-01T09:57:25Z</time>
      </trkpt>
      <trkpt lat="46.02016" lon="6.76653">
        <ele>1206.7189</ele>
        <time>2014-09-01T09:57:30Z</time>
      </trkpt>
      <trkpt lat="46.02009" lon="6.76648">
        <ele>1209.0433</ele>
        <time>2014-09-01T09:57:35Z</time>
      </trkpt>
      <trkpt lat="46.02007" lon="6.76646">
        <ele>1209.0433</ele>
        <time>2014-09-01T09:57:40Z</time>
      </trkpt>
      <trkpt lat="46.02002" lon="6.76643">
        <ele>1209.0433</ele>
        <time>2014-09-01T09:57:45Z</time>
      </trkpt>
      <trkpt lat="46.01999" lon="6.76642">
        <ele>1211.3754</ele>
        <time>2014-09-01T09:57:50Z</time>
      </trkpt>
      <trkpt lat="46.01997" lon="6.76641">
        <ele>1211.3754</ele>
        <time>2014-09-01T09:57:55Z</time>
      </trkpt>
      <trkpt lat="46.01996" lon="6.76638">
        <ele>1211.3754</ele>
        <time>2014-09-01T09:58:00Z</time>
      </trkpt>
      <trkpt lat="46.01994" lon="6.76637">
        <ele>1211.3754</ele>
        <time>2014-09-01T09:58:05Z</time>
      </trkpt>
      <trkpt lat="46.01992" lon="6.76637">
        <ele>1211.3754</ele>
        <time>2014-09-01T09:58:10Z</time>
      </trkpt>
      <trkpt lat="46.01987" lon="6.76638">
        <ele>1213.6697</ele>
        <time>2014-09-01T09:58:15Z</time>
      </trkpt>
      <trkpt lat="46.01983" lon="6.76639">
        <ele>1213.6697</ele>
        <time>2014-09-01T09:58:20Z</time>
      </trkpt>
      <trkpt lat="46.01983" lon="6.76639">
        <ele>1213.6697</ele>
        <time>2014-09-01T09:58:25Z</time>
      </trkpt>
      <trkpt lat="46.01982" lon="6.76639">
        <ele>1213.6697</ele>
        <time>2014-09-01T09:58:30Z</time>
      </trkpt>
      <trkpt lat="46.01978" lon="6.76637">
        <ele>1215.9999</ele>
        <time>2014-09-01T09:58:35Z</time>
      </trkpt>
      <trkpt lat="46.01969" lon="6.76636">
        <ele>1215.9999</ele>
        <time>2014-09-01T09:58:40Z</time>
      </trkpt>
      <trkpt lat="46.01969" lon="6.76636">
        <ele>1215.9999</ele>
        <time>2014-09-01T09:58:45Z</time>
      </trkpt>
      <trkpt lat="46.01969" lon="6.76635">
        <ele>1218.1316</ele>
        <time>2014-09-01T09:58:55Z</time>
      </trkpt>
      <trkpt lat="46.01969" lon="6.76635">
        <ele>1218.1316</ele>
        <time>2014-09-01T09:59:00Z</time>
      </trkpt>
      <trkpt lat="46.01969" lon="6.76635">
        <ele>1218.1316</ele>
        <time>2014-09-01T09:59:40Z</time>
      </trkpt>
      <trkpt lat="46.01968" lon="6.7663">
        <ele>1218.1316</ele>
        <time>2014-09-01T09:59:45Z</time>
      </trkpt>
      <trkpt lat="46.01968" lon="6.7663">
        <ele>1218.1316</ele>
        <time>2014-09-01T09:59:50Z</time>
      </trkpt>
      <trkpt lat="46.01967" lon="6.76628">
        <ele>1218.1316</ele>
        <time>2014-09-01T09:59:55Z</time>
      </trkpt>
      <trkpt lat="46.01966" lon="6.76627">
        <ele>1218.1316</ele>
        <time>2014-09-01T10:00:00Z</time>
      </trkpt>
      <trkpt lat="46.01962" lon="6.76624">
        <ele>1220.0063</ele>
        <time>2014-09-01T10:00:05Z</time>
      </trkpt>
      <trkpt lat="46.01959" lon="6.76622">
        <ele>1220.0063</ele>
        <time>2014-09-01T10:00:10Z</time>
      </trkpt>
      <trkpt lat="46.01953" lon="6.76615">
        <ele>1221.8304</ele>
        <time>2014-09-01T10:00:15Z</time>
      </trkpt>
      <trkpt lat="46.01948" lon="6.76613">
        <ele>1221.8304</ele>
        <time>2014-09-01T10:00:20Z</time>
      </trkpt>
      <trkpt lat="46.01946" lon="6.7661">
        <ele>1221.8304</ele>
        <time>2014-09-01T10:00:25Z</time>
      </trkpt>
      <trkpt lat="46.01936" lon="6.76599">
        <ele>1223.8384</ele>
        <time>2014-09-01T10:00:30Z</time>
      </trkpt>
      <trkpt lat="46.01932" lon="6.76597">
        <ele>1223.8384</ele>
        <time>2014-09-01T10:00:35Z</time>
      </trkpt>
      <trkpt lat="46.01931" lon="6.76596">
        <ele>1223.8384</ele>
        <time>2014-09-01T10:00:40Z</time>
      </trkpt>
      <trkpt lat="46.01929" lon="6.76594">
        <ele>1223.8384</ele>
        <time>2014-09-01T10:00:45Z</time>
      </trkpt>
      <trkpt lat="46.01929" lon="6.76588">
        <ele>1225.6849</ele>
        <time>2014-09-01T10:00:50Z</time>
      </trkpt>
      <trkpt lat="46.01927" lon="6.76585">
        <ele>1225.6849</ele>
        <time>2014-09-01T10:00:55Z</time>
      </trkpt>
      <trkpt lat="46.01927" lon="6.76584">
        <ele>1225.6849</ele>
        <time>2014-09-01T10:01:00Z</time>
      </trkpt>
      <trkpt lat="46.01926" lon="6.76581">
        <ele>1225.6849</ele>
        <time>2014-09-01T10:01:05Z</time>
      </trkpt>
      <trkpt lat="46.01923" lon="6.76581">
        <ele>1225.6849</ele>
        <time>2014-09-01T10:01:10Z</time>
      </trkpt>
      <trkpt lat="46.01921" lon="6.7658">
        <ele>1227.0795</ele>
        <time>2014-09-01T10:01:15Z</time>
      </trkpt>
      <trkpt lat="46.01921" lon="6.76575">
        <ele>1227.0795</ele>
        <time>2014-09-01T10:01:20Z</time>
      </trkpt>
      <trkpt lat="46.01916" lon="6.7657">
        <ele>1228.2585</ele>
        <time>2014-09-01T10:01:25Z</time>
      </trkpt>
      <trkpt lat="46.01914" lon="6.76568">
        <ele>1228.2585</ele>
        <time>2014-09-01T10:01:30Z</time>
      </trkpt>
      <trkpt lat="46.01912" lon="6.76567">
        <ele>1228.2585</ele>
        <time>2014-09-01T10:01:35Z</time>
      </trkpt>
      <trkpt lat="46.01912" lon="6.76567">
        <ele>1228.2585</ele>
        <time>2014-09-01T10:01:40Z</time>
      </trkpt>
      <trkpt lat="46.01909" lon="6.76565">
        <ele>1228.2585</ele>
        <time>2014-09-01T10:01:45Z</time>
      </trkpt>
      <trkpt lat="46.01906" lon="6.76561">
        <ele>1229.6145</ele>
        <time>2014-09-01T10:01:50Z</time>
      </trkpt>
      <trkpt lat="46.01905" lon="6.76559">
        <ele>1229.6145</ele>
        <time>2014-09-01T10:01:55Z</time>
      </trkpt>
      <trkpt lat="46.01901" lon="6.76559">
        <ele>1229.6145</ele>
        <time>2014-09-01T10:02:00Z</time>
      </trkpt>
      <trkpt lat="46.01899" lon="6.76559">
        <ele>1229.6145</ele>
        <time>2014-09-01T10:02:05Z</time>
      </trkpt>
      <trkpt lat="46.01896" lon="6.7656">
        <ele>1230.8624</ele>
        <time>2014-09-01T10:02:10Z</time>
      </trkpt>
      <trkpt lat="46.01895" lon="6.76558">
        <ele>1230.8624</ele>
        <time>2014-09-01T10:02:15Z</time>
      </trkpt>
      <trkpt lat="46.01892" lon="6.76553">
        <ele>1230.8624</ele>
        <time>2014-09-01T10:02:20Z</time>
      </trkpt>
      <trkpt lat="46.01892" lon="6.76552">
        <ele>1230.8624</ele>
        <time>2014-09-01T10:02:25Z</time>
      </trkpt>
      <trkpt lat="46.0189" lon="6.7655">
        <ele>1231.8822</ele>
        <time>2014-09-01T10:02:30Z</time>
      </trkpt>
      <trkpt lat="46.01889" lon="6.7655">
        <ele>1231.8822</ele>
        <time>2014-09-01T10:02:35Z</time>
      </trkpt>
      <trkpt lat="46.01888" lon="6.76549">
        <ele>1231.8822</ele>
        <time>2014-09-01T10:02:40Z</time>
      </trkpt>
      <trkpt lat="46.01886" lon="6.76547">
        <ele>1231.8822</ele>
        <time>2014-09-01T10:02:45Z</time>
      </trkpt>
      <trkpt lat="46.01885" lon="6.76547">
        <ele>1231.8822</ele>
        <time>2014-09-01T10:02:50Z</time>
      </trkpt>
      <trkpt lat="46.01883" lon="6.76545">
        <ele>1231.8822</ele>
        <time>2014-09-01T10:02:55Z</time>
      </trkpt>
      <trkpt lat="46.01882" lon="6.76545">
        <ele>1233.9183</ele>
        <time>2014-09-01T10:03:00Z</time>
      </trkpt>
      <trkpt lat="46.0188" lon="6.76545">
        <ele>1233.9183</ele>
        <time>2014-09-01T10:03:05Z</time>
      </trkpt>
      <trkpt lat="46.01879" lon="6.76544">
        <ele>1233.9183</ele>
        <time>2014-09-01T10:03:10Z</time>
      </trkpt>
      <trkpt lat="46.01876" lon="6.76544">
        <ele>1233.9183</ele>
        <time>2014-09-01T10:03:15Z</time>
      </trkpt>
      <trkpt lat="46.01871" lon="6.76545">
        <ele>1236.2761</ele>
        <time>2014-09-01T10:03:20Z</time>
      </trkpt>
      <trkpt lat="46.01871" lon="6.76545">
        <ele>1236.2761</ele>
        <time>2014-09-01T10:03:25Z</time>
      </trkpt>
      <trkpt lat="46.01862" lon="6.76546">
        <ele>1236.2761</ele>
        <time>2014-09-01T10:03:35Z</time>
      </trkpt>
      <trkpt lat="46.01847" lon="6.76545">
        <ele>1238.6567</ele>
        <time>2014-09-01T10:03:40Z</time>
      </trkpt>
      <trkpt lat="46.01846" lon="6.76542">
        <ele>1238.6567</ele>
        <time>2014-09-01T10:03:45Z</time>
      </trkpt>
      <trkpt lat="46.01843" lon="6.76543">
        <ele>1238.6567</ele>
        <time>2014-09-01T10:03:50Z</time>
      </trkpt>
      <trkpt lat="46.01842" lon="6.76543">
        <ele>1238.6567</ele>
        <time>2014-09-01T10:03:55Z</time>
      </trkpt>
      <trkpt lat="46.01842" lon="6.76542">
        <ele>1238.6567</ele>
        <time>2014-09-01T10:04:00Z</time>
      </trkpt>
      <trkpt lat="46.01841" lon="6.76541">
        <ele>1238.6567</ele>
        <time>2014-09-01T10:04:05Z</time>
      </trkpt>
      <trkpt lat="46.01841" lon="6.76541">
        <ele>1238.6567</ele>
        <time>2014-09-01T10:04:10Z</time>
      </trkpt>
      <trkpt lat="46.01836" lon="6.76538">
        <ele>1241.2161</ele>
        <time>2014-09-01T10:04:15Z</time>
      </trkpt>
      <trkpt lat="46.0183" lon="6.76532">
        <ele>1241.2161</ele>
        <time>2014-09-01T10:04:20Z</time>
      </trkpt>
      <trkpt lat="46.01826" lon="6.76534">
        <ele>1244.0398</ele>
        <time>2014-09-01T10:04:25Z</time>
      </trkpt>
      <trkpt lat="46.01826" lon="6.76534">
        <ele>1244.0398</ele>
        <time>2014-09-01T10:04:30Z</time>
      </trkpt>
      <trkpt lat="46.01826" lon="6.76534">
        <ele>1244.0398</ele>
        <time>2014-09-01T10:04:35Z</time>
      </trkpt>
      <trkpt lat="46.01825" lon="6.76533">
        <ele>1244.0398</ele>
        <time>2014-09-01T10:04:50Z</time>
      </trkpt>
      <trkpt lat="46.01822" lon="6.76532">
        <ele>1244.0398</ele>
        <time>2014-09-01T10:04:55Z</time>
      </trkpt>
      <trkpt lat="46.01822" lon="6.76532">
        <ele>1244.0398</ele>
        <time>2014-09-01T10:05:00Z</time>
      </trkpt>
      <trkpt lat="46.0182" lon="6.76531">
        <ele>1244.0398</ele>
        <time>2014-09-01T10:05:05Z</time>
      </trkpt>
      <trkpt lat="46.01818" lon="6.76531">
        <ele>1244.0398</ele>
        <time>2014-09-01T10:05:10Z</time>
      </trkpt>
      <trkpt lat="46.01818" lon="6.76531">
        <ele>1244.0398</ele>
        <time>2014-09-01T10:05:15Z</time>
      </trkpt>
      <trkpt lat="46.01818" lon="6.76528">
        <ele>1247.4952</ele>
        <time>2014-09-01T10:05:20Z</time>
      </trkpt>
      <trkpt lat="46.01815" lon="6.76527">
        <ele>1247.4952</ele>
        <time>2014-09-01T10:05:25Z</time>
      </trkpt>
      <trkpt lat="46.01815" lon="6.76527">
        <ele>1247.4952</ele>
        <time>2014-09-01T10:05:30Z</time>
      </trkpt>
      <trkpt lat="46.01813" lon="6.76521">
        <ele>1247.4952</ele>
        <time>2014-09-01T10:05:35Z</time>
      </trkpt>
      <trkpt lat="46.01811" lon="6.7652">
        <ele>1250.5807</ele>
        <time>2014-09-01T10:05:40Z</time>
      </trkpt>
      <trkpt lat="46.0181" lon="6.76519">
        <ele>1250.5807</ele>
        <time>2014-09-01T10:05:45Z</time>
      </trkpt>
      <trkpt lat="46.0181" lon="6.76519">
        <ele>1250.5807</ele>
        <time>2014-09-01T10:05:50Z</time>
      </trkpt>
      <trkpt lat="46.01804" lon="6.76514">
        <ele>1250.5807</ele>
        <time>2014-09-01T10:05:55Z</time>
      </trkpt>
      <trkpt lat="46.01802" lon="6.76512">
        <ele>1253.5217</ele>
        <time>2014-09-01T10:06:00Z</time>
      </trkpt>
      <trkpt lat="46.018" lon="6.7651">
        <ele>1253.5217</ele>
        <time>2014-09-01T10:06:05Z</time>
      </trkpt>
      <trkpt lat="46.018" lon="6.7651">
        <ele>1253.5217</ele>
        <time>2014-09-01T10:06:10Z</time>
      </trkpt>
      <trkpt lat="46.01798" lon="6.76508">
        <ele>1253.5217</ele>
        <time>2014-09-01T10:06:15Z</time>
      </trkpt>
      <trkpt lat="46.01798" lon="6.76495">
        <ele>1256.283</ele>
        <time>2014-09-01T10:06:20Z</time>
      </trkpt>
      <trkpt lat="46.01798" lon="6.76492">
        <ele>1256.283</ele>
        <time>2014-09-01T10:06:25Z</time>
      </trkpt>
      <trkpt lat="46.01797" lon="6.76489">
        <ele>1256.283</ele>
        <time>2014-09-01T10:06:30Z</time>
      </trkpt>
      <trkpt lat="46.01791" lon="6.7648">
        <ele>1258.5153</ele>
        <time>2014-09-01T10:06:35Z</time>
      </trkpt>
      <trkpt lat="46.01792" lon="6.76467">
        <ele>1260.3143</ele>
        <time>2014-09-01T10:06:40Z</time>
      </trkpt>
      <trkpt lat="46.01791" lon="6.7646">
        <ele>1260.3143</ele>
        <time>2014-09-01T10:06:45Z</time>
      </trkpt>
      <trkpt lat="46.01789" lon="6.76459">
        <ele>1260.3143</ele>
        <time>2014-09-01T10:06:50Z</time>
      </trkpt>
      <trkpt lat="46.01789" lon="6.76459">
        <ele>1260.3143</ele>
        <time>2014-09-01T10:06:55Z</time>
      </trkpt>
      <trkpt lat="46.01788" lon="6.76457">
        <ele>1260.3143</ele>
        <time>2014-09-01T10:07:05Z</time>
      </trkpt>
      <trkpt lat="46.01787" lon="6.76454">
        <ele>1262.2601</ele>
        <time>2014-09-01T10:07:10Z</time>
      </trkpt>
      <trkpt lat="46.01785" lon="6.76454">
        <ele>1262.2601</ele>
        <time>2014-09-01T10:07:15Z</time>
      </trkpt>
      <trkpt lat="46.01783" lon="6.76449">
        <ele>1262.2601</ele>
        <time>2014-09-01T10:07:20Z</time>
      </trkpt>
      <trkpt lat="46.01778" lon="6.76446">
        <ele>1264.3566</ele>
        <time>2014-09-01T10:07:25Z</time>
      </trkpt>
      <trkpt lat="46.01776" lon="6.76439">
        <ele>1264.3566</ele>
        <time>2014-09-01T10:07:30Z</time>
      </trkpt>
      <trkpt lat="46.01775" lon="6.76438">
        <ele>1264.3566</ele>
        <time>2014-09-01T10:07:35Z</time>
      </trkpt>
      <trkpt lat="46.01773" lon="6.76437">
        <ele>1266.3474</ele>
        <time>2014-09-01T10:07:40Z</time>
      </trkpt>
      <trkpt lat="46.01773" lon="6.76436">
        <ele>1266.3474</ele>
        <time>2014-09-01T10:07:45Z</time>
      </trkpt>
      <trkpt lat="46.01771" lon="6.76436">
        <ele>1266.3474</ele>
        <time>2014-09-01T10:07:50Z</time>
      </trkpt>
      <trkpt lat="46.01769" lon="6.76436">
        <ele>1266.3474</ele>
        <time>2014-09-01T10:07:55Z</time>
      </trkpt>
      <trkpt lat="46.01766" lon="6.76435">
        <ele>1266.3474</ele>
        <time>2014-09-01T10:08:00Z</time>
      </trkpt>
      <trkpt lat="46.0176" lon="6.76434">
        <ele>1268.298</ele>
        <time>2014-09-01T10:08:05Z</time>
      </trkpt>
      <trkpt lat="46.01759" lon="6.76434">
        <ele>1268.298</ele>
        <time>2014-09-01T10:08:10Z</time>
      </trkpt>
      <trkpt lat="46.01757" lon="6.7643">
        <ele>1268.298</ele>
        <time>2014-09-01T10:08:15Z</time>
      </trkpt>
      <trkpt lat="46.01753" lon="6.76425">
        <ele>1270.2406</ele>
        <time>2014-09-01T10:08:20Z</time>
      </trkpt>
      <trkpt lat="46.0175" lon="6.76421">
        <ele>1270.2406</ele>
        <time>2014-09-01T10:08:25Z</time>
      </trkpt>
      <trkpt lat="46.0175" lon="6.76421">
        <ele>1270.2406</ele>
        <time>2014-09-01T10:08:30Z</time>
      </trkpt>
      <trkpt lat="46.01746" lon="6.76421">
        <ele>1270.2406</ele>
        <time>2014-09-01T10:08:35Z</time>
      </trkpt>
      <trkpt lat="46.01745" lon="6.76422">
        <ele>1270.2406</ele>
        <time>2014-09-01T10:08:40Z</time>
      </trkpt>
      <trkpt lat="46.01745" lon="6.76422">
        <ele>1270.2406</ele>
        <time>2014-09-01T10:08:45Z</time>
      </trkpt>
      <trkpt lat="46.01745" lon="6.76421">
        <ele>1272.2625</ele>
        <time>2014-09-01T10:08:50Z</time>
      </trkpt>
      <trkpt lat="46.01745" lon="6.76417">
        <ele>1272.2625</ele>
        <time>2014-09-01T10:08:55Z</time>
      </trkpt>
      <trkpt lat="46.01742" lon="6.76416">
        <ele>1272.2625</ele>
        <time>2014-09-01T10:09:00Z</time>
      </trkpt>
      <trkpt lat="46.01742" lon="6.76416">
        <ele>1272.2625</ele>
        <time>2014-09-01T10:09:05Z</time>
      </trkpt>
      <trkpt lat="46.01739" lon="6.76414">
        <ele>1272.2625</ele>
        <time>2014-09-01T10:09:10Z</time>
      </trkpt>
      <trkpt lat="46.01739" lon="6.76414">
        <ele>1272.2625</ele>
        <time>2014-09-01T10:09:15Z</time>
      </trkpt>
      <trkpt lat="46.01737" lon="6.76411">
        <ele>1275.554</ele>
        <time>2014-09-01T10:09:25Z</time>
      </trkpt>
      <trkpt lat="46.01735" lon="6.76411">
        <ele>1275.554</ele>
        <time>2014-09-01T10:09:30Z</time>
      </trkpt>
      <trkpt lat="46.01734" lon="6.76411">
        <ele>1275.554</ele>
        <time>2014-09-01T10:09:35Z</time>
      </trkpt>
      <trkpt lat="46.0173" lon="6.76409">
        <ele>1275.554</ele>
        <time>2014-09-01T10:09:40Z</time>
      </trkpt>
      <trkpt lat="46.01726" lon="6.76407">
        <ele>1278.8368</ele>
        <time>2014-09-01T10:09:45Z</time>
      </trkpt>
      <trkpt lat="46.01724" lon="6.76406">
        <ele>1278.8368</ele>
        <time>2014-09-01T10:09:50Z</time>
      </trkpt>
      <trkpt lat="46.01719" lon="6.76404">
        <ele>1278.8368</ele>
        <time>2014-09-01T10:09:55Z</time>
      </trkpt>
      <trkpt lat="46.01714" lon="6.76404">
        <ele>1281.9929</ele>
        <time>2014-09-01T10:10:00Z</time>
      </trkpt>
      <trkpt lat="46.01712" lon="6.76403">
        <ele>1281.9929</ele>
        <time>2014-09-01T10:10:05Z</time>
      </trkpt>
      <trkpt lat="46.01712" lon="6.76398">
        <ele>1281.9929</ele>
        <time>2014-09-01T10:10:10Z</time>
      </trkpt>
      <trkpt lat="46.01708" lon="6.7639">
        <ele>1284.9998</ele>
        <time>2014-09-01T10:10:15Z</time>
      </trkpt>
      <trkpt lat="46.01702" lon="6.76384">
        <ele>1284.9998</ele>
        <time>2014-09-01T10:10:20Z</time>
      </trkpt>
      <trkpt lat="46.017" lon="6.7638">
        <ele>1287.5778</ele>
        <time>2014-09-01T10:10:25Z</time>
      </trkpt>
      <trkpt lat="46.01699" lon="6.7638">
        <ele>1287.5778</ele>
        <time>2014-09-01T10:10:30Z</time>
      </trkpt>
      <trkpt lat="46.01695" lon="6.76375">
        <ele>1287.5778</ele>
        <time>2014-09-01T10:10:35Z</time>
      </trkpt>
      <trkpt lat="46.0169" lon="6.76374">
        <ele>1290.0452</ele>
        <time>2014-09-01T10:10:40Z</time>
      </trkpt>
      <trkpt lat="46.01688" lon="6.76373">
        <ele>1290.0452</ele>
        <time>2014-09-01T10:10:45Z</time>
      </trkpt>
      <trkpt lat="46.01686" lon="6.76371">
        <ele>1290.0452</ele>
        <time>2014-09-01T10:10:50Z</time>
      </trkpt>
      <trkpt lat="46.01682" lon="6.76366">
        <ele>1292.7407</ele>
        <time>2014-09-01T10:10:55Z</time>
      </trkpt>
      <trkpt lat="46.01679" lon="6.76363">
        <ele>1292.7407</ele>
        <time>2014-09-01T10:11:00Z</time>
      </trkpt>
      <trkpt lat="46.01676" lon="6.76362">
        <ele>1292.7407</ele>
        <time>2014-09-01T10:11:05Z</time>
      </trkpt>
      <trkpt lat="46.01675" lon="6.7636">
        <ele>1292.7407</ele>
        <time>2014-09-01T10:11:10Z</time>
      </trkpt>
      <trkpt lat="46.01668" lon="6.7636">
        <ele>1295.3291</ele>
        <time>2014-09-01T10:11:15Z</time>
      </trkpt>
      <trkpt lat="46.01664" lon="6.76357">
        <ele>1295.3291</ele>
        <time>2014-09-01T10:11:20Z</time>
      </trkpt>
      <trkpt lat="46.01662" lon="6.76355">
        <ele>1295.3291</ele>
        <time>2014-09-01T10:11:25Z</time>
      </trkpt>
      <trkpt lat="46.01662" lon="6.76352">
        <ele>1297.3705</ele>
        <time>2014-09-01T10:11:30Z</time>
      </trkpt>
      <trkpt lat="46.01661" lon="6.7635">
        <ele>1297.3705</ele>
        <time>2014-09-01T10:11:35Z</time>
      </trkpt>
      <trkpt lat="46.01659" lon="6.76348">
        <ele>1297.3705</ele>
        <time>2014-09-01T10:11:40Z</time>
      </trkpt>
      <trkpt lat="46.01658" lon="6.76347">
        <ele>1297.3705</ele>
        <time>2014-09-01T10:11:45Z</time>
      </trkpt>
      <trkpt lat="46.01655" lon="6.76346">
        <ele>1297.3705</ele>
        <time>2014-09-01T10:11:50Z</time>
      </trkpt>
      <trkpt lat="46.01651" lon="6.76344">
        <ele>1298.6025</ele>
        <time>2014-09-01T10:11:55Z</time>
      </trkpt>
      <trkpt lat="46.01649" lon="6.76342">
        <ele>1298.6025</ele>
        <time>2014-09-01T10:12:00Z</time>
      </trkpt>
      <trkpt lat="46.01649" lon="6.76342">
        <ele>1298.6025</ele>
        <time>2014-09-01T10:12:05Z</time>
      </trkpt>
      <trkpt lat="46.01648" lon="6.76341">
        <ele>1298.6025</ele>
        <time>2014-09-01T10:12:10Z</time>
      </trkpt>
      <trkpt lat="46.01644" lon="6.7634">
        <ele>1298.6025</ele>
        <time>2014-09-01T10:12:15Z</time>
      </trkpt>
      <trkpt lat="46.01643" lon="6.7634">
        <ele>1299.837</ele>
        <time>2014-09-01T10:12:20Z</time>
      </trkpt>
      <trkpt lat="46.0164" lon="6.76339">
        <ele>1299.837</ele>
        <time>2014-09-01T10:12:25Z</time>
      </trkpt>
      <trkpt lat="46.01636" lon="6.76334">
        <ele>1299.837</ele>
        <time>2014-09-01T10:12:30Z</time>
      </trkpt>
      <trkpt lat="46.01634" lon="6.76333">
        <ele>1301.0332</ele>
        <time>2014-09-01T10:12:35Z</time>
      </trkpt>
      <trkpt lat="46.01631" lon="6.76332">
        <ele>1301.0332</ele>
        <time>2014-09-01T10:12:40Z</time>
      </trkpt>
      <trkpt lat="46.01627" lon="6.76332">
        <ele>1301.0332</ele>
        <time>2014-09-01T10:12:45Z</time>
      </trkpt>
      <trkpt lat="46.01623" lon="6.76331">
        <ele>1302.2544</ele>
        <time>2014-09-01T10:12:50Z</time>
      </trkpt>
      <trkpt lat="46.01617" lon="6.76325">
        <ele>1302.2544</ele>
        <time>2014-09-01T10:12:55Z</time>
      </trkpt>
      <trkpt lat="46.01618" lon="6.76323">
        <ele>1302.2544</ele>
        <time>2014-09-01T10:13:00Z</time>
      </trkpt>
      <trkpt lat="46.01616" lon="6.76322">
        <ele>1303.7035</ele>
        <time>2014-09-01T10:13:05Z</time>
      </trkpt>
      <trkpt lat="46.01614" lon="6.76321">
        <ele>1303.7035</ele>
        <time>2014-09-01T10:13:10Z</time>
      </trkpt>
      <trkpt lat="46.0161" lon="6.76319">
        <ele>1303.7035</ele>
        <time>2014-09-01T10:13:15Z</time>
      </trkpt>
      <trkpt lat="46.01607" lon="6.76317">
        <ele>1305.2218</ele>
        <time>2014-09-01T10:13:20Z</time>
      </trkpt>
      <trkpt lat="46.01605" lon="6.76314">
        <ele>1305.2218</ele>
        <time>2014-09-01T10:13:25Z</time>
      </trkpt>
      <trkpt lat="46.01603" lon="6.76311">
        <ele>1305.2218</ele>
        <time>2014-09-01T10:13:30Z</time>
      </trkpt>
      <trkpt lat="46.016" lon="6.76305">
        <ele>1306.8348</ele>
        <time>2014-09-01T10:13:35Z</time>
      </trkpt>
      <trkpt lat="46.01597" lon="6.76305">
        <ele>1306.8348</ele>
        <time>2014-09-01T10:13:40Z</time>
      </trkpt>
      <trkpt lat="46.01595" lon="6.76305">
        <ele>1306.8348</ele>
        <time>2014-09-01T10:13:45Z</time>
      </trkpt>
      <trkpt lat="46.01591" lon="6.763">
        <ele>1308.0045</ele>
        <time>2014-09-01T10:13:50Z</time>
      </trkpt>
      <trkpt lat="46.01589" lon="6.763">
        <ele>1308.0045</ele>
        <time>2014-09-01T10:13:55Z</time>
      </trkpt>
      <trkpt lat="46.01585" lon="6.76296">
        <ele>1308.0045</ele>
        <time>2014-09-01T10:14:00Z</time>
      </trkpt>
      <trkpt lat="46.01583" lon="6.76292">
        <ele>1308.766</ele>
        <time>2014-09-01T10:14:05Z</time>
      </trkpt>
      <trkpt lat="46.01581" lon="6.76286">
        <ele>1308.766</ele>
        <time>2014-09-01T10:14:10Z</time>
      </trkpt>
      <trkpt lat="46.01581" lon="6.76278">
        <ele>1309.4994</ele>
        <time>2014-09-01T10:14:15Z</time>
      </trkpt>
      <trkpt lat="46.01581" lon="6.76275">
        <ele>1309.4994</ele>
        <time>2014-09-01T10:14:20Z</time>
      </trkpt>
      <trkpt lat="46.01581" lon="6.76272">
        <ele>1309.4994</ele>
        <time>2014-09-01T10:14:25Z</time>
      </trkpt>
      <trkpt lat="46.01581" lon="6.7627">
        <ele>1309.4994</ele>
        <time>2014-09-01T10:14:30Z</time>
      </trkpt>
      <trkpt lat="46.01581" lon="6.7627">
        <ele>1309.4994</ele>
        <time>2014-09-01T10:14:35Z</time>
      </trkpt>
      <trkpt lat="46.01577" lon="6.76263">
        <ele>1310.2108</ele>
        <time>2014-09-01T10:14:40Z</time>
      </trkpt>
      <trkpt lat="46.01575" lon="6.76256">
        <ele>1310.2108</ele>
        <time>2014-09-01T10:14:45Z</time>
      </trkpt>
      <trkpt lat="46.01574" lon="6.76251">
        <ele>1310.2108</ele>
        <time>2014-09-01T10:14:50Z</time>
      </trkpt>
      <trkpt lat="46.01573" lon="6.76246">
        <ele>1310.978</ele>
        <time>2014-09-01T10:14:55Z</time>
      </trkpt>
      <trkpt lat="46.01567" lon="6.76241">
        <ele>1310.978</ele>
        <time>2014-09-01T10:15:00Z</time>
      </trkpt>
      <trkpt lat="46.01565" lon="6.7624">
        <ele>1311.7433</ele>
        <time>2014-09-01T10:15:05Z</time>
      </trkpt>
      <trkpt lat="46.01564" lon="6.76234">
        <ele>1311.7433</ele>
        <time>2014-09-01T10:15:10Z</time>
      </trkpt>
      <trkpt lat="46.01563" lon="6.76231">
        <ele>1311.7433</ele>
        <time>2014-09-01T10:15:15Z</time>
      </trkpt>
      <trkpt lat="46.01562" lon="6.76227">
        <ele>1312.5538</ele>
        <time>2014-09-01T10:15:20Z</time>
      </trkpt>
      <trkpt lat="46.01562" lon="6.76224">
        <ele>1312.5538</ele>
        <time>2014-09-01T10:15:25Z</time>
      </trkpt>
      <trkpt lat="46.01558" lon="6.76223">
        <ele>1312.5538</ele>
        <time>2014-09-01T10:15:30Z</time>
      </trkpt>
      <trkpt lat="46.01556" lon="6.76219">
        <ele>1313.3667</ele>
        <time>2014-09-01T10:15:35Z</time>
      </trkpt>
      <trkpt lat="46.01555" lon="6.76219">
        <ele>1313.3667</ele>
        <time>2014-09-01T10:15:40Z</time>
      </trkpt>
      <trkpt lat="46.01554" lon="6.76218">
        <ele>1313.3667</ele>
        <time>2014-09-01T10:15:45Z</time>
      </trkpt>
      <trkpt lat="46.01552" lon="6.76217">
        <ele>1313.3667</ele>
        <time>2014-09-01T10:15:50Z</time>
      </trkpt>
      <trkpt lat="46.01551" lon="6.76213">
        <ele>1313.3667</ele>
        <time>2014-09-01T10:15:55Z</time>
      </trkpt>
      <trkpt lat="46.01548" lon="6.76207">
        <ele>1314.2141</ele>
        <time>2014-09-01T10:16:00Z</time>
      </trkpt>
      <trkpt lat="46.01548" lon="6.76203">
        <ele>1314.2141</ele>
        <time>2014-09-01T10:16:05Z</time>
      </trkpt>
      <trkpt lat="46.01546" lon="6.76198">
        <ele>1314.2141</ele>
        <time>2014-09-01T10:16:10Z</time>
      </trkpt>
      <trkpt lat="46.01542" lon="6.76196">
        <ele>1315.3131</ele>
        <time>2014-09-01T10:16:15Z</time>
      </trkpt>
      <trkpt lat="46.0154" lon="6.76195">
        <ele>1315.3131</ele>
        <time>2014-09-01T10:16:20Z</time>
      </trkpt>
      <trkpt lat="46.01538" lon="6.76194">
        <ele>1315.3131</ele>
        <time>2014-09-01T10:16:25Z</time>
      </trkpt>
      <trkpt lat="46.01537" lon="6.76192">
        <ele>1315.3131</ele>
        <time>2014-09-01T10:16:30Z</time>
      </trkpt>
      <trkpt lat="46.01535" lon="6.76193">
        <ele>1315.3131</ele>
        <time>2014-09-01T10:16:35Z</time>
      </trkpt>
      <trkpt lat="46.01534" lon="6.76191">
        <ele>1316.1437</ele>
        <time>2014-09-01T10:16:40Z</time>
      </trkpt>
      <trkpt lat="46.01533" lon="6.7619">
        <ele>1316.1437</ele>
        <time>2014-09-01T10:16:45Z</time>
      </trkpt>
      <trkpt lat="46.01532" lon="6.76187">
        <ele>1316.1437</ele>
        <time>2014-09-01T10:16:50Z</time>
      </trkpt>
      <trkpt lat="46.0153" lon="6.76184">
        <ele>1316.1437</ele>
        <time>2014-09-01T10:16:55Z</time>
      </trkpt>
      <trkpt lat="46.01529" lon="6.76184">
        <ele>1316.1437</ele>
        <time>2014-09-01T10:17:00Z</time>
      </trkpt>
      <trkpt lat="46.01527" lon="6.76182">
        <ele>1316.8726</ele>
        <time>2014-09-01T10:17:05Z</time>
      </trkpt>
      <trkpt lat="46.01526" lon="6.76181">
        <ele>1316.8726</ele>
        <time>2014-09-01T10:17:10Z</time>
      </trkpt>
      <trkpt lat="46.01524" lon="6.76179">
        <ele>1316.8726</ele>
        <time>2014-09-01T10:17:15Z</time>
      </trkpt>
      <trkpt lat="46.01521" lon="6.76178">
        <ele>1316.8726</ele>
        <time>2014-09-01T10:17:20Z</time>
      </trkpt>
      <trkpt lat="46.01519" lon="6.76178">
        <ele>1316.8726</ele>
        <time>2014-09-01T10:17:25Z</time>
      </trkpt>
      <trkpt lat="46.01517" lon="6.76176">
        <ele>1317.8425</ele>
        <time>2014-09-01T10:17:30Z</time>
      </trkpt>
      <trkpt lat="46.01514" lon="6.76174">
        <ele>1317.8425</ele>
        <time>2014-09-01T10:17:35Z</time>
      </trkpt>
      <trkpt lat="46.01511" lon="6.76172">
        <ele>1317.8425</ele>
        <time>2014-09-01T10:17:40Z</time>
      </trkpt>
      <trkpt lat="46.01509" lon="6.76172">
        <ele>1317.8425</ele>
        <time>2014-09-01T10:17:45Z</time>
      </trkpt>
      <trkpt lat="46.01507" lon="6.76171">
        <ele>1318.7212</ele>
        <time>2014-09-01T10:17:50Z</time>
      </trkpt>
      <trkpt lat="46.01505" lon="6.76169">
        <ele>1318.7212</ele>
        <time>2014-09-01T10:17:55Z</time>
      </trkpt>
      <trkpt lat="46.01503" lon="6.76168">
        <ele>1318.7212</ele>
        <time>2014-09-01T10:18:00Z</time>
      </trkpt>
      <trkpt lat="46.01503" lon="6.76168">
        <ele>1318.7212</ele>
        <time>2014-09-01T10:18:05Z</time>
      </trkpt>
      <trkpt lat="46.01503" lon="6.76168">
        <ele>1318.7212</ele>
        <time>2014-09-01T10:18:10Z</time>
      </trkpt>
      <trkpt lat="46.01502" lon="6.76168">
        <ele>1318.7212</ele>
        <time>2014-09-01T10:18:20Z</time>
      </trkpt>
      <trkpt lat="46.01502" lon="6.76168">
        <ele>1318.7212</ele>
        <time>2014-09-01T10:18:25Z</time>
      </trkpt>
      <trkpt lat="46.015" lon="6.76168">
        <ele>1318.7212</ele>
        <time>2014-09-01T10:18:40Z</time>
      </trkpt>
      <trkpt lat="46.015" lon="6.76167">
        <ele>1318.7212</ele>
        <time>2014-09-01T10:18:45Z</time>
      </trkpt>
      <trkpt lat="46.015" lon="6.76167">
        <ele>1318.7212</ele>
        <time>2014-09-01T10:18:50Z</time>
      </trkpt>
      <trkpt lat="46.01498" lon="6.76167">
        <ele>1320.0085</ele>
        <time>2014-09-01T10:19:30Z</time>
      </trkpt>
      <trkpt lat="46.01494" lon="6.76165">
        <ele>1320.0085</ele>
        <time>2014-09-01T10:19:35Z</time>
      </trkpt>
      <trkpt lat="46.01491" lon="6.76167">
        <ele>1320.0085</ele>
        <time>2014-09-01T10:19:40Z</time>
      </trkpt>
      <trkpt lat="46.01489" lon="6.76173">
        <ele>1321.4596</ele>
        <time>2014-09-01T10:19:45Z</time>
      </trkpt>
      <trkpt lat="46.01488" lon="6.76179">
        <ele>1321.4596</ele>
        <time>2014-09-01T10:19:50Z</time>
      </trkpt>
      <trkpt lat="46.01488" lon="6.76181">
        <ele>1321.4596</ele>
        <time>2014-09-01T10:19:55Z</time>
      </trkpt>
      <trkpt lat="46.01488" lon="6.76185">
        <ele>1321.4596</ele>
        <time>2014-09-01T10:20:00Z</time>
      </trkpt>
      <trkpt lat="46.01488" lon="6.76185">
        <ele>1321.4596</ele>
        <time>2014-09-01T10:20:05Z</time>
      </trkpt>
      <trkpt lat="46.0149" lon="6.7619">
        <ele>1323.6115</ele>
        <time>2014-09-01T10:20:10Z</time>
      </trkpt>
      <trkpt lat="46.0149" lon="6.7619">
        <ele>1323.6115</ele>
        <time>2014-09-01T10:20:15Z</time>
      </trkpt>
      <trkpt lat="46.01489" lon="6.76195">
        <ele>1323.6115</ele>
        <time>2014-09-01T10:20:20Z</time>
      </trkpt>
      <trkpt lat="46.01489" lon="6.76195">
        <ele>1323.6115</ele>
        <time>2014-09-01T10:20:25Z</time>
      </trkpt>
      <trkpt lat="46.01488" lon="6.76198">
        <ele>1323.6115</ele>
        <time>2014-09-01T10:20:30Z</time>
      </trkpt>
      <trkpt lat="46.01487" lon="6.76203">
        <ele>1323.6115</ele>
        <time>2014-09-01T10:20:35Z</time>
      </trkpt>
      <trkpt lat="46.01487" lon="6.76211">
        <ele>1325.7916</ele>
        <time>2014-09-01T10:20:40Z</time>
      </trkpt>
      <trkpt lat="46.01487" lon="6.76213">
        <ele>1325.7916</ele>
        <time>2014-09-01T10:20:45Z</time>
      </trkpt>
      <trkpt lat="46.01484" lon="6.76214">
        <ele>1325.7916</ele>
        <time>2014-09-01T10:20:50Z</time>
      </trkpt>
      <trkpt lat="46.01481" lon="6.76214">
        <ele>1325.7916</ele>
        <time>2014-09-01T10:20:55Z</time>
      </trkpt>
      <trkpt lat="46.0148" lon="6.76212">
        <ele>1325.7916</ele>
        <time>2014-09-01T10:21:00Z</time>
      </trkpt>
      <trkpt lat="46.01479" lon="6.76208">
        <ele>1328.0549</ele>
        <time>2014-09-01T10:21:05Z</time>
      </trkpt>
      <trkpt lat="46.01479" lon="6.76208">
        <ele>1328.0549</ele>
        <time>2014-09-01T10:21:10Z</time>
      </trkpt>
      <trkpt lat="46.01478" lon="6.76204">
        <ele>1328.0549</ele>
        <time>2014-09-01T10:21:15Z</time>
      </trkpt>
      <trkpt lat="46.01476" lon="6.76204">
        <ele>1328.0549</ele>
        <time>2014-09-01T10:21:20Z</time>
      </trkpt>
      <trkpt lat="46.01476" lon="6.76203">
        <ele>1328.0549</ele>
        <time>2014-09-01T10:21:25Z</time>
      </trkpt>
      <trkpt lat="46.01475" lon="6.76199">
        <ele>1328.0549</ele>
        <time>2014-09-01T10:21:30Z</time>
      </trkpt>
      <trkpt lat="46.01474" lon="6.76197">
        <ele>1330.4224</ele>
        <time>2014-09-01T10:21:35Z</time>
      </trkpt>
      <trkpt lat="46.01474" lon="6.76194">
        <ele>1330.4224</ele>
        <time>2014-09-01T10:21:40Z</time>
      </trkpt>
      <trkpt lat="46.01474" lon="6.76192">
        <ele>1330.4224</ele>
        <time>2014-09-01T10:21:45Z</time>
      </trkpt>
      <trkpt lat="46.0147" lon="6.76193">
        <ele>1330.4224</ele>
        <time>2014-09-01T10:21:50Z</time>
      </trkpt>
      <trkpt lat="46.01468" lon="6.7619">
        <ele>1332.7261</ele>
        <time>2014-09-01T10:21:55Z</time>
      </trkpt>
      <trkpt lat="46.01466" lon="6.76188">
        <ele>1332.7261</ele>
        <time>2014-09-01T10:22:00Z</time>
      </trkpt>
      <trkpt lat="46.01463" lon="6.76185">
        <ele>1332.7261</ele>
        <time>2014-09-01T10:22:05Z</time>
      </trkpt>
      <trkpt lat="46.01461" lon="6.76186">
        <ele>1332.7261</ele>
        <time>2014-09-01T10:22:10Z</time>
      </trkpt>
      <trkpt lat="46.0146" lon="6.76185">
        <ele>1334.8684</ele>
        <time>2014-09-01T10:22:15Z</time>
      </trkpt>
      <trkpt lat="46.01459" lon="6.76184">
        <ele>1334.8684</ele>
        <time>2014-09-01T10:22:20Z</time>
      </trkpt>
      <trkpt lat="46.01457" lon="6.76183">
        <ele>1334.8684</ele>
        <time>2014-09-01T10:22:25Z</time>
      </trkpt>
      <trkpt lat="46.01457" lon="6.76179">
        <ele>1334.8684</ele>
        <time>2014-09-01T10:22:30Z</time>
      </trkpt>
      <trkpt lat="46.01456" lon="6.76177">
        <ele>1334.8684</ele>
        <time>2014-09-01T10:22:35Z</time>
      </trkpt>
      <trkpt lat="46.01454" lon="6.76175">
        <ele>1337.0038</ele>
        <time>2014-09-01T10:22:40Z</time>
      </trkpt>
      <trkpt lat="46.01452" lon="6.76171">
        <ele>1337.0038</ele>
        <time>2014-09-01T10:22:45Z</time>
      </trkpt>
      <trkpt lat="46.01451" lon="6.76167">
        <ele>1337.0038</ele>
        <time>2014-09-01T10:22:50Z</time>
      </trkpt>
      <trkpt lat="46.01448" lon="6.76165">
        <ele>1339.1462</ele>
        <time>2014-09-01T10:22:55Z</time>
      </trkpt>
      <trkpt lat="46.01446" lon="6.76166">
        <ele>1339.1462</ele>
        <time>2014-09-01T10:23:00Z</time>
      </trkpt>
      <trkpt lat="46.01445" lon="6.76163">
        <ele>1339.1462</ele>
        <time>2014-09-01T10:23:05Z</time>
      </trkpt>
      <trkpt lat="46.01441" lon="6.76163">
        <ele>1339.1462</ele>
        <time>2014-09-01T10:23:10Z</time>
      </trkpt>
      <trkpt lat="46.01439" lon="6.76163">
        <ele>1341.2792</ele>
        <time>2014-09-01T10:23:15Z</time>
      </trkpt>
      <trkpt lat="46.01438" lon="6.76161">
        <ele>1341.2792</ele>
        <time>2014-09-01T10:23:20Z</time>
      </trkpt>
      <trkpt lat="46.01438" lon="6.76159">
        <ele>1341.2792</ele>
        <time>2014-09-01T10:23:25Z</time>
      </trkpt>
      <trkpt lat="46.01436" lon="6.76157">
        <ele>1341.2792</ele>
        <time>2014-09-01T10:23:30Z</time>
      </trkpt>
      <trkpt lat="46.01436" lon="6.76155">
        <ele>1341.2792</ele>
        <time>2014-09-01T10:23:35Z</time>
      </trkpt>
      <trkpt lat="46.01432" lon="6.7615">
        <ele>1344.1372</ele>
        <time>2014-09-01T10:23:40Z</time>
      </trkpt>
      <trkpt lat="46.01431" lon="6.7615">
        <ele>1344.1372</ele>
        <time>2014-09-01T10:23:45Z</time>
      </trkpt>
      <trkpt lat="46.01429" lon="6.76149">
        <ele>1344.1372</ele>
        <time>2014-09-01T10:23:50Z</time>
      </trkpt>
      <trkpt lat="46.01429" lon="6.76149">
        <ele>1344.1372</ele>
        <time>2014-09-01T10:23:55Z</time>
      </trkpt>
      <trkpt lat="46.01428" lon="6.76148">
        <ele>1344.1372</ele>
        <time>2014-09-01T10:24:00Z</time>
      </trkpt>
      <trkpt lat="46.01426" lon="6.76146">
        <ele>1344.1372</ele>
        <time>2014-09-01T10:24:05Z</time>
      </trkpt>
      <trkpt lat="46.01424" lon="6.76144">
        <ele>1347.5485</ele>
        <time>2014-09-01T10:24:10Z</time>
      </trkpt>
      <trkpt lat="46.01421" lon="6.76143">
        <ele>1347.5485</ele>
        <time>2014-09-01T10:24:15Z</time>
      </trkpt>
      <trkpt lat="46.01421" lon="6.76143">
        <ele>1347.5485</ele>
        <time>2014-09-01T10:24:20Z</time>
      </trkpt>
      <trkpt lat="46.01419" lon="6.76141">
        <ele>1347.5485</ele>
        <time>2014-09-01T10:24:25Z</time>
      </trkpt>
      <trkpt lat="46.01416" lon="6.76138">
        <ele>1347.5485</ele>
        <time>2014-09-01T10:24:30Z</time>
      </trkpt>
      <trkpt lat="46.01416" lon="6.76137">
        <ele>1351.1213</ele>
        <time>2014-09-01T10:24:35Z</time>
      </trkpt>
      <trkpt lat="46.01415" lon="6.76135">
        <ele>1351.1213</ele>
        <time>2014-09-01T10:24:40Z</time>
      </trkpt>
      <trkpt lat="46.01413" lon="6.76135">
        <ele>1351.1213</ele>
        <time>2014-09-01T10:24:45Z</time>
      </trkpt>
      <trkpt lat="46.0141" lon="6.76136">
        <ele>1351.1213</ele>
        <time>2014-09-01T10:24:50Z</time>
      </trkpt>
      <trkpt lat="46.01406" lon="6.76134">
        <ele>1354.7957</ele>
        <time>2014-09-01T10:24:55Z</time>
      </trkpt>
      <trkpt lat="46.01403" lon="6.76134">
        <ele>1354.7957</ele>
        <time>2014-09-01T10:25:00Z</time>
      </trkpt>
      <trkpt lat="46.01403" lon="6.76134">
        <ele>1354.7957</ele>
        <time>2014-09-01T10:25:05Z</time>
      </trkpt>
      <trkpt lat="46.01401" lon="6.76133">
        <ele>1354.7957</ele>
        <time>2014-09-01T10:25:15Z</time>
      </trkpt>
      <trkpt lat="46.01399" lon="6.76132">
        <ele>1354.7957</ele>
        <time>2014-09-01T10:25:20Z</time>
      </trkpt>
      <trkpt lat="46.01399" lon="6.76132">
        <ele>1354.7957</ele>
        <time>2014-09-01T10:25:25Z</time>
      </trkpt>
      <trkpt lat="46.014" lon="6.7613">
        <ele>1354.7957</ele>
        <time>2014-09-01T10:25:35Z</time>
      </trkpt>
      <trkpt lat="46.01398" lon="6.76128">
        <ele>1359.4517</ele>
        <time>2014-09-01T10:25:40Z</time>
      </trkpt>
      <trkpt lat="46.01397" lon="6.7612">
        <ele>1359.4517</ele>
        <time>2014-09-01T10:25:45Z</time>
      </trkpt>
      <trkpt lat="46.01394" lon="6.76118">
        <ele>1363.957</ele>
        <time>2014-09-01T10:25:50Z</time>
      </trkpt>
      <trkpt lat="46.01392" lon="6.76116">
        <ele>1363.957</ele>
        <time>2014-09-01T10:25:55Z</time>
      </trkpt>
      <trkpt lat="46.01391" lon="6.76116">
        <ele>1363.957</ele>
        <time>2014-09-01T10:26:00Z</time>
      </trkpt>
      <trkpt lat="46.01391" lon="6.76116">
        <ele>1363.957</ele>
        <time>2014-09-01T10:26:05Z</time>
      </trkpt>
      <trkpt lat="46.01386" lon="6.76109">
        <ele>1368.4735</ele>
        <time>2014-09-01T10:26:10Z</time>
      </trkpt>
      <trkpt lat="46.01386" lon="6.76109">
        <ele>1368.4735</ele>
        <time>2014-09-01T10:26:15Z</time>
      </trkpt>
      <trkpt lat="46.01378" lon="6.76106">
        <ele>1368.4735</ele>
        <time>2014-09-01T10:26:25Z</time>
      </trkpt>
      <trkpt lat="46.01374" lon="6.76106">
        <ele>1372.8772</ele>
        <time>2014-09-01T10:26:30Z</time>
      </trkpt>
      <trkpt lat="46.01374" lon="6.76106">
        <ele>1372.8772</ele>
        <time>2014-09-01T10:26:35Z</time>
      </trkpt>
      <trkpt lat="46.01374" lon="6.76106">
        <ele>1372.8772</ele>
        <time>2014-09-01T10:26:45Z</time>
      </trkpt>
      <trkpt lat="46.01373" lon="6.76105">
        <ele>1372.8772</ele>
        <time>2014-09-01T10:26:50Z</time>
      </trkpt>
      <trkpt lat="46.01372" lon="6.76095">
        <ele>1372.8772</ele>
        <time>2014-09-01T10:26:55Z</time>
      </trkpt>
      <trkpt lat="46.01371" lon="6.76094">
        <ele>1376.8953</ele>
        <time>2014-09-01T10:27:00Z</time>
      </trkpt>
      <trkpt lat="46.01371" lon="6.76093">
        <ele>1376.8953</ele>
        <time>2014-09-01T10:27:05Z</time>
      </trkpt>
      <trkpt lat="46.01371" lon="6.76093">
        <ele>1376.8953</ele>
        <time>2014-09-01T10:27:10Z</time>
      </trkpt>
      <trkpt lat="46.01371" lon="6.76091">
        <ele>1376.8953</ele>
        <time>2014-09-01T10:27:15Z</time>
      </trkpt>
      <trkpt lat="46.01369" lon="6.7609">
        <ele>1376.8953</ele>
        <time>2014-09-01T10:27:20Z</time>
      </trkpt>
      <trkpt lat="46.01369" lon="6.76088">
        <ele>1376.8953</ele>
        <time>2014-09-01T10:27:25Z</time>
      </trkpt>
      <trkpt lat="46.01368" lon="6.76087">
        <ele>1376.8953</ele>
        <time>2014-09-01T10:27:30Z</time>
      </trkpt>
      <trkpt lat="46.01367" lon="6.76081">
        <ele>1380.7084</ele>
        <time>2014-09-01T10:27:35Z</time>
      </trkpt>
      <trkpt lat="46.01359" lon="6.76076">
        <ele>1380.7084</ele>
        <time>2014-09-01T10:27:40Z</time>
      </trkpt>
      <trkpt lat="46.01358" lon="6.76075">
        <ele>1384.182</ele>
        <time>2014-09-01T10:27:45Z</time>
      </trkpt>
      <trkpt lat="46.01356" lon="6.76074">
        <ele>1384.182</ele>
        <time>2014-09-01T10:27:50Z</time>
      </trkpt>
      <trkpt lat="46.01356" lon="6.76073">
        <ele>1384.182</ele>
        <time>2014-09-01T10:27:55Z</time>
      </trkpt>
      <trkpt lat="46.01356" lon="6.76073">
        <ele>1384.182</ele>
        <time>2014-09-01T10:28:00Z</time>
      </trkpt>
      <trkpt lat="46.01353" lon="6.76065">
        <ele>1384.182</ele>
        <time>2014-09-01T10:28:05Z</time>
      </trkpt>
      <trkpt lat="46.01351" lon="6.76062">
        <ele>1388.043</ele>
        <time>2014-09-01T10:28:10Z</time>
      </trkpt>
      <trkpt lat="46.01351" lon="6.76062">
        <ele>1388.043</ele>
        <time>2014-09-01T10:28:15Z</time>
      </trkpt>
      <trkpt lat="46.01348" lon="6.76059">
        <ele>1388.043</ele>
        <time>2014-09-01T10:28:20Z</time>
      </trkpt>
      <trkpt lat="46.01346" lon="6.76057">
        <ele>1388.043</ele>
        <time>2014-09-01T10:28:25Z</time>
      </trkpt>
      <trkpt lat="46.01345" lon="6.76057">
        <ele>1388.043</ele>
        <time>2014-09-01T10:28:30Z</time>
      </trkpt>
      <trkpt lat="46.01341" lon="6.76055">
        <ele>1391.6808</ele>
        <time>2014-09-01T10:28:35Z</time>
      </trkpt>
      <trkpt lat="46.0134" lon="6.76055">
        <ele>1391.6808</ele>
        <time>2014-09-01T10:28:40Z</time>
      </trkpt>
      <trkpt lat="46.01337" lon="6.76053">
        <ele>1391.6808</ele>
        <time>2014-09-01T10:28:45Z</time>
      </trkpt>
      <trkpt lat="46.01337" lon="6.76053">
        <ele>1391.6808</ele>
        <time>2014-09-01T10:28:50Z</time>
      </trkpt>
      <trkpt lat="46.01337" lon="6.7605">
        <ele>1391.6808</ele>
        <time>2014-09-01T10:29:00Z</time>
      </trkpt>
      <trkpt lat="46.01337" lon="6.7605">
        <ele>1391.6808</ele>
        <time>2014-09-01T10:29:05Z</time>
      </trkpt>
      <trkpt lat="46.01337" lon="6.76049">
        <ele>1391.6808</ele>
        <time>2014-09-01T10:29:30Z</time>
      </trkpt>
      <trkpt lat="46.01336" lon="6.76047">
        <ele>1391.6808</ele>
        <time>2014-09-01T10:29:35Z</time>
      </trkpt>
      <trkpt lat="46.01333" lon="6.76045">
        <ele>1395.5831</ele>
        <time>2014-09-01T10:29:40Z</time>
      </trkpt>
      <trkpt lat="46.01328" lon="6.76039">
        <ele>1395.5831</ele>
        <time>2014-09-01T10:29:45Z</time>
      </trkpt>
      <trkpt lat="46.01328" lon="6.76039">
        <ele>1395.5831</ele>
        <time>2014-09-01T10:29:50Z</time>
      </trkpt>
      <trkpt lat="46.01325" lon="6.76037">
        <ele>1399.2495</ele>
        <time>2014-09-01T10:29:55Z</time>
      </trkpt>
      <trkpt lat="46.01325" lon="6.76037">
        <ele>1399.2495</ele>
        <time>2014-09-01T10:30:00Z</time>
      </trkpt>
      <trkpt lat="46.01323" lon="6.76036">
        <ele>1399.2495</ele>
        <time>2014-09-01T10:30:05Z</time>
      </trkpt>
      <trkpt lat="46.01323" lon="6.76036">
        <ele>1399.2495</ele>
        <time>2014-09-01T10:30:10Z</time>
      </trkpt>
      <trkpt lat="46.0132" lon="6.76035">
        <ele>1399.2495</ele>
        <time>2014-09-01T10:30:15Z</time>
      </trkpt>
      <trkpt lat="46.01319" lon="6.76036">
        <ele>1399.2495</ele>
        <time>2014-09-01T10:30:20Z</time>
      </trkpt>
      <trkpt lat="46.01319" lon="6.7603">
        <ele>1403.1255</ele>
        <time>2014-09-01T10:30:25Z</time>
      </trkpt>
      <trkpt lat="46.01318" lon="6.76028">
        <ele>1403.1255</ele>
        <time>2014-09-01T10:30:30Z</time>
      </trkpt>
      <trkpt lat="46.01315" lon="6.76023">
        <ele>1403.1255</ele>
        <time>2014-09-01T10:30:35Z</time>
      </trkpt>
      <trkpt lat="46.01313" lon="6.7602">
        <ele>1406.8018</ele>
        <time>2014-09-01T10:30:40Z</time>
      </trkpt>
      <trkpt lat="46.0131" lon="6.76014">
        <ele>1406.8018</ele>
        <time>2014-09-01T10:30:45Z</time>
      </trkpt>
      <trkpt lat="46.0131" lon="6.76011">
        <ele>1406.8018</ele>
        <time>2014-09-01T10:30:50Z</time>
      </trkpt>
      <trkpt lat="46.01304" lon="6.76004">
        <ele>1410.2311</ele>
        <time>2014-09-01T10:30:55Z</time>
      </trkpt>
      <trkpt lat="46.01303" lon="6.76005">
        <ele>1410.2311</ele>
        <time>2014-09-01T10:31:00Z</time>
      </trkpt>
      <trkpt lat="46.01297" lon="6.76006">
        <ele>1410.2311</ele>
        <time>2014-09-01T10:31:05Z</time>
      </trkpt>
      <trkpt lat="46.01295" lon="6.76005">
        <ele>1413.7024</ele>
        <time>2014-09-01T10:31:10Z</time>
      </trkpt>
      <trkpt lat="46.01292" lon="6.75997">
        <ele>1413.7024</ele>
        <time>2014-09-01T10:31:15Z</time>
      </trkpt>
      <trkpt lat="46.01288" lon="6.7599">
        <ele>1416.921</ele>
        <time>2014-09-01T10:31:20Z</time>
      </trkpt>
      <trkpt lat="46.01284" lon="6.75987">
        <ele>1416.921</ele>
        <time>2014-09-01T10:31:25Z</time>
      </trkpt>
      <trkpt lat="46.01281" lon="6.75986">
        <ele>1416.921</ele>
        <time>2014-09-01T10:31:30Z</time>
      </trkpt>
      <trkpt lat="46.01276" lon="6.75989">
        <ele>1418.2247</ele>
        <time>2014-09-01T10:31:35Z</time>
      </trkpt>
      <trkpt lat="46.01276" lon="6.75989">
        <ele>1419.5284</ele>
        <time>2014-09-01T10:31:40Z</time>
      </trkpt>
      <trkpt lat="46.01276" lon="6.75989">
        <ele>1419.5284</ele>
        <time>2014-09-01T10:31:45Z</time>
      </trkpt>
      <trkpt lat="46.01277" lon="6.75991">
        <ele>1419.5284</ele>
        <time>2014-09-01T10:31:55Z</time>
      </trkpt>
      <trkpt lat="46.01277" lon="6.75991">
        <ele>1419.5284</ele>
        <time>2014-09-01T10:32:00Z</time>
      </trkpt>
      <trkpt lat="46.01278" lon="6.75991">
        <ele>1419.5284</ele>
        <time>2014-09-01T10:38:15Z</time>
      </trkpt>
      <trkpt lat="46.01279" lon="6.75994">
        <ele>1419.5284</ele>
        <time>2014-09-01T10:38:20Z</time>
      </trkpt>
      <trkpt lat="46.0128" lon="6.75997">
        <ele>1419.5284</ele>
        <time>2014-09-01T10:38:25Z</time>
      </trkpt>
      <trkpt lat="46.0128" lon="6.75997">
        <ele>1419.5284</ele>
        <time>2014-09-01T10:38:30Z</time>
      </trkpt>
      <trkpt lat="46.01282" lon="6.75997">
        <ele>1419.5284</ele>
        <time>2014-09-01T10:38:55Z</time>
      </trkpt>
      <trkpt lat="46.01282" lon="6.75997">
        <ele>1419.5284</ele>
        <time>2014-09-01T10:39:00Z</time>
      </trkpt>
      <trkpt lat="46.01282" lon="6.75998">
        <ele>1419.5284</ele>
        <time>2014-09-01T10:39:05Z</time>
      </trkpt>
      <trkpt lat="46.01282" lon="6.75999">
        <ele>1422.2609</ele>
        <time>2014-09-01T10:39:10Z</time>
      </trkpt>
      <trkpt lat="46.01282" lon="6.76">
        <ele>1422.2609</ele>
        <time>2014-09-01T10:39:20Z</time>
      </trkpt>
      <trkpt lat="46.01282" lon="6.76">
        <ele>1422.2609</ele>
        <time>2014-09-01T10:39:25Z</time>
      </trkpt>
      <trkpt lat="46.01282" lon="6.76001">
        <ele>1422.2609</ele>
        <time>2014-09-01T10:39:30Z</time>
      </trkpt>
      <trkpt lat="46.01281" lon="6.76006">
        <ele>1422.2609</ele>
        <time>2014-09-01T10:39:35Z</time>
      </trkpt>
      <trkpt lat="46.01281" lon="6.76006">
        <ele>1422.2609</ele>
        <time>2014-09-01T10:39:40Z</time>
      </trkpt>
      <trkpt lat="46.01281" lon="6.76008">
        <ele>1422.2609</ele>
        <time>2014-09-01T10:39:55Z</time>
      </trkpt>
      <trkpt lat="46.01281" lon="6.7601">
        <ele>1422.2609</ele>
        <time>2014-09-01T10:40:00Z</time>
      </trkpt>
      <trkpt lat="46.01281" lon="6.76013">
        <ele>1425.0653</ele>
        <time>2014-09-01T10:40:05Z</time>
      </trkpt>
      <trkpt lat="46.01281" lon="6.76013">
        <ele>1425.0653</ele>
        <time>2014-09-01T10:40:10Z</time>
      </trkpt>
      <trkpt lat="46.01282" lon="6.76016">
        <ele>1425.0653</ele>
        <time>2014-09-01T10:40:15Z</time>
      </trkpt>
      <trkpt lat="46.01282" lon="6.7602">
        <ele>1425.0653</ele>
        <time>2014-09-01T10:40:20Z</time>
      </trkpt>
      <trkpt lat="46.01282" lon="6.7602">
        <ele>1425.0653</ele>
        <time>2014-09-01T10:40:25Z</time>
      </trkpt>
      <trkpt lat="46.01281" lon="6.7603">
        <ele>1428.0795</ele>
        <time>2014-09-01T10:40:40Z</time>
      </trkpt>
      <trkpt lat="46.01284" lon="6.76037">
        <ele>1428.0795</ele>
        <time>2014-09-01T10:40:45Z</time>
      </trkpt>
      <trkpt lat="46.01286" lon="6.76043">
        <ele>1430.9988</ele>
        <time>2014-09-01T10:40:50Z</time>
      </trkpt>
      <trkpt lat="46.01285" lon="6.76054">
        <ele>1430.9988</ele>
        <time>2014-09-01T10:40:55Z</time>
      </trkpt>
      <trkpt lat="46.01286" lon="6.76058">
        <ele>1433.714</ele>
        <time>2014-09-01T10:41:00Z</time>
      </trkpt>
      <trkpt lat="46.01286" lon="6.76054">
        <ele>1433.714</ele>
        <time>2014-09-01T10:41:05Z</time>
      </trkpt>
      <trkpt lat="46.01284" lon="6.76052">
        <ele>1433.714</ele>
        <time>2014-09-01T10:41:10Z</time>
      </trkpt>
      <trkpt lat="46.01282" lon="6.76051">
        <ele>1433.714</ele>
        <time>2014-09-01T10:41:15Z</time>
      </trkpt>
      <trkpt lat="46.01279" lon="6.76051">
        <ele>1435.9803</ele>
        <time>2014-09-01T10:41:20Z</time>
      </trkpt>
      <trkpt lat="46.01277" lon="6.76051">
        <ele>1435.9803</ele>
        <time>2014-09-01T10:41:25Z</time>
      </trkpt>
      <trkpt lat="46.01276" lon="6.7605">
        <ele>1435.9803</ele>
        <time>2014-09-01T10:41:30Z</time>
      </trkpt>
      <trkpt lat="46.01273" lon="6.76047">
        <ele>1435.9803</ele>
        <time>2014-09-01T10:41:35Z</time>
      </trkpt>
      <trkpt lat="46.01273" lon="6.76047">
        <ele>1435.9803</ele>
        <time>2014-09-01T10:41:40Z</time>
      </trkpt>
      <trkpt lat="46.01272" lon="6.76047">
        <ele>1435.9803</ele>
        <time>2014-09-01T10:41:50Z</time>
      </trkpt>
      <trkpt lat="46.01272" lon="6.76046">
        <ele>1435.9803</ele>
        <time>2014-09-01T10:41:55Z</time>
      </trkpt>
      <trkpt lat="46.01269" lon="6.76042">
        <ele>1438.3652</ele>
        <time>2014-09-01T10:42:00Z</time>
      </trkpt>
      <trkpt lat="46.01268" lon="6.76037">
        <ele>1438.3652</ele>
        <time>2014-09-01T10:42:05Z</time>
      </trkpt>
      <trkpt lat="46.01266" lon="6.76032">
        <ele>1438.3652</ele>
        <time>2014-09-01T10:42:10Z</time>
      </trkpt>
      <trkpt lat="46.01263" lon="6.76028">
        <ele>1440.5873</ele>
        <time>2014-09-01T10:42:15Z</time>
      </trkpt>
      <trkpt lat="46.0126" lon="6.76028">
        <ele>1440.5873</ele>
        <time>2014-09-01T10:42:20Z</time>
      </trkpt>
      <trkpt lat="46.01256" lon="6.76032">
        <ele>1440.5873</ele>
        <time>2014-09-01T10:42:25Z</time>
      </trkpt>
      <trkpt lat="46.01256" lon="6.7603">
        <ele>1442.5011</ele>
        <time>2014-09-01T10:42:30Z</time>
      </trkpt>
      <trkpt lat="46.01256" lon="6.76028">
        <ele>1442.5011</ele>
        <time>2014-09-01T10:42:35Z</time>
      </trkpt>
      <trkpt lat="46.01256" lon="6.76028">
        <ele>1442.5011</ele>
        <time>2014-09-01T10:42:40Z</time>
      </trkpt>
      <trkpt lat="46.01254" lon="6.76027">
        <ele>1442.5011</ele>
        <time>2014-09-01T10:42:45Z</time>
      </trkpt>
      <trkpt lat="46.01252" lon="6.76028">
        <ele>1442.5011</ele>
        <time>2014-09-01T10:42:50Z</time>
      </trkpt>
      <trkpt lat="46.01248" lon="6.76026">
        <ele>1442.5011</ele>
        <time>2014-09-01T10:42:55Z</time>
      </trkpt>
      <trkpt lat="46.01244" lon="6.76025">
        <ele>1444.766</ele>
        <time>2014-09-01T10:43:00Z</time>
      </trkpt>
      <trkpt lat="46.01242" lon="6.76024">
        <ele>1444.766</ele>
        <time>2014-09-01T10:43:05Z</time>
      </trkpt>
      <trkpt lat="46.01242" lon="6.76024">
        <ele>1444.766</ele>
        <time>2014-09-01T10:43:10Z</time>
      </trkpt>
      <trkpt lat="46.01242" lon="6.76024">
        <ele>1444.766</ele>
        <time>2014-09-01T10:43:15Z</time>
      </trkpt>
      <trkpt lat="46.01241" lon="6.76024">
        <ele>1444.766</ele>
        <time>2014-09-01T10:43:20Z</time>
      </trkpt>
      <trkpt lat="46.0124" lon="6.76025">
        <ele>1444.766</ele>
        <time>2014-09-01T10:43:25Z</time>
      </trkpt>
      <trkpt lat="46.01239" lon="6.76025">
        <ele>1444.766</ele>
        <time>2014-09-01T10:43:35Z</time>
      </trkpt>
      <trkpt lat="46.01239" lon="6.76024">
        <ele>1444.766</ele>
        <time>2014-09-01T10:43:40Z</time>
      </trkpt>
      <trkpt lat="46.01238" lon="6.76023">
        <ele>1444.766</ele>
        <time>2014-09-01T10:43:45Z</time>
      </trkpt>
      <trkpt lat="46.01237" lon="6.76022">
        <ele>1444.766</ele>
        <time>2014-09-01T10:43:50Z</time>
      </trkpt>
      <trkpt lat="46.01237" lon="6.76021">
        <ele>1444.766</ele>
        <time>2014-09-01T10:43:55Z</time>
      </trkpt>
      <trkpt lat="46.01239" lon="6.76016">
        <ele>1449.2599</ele>
        <time>2014-09-01T10:44:00Z</time>
      </trkpt>
      <trkpt lat="46.01239" lon="6.76014">
        <ele>1449.2599</ele>
        <time>2014-09-01T10:44:05Z</time>
      </trkpt>
      <trkpt lat="46.01238" lon="6.76012">
        <ele>1449.2599</ele>
        <time>2014-09-01T10:44:10Z</time>
      </trkpt>
      <trkpt lat="46.01238" lon="6.76012">
        <ele>1449.2599</ele>
        <time>2014-09-01T10:44:15Z</time>
      </trkpt>
      <trkpt lat="46.01237" lon="6.7601">
        <ele>1449.2599</ele>
        <time>2014-09-01T10:44:30Z</time>
      </trkpt>
      <trkpt lat="46.01237" lon="6.7601">
        <ele>1449.2599</ele>
        <time>2014-09-01T10:44:35Z</time>
      </trkpt>
      <trkpt lat="46.01237" lon="6.76005">
        <ele>1449.2599</ele>
        <time>2014-09-01T10:44:40Z</time>
      </trkpt>
      <trkpt lat="46.01233" lon="6.76005">
        <ele>1453.105</ele>
        <time>2014-09-01T10:44:45Z</time>
      </trkpt>
      <trkpt lat="46.01224" lon="6.76001">
        <ele>1456.4325</ele>
        <time>2014-09-01T10:44:50Z</time>
      </trkpt>
      <trkpt lat="46.01224" lon="6.76001">
        <ele>1456.4325</ele>
        <time>2014-09-01T10:44:55Z</time>
      </trkpt>
      <trkpt lat="46.01224" lon="6.76001">
        <ele>1456.4325</ele>
        <time>2014-09-01T10:45:05Z</time>
      </trkpt>
      <trkpt lat="46.01224" lon="6.76003">
        <ele>1456.4325</ele>
        <time>2014-09-01T10:45:10Z</time>
      </trkpt>
      <trkpt lat="46.01222" lon="6.76007">
        <ele>1456.4325</ele>
        <time>2014-09-01T10:45:15Z</time>
      </trkpt>
      <trkpt lat="46.0122" lon="6.76011">
        <ele>1456.4325</ele>
        <time>2014-09-01T10:45:20Z</time>
      </trkpt>
      <trkpt lat="46.01219" lon="6.76012">
        <ele>1459.4667</ele>
        <time>2014-09-01T10:45:25Z</time>
      </trkpt>
      <trkpt lat="46.01219" lon="6.76015">
        <ele>1459.4667</ele>
        <time>2014-09-01T10:45:30Z</time>
      </trkpt>
      <trkpt lat="46.01219" lon="6.76016">
        <ele>1459.4667</ele>
        <time>2014-09-01T10:45:35Z</time>
      </trkpt>
      <trkpt lat="46.01219" lon="6.76017">
        <ele>1459.4667</ele>
        <time>2014-09-01T10:45:40Z</time>
      </trkpt>
      <trkpt lat="46.01219" lon="6.76017">
        <ele>1459.4667</ele>
        <time>2014-09-01T10:45:45Z</time>
      </trkpt>
      <trkpt lat="46.0122" lon="6.76018">
        <ele>1459.4667</ele>
        <time>2014-09-01T10:45:50Z</time>
      </trkpt>
      <trkpt lat="46.0122" lon="6.76018">
        <ele>1459.4667</ele>
        <time>2014-09-01T10:45:55Z</time>
      </trkpt>
      <trkpt lat="46.0122" lon="6.76018">
        <ele>1459.4667</ele>
        <time>2014-09-01T10:46:45Z</time>
      </trkpt>
      <trkpt lat="46.01219" lon="6.7602">
        <ele>1459.4667</ele>
        <time>2014-09-01T10:46:50Z</time>
      </trkpt>
      <trkpt lat="46.01219" lon="6.7602">
        <ele>1459.4667</ele>
        <time>2014-09-01T10:46:55Z</time>
      </trkpt>
      <trkpt lat="46.01218" lon="6.76021">
        <ele>1459.4667</ele>
        <time>2014-09-01T10:47:00Z</time>
      </trkpt>
      <trkpt lat="46.01218" lon="6.76021">
        <ele>1459.4667</ele>
        <time>2014-09-01T10:47:05Z</time>
      </trkpt>
      <trkpt lat="46.01217" lon="6.76025">
        <ele>1462.43</ele>
        <time>2014-09-01T10:47:15Z</time>
      </trkpt>
      <trkpt lat="46.01216" lon="6.7603">
        <ele>1462.43</ele>
        <time>2014-09-01T10:47:20Z</time>
      </trkpt>
      <trkpt lat="46.01214" lon="6.76032">
        <ele>1462.43</ele>
        <time>2014-09-01T10:47:25Z</time>
      </trkpt>
      <trkpt lat="46.01212" lon="6.76034">
        <ele>1462.43</ele>
        <time>2014-09-01T10:47:30Z</time>
      </trkpt>
      <trkpt lat="46.0121" lon="6.76043">
        <ele>1464.838</ele>
        <time>2014-09-01T10:47:35Z</time>
      </trkpt>
      <trkpt lat="46.01209" lon="6.76044">
        <ele>1464.838</ele>
        <time>2014-09-01T10:47:40Z</time>
      </trkpt>
      <trkpt lat="46.01209" lon="6.76044">
        <ele>1464.838</ele>
        <time>2014-09-01T10:47:45Z</time>
      </trkpt>
      <trkpt lat="46.01211" lon="6.76047">
        <ele>1464.838</ele>
        <time>2014-09-01T10:47:50Z</time>
      </trkpt>
      <trkpt lat="46.01211" lon="6.76047">
        <ele>1464.838</ele>
        <time>2014-09-01T10:47:55Z</time>
      </trkpt>
      <trkpt lat="46.01214" lon="6.76051">
        <ele>1464.838</ele>
        <time>2014-09-01T10:48:00Z</time>
      </trkpt>
      <trkpt lat="46.01217" lon="6.76054">
        <ele>1467.2225</ele>
        <time>2014-09-01T10:48:05Z</time>
      </trkpt>
      <trkpt lat="46.01218" lon="6.76063">
        <ele>1467.2225</ele>
        <time>2014-09-01T10:48:10Z</time>
      </trkpt>
      <trkpt lat="46.01218" lon="6.76063">
        <ele>1467.2225</ele>
        <time>2014-09-01T10:48:15Z</time>
      </trkpt>
      <trkpt lat="46.0122" lon="6.76067">
        <ele>1469.6589</ele>
        <time>2014-09-01T10:48:20Z</time>
      </trkpt>
      <trkpt lat="46.01221" lon="6.76068">
        <ele>1469.6589</ele>
        <time>2014-09-01T10:48:25Z</time>
      </trkpt>
      <trkpt lat="46.01222" lon="6.76072">
        <ele>1469.6589</ele>
        <time>2014-09-01T10:48:30Z</time>
      </trkpt>
      <trkpt lat="46.01221" lon="6.76075">
        <ele>1469.6589</ele>
        <time>2014-09-01T10:48:35Z</time>
      </trkpt>
      <trkpt lat="46.01221" lon="6.76078">
        <ele>1469.6589</ele>
        <time>2014-09-01T10:48:40Z</time>
      </trkpt>
      <trkpt lat="46.01222" lon="6.7608">
        <ele>1472.0151</ele>
        <time>2014-09-01T10:48:45Z</time>
      </trkpt>
      <trkpt lat="46.01223" lon="6.76081">
        <ele>1472.0151</ele>
        <time>2014-09-01T10:48:50Z</time>
      </trkpt>
      <trkpt lat="46.01223" lon="6.76081">
        <ele>1472.0151</ele>
        <time>2014-09-01T10:48:55Z</time>
      </trkpt>
      <trkpt lat="46.01225" lon="6.76094">
        <ele>1474.2555</ele>
        <time>2014-09-01T10:49:00Z</time>
      </trkpt>
      <trkpt lat="46.01225" lon="6.76094">
        <ele>1474.2555</ele>
        <time>2014-09-01T10:49:05Z</time>
      </trkpt>
      <trkpt lat="46.01227" lon="6.76104">
        <ele>1474.2555</ele>
        <time>2014-09-01T10:49:15Z</time>
      </trkpt>
      <trkpt lat="46.01227" lon="6.76107">
        <ele>1476.6355</ele>
        <time>2014-09-01T10:49:20Z</time>
      </trkpt>
      <trkpt lat="46.01228" lon="6.76114">
        <ele>1476.6355</ele>
        <time>2014-09-01T10:49:25Z</time>
      </trkpt>
      <trkpt lat="46.01232" lon="6.7612">
        <ele>1478.8439</ele>
        <time>2014-09-01T10:49:30Z</time>
      </trkpt>
      <trkpt lat="46.01232" lon="6.76126">
        <ele>1478.8439</ele>
        <time>2014-09-01T10:49:35Z</time>
      </trkpt>
      <trkpt lat="46.01233" lon="6.76129">
        <ele>1478.8439</ele>
        <time>2014-09-01T10:49:40Z</time>
      </trkpt>
      <trkpt lat="46.01235" lon="6.76131">
        <ele>1478.8439</ele>
        <time>2014-09-01T10:49:45Z</time>
      </trkpt>
      <trkpt lat="46.01234" lon="6.76131">
        <ele>1478.8439</ele>
        <time>2014-09-01T10:49:50Z</time>
      </trkpt>
      <trkpt lat="46.01235" lon="6.76135">
        <ele>1480.8091</ele>
        <time>2014-09-01T10:49:55Z</time>
      </trkpt>
      <trkpt lat="46.01237" lon="6.76139">
        <ele>1480.8091</ele>
        <time>2014-09-01T10:50:00Z</time>
      </trkpt>
      <trkpt lat="46.01238" lon="6.76141">
        <ele>1480.8091</ele>
        <time>2014-09-01T10:50:05Z</time>
      </trkpt>
      <trkpt lat="46.01239" lon="6.76141">
        <ele>1480.8091</ele>
        <time>2014-09-01T10:50:10Z</time>
      </trkpt>
      <trkpt lat="46.01239" lon="6.76149">
        <ele>1482.4075</ele>
        <time>2014-09-01T10:50:15Z</time>
      </trkpt>
      <trkpt lat="46.0124" lon="6.7615">
        <ele>1482.4075</ele>
        <time>2014-09-01T10:50:20Z</time>
      </trkpt>
      <trkpt lat="46.0124" lon="6.76151">
        <ele>1482.4075</ele>
        <time>2014-09-01T10:50:25Z</time>
      </trkpt>
      <trkpt lat="46.01242" lon="6.76154">
        <ele>1482.4075</ele>
        <time>2014-09-01T10:50:30Z</time>
      </trkpt>
      <trkpt lat="46.01245" lon="6.76158">
        <ele>1483.7852</ele>
        <time>2014-09-01T10:50:35Z</time>
      </trkpt>
      <trkpt lat="46.01246" lon="6.76161">
        <ele>1483.7852</ele>
        <time>2014-09-01T10:50:40Z</time>
      </trkpt>
      <trkpt lat="46.01247" lon="6.76166">
        <ele>1483.7852</ele>
        <time>2014-09-01T10:50:45Z</time>
      </trkpt>
      <trkpt lat="46.01247" lon="6.76167">
        <ele>1483.7852</ele>
        <time>2014-09-01T10:50:50Z</time>
      </trkpt>
      <trkpt lat="46.01247" lon="6.76167">
        <ele>1483.7852</ele>
        <time>2014-09-01T10:50:55Z</time>
      </trkpt>
      <trkpt lat="46.01247" lon="6.76168">
        <ele>1483.7852</ele>
        <time>2014-09-01T10:51:45Z</time>
      </trkpt>
      <trkpt lat="46.01247" lon="6.76168">
        <ele>1483.7852</ele>
        <time>2014-09-01T10:51:50Z</time>
      </trkpt>
      <trkpt lat="46.01247" lon="6.76171">
        <ele>1485.5394</ele>
        <time>2014-09-01T10:52:10Z</time>
      </trkpt>
      <trkpt lat="46.01247" lon="6.76172">
        <ele>1485.5394</ele>
        <time>2014-09-01T10:52:15Z</time>
      </trkpt>
      <trkpt lat="46.01249" lon="6.76174">
        <ele>1485.5394</ele>
        <time>2014-09-01T10:52:20Z</time>
      </trkpt>
      <trkpt lat="46.01251" lon="6.76176">
        <ele>1485.5394</ele>
        <time>2014-09-01T10:52:25Z</time>
      </trkpt>
      <trkpt lat="46.01252" lon="6.76182">
        <ele>1487.2134</ele>
        <time>2014-09-01T10:52:30Z</time>
      </trkpt>
      <trkpt lat="46.01253" lon="6.76183">
        <ele>1487.2134</ele>
        <time>2014-09-01T10:52:35Z</time>
      </trkpt>
      <trkpt lat="46.01258" lon="6.76188">
        <ele>1487.2134</ele>
        <time>2014-09-01T10:52:40Z</time>
      </trkpt>
      <trkpt lat="46.0126" lon="6.76188">
        <ele>1487.2134</ele>
        <time>2014-09-01T10:52:45Z</time>
      </trkpt>
      <trkpt lat="46.01262" lon="6.7619">
        <ele>1488.5573</ele>
        <time>2014-09-01T10:52:50Z</time>
      </trkpt>
      <trkpt lat="46.01269" lon="6.76198">
        <ele>1488.5573</ele>
        <time>2014-09-01T10:52:55Z</time>
      </trkpt>
      <trkpt lat="46.0127" lon="6.762">
        <ele>1489.787</ele>
        <time>2014-09-01T10:53:00Z</time>
      </trkpt>
      <trkpt lat="46.01275" lon="6.76203">
        <ele>1489.787</ele>
        <time>2014-09-01T10:53:05Z</time>
      </trkpt>
      <trkpt lat="46.01277" lon="6.76206">
        <ele>1489.787</ele>
        <time>2014-09-01T10:53:10Z</time>
      </trkpt>
      <trkpt lat="46.01283" lon="6.76211">
        <ele>1490.9733</ele>
        <time>2014-09-01T10:53:15Z</time>
      </trkpt>
      <trkpt lat="46.01286" lon="6.76211">
        <ele>1490.9733</ele>
        <time>2014-09-01T10:53:20Z</time>
      </trkpt>
      <trkpt lat="46.01287" lon="6.76212">
        <ele>1490.9733</ele>
        <time>2014-09-01T10:53:25Z</time>
      </trkpt>
      <trkpt lat="46.01288" lon="6.76214">
        <ele>1490.9733</ele>
        <time>2014-09-01T10:53:30Z</time>
      </trkpt>
      <trkpt lat="46.01288" lon="6.76214">
        <ele>1490.9733</ele>
        <time>2014-09-01T10:53:35Z</time>
      </trkpt>
      <trkpt lat="46.0129" lon="6.76216">
        <ele>1490.9733</ele>
        <time>2014-09-01T10:53:50Z</time>
      </trkpt>
      <trkpt lat="46.01297" lon="6.76225">
        <ele>1492.2251</ele>
        <time>2014-09-01T10:53:55Z</time>
      </trkpt>
      <trkpt lat="46.01304" lon="6.76229">
        <ele>1492.2251</ele>
        <time>2014-09-01T10:54:00Z</time>
      </trkpt>
      <trkpt lat="46.01308" lon="6.76233">
        <ele>1493.3545</ele>
        <time>2014-09-01T10:54:05Z</time>
      </trkpt>
      <trkpt lat="46.01314" lon="6.76235">
        <ele>1493.3545</ele>
        <time>2014-09-01T10:54:10Z</time>
      </trkpt>
      <trkpt lat="46.01319" lon="6.76244">
        <ele>1494.3323</ele>
        <time>2014-09-01T10:54:15Z</time>
      </trkpt>
      <trkpt lat="46.01321" lon="6.76247">
        <ele>1494.3323</ele>
        <time>2014-09-01T10:54:20Z</time>
      </trkpt>
      <trkpt lat="46.01323" lon="6.76251">
        <ele>1494.3323</ele>
        <time>2014-09-01T10:54:25Z</time>
      </trkpt>
      <trkpt lat="46.01325" lon="6.76254">
        <ele>1495.0159</ele>
        <time>2014-09-01T10:54:30Z</time>
      </trkpt>
      <trkpt lat="46.01328" lon="6.76256">
        <ele>1495.0159</ele>
        <time>2014-09-01T10:54:35Z</time>
      </trkpt>
      <trkpt lat="46.0133" lon="6.76258">
        <ele>1495.0159</ele>
        <time>2014-09-01T10:54:40Z</time>
      </trkpt>
      <trkpt lat="46.01333" lon="6.76262">
        <ele>1495.4474</ele>
        <time>2014-09-01T10:54:45Z</time>
      </trkpt>
      <trkpt lat="46.01337" lon="6.76272">
        <ele>1495.4474</ele>
        <time>2014-09-01T10:54:50Z</time>
      </trkpt>
      <trkpt lat="46.01334" lon="6.76277">
        <ele>1495.6659</ele>
        <time>2014-09-01T10:54:55Z</time>
      </trkpt>
      <trkpt lat="46.01336" lon="6.76281">
        <ele>1495.6659</ele>
        <time>2014-09-01T10:55:00Z</time>
      </trkpt>
      <trkpt lat="46.01338" lon="6.76286">
        <ele>1495.6659</ele>
        <time>2014-09-01T10:55:05Z</time>
      </trkpt>
      <trkpt lat="46.0134" lon="6.76292">
        <ele>1495.7373</ele>
        <time>2014-09-01T10:55:10Z</time>
      </trkpt>
      <trkpt lat="46.01343" lon="6.76296">
        <ele>1495.7373</ele>
        <time>2014-09-01T10:55:15Z</time>
      </trkpt>
      <trkpt lat="46.01349" lon="6.76301">
        <ele>1495.7084</ele>
        <time>2014-09-01T10:55:20Z</time>
      </trkpt>
      <trkpt lat="46.01351" lon="6.76305">
        <ele>1495.7084</ele>
        <time>2014-09-01T10:55:25Z</time>
      </trkpt>
      <trkpt lat="46.01353" lon="6.76309">
        <ele>1495.7084</ele>
        <time>2014-09-01T10:55:30Z</time>
      </trkpt>
      <trkpt lat="46.01355" lon="6.76312">
        <ele>1495.4929</ele>
        <time>2014-09-01T10:55:35Z</time>
      </trkpt>
      <trkpt lat="46.01357" lon="6.76314">
        <ele>1495.4929</ele>
        <time>2014-09-01T10:55:40Z</time>
      </trkpt>
      <trkpt lat="46.01359" lon="6.76319">
        <ele>1495.4929</ele>
        <time>2014-09-01T10:55:45Z</time>
      </trkpt>
      <trkpt lat="46.01362" lon="6.76327">
        <ele>1494.9681</ele>
        <time>2014-09-01T10:55:50Z</time>
      </trkpt>
      <trkpt lat="46.01363" lon="6.76332">
        <ele>1494.9681</ele>
        <time>2014-09-01T10:55:55Z</time>
      </trkpt>
      <trkpt lat="46.01364" lon="6.76335">
        <ele>1494.9681</ele>
        <time>2014-09-01T10:56:00Z</time>
      </trkpt>
      <trkpt lat="46.01366" lon="6.76339">
        <ele>1494.3524</ele>
        <time>2014-09-01T10:56:05Z</time>
      </trkpt>
      <trkpt lat="46.01367" lon="6.76343">
        <ele>1494.3524</ele>
        <time>2014-09-01T10:56:10Z</time>
      </trkpt>
      <trkpt lat="46.01368" lon="6.76346">
        <ele>1494.3524</ele>
        <time>2014-09-01T10:56:15Z</time>
      </trkpt>
      <trkpt lat="46.01369" lon="6.76349">
        <ele>1494.3524</ele>
        <time>2014-09-01T10:56:20Z</time>
      </trkpt>
      <trkpt lat="46.01372" lon="6.76351">
        <ele>1493.7043</ele>
        <time>2014-09-01T10:56:25Z</time>
      </trkpt>
      <trkpt lat="46.01374" lon="6.76356">
        <ele>1493.7043</ele>
        <time>2014-09-01T10:56:30Z</time>
      </trkpt>
      <trkpt lat="46.01376" lon="6.76365">
        <ele>1493.0344</ele>
        <time>2014-09-01T10:56:35Z</time>
      </trkpt>
      <trkpt lat="46.01378" lon="6.76368">
        <ele>1493.0344</ele>
        <time>2014-09-01T10:56:40Z</time>
      </trkpt>
      <trkpt lat="46.0138" lon="6.7637">
        <ele>1493.0344</ele>
        <time>2014-09-01T10:56:45Z</time>
      </trkpt>
      <trkpt lat="46.01381" lon="6.76376">
        <ele>1492.5542</ele>
        <time>2014-09-01T10:56:50Z</time>
      </trkpt>
      <trkpt lat="46.01382" lon="6.76382">
        <ele>1492.5542</ele>
        <time>2014-09-01T10:56:55Z</time>
      </trkpt>
      <trkpt lat="46.01382" lon="6.76387">
        <ele>1492.5542</ele>
        <time>2014-09-01T10:57:00Z</time>
      </trkpt>
      <trkpt lat="46.01381" lon="6.76393">
        <ele>1492.0413</ele>
        <time>2014-09-01T10:57:05Z</time>
      </trkpt>
      <trkpt lat="46.0138" lon="6.76399">
        <ele>1492.0413</ele>
        <time>2014-09-01T10:57:10Z</time>
      </trkpt>
      <trkpt lat="46.01378" lon="6.76402">
        <ele>1492.0413</ele>
        <time>2014-09-01T10:57:15Z</time>
      </trkpt>
      <trkpt lat="46.01377" lon="6.76407">
        <ele>1491.5627</ele>
        <time>2014-09-01T10:57:20Z</time>
      </trkpt>
      <trkpt lat="46.0138" lon="6.7641">
        <ele>1491.5627</ele>
        <time>2014-09-01T10:57:25Z</time>
      </trkpt>
      <trkpt lat="46.01381" lon="6.76412">
        <ele>1491.5627</ele>
        <time>2014-09-01T10:57:30Z</time>
      </trkpt>
      <trkpt lat="46.01383" lon="6.76417">
        <ele>1491.5627</ele>
        <time>2014-09-01T10:57:35Z</time>
      </trkpt>
      <trkpt lat="46.01387" lon="6.76419">
        <ele>1491.5845</ele>
        <time>2014-09-01T10:57:40Z</time>
      </trkpt>
      <trkpt lat="46.01389" lon="6.76418">
        <ele>1491.5845</ele>
        <time>2014-09-01T10:57:45Z</time>
      </trkpt>
      <trkpt lat="46.0139" lon="6.76419">
        <ele>1491.5845</ele>
        <time>2014-09-01T10:57:50Z</time>
      </trkpt>
      <trkpt lat="46.01389" lon="6.76423">
        <ele>1491.5845</ele>
        <time>2014-09-01T10:57:55Z</time>
      </trkpt>
      <trkpt lat="46.01391" lon="6.76428">
        <ele>1491.6283</ele>
        <time>2014-09-01T10:58:00Z</time>
      </trkpt>
      <trkpt lat="46.0139" lon="6.76433">
        <ele>1491.6283</ele>
        <time>2014-09-01T10:58:05Z</time>
      </trkpt>
      <trkpt lat="46.01388" lon="6.76435">
        <ele>1491.6283</ele>
        <time>2014-09-01T10:58:10Z</time>
      </trkpt>
      <trkpt lat="46.01387" lon="6.76439">
        <ele>1491.6283</ele>
        <time>2014-09-01T10:58:15Z</time>
      </trkpt>
      <trkpt lat="46.01387" lon="6.76444">
        <ele>1491.8129</ele>
        <time>2014-09-01T10:58:20Z</time>
      </trkpt>
      <trkpt lat="46.01389" lon="6.76444">
        <ele>1491.8129</ele>
        <time>2014-09-01T10:58:25Z</time>
      </trkpt>
      <trkpt lat="46.01392" lon="6.76446">
        <ele>1491.8129</ele>
        <time>2014-09-01T10:58:30Z</time>
      </trkpt>
      <trkpt lat="46.01395" lon="6.76448">
        <ele>1491.8129</ele>
        <time>2014-09-01T10:58:35Z</time>
      </trkpt>
      <trkpt lat="46.01397" lon="6.7645">
        <ele>1492.0029</ele>
        <time>2014-09-01T10:58:40Z</time>
      </trkpt>
      <trkpt lat="46.01397" lon="6.76451">
        <ele>1492.0029</ele>
        <time>2014-09-01T10:58:45Z</time>
      </trkpt>
      <trkpt lat="46.01401" lon="6.76452">
        <ele>1492.0029</ele>
        <time>2014-09-01T10:58:50Z</time>
      </trkpt>
      <trkpt lat="46.01403" lon="6.76454">
        <ele>1492.0029</ele>
        <time>2014-09-01T10:58:55Z</time>
      </trkpt>
      <trkpt lat="46.01406" lon="6.76454">
        <ele>1492.5767</ele>
        <time>2014-09-01T10:59:00Z</time>
      </trkpt>
      <trkpt lat="46.01411" lon="6.76455">
        <ele>1492.5767</ele>
        <time>2014-09-01T10:59:05Z</time>
      </trkpt>
      <trkpt lat="46.01413" lon="6.76456">
        <ele>1492.5767</ele>
        <time>2014-09-01T10:59:10Z</time>
      </trkpt>
      <trkpt lat="46.01416" lon="6.76461">
        <ele>1493.2642</ele>
        <time>2014-09-01T10:59:15Z</time>
      </trkpt>
      <trkpt lat="46.01417" lon="6.76466">
        <ele>1493.2642</ele>
        <time>2014-09-01T10:59:20Z</time>
      </trkpt>
      <trkpt lat="46.01417" lon="6.7647">
        <ele>1493.2642</ele>
        <time>2014-09-01T10:59:25Z</time>
      </trkpt>
      <trkpt lat="46.01417" lon="6.76473">
        <ele>1493.2642</ele>
        <time>2014-09-01T10:59:30Z</time>
      </trkpt>
      <trkpt lat="46.01416" lon="6.76475">
        <ele>1494.2466</ele>
        <time>2014-09-01T10:59:35Z</time>
      </trkpt>
      <trkpt lat="46.01418" lon="6.76476">
        <ele>1494.2466</ele>
        <time>2014-09-01T10:59:40Z</time>
      </trkpt>
      <trkpt lat="46.01419" lon="6.76478">
        <ele>1494.2466</ele>
        <time>2014-09-01T10:59:45Z</time>
      </trkpt>
      <trkpt lat="46.0142" lon="6.76479">
        <ele>1494.2466</ele>
        <time>2014-09-01T10:59:50Z</time>
      </trkpt>
      <trkpt lat="46.01422" lon="6.76481">
        <ele>1494.2466</ele>
        <time>2014-09-01T10:59:55Z</time>
      </trkpt>
      <trkpt lat="46.01422" lon="6.76482">
        <ele>1494.2466</ele>
        <time>2014-09-01T11:00:00Z</time>
      </trkpt>
      <trkpt lat="46.01422" lon="6.76482">
        <ele>1494.2466</ele>
        <time>2014-09-01T11:00:05Z</time>
      </trkpt>
      <trkpt lat="46.01422" lon="6.76484">
        <ele>1495.6191</ele>
        <time>2014-09-01T11:00:10Z</time>
      </trkpt>
      <trkpt lat="46.01426" lon="6.76485">
        <ele>1495.6191</ele>
        <time>2014-09-01T11:00:15Z</time>
      </trkpt>
      <trkpt lat="46.01427" lon="6.76487">
        <ele>1495.6191</ele>
        <time>2014-09-01T11:00:20Z</time>
      </trkpt>
      <trkpt lat="46.01429" lon="6.7649">
        <ele>1495.6191</ele>
        <time>2014-09-01T11:00:25Z</time>
      </trkpt>
      <trkpt lat="46.01433" lon="6.7649">
        <ele>1497.238</ele>
        <time>2014-09-01T11:00:30Z</time>
      </trkpt>
      <trkpt lat="46.01435" lon="6.76489">
        <ele>1497.238</ele>
        <time>2014-09-01T11:00:35Z</time>
      </trkpt>
      <trkpt lat="46.01436" lon="6.7649">
        <ele>1497.238</ele>
        <time>2014-09-01T11:00:40Z</time>
      </trkpt>
      <trkpt lat="46.01438" lon="6.76494">
        <ele>1497.238</ele>
        <time>2014-09-01T11:00:45Z</time>
      </trkpt>
      <trkpt lat="46.01441" lon="6.76497">
        <ele>1498.7672</ele>
        <time>2014-09-01T11:00:50Z</time>
      </trkpt>
      <trkpt lat="46.01443" lon="6.76497">
        <ele>1498.7672</ele>
        <time>2014-09-01T11:00:55Z</time>
      </trkpt>
      <trkpt lat="46.01443" lon="6.76497">
        <ele>1498.7672</ele>
        <time>2014-09-01T11:01:00Z</time>
      </trkpt>
      <trkpt lat="46.01444" lon="6.765">
        <ele>1498.7672</ele>
        <time>2014-09-01T11:01:10Z</time>
      </trkpt>
      <trkpt lat="46.01444" lon="6.76506">
        <ele>1498.7672</ele>
        <time>2014-09-01T11:01:15Z</time>
      </trkpt>
      <trkpt lat="46.01444" lon="6.7651">
        <ele>1500.4866</ele>
        <time>2014-09-01T11:01:20Z</time>
      </trkpt>
      <trkpt lat="46.01444" lon="6.76512">
        <ele>1500.4866</ele>
        <time>2014-09-01T11:01:25Z</time>
      </trkpt>
      <trkpt lat="46.01443" lon="6.76513">
        <ele>1500.4866</ele>
        <time>2014-09-01T11:01:30Z</time>
      </trkpt>
      <trkpt lat="46.01443" lon="6.76513">
        <ele>1500.4866</ele>
        <time>2014-09-01T11:01:35Z</time>
      </trkpt>
      <trkpt lat="46.01442" lon="6.76515">
        <ele>1500.4866</ele>
        <time>2014-09-01T11:01:40Z</time>
      </trkpt>
      <trkpt lat="46.01441" lon="6.76519">
        <ele>1500.4866</ele>
        <time>2014-09-01T11:01:45Z</time>
      </trkpt>
      <trkpt lat="46.01441" lon="6.76519">
        <ele>1500.4866</ele>
        <time>2014-09-01T11:01:50Z</time>
      </trkpt>
      <trkpt lat="46.01439" lon="6.76521">
        <ele>1502.3807</ele>
        <time>2014-09-01T11:01:55Z</time>
      </trkpt>
      <trkpt lat="46.01438" lon="6.76523">
        <ele>1502.3807</ele>
        <time>2014-09-01T11:02:00Z</time>
      </trkpt>
      <trkpt lat="46.01437" lon="6.76524">
        <ele>1502.3807</ele>
        <time>2014-09-01T11:02:05Z</time>
      </trkpt>
      <trkpt lat="46.01436" lon="6.76525">
        <ele>1502.3807</ele>
        <time>2014-09-01T11:02:10Z</time>
      </trkpt>
      <trkpt lat="46.01434" lon="6.76525">
        <ele>1502.3807</ele>
        <time>2014-09-01T11:02:15Z</time>
      </trkpt>
      <trkpt lat="46.01434" lon="6.76525">
        <ele>1502.3807</ele>
        <time>2014-09-01T11:02:20Z</time>
      </trkpt>
      <trkpt lat="46.01434" lon="6.76525">
        <ele>1502.3807</ele>
        <time>2014-09-01T11:02:30Z</time>
      </trkpt>
      <trkpt lat="46.0143" lon="6.76527">
        <ele>1504.363</ele>
        <time>2014-09-01T11:02:35Z</time>
      </trkpt>
      <trkpt lat="46.01428" lon="6.7653">
        <ele>1504.363</ele>
        <time>2014-09-01T11:02:40Z</time>
      </trkpt>
      <trkpt lat="46.01428" lon="6.7653">
        <ele>1504.363</ele>
        <time>2014-09-01T11:02:45Z</time>
      </trkpt>
      <trkpt lat="46.01424" lon="6.76533">
        <ele>1504.363</ele>
        <time>2014-09-01T11:02:55Z</time>
      </trkpt>
      <trkpt lat="46.01424" lon="6.76533">
        <ele>1504.363</ele>
        <time>2014-09-01T11:03:00Z</time>
      </trkpt>
      <trkpt lat="46.0142" lon="6.76535">
        <ele>1506.5109</ele>
        <time>2014-09-01T11:03:15Z</time>
      </trkpt>
      <trkpt lat="46.01416" lon="6.76535">
        <ele>1506.5109</ele>
        <time>2014-09-01T11:03:20Z</time>
      </trkpt>
      <trkpt lat="46.01411" lon="6.76536">
        <ele>1508.6942</ele>
        <time>2014-09-01T11:03:25Z</time>
      </trkpt>
      <trkpt lat="46.01411" lon="6.76536">
        <ele>1508.6942</ele>
        <time>2014-09-01T11:03:30Z</time>
      </trkpt>
      <trkpt lat="46.0141" lon="6.76536">
        <ele>1508.6942</ele>
        <time>2014-09-01T11:03:35Z</time>
      </trkpt>
      <trkpt lat="46.01408" lon="6.76535">
        <ele>1508.6942</ele>
        <time>2014-09-01T11:03:55Z</time>
      </trkpt>
      <trkpt lat="46.01404" lon="6.76534">
        <ele>1508.6942</ele>
        <time>2014-09-01T11:04:00Z</time>
      </trkpt>
      <trkpt lat="46.01402" lon="6.76533">
        <ele>1508.6942</ele>
        <time>2014-09-01T11:04:05Z</time>
      </trkpt>
      <trkpt lat="46.01401" lon="6.76533">
        <ele>1511.3539</ele>
        <time>2014-09-01T11:04:10Z</time>
      </trkpt>
      <trkpt lat="46.014" lon="6.76534">
        <ele>1511.3539</ele>
        <time>2014-09-01T11:04:15Z</time>
      </trkpt>
      <trkpt lat="46.01394" lon="6.76533">
        <ele>1511.3539</ele>
        <time>2014-09-01T11:04:20Z</time>
      </trkpt>
      <trkpt lat="46.01388" lon="6.76532">
        <ele>1514.0183</ele>
        <time>2014-09-01T11:04:25Z</time>
      </trkpt>
      <trkpt lat="46.01388" lon="6.76532">
        <ele>1514.0183</ele>
        <time>2014-09-01T11:04:30Z</time>
      </trkpt>
      <trkpt lat="46.01388" lon="6.76533">
        <ele>1514.0183</ele>
        <time>2014-09-01T11:04:35Z</time>
      </trkpt>
      <trkpt lat="46.01388" lon="6.76533">
        <ele>1514.0183</ele>
        <time>2014-09-01T11:04:40Z</time>
      </trkpt>
      <trkpt lat="46.01387" lon="6.76535">
        <ele>1514.0183</ele>
        <time>2014-09-01T11:04:45Z</time>
      </trkpt>
      <trkpt lat="46.01387" lon="6.76536">
        <ele>1514.0183</ele>
        <time>2014-09-01T11:04:50Z</time>
      </trkpt>
      <trkpt lat="46.01388" lon="6.76537">
        <ele>1514.0183</ele>
        <time>2014-09-01T11:04:55Z</time>
      </trkpt>
      <trkpt lat="46.01388" lon="6.76537">
        <ele>1514.0183</ele>
        <time>2014-09-01T11:05:00Z</time>
      </trkpt>
      <trkpt lat="46.01384" lon="6.76538">
        <ele>1514.0183</ele>
        <time>2014-09-01T11:05:45Z</time>
      </trkpt>
      <trkpt lat="46.01384" lon="6.76538">
        <ele>1514.0183</ele>
        <time>2014-09-01T11:05:50Z</time>
      </trkpt>
      <trkpt lat="46.0138" lon="6.76541">
        <ele>1518.0371</ele>
        <time>2014-09-01T11:06:05Z</time>
      </trkpt>
      <trkpt lat="46.01379" lon="6.76542">
        <ele>1518.0371</ele>
        <time>2014-09-01T11:06:10Z</time>
      </trkpt>
      <trkpt lat="46.01377" lon="6.76546">
        <ele>1518.0371</ele>
        <time>2014-09-01T11:06:15Z</time>
      </trkpt>
      <trkpt lat="46.01377" lon="6.76546">
        <ele>1518.0371</ele>
        <time>2014-09-01T11:06:20Z</time>
      </trkpt>
      <trkpt lat="46.01376" lon="6.76549">
        <ele>1518.0371</ele>
        <time>2014-09-01T11:06:35Z</time>
      </trkpt>
      <trkpt lat="46.01377" lon="6.7655">
        <ele>1518.0371</ele>
        <time>2014-09-01T11:06:40Z</time>
      </trkpt>
      <trkpt lat="46.01376" lon="6.76552">
        <ele>1518.0371</ele>
        <time>2014-09-01T11:06:45Z</time>
      </trkpt>
      <trkpt lat="46.01376" lon="6.76552">
        <ele>1518.0371</ele>
        <time>2014-09-01T11:06:50Z</time>
      </trkpt>
      <trkpt lat="46.01377" lon="6.76557">
        <ele>1522.7262</ele>
        <time>2014-09-01T11:06:55Z</time>
      </trkpt>
      <trkpt lat="46.01377" lon="6.76557">
        <ele>1522.7262</ele>
        <time>2014-09-01T11:07:00Z</time>
      </trkpt>
      <trkpt lat="46.01377" lon="6.76562">
        <ele>1522.7262</ele>
        <time>2014-09-01T11:07:10Z</time>
      </trkpt>
      <trkpt lat="46.01378" lon="6.76569">
        <ele>1522.7262</ele>
        <time>2014-09-01T11:07:15Z</time>
      </trkpt>
      <trkpt lat="46.0138" lon="6.76576">
        <ele>1527.435</ele>
        <time>2014-09-01T11:07:20Z</time>
      </trkpt>
      <trkpt lat="46.0138" lon="6.76579">
        <ele>1527.435</ele>
        <time>2014-09-01T11:07:25Z</time>
      </trkpt>
      <trkpt lat="46.01381" lon="6.76584">
        <ele>1527.435</ele>
        <time>2014-09-01T11:07:30Z</time>
      </trkpt>
      <trkpt lat="46.01383" lon="6.7659">
        <ele>1531.9215</ele>
        <time>2014-09-01T11:07:35Z</time>
      </trkpt>
      <trkpt lat="46.01383" lon="6.7659">
        <ele>1531.9215</ele>
        <time>2014-09-01T11:07:40Z</time>
      </trkpt>
      <trkpt lat="46.01382" lon="6.76592">
        <ele>1531.9215</ele>
        <time>2014-09-01T11:07:45Z</time>
      </trkpt>
      <trkpt lat="46.01383" lon="6.76593">
        <ele>1531.9215</ele>
        <time>2014-09-01T11:07:50Z</time>
      </trkpt>
      <trkpt lat="46.01383" lon="6.76594">
        <ele>1531.9215</ele>
        <time>2014-09-01T11:07:55Z</time>
      </trkpt>
      <trkpt lat="46.01382" lon="6.76594">
        <ele>1531.9215</ele>
        <time>2014-09-01T11:08:00Z</time>
      </trkpt>
      <trkpt lat="46.01381" lon="6.76597">
        <ele>1531.9215</ele>
        <time>2014-09-01T11:08:05Z</time>
      </trkpt>
      <trkpt lat="46.01382" lon="6.76597">
        <ele>1531.9215</ele>
        <time>2014-09-01T11:08:10Z</time>
      </trkpt>
      <trkpt lat="46.01382" lon="6.76599">
        <ele>1531.9215</ele>
        <time>2014-09-01T11:08:25Z</time>
      </trkpt>
      <trkpt lat="46.01381" lon="6.76599">
        <ele>1531.9215</ele>
        <time>2014-09-01T11:08:30Z</time>
      </trkpt>
      <trkpt lat="46.01381" lon="6.76599">
        <ele>1531.9215</ele>
        <time>2014-09-01T11:08:35Z</time>
      </trkpt>
      <trkpt lat="46.01382" lon="6.76599">
        <ele>1531.9215</ele>
        <time>2014-09-01T11:08:40Z</time>
      </trkpt>
      <trkpt lat="46.01383" lon="6.76599">
        <ele>1536.4374</ele>
        <time>2014-09-01T11:08:45Z</time>
      </trkpt>
      <trkpt lat="46.01383" lon="6.76599">
        <ele>1536.4374</ele>
        <time>2014-09-01T11:08:50Z</time>
      </trkpt>
      <trkpt lat="46.01384" lon="6.766">
        <ele>1536.4374</ele>
        <time>2014-09-01T11:09:05Z</time>
      </trkpt>
      <trkpt lat="46.01386" lon="6.76599">
        <ele>1536.4374</ele>
        <time>2014-09-01T11:09:10Z</time>
      </trkpt>
      <trkpt lat="46.01389" lon="6.76598">
        <ele>1536.4374</ele>
        <time>2014-09-01T11:09:15Z</time>
      </trkpt>
      <trkpt lat="46.01389" lon="6.76598">
        <ele>1536.4374</ele>
        <time>2014-09-01T11:09:20Z</time>
      </trkpt>
      <trkpt lat="46.01391" lon="6.76603">
        <ele>1540.942</ele>
        <time>2014-09-01T11:09:30Z</time>
      </trkpt>
      <trkpt lat="46.01393" lon="6.76603">
        <ele>1540.942</ele>
        <time>2014-09-01T11:09:35Z</time>
      </trkpt>
      <trkpt lat="46.01393" lon="6.76603">
        <ele>1540.942</ele>
        <time>2014-09-01T11:09:40Z</time>
      </trkpt>
      <trkpt lat="46.01393" lon="6.7661">
        <ele>1540.942</ele>
        <time>2014-09-01T11:09:45Z</time>
      </trkpt>
      <trkpt lat="46.01394" lon="6.76614">
        <ele>1545.0809</ele>
        <time>2014-09-01T11:09:50Z</time>
      </trkpt>
      <trkpt lat="46.01395" lon="6.76615">
        <ele>1545.0809</ele>
        <time>2014-09-01T11:09:55Z</time>
      </trkpt>
      <trkpt lat="46.01395" lon="6.76615">
        <ele>1545.0809</ele>
        <time>2014-09-01T11:10:00Z</time>
      </trkpt>
      <trkpt lat="46.01401" lon="6.76619">
        <ele>1545.0809</ele>
        <time>2014-09-01T11:10:05Z</time>
      </trkpt>
      <trkpt lat="46.01401" lon="6.76619">
        <ele>1545.0809</ele>
        <time>2014-09-01T11:10:10Z</time>
      </trkpt>
      <trkpt lat="46.01403" lon="6.7662">
        <ele>1549.3772</ele>
        <time>2014-09-01T11:10:15Z</time>
      </trkpt>
      <trkpt lat="46.01406" lon="6.76621">
        <ele>1549.3772</ele>
        <time>2014-09-01T11:10:20Z</time>
      </trkpt>
      <trkpt lat="46.01408" lon="6.76622">
        <ele>1549.3772</ele>
        <time>2014-09-01T11:10:25Z</time>
      </trkpt>
      <trkpt lat="46.01412" lon="6.76625">
        <ele>1553.7241</ele>
        <time>2014-09-01T11:10:30Z</time>
      </trkpt>
      <trkpt lat="46.01415" lon="6.76625">
        <ele>1553.7241</ele>
        <time>2014-09-01T11:10:35Z</time>
      </trkpt>
      <trkpt lat="46.01417" lon="6.76626">
        <ele>1553.7241</ele>
        <time>2014-09-01T11:10:40Z</time>
      </trkpt>
      <trkpt lat="46.01419" lon="6.76627">
        <ele>1553.7241</ele>
        <time>2014-09-01T11:10:45Z</time>
      </trkpt>
      <trkpt lat="46.01421" lon="6.76628">
        <ele>1557.994</ele>
        <time>2014-09-01T11:10:50Z</time>
      </trkpt>
      <trkpt lat="46.01424" lon="6.76632">
        <ele>1557.994</ele>
        <time>2014-09-01T11:10:55Z</time>
      </trkpt>
      <trkpt lat="46.01425" lon="6.76633">
        <ele>1557.994</ele>
        <time>2014-09-01T11:11:00Z</time>
      </trkpt>
      <trkpt lat="46.01425" lon="6.76635">
        <ele>1557.994</ele>
        <time>2014-09-01T11:11:05Z</time>
      </trkpt>
      <trkpt lat="46.01425" lon="6.76635">
        <ele>1557.994</ele>
        <time>2014-09-01T11:11:10Z</time>
      </trkpt>
      <trkpt lat="46.01426" lon="6.76636">
        <ele>1557.994</ele>
        <time>2014-09-01T11:11:15Z</time>
      </trkpt>
      <trkpt lat="46.0143" lon="6.76635">
        <ele>1562.0692</ele>
        <time>2014-09-01T11:11:20Z</time>
      </trkpt>
      <trkpt lat="46.01432" lon="6.76636">
        <ele>1562.0692</ele>
        <time>2014-09-01T11:11:25Z</time>
      </trkpt>
      <trkpt lat="46.01434" lon="6.76638">
        <ele>1562.0692</ele>
        <time>2014-09-01T11:11:30Z</time>
      </trkpt>
      <trkpt lat="46.01438" lon="6.76638">
        <ele>1562.0692</ele>
        <time>2014-09-01T11:11:35Z</time>
      </trkpt>
      <trkpt lat="46.01439" lon="6.76637">
        <ele>1566.043</ele>
        <time>2014-09-01T11:11:40Z</time>
      </trkpt>
      <trkpt lat="46.01445" lon="6.7664">
        <ele>1566.043</ele>
        <time>2014-09-01T11:11:45Z</time>
      </trkpt>
      <trkpt lat="46.01448" lon="6.76642">
        <ele>1569.8004</ele>
        <time>2014-09-01T11:11:50Z</time>
      </trkpt>
      <trkpt lat="46.0145" lon="6.76643">
        <ele>1569.8004</ele>
        <time>2014-09-01T11:11:55Z</time>
      </trkpt>
      <trkpt lat="46.01454" lon="6.76644">
        <ele>1569.8004</ele>
        <time>2014-09-01T11:12:00Z</time>
      </trkpt>
      <trkpt lat="46.01456" lon="6.76643">
        <ele>1569.8004</ele>
        <time>2014-09-01T11:12:05Z</time>
      </trkpt>
      <trkpt lat="46.01457" lon="6.76644">
        <ele>1573.3369</ele>
        <time>2014-09-01T11:12:10Z</time>
      </trkpt>
      <trkpt lat="46.01458" lon="6.76643">
        <ele>1573.3369</ele>
        <time>2014-09-01T11:12:15Z</time>
      </trkpt>
      <trkpt lat="46.01465" lon="6.7664">
        <ele>1573.3369</ele>
        <time>2014-09-01T11:12:20Z</time>
      </trkpt>
      <trkpt lat="46.01466" lon="6.76639">
        <ele>1576.5624</ele>
        <time>2014-09-01T11:12:25Z</time>
      </trkpt>
      <trkpt lat="46.01467" lon="6.7664">
        <ele>1576.5624</ele>
        <time>2014-09-01T11:12:30Z</time>
      </trkpt>
      <trkpt lat="46.01467" lon="6.76641">
        <ele>1576.5624</ele>
        <time>2014-09-01T11:12:35Z</time>
      </trkpt>
      <trkpt lat="46.01466" lon="6.76644">
        <ele>1576.5624</ele>
        <time>2014-09-01T11:12:40Z</time>
      </trkpt>
      <trkpt lat="46.01464" lon="6.76645">
        <ele>1576.5624</ele>
        <time>2014-09-01T11:12:45Z</time>
      </trkpt>
      <trkpt lat="46.01463" lon="6.76648">
        <ele>1576.5624</ele>
        <time>2014-09-01T11:12:50Z</time>
      </trkpt>
      <trkpt lat="46.01464" lon="6.76649">
        <ele>1579.553</ele>
        <time>2014-09-01T11:12:55Z</time>
      </trkpt>
      <trkpt lat="46.01466" lon="6.7665">
        <ele>1579.553</ele>
        <time>2014-09-01T11:13:00Z</time>
      </trkpt>
      <trkpt lat="46.01466" lon="6.7665">
        <ele>1579.553</ele>
        <time>2014-09-01T11:13:05Z</time>
      </trkpt>
      <trkpt lat="46.01466" lon="6.76651">
        <ele>1579.553</ele>
        <time>2014-09-01T11:13:10Z</time>
      </trkpt>
      <trkpt lat="46.01465" lon="6.76653">
        <ele>1579.553</ele>
        <time>2014-09-01T11:13:15Z</time>
      </trkpt>
      <trkpt lat="46.01465" lon="6.76653">
        <ele>1579.553</ele>
        <time>2014-09-01T11:13:20Z</time>
      </trkpt>
      <trkpt lat="46.01465" lon="6.76654">
        <ele>1579.553</ele>
        <time>2014-09-01T11:13:30Z</time>
      </trkpt>
      <trkpt lat="46.01466" lon="6.7666">
        <ele>1582.6395</ele>
        <time>2014-09-01T11:13:35Z</time>
      </trkpt>
      <trkpt lat="46.01468" lon="6.76659">
        <ele>1582.6395</ele>
        <time>2014-09-01T11:13:40Z</time>
      </trkpt>
      <trkpt lat="46.01468" lon="6.76659">
        <ele>1582.6395</ele>
        <time>2014-09-01T11:13:45Z</time>
      </trkpt>
      <trkpt lat="46.01468" lon="6.7666">
        <ele>1582.6395</ele>
        <time>2014-09-01T11:13:50Z</time>
      </trkpt>
      <trkpt lat="46.01468" lon="6.76662">
        <ele>1582.6395</ele>
        <time>2014-09-01T11:13:55Z</time>
      </trkpt>
      <trkpt lat="46.01467" lon="6.76663">
        <ele>1582.6395</ele>
        <time>2014-09-01T11:14:00Z</time>
      </trkpt>
      <trkpt lat="46.01468" lon="6.76663">
        <ele>1582.6395</ele>
        <time>2014-09-01T11:14:05Z</time>
      </trkpt>
      <trkpt lat="46.01468" lon="6.76664">
        <ele>1582.6395</ele>
        <time>2014-09-01T11:14:10Z</time>
      </trkpt>
      <trkpt lat="46.01469" lon="6.76665">
        <ele>1582.6395</ele>
        <time>2014-09-01T11:14:15Z</time>
      </trkpt>
      <trkpt lat="46.01468" lon="6.76668">
        <ele>1585.9845</ele>
        <time>2014-09-01T11:14:20Z</time>
      </trkpt>
      <trkpt lat="46.01468" lon="6.76671">
        <ele>1585.9845</ele>
        <time>2014-09-01T11:14:25Z</time>
      </trkpt>
      <trkpt lat="46.01469" lon="6.76673">
        <ele>1585.9845</ele>
        <time>2014-09-01T11:14:30Z</time>
      </trkpt>
      <trkpt lat="46.01471" lon="6.76676">
        <ele>1585.9845</ele>
        <time>2014-09-01T11:14:35Z</time>
      </trkpt>
      <trkpt lat="46.01472" lon="6.76678">
        <ele>1585.9845</ele>
        <time>2014-09-01T11:14:40Z</time>
      </trkpt>
      <trkpt lat="46.01469" lon="6.76681">
        <ele>1589.2622</ele>
        <time>2014-09-01T11:14:45Z</time>
      </trkpt>
      <trkpt lat="46.01465" lon="6.76687">
        <ele>1589.2622</ele>
        <time>2014-09-01T11:14:50Z</time>
      </trkpt>
      <trkpt lat="46.01467" lon="6.76689">
        <ele>1589.2622</ele>
        <time>2014-09-01T11:14:55Z</time>
      </trkpt>
      <trkpt lat="46.0147" lon="6.76691">
        <ele>1592.4305</ele>
        <time>2014-09-01T11:15:00Z</time>
      </trkpt>
      <trkpt lat="46.01471" lon="6.76692">
        <ele>1592.4305</ele>
        <time>2014-09-01T11:15:05Z</time>
      </trkpt>
      <trkpt lat="46.01471" lon="6.76692">
        <ele>1592.4305</ele>
        <time>2014-09-01T11:15:10Z</time>
      </trkpt>
      <trkpt lat="46.01469" lon="6.76691">
        <ele>1592.4305</ele>
        <time>2014-09-01T11:15:15Z</time>
      </trkpt>
      <trkpt lat="46.01469" lon="6.76691">
        <ele>1592.4305</ele>
        <time>2014-09-01T11:15:20Z</time>
      </trkpt>
      <trkpt lat="46.0147" lon="6.76692">
        <ele>1592.4305</ele>
        <time>2014-09-01T11:15:25Z</time>
      </trkpt>
      <trkpt lat="46.01473" lon="6.76699">
        <ele>1595.4513</ele>
        <time>2014-09-01T11:15:30Z</time>
      </trkpt>
      <trkpt lat="46.01475" lon="6.76701">
        <ele>1595.4513</ele>
        <time>2014-09-01T11:15:35Z</time>
      </trkpt>
      <trkpt lat="46.01475" lon="6.76701">
        <ele>1595.4513</ele>
        <time>2014-09-01T11:15:40Z</time>
      </trkpt>
      <trkpt lat="46.01476" lon="6.76702">
        <ele>1595.4513</ele>
        <time>2014-09-01T11:15:45Z</time>
      </trkpt>
      <trkpt lat="46.01477" lon="6.7671">
        <ele>1598.4336</ele>
        <time>2014-09-01T11:15:50Z</time>
      </trkpt>
      <trkpt lat="46.01479" lon="6.76718">
        <ele>1598.4336</ele>
        <time>2014-09-01T11:15:55Z</time>
      </trkpt>
      <trkpt lat="46.01478" lon="6.7672">
        <ele>1598.4336</ele>
        <time>2014-09-01T11:16:00Z</time>
      </trkpt>
      <trkpt lat="46.01478" lon="6.76722">
        <ele>1598.4336</ele>
        <time>2014-09-01T11:16:05Z</time>
      </trkpt>
      <trkpt lat="46.01477" lon="6.76724">
        <ele>1601.2625</ele>
        <time>2014-09-01T11:16:10Z</time>
      </trkpt>
      <trkpt lat="46.01477" lon="6.7673">
        <ele>1601.2625</ele>
        <time>2014-09-01T11:16:15Z</time>
      </trkpt>
      <trkpt lat="46.01476" lon="6.76734">
        <ele>1601.2625</ele>
        <time>2014-09-01T11:16:20Z</time>
      </trkpt>
      <trkpt lat="46.01477" lon="6.76737">
        <ele>1603.9188</ele>
        <time>2014-09-01T11:16:25Z</time>
      </trkpt>
      <trkpt lat="46.01477" lon="6.76739">
        <ele>1603.9188</ele>
        <time>2014-09-01T11:16:30Z</time>
      </trkpt>
      <trkpt lat="46.01478" lon="6.7674">
        <ele>1603.9188</ele>
        <time>2014-09-01T11:16:35Z</time>
      </trkpt>
      <trkpt lat="46.01479" lon="6.76741">
        <ele>1603.9188</ele>
        <time>2014-09-01T11:16:40Z</time>
      </trkpt>
      <trkpt lat="46.0148" lon="6.76743">
        <ele>1603.9188</ele>
        <time>2014-09-01T11:16:45Z</time>
      </trkpt>
      <trkpt lat="46.01482" lon="6.76743">
        <ele>1603.9188</ele>
        <time>2014-09-01T11:16:50Z</time>
      </trkpt>
      <trkpt lat="46.01484" lon="6.76745">
        <ele>1606.3132</ele>
        <time>2014-09-01T11:16:55Z</time>
      </trkpt>
      <trkpt lat="46.01486" lon="6.76748">
        <ele>1606.3132</ele>
        <time>2014-09-01T11:17:00Z</time>
      </trkpt>
      <trkpt lat="46.01487" lon="6.7675">
        <ele>1606.3132</ele>
        <time>2014-09-01T11:17:05Z</time>
      </trkpt>
      <trkpt lat="46.0149" lon="6.76751">
        <ele>1606.3132</ele>
        <time>2014-09-01T11:17:10Z</time>
      </trkpt>
      <trkpt lat="46.01492" lon="6.76755">
        <ele>1608.609</ele>
        <time>2014-09-01T11:17:15Z</time>
      </trkpt>
      <trkpt lat="46.01492" lon="6.76758">
        <ele>1608.609</ele>
        <time>2014-09-01T11:17:20Z</time>
      </trkpt>
      <trkpt lat="46.01494" lon="6.76763">
        <ele>1608.609</ele>
        <time>2014-09-01T11:17:25Z</time>
      </trkpt>
      <trkpt lat="46.01495" lon="6.76765">
        <ele>1608.609</ele>
        <time>2014-09-01T11:17:30Z</time>
      </trkpt>
      <trkpt lat="46.01494" lon="6.76768">
        <ele>1610.828</ele>
        <time>2014-09-01T11:17:35Z</time>
      </trkpt>
      <trkpt lat="46.01494" lon="6.76771">
        <ele>1610.828</ele>
        <time>2014-09-01T11:17:40Z</time>
      </trkpt>
      <trkpt lat="46.01495" lon="6.76775">
        <ele>1610.828</ele>
        <time>2014-09-01T11:17:45Z</time>
      </trkpt>
      <trkpt lat="46.01496" lon="6.76777">
        <ele>1610.828</ele>
        <time>2014-09-01T11:17:50Z</time>
      </trkpt>
      <trkpt lat="46.01497" lon="6.7678">
        <ele>1612.962</ele>
        <time>2014-09-01T11:17:55Z</time>
      </trkpt>
      <trkpt lat="46.01498" lon="6.76786">
        <ele>1612.962</ele>
        <time>2014-09-01T11:18:00Z</time>
      </trkpt>
      <trkpt lat="46.01498" lon="6.76787">
        <ele>1612.962</ele>
        <time>2014-09-01T11:18:05Z</time>
      </trkpt>
      <trkpt lat="46.01499" lon="6.76788">
        <ele>1612.962</ele>
        <time>2014-09-01T11:18:10Z</time>
      </trkpt>
      <trkpt lat="46.01499" lon="6.7679">
        <ele>1612.962</ele>
        <time>2014-09-01T11:18:15Z</time>
      </trkpt>
      <trkpt lat="46.01499" lon="6.76791">
        <ele>1612.962</ele>
        <time>2014-09-01T11:18:20Z</time>
      </trkpt>
      <trkpt lat="46.01501" lon="6.76794">
        <ele>1615.2488</ele>
        <time>2014-09-01T11:18:25Z</time>
      </trkpt>
      <trkpt lat="46.01502" lon="6.76796">
        <ele>1615.2488</ele>
        <time>2014-09-01T11:18:30Z</time>
      </trkpt>
      <trkpt lat="46.01499" lon="6.76799">
        <ele>1615.2488</ele>
        <time>2014-09-01T11:18:35Z</time>
      </trkpt>
      <trkpt lat="46.01498" lon="6.76801">
        <ele>1615.2488</ele>
        <time>2014-09-01T11:18:40Z</time>
      </trkpt>
      <trkpt lat="46.01497" lon="6.76799">
        <ele>1615.2488</ele>
        <time>2014-09-01T11:18:45Z</time>
      </trkpt>
      <trkpt lat="46.01494" lon="6.76801">
        <ele>1617.4904</ele>
        <time>2014-09-01T11:18:50Z</time>
      </trkpt>
      <trkpt lat="46.01493" lon="6.76805">
        <ele>1617.4904</ele>
        <time>2014-09-01T11:18:55Z</time>
      </trkpt>
      <trkpt lat="46.01492" lon="6.76807">
        <ele>1617.4904</ele>
        <time>2014-09-01T11:19:00Z</time>
      </trkpt>
      <trkpt lat="46.01491" lon="6.76808">
        <ele>1617.4904</ele>
        <time>2014-09-01T11:19:05Z</time>
      </trkpt>
      <trkpt lat="46.0149" lon="6.76808">
        <ele>1617.4904</ele>
        <time>2014-09-01T11:19:10Z</time>
      </trkpt>
      <trkpt lat="46.01489" lon="6.76807">
        <ele>1617.4904</ele>
        <time>2014-09-01T11:19:15Z</time>
      </trkpt>
      <trkpt lat="46.01489" lon="6.76807">
        <ele>1617.4904</ele>
        <time>2014-09-01T11:19:20Z</time>
      </trkpt>
      <trkpt lat="46.01486" lon="6.7681">
        <ele>1620.08</ele>
        <time>2014-09-01T11:19:45Z</time>
      </trkpt>
      <trkpt lat="46.01485" lon="6.7681">
        <ele>1620.08</ele>
        <time>2014-09-01T11:19:50Z</time>
      </trkpt>
      <trkpt lat="46.01484" lon="6.76811">
        <ele>1620.08</ele>
        <time>2014-09-01T11:19:55Z</time>
      </trkpt>
      <trkpt lat="46.01484" lon="6.76811">
        <ele>1620.08</ele>
        <time>2014-09-01T11:20:00Z</time>
      </trkpt>
      <trkpt lat="46.01484" lon="6.76812">
        <ele>1620.08</ele>
        <time>2014-09-01T11:20:10Z</time>
      </trkpt>
      <trkpt lat="46.01484" lon="6.76813">
        <ele>1620.08</ele>
        <time>2014-09-01T11:20:15Z</time>
      </trkpt>
      <trkpt lat="46.01484" lon="6.76814">
        <ele>1620.08</ele>
        <time>2014-09-01T11:20:20Z</time>
      </trkpt>
      <trkpt lat="46.01484" lon="6.76815">
        <ele>1620.08</ele>
        <time>2014-09-01T11:20:25Z</time>
      </trkpt>
      <trkpt lat="46.01484" lon="6.76817">
        <ele>1620.08</ele>
        <time>2014-09-01T11:20:30Z</time>
      </trkpt>
      <trkpt lat="46.01484" lon="6.76817">
        <ele>1620.08</ele>
        <time>2014-09-01T11:20:35Z</time>
      </trkpt>
      <trkpt lat="46.01484" lon="6.76822">
        <ele>1622.9487</ele>
        <time>2014-09-01T11:20:45Z</time>
      </trkpt>
      <trkpt lat="46.01484" lon="6.76831">
        <ele>1622.9487</ele>
        <time>2014-09-01T11:20:50Z</time>
      </trkpt>
      <trkpt lat="46.01483" lon="6.76832">
        <ele>1622.9487</ele>
        <time>2014-09-01T11:20:55Z</time>
      </trkpt>
      <trkpt lat="46.01484" lon="6.76833">
        <ele>1622.9487</ele>
        <time>2014-09-01T11:21:00Z</time>
      </trkpt>
      <trkpt lat="46.01485" lon="6.76835">
        <ele>1625.7439</ele>
        <time>2014-09-01T11:21:05Z</time>
      </trkpt>
      <trkpt lat="46.01485" lon="6.76835">
        <ele>1625.7439</ele>
        <time>2014-09-01T11:21:10Z</time>
      </trkpt>
      <trkpt lat="46.01486" lon="6.76837">
        <ele>1625.7439</ele>
        <time>2014-09-01T11:21:15Z</time>
      </trkpt>
      <trkpt lat="46.01486" lon="6.7684">
        <ele>1625.7439</ele>
        <time>2014-09-01T11:21:20Z</time>
      </trkpt>
      <trkpt lat="46.01485" lon="6.76843">
        <ele>1625.7439</ele>
        <time>2014-09-01T11:21:25Z</time>
      </trkpt>
      <trkpt lat="46.01488" lon="6.76846">
        <ele>1628.3553</ele>
        <time>2014-09-01T11:21:30Z</time>
      </trkpt>
      <trkpt lat="46.01489" lon="6.76853">
        <ele>1628.3553</ele>
        <time>2014-09-01T11:21:35Z</time>
      </trkpt>
      <trkpt lat="46.01489" lon="6.7686">
        <ele>1630.7676</ele>
        <time>2014-09-01T11:21:40Z</time>
      </trkpt>
      <trkpt lat="46.01489" lon="6.76865">
        <ele>1630.7676</ele>
        <time>2014-09-01T11:21:45Z</time>
      </trkpt>
      <trkpt lat="46.01489" lon="6.76866">
        <ele>1630.7676</ele>
        <time>2014-09-01T11:21:50Z</time>
      </trkpt>
      <trkpt lat="46.01489" lon="6.76867">
        <ele>1630.7676</ele>
        <time>2014-09-01T11:21:55Z</time>
      </trkpt>
      <trkpt lat="46.0149" lon="6.76879">
        <ele>1633.2267</ele>
        <time>2014-09-01T11:22:00Z</time>
      </trkpt>
      <trkpt lat="46.01491" lon="6.76882">
        <ele>1633.2267</ele>
        <time>2014-09-01T11:22:05Z</time>
      </trkpt>
      <trkpt lat="46.01492" lon="6.76884">
        <ele>1633.2267</ele>
        <time>2014-09-01T11:22:10Z</time>
      </trkpt>
      <trkpt lat="46.01493" lon="6.76888">
        <ele>1633.2267</ele>
        <time>2014-09-01T11:22:15Z</time>
      </trkpt>
      <trkpt lat="46.01494" lon="6.7689">
        <ele>1633.2267</ele>
        <time>2014-09-01T11:22:20Z</time>
      </trkpt>
      <trkpt lat="46.01495" lon="6.76893">
        <ele>1636.0901</ele>
        <time>2014-09-01T11:22:25Z</time>
      </trkpt>
      <trkpt lat="46.01495" lon="6.76895">
        <ele>1636.0901</ele>
        <time>2014-09-01T11:22:30Z</time>
      </trkpt>
      <trkpt lat="46.01497" lon="6.76896">
        <ele>1636.0901</ele>
        <time>2014-09-01T11:22:35Z</time>
      </trkpt>
      <trkpt lat="46.01496" lon="6.76897">
        <ele>1636.0901</ele>
        <time>2014-09-01T11:22:40Z</time>
      </trkpt>
      <trkpt lat="46.01497" lon="6.76899">
        <ele>1636.0901</ele>
        <time>2014-09-01T11:22:45Z</time>
      </trkpt>
      <trkpt lat="46.01498" lon="6.769">
        <ele>1636.0901</ele>
        <time>2014-09-01T11:22:50Z</time>
      </trkpt>
      <trkpt lat="46.01497" lon="6.76903">
        <ele>1636.0901</ele>
        <time>2014-09-01T11:22:55Z</time>
      </trkpt>
      <trkpt lat="46.01497" lon="6.76905">
        <ele>1638.8522</ele>
        <time>2014-09-01T11:23:00Z</time>
      </trkpt>
      <trkpt lat="46.01498" lon="6.76908">
        <ele>1638.8522</ele>
        <time>2014-09-01T11:23:05Z</time>
      </trkpt>
      <trkpt lat="46.01499" lon="6.76913">
        <ele>1638.8522</ele>
        <time>2014-09-01T11:23:10Z</time>
      </trkpt>
      <trkpt lat="46.01499" lon="6.76917">
        <ele>1638.8522</ele>
        <time>2014-09-01T11:23:15Z</time>
      </trkpt>
      <trkpt lat="46.015" lon="6.7692">
        <ele>1641.4626</ele>
        <time>2014-09-01T11:23:20Z</time>
      </trkpt>
      <trkpt lat="46.01502" lon="6.76927">
        <ele>1641.4626</ele>
        <time>2014-09-01T11:23:25Z</time>
      </trkpt>
      <trkpt lat="46.01503" lon="6.76929">
        <ele>1641.4626</ele>
        <time>2014-09-01T11:23:30Z</time>
      </trkpt>
      <trkpt lat="46.01505" lon="6.76932">
        <ele>1643.9474</ele>
        <time>2014-09-01T11:23:35Z</time>
      </trkpt>
      <trkpt lat="46.01505" lon="6.76934">
        <ele>1643.9474</ele>
        <time>2014-09-01T11:23:40Z</time>
      </trkpt>
      <trkpt lat="46.01507" lon="6.76936">
        <ele>1643.9474</ele>
        <time>2014-09-01T11:23:45Z</time>
      </trkpt>
      <trkpt lat="46.01509" lon="6.76942">
        <ele>1643.9474</ele>
        <time>2014-09-01T11:23:50Z</time>
      </trkpt>
      <trkpt lat="46.01509" lon="6.76946">
        <ele>1646.3453</ele>
        <time>2014-09-01T11:23:55Z</time>
      </trkpt>
      <trkpt lat="46.0151" lon="6.76944">
        <ele>1646.3453</ele>
        <time>2014-09-01T11:24:00Z</time>
      </trkpt>
      <trkpt lat="46.0151" lon="6.76945">
        <ele>1646.3453</ele>
        <time>2014-09-01T11:24:05Z</time>
      </trkpt>
      <trkpt lat="46.01511" lon="6.76945">
        <ele>1646.3453</ele>
        <time>2014-09-01T11:24:10Z</time>
      </trkpt>
      <trkpt lat="46.0151" lon="6.76948">
        <ele>1646.3453</ele>
        <time>2014-09-01T11:24:15Z</time>
      </trkpt>
      <trkpt lat="46.0151" lon="6.76953">
        <ele>1646.3453</ele>
        <time>2014-09-01T11:24:20Z</time>
      </trkpt>
      <trkpt lat="46.01511" lon="6.76954">
        <ele>1648.9231</ele>
        <time>2014-09-01T11:24:25Z</time>
      </trkpt>
      <trkpt lat="46.01511" lon="6.76956">
        <ele>1648.9231</ele>
        <time>2014-09-01T11:24:30Z</time>
      </trkpt>
      <trkpt lat="46.0151" lon="6.76957">
        <ele>1648.9231</ele>
        <time>2014-09-01T11:24:35Z</time>
      </trkpt>
      <trkpt lat="46.01511" lon="6.76958">
        <ele>1648.9231</ele>
        <time>2014-09-01T11:24:40Z</time>
      </trkpt>
      <trkpt lat="46.0151" lon="6.76962">
        <ele>1648.9231</ele>
        <time>2014-09-01T11:24:45Z</time>
      </trkpt>
      <trkpt lat="46.01511" lon="6.76966">
        <ele>1648.9231</ele>
        <time>2014-09-01T11:24:50Z</time>
      </trkpt>
      <trkpt lat="46.01511" lon="6.7697">
        <ele>1651.3945</ele>
        <time>2014-09-01T11:24:55Z</time>
      </trkpt>
      <trkpt lat="46.01511" lon="6.7697">
        <ele>1651.3945</ele>
        <time>2014-09-01T11:25:00Z</time>
      </trkpt>
      <trkpt lat="46.01512" lon="6.76972">
        <ele>1651.3945</ele>
        <time>2014-09-01T11:25:05Z</time>
      </trkpt>
      <trkpt lat="46.01512" lon="6.76972">
        <ele>1651.3945</ele>
        <time>2014-09-01T11:25:10Z</time>
      </trkpt>
      <trkpt lat="46.01514" lon="6.76976">
        <ele>1651.3945</ele>
        <time>2014-09-01T11:25:35Z</time>
      </trkpt>
      <trkpt lat="46.01514" lon="6.76979">
        <ele>1651.3945</ele>
        <time>2014-09-01T11:25:40Z</time>
      </trkpt>
      <trkpt lat="46.01517" lon="6.76983">
        <ele>1654.1428</ele>
        <time>2014-09-01T11:25:45Z</time>
      </trkpt>
      <trkpt lat="46.01518" lon="6.76985">
        <ele>1654.1428</ele>
        <time>2014-09-01T11:25:50Z</time>
      </trkpt>
      <trkpt lat="46.01518" lon="6.76985">
        <ele>1654.1428</ele>
        <time>2014-09-01T11:25:55Z</time>
      </trkpt>
      <trkpt lat="46.01518" lon="6.76987">
        <ele>1654.1428</ele>
        <time>2014-09-01T11:26:00Z</time>
      </trkpt>
      <trkpt lat="46.01518" lon="6.76988">
        <ele>1654.1428</ele>
        <time>2014-09-01T11:26:05Z</time>
      </trkpt>
      <trkpt lat="46.0152" lon="6.77002">
        <ele>1657.2488</ele>
        <time>2014-09-01T11:26:10Z</time>
      </trkpt>
      <trkpt lat="46.0152" lon="6.77004">
        <ele>1657.2488</ele>
        <time>2014-09-01T11:26:15Z</time>
      </trkpt>
      <trkpt lat="46.0152" lon="6.77004">
        <ele>1657.2488</ele>
        <time>2014-09-01T11:26:20Z</time>
      </trkpt>
      <trkpt lat="46.01519" lon="6.77005">
        <ele>1657.2488</ele>
        <time>2014-09-01T11:26:25Z</time>
      </trkpt>
      <trkpt lat="46.01518" lon="6.77008">
        <ele>1657.2488</ele>
        <time>2014-09-01T11:26:30Z</time>
      </trkpt>
      <trkpt lat="46.01518" lon="6.77009">
        <ele>1657.2488</ele>
        <time>2014-09-01T11:26:35Z</time>
      </trkpt>
      <trkpt lat="46.01517" lon="6.77009">
        <ele>1657.2488</ele>
        <time>2014-09-01T11:26:40Z</time>
      </trkpt>
      <trkpt lat="46.01519" lon="6.7701">
        <ele>1660.4547</ele>
        <time>2014-09-01T11:26:45Z</time>
      </trkpt>
      <trkpt lat="46.01519" lon="6.77016">
        <ele>1660.4547</ele>
        <time>2014-09-01T11:26:50Z</time>
      </trkpt>
      <trkpt lat="46.01518" lon="6.77017">
        <ele>1660.4547</ele>
        <time>2014-09-01T11:26:55Z</time>
      </trkpt>
      <trkpt lat="46.01518" lon="6.7702">
        <ele>1660.4547</ele>
        <time>2014-09-01T11:27:00Z</time>
      </trkpt>
      <trkpt lat="46.01521" lon="6.77028">
        <ele>1663.2621</ele>
        <time>2014-09-01T11:27:05Z</time>
      </trkpt>
      <trkpt lat="46.01522" lon="6.77033">
        <ele>1663.2621</ele>
        <time>2014-09-01T11:27:10Z</time>
      </trkpt>
      <trkpt lat="46.01523" lon="6.77035">
        <ele>1663.2621</ele>
        <time>2014-09-01T11:27:15Z</time>
      </trkpt>
      <trkpt lat="46.01525" lon="6.77037">
        <ele>1663.2621</ele>
        <time>2014-09-01T11:27:20Z</time>
      </trkpt>
      <trkpt lat="46.01526" lon="6.7704">
        <ele>1666.0607</ele>
        <time>2014-09-01T11:27:25Z</time>
      </trkpt>
      <trkpt lat="46.01527" lon="6.77039">
        <ele>1666.0607</ele>
        <time>2014-09-01T11:27:30Z</time>
      </trkpt>
      <trkpt lat="46.01527" lon="6.77042">
        <ele>1666.0607</ele>
        <time>2014-09-01T11:27:35Z</time>
      </trkpt>
      <trkpt lat="46.01527" lon="6.77044">
        <ele>1666.0607</ele>
        <time>2014-09-01T11:27:40Z</time>
      </trkpt>
      <trkpt lat="46.01527" lon="6.77044">
        <ele>1666.0607</ele>
        <time>2014-09-01T11:27:45Z</time>
      </trkpt>
      <trkpt lat="46.01526" lon="6.77045">
        <ele>1666.0607</ele>
        <time>2014-09-01T11:27:55Z</time>
      </trkpt>
      <trkpt lat="46.01524" lon="6.77046">
        <ele>1666.0607</ele>
        <time>2014-09-01T11:28:00Z</time>
      </trkpt>
      <trkpt lat="46.01524" lon="6.77046">
        <ele>1666.0607</ele>
        <time>2014-09-01T11:28:05Z</time>
      </trkpt>
      <trkpt lat="46.01524" lon="6.77047">
        <ele>1666.0607</ele>
        <time>2014-09-01T11:28:15Z</time>
      </trkpt>
      <trkpt lat="46.01524" lon="6.77047">
        <ele>1669.5717</ele>
        <time>2014-09-01T11:28:20Z</time>
      </trkpt>
      <trkpt lat="46.01524" lon="6.77047">
        <ele>1669.5717</ele>
        <time>2014-09-01T11:28:25Z</time>
      </trkpt>
      <trkpt lat="46.01523" lon="6.7705">
        <ele>1669.5717</ele>
        <time>2014-09-01T11:28:35Z</time>
      </trkpt>
      <trkpt lat="46.01523" lon="6.7705">
        <ele>1669.5717</ele>
        <time>2014-09-01T11:28:40Z</time>
      </trkpt>
      <trkpt lat="46.01523" lon="6.77053">
        <ele>1669.5717</ele>
        <time>2014-09-01T11:28:45Z</time>
      </trkpt>
      <trkpt lat="46.01526" lon="6.77061">
        <ele>1672.8762</ele>
        <time>2014-09-01T11:28:50Z</time>
      </trkpt>
      <trkpt lat="46.01526" lon="6.77068">
        <ele>1672.8762</ele>
        <time>2014-09-01T11:28:55Z</time>
      </trkpt>
      <trkpt lat="46.01525" lon="6.77081">
        <ele>1675.8873</ele>
        <time>2014-09-01T11:29:00Z</time>
      </trkpt>
      <trkpt lat="46.01524" lon="6.77084">
        <ele>1675.8873</ele>
        <time>2014-09-01T11:29:05Z</time>
      </trkpt>
      <trkpt lat="46.01526" lon="6.77088">
        <ele>1675.8873</ele>
        <time>2014-09-01T11:29:10Z</time>
      </trkpt>
      <trkpt lat="46.01527" lon="6.77089">
        <ele>1675.8873</ele>
        <time>2014-09-01T11:29:15Z</time>
      </trkpt>
      <trkpt lat="46.0153" lon="6.77086">
        <ele>1678.5107</ele>
        <time>2014-09-01T11:29:20Z</time>
      </trkpt>
      <trkpt lat="46.01535" lon="6.77082">
        <ele>1678.5107</ele>
        <time>2014-09-01T11:29:25Z</time>
      </trkpt>
      <trkpt lat="46.01539" lon="6.77082">
        <ele>1680.6893</ele>
        <time>2014-09-01T11:29:30Z</time>
      </trkpt>
      <trkpt lat="46.01542" lon="6.77084">
        <ele>1680.6893</ele>
        <time>2014-09-01T11:29:35Z</time>
      </trkpt>
      <trkpt lat="46.01543" lon="6.77087">
        <ele>1680.6893</ele>
        <time>2014-09-01T11:29:40Z</time>
      </trkpt>
      <trkpt lat="46.01544" lon="6.77088">
        <ele>1680.6893</ele>
        <time>2014-09-01T11:29:45Z</time>
      </trkpt>
      <trkpt lat="46.01547" lon="6.7709">
        <ele>1682.4575</ele>
        <time>2014-09-01T11:29:50Z</time>
      </trkpt>
      <trkpt lat="46.01549" lon="6.77094">
        <ele>1682.4575</ele>
        <time>2014-09-01T11:29:55Z</time>
      </trkpt>
      <trkpt lat="46.01552" lon="6.77097">
        <ele>1682.4575</ele>
        <time>2014-09-01T11:30:00Z</time>
      </trkpt>
      <trkpt lat="46.01555" lon="6.77102">
        <ele>1684.0938</ele>
        <time>2014-09-01T11:30:05Z</time>
      </trkpt>
      <trkpt lat="46.01558" lon="6.77107">
        <ele>1684.0938</ele>
        <time>2014-09-01T11:30:10Z</time>
      </trkpt>
      <trkpt lat="46.01557" lon="6.77111">
        <ele>1684.0938</ele>
        <time>2014-09-01T11:30:15Z</time>
      </trkpt>
      <trkpt lat="46.01556" lon="6.77118">
        <ele>1685.4668</ele>
        <time>2014-09-01T11:30:20Z</time>
      </trkpt>
      <trkpt lat="46.01557" lon="6.77123">
        <ele>1685.4668</ele>
        <time>2014-09-01T11:30:25Z</time>
      </trkpt>
      <trkpt lat="46.01559" lon="6.77119">
        <ele>1685.4668</ele>
        <time>2014-09-01T11:30:30Z</time>
      </trkpt>
      <trkpt lat="46.01561" lon="6.77115">
        <ele>1686.5715</ele>
        <time>2014-09-01T11:30:35Z</time>
      </trkpt>
      <trkpt lat="46.01565" lon="6.77116">
        <ele>1686.5715</ele>
        <time>2014-09-01T11:30:40Z</time>
      </trkpt>
      <trkpt lat="46.01567" lon="6.77116">
        <ele>1686.5715</ele>
        <time>2014-09-01T11:30:45Z</time>
      </trkpt>
      <trkpt lat="46.01569" lon="6.77116">
        <ele>1686.5715</ele>
        <time>2014-09-01T11:30:50Z</time>
      </trkpt>
      <trkpt lat="46.0157" lon="6.7712">
        <ele>1687.4904</ele>
        <time>2014-09-01T11:30:55Z</time>
      </trkpt>
      <trkpt lat="46.0157" lon="6.77123">
        <ele>1687.4904</ele>
        <time>2014-09-01T11:31:00Z</time>
      </trkpt>
      <trkpt lat="46.01571" lon="6.77126">
        <ele>1687.4904</ele>
        <time>2014-09-01T11:31:05Z</time>
      </trkpt>
      <trkpt lat="46.01574" lon="6.77133">
        <ele>1688.487</ele>
        <time>2014-09-01T11:31:10Z</time>
      </trkpt>
      <trkpt lat="46.01575" lon="6.77135">
        <ele>1688.487</ele>
        <time>2014-09-01T11:31:15Z</time>
      </trkpt>
      <trkpt lat="46.01576" lon="6.77134">
        <ele>1688.487</ele>
        <time>2014-09-01T11:31:20Z</time>
      </trkpt>
      <trkpt lat="46.01579" lon="6.77134">
        <ele>1688.487</ele>
        <time>2014-09-01T11:31:25Z</time>
      </trkpt>
      <trkpt lat="46.01584" lon="6.77139">
        <ele>1689.3595</ele>
        <time>2014-09-01T11:31:30Z</time>
      </trkpt>
      <trkpt lat="46.01586" lon="6.77139">
        <ele>1689.3595</ele>
        <time>2014-09-01T11:31:35Z</time>
      </trkpt>
      <trkpt lat="46.01589" lon="6.77139">
        <ele>1689.3595</ele>
        <time>2014-09-01T11:31:40Z</time>
      </trkpt>
      <trkpt lat="46.0159" lon="6.7714">
        <ele>1689.3595</ele>
        <time>2014-09-01T11:31:45Z</time>
      </trkpt>
      <trkpt lat="46.01592" lon="6.77143">
        <ele>1689.3595</ele>
        <time>2014-09-01T11:31:50Z</time>
      </trkpt>
      <trkpt lat="46.01593" lon="6.77143">
        <ele>1689.9493</ele>
        <time>2014-09-01T11:31:55Z</time>
      </trkpt>
      <trkpt lat="46.01594" lon="6.77143">
        <ele>1689.9493</ele>
        <time>2014-09-01T11:32:00Z</time>
      </trkpt>
      <trkpt lat="46.01597" lon="6.77145">
        <ele>1689.9493</ele>
        <time>2014-09-01T11:32:05Z</time>
      </trkpt>
      <trkpt lat="46.016" lon="6.77148">
        <ele>1689.9493</ele>
        <time>2014-09-01T11:32:10Z</time>
      </trkpt>
      <trkpt lat="46.01601" lon="6.7715">
        <ele>1690.3843</ele>
        <time>2014-09-01T11:32:15Z</time>
      </trkpt>
      <trkpt lat="46.01605" lon="6.77155">
        <ele>1690.3843</ele>
        <time>2014-09-01T11:32:20Z</time>
      </trkpt>
      <trkpt lat="46.01609" lon="6.77159">
        <ele>1690.8407</ele>
        <time>2014-09-01T11:32:25Z</time>
      </trkpt>
      <trkpt lat="46.01609" lon="6.7716">
        <ele>1690.8407</ele>
        <time>2014-09-01T11:32:30Z</time>
      </trkpt>
      <trkpt lat="46.0161" lon="6.7716">
        <ele>1690.8407</ele>
        <time>2014-09-01T11:32:35Z</time>
      </trkpt>
      <trkpt lat="46.01612" lon="6.77164">
        <ele>1690.8407</ele>
        <time>2014-09-01T11:32:40Z</time>
      </trkpt>
      <trkpt lat="46.01613" lon="6.77165">
        <ele>1690.8407</ele>
        <time>2014-09-01T11:32:45Z</time>
      </trkpt>
      <trkpt lat="46.01615" lon="6.77167">
        <ele>1691.4531</ele>
        <time>2014-09-01T11:32:50Z</time>
      </trkpt>
      <trkpt lat="46.01618" lon="6.77173">
        <ele>1691.4531</ele>
        <time>2014-09-01T11:32:55Z</time>
      </trkpt>
      <trkpt lat="46.01617" lon="6.77179">
        <ele>1692.115</ele>
        <time>2014-09-01T11:33:00Z</time>
      </trkpt>
      <trkpt lat="46.0162" lon="6.7718">
        <ele>1692.115</ele>
        <time>2014-09-01T11:33:05Z</time>
      </trkpt>
      <trkpt lat="46.01622" lon="6.77183">
        <ele>1692.115</ele>
        <time>2014-09-01T11:33:10Z</time>
      </trkpt>
      <trkpt lat="46.01623" lon="6.77186">
        <ele>1692.115</ele>
        <time>2014-09-01T11:33:15Z</time>
      </trkpt>
      <trkpt lat="46.01626" lon="6.7719">
        <ele>1693.2896</ele>
        <time>2014-09-01T11:33:20Z</time>
      </trkpt>
      <trkpt lat="46.01626" lon="6.77192">
        <ele>1693.2896</ele>
        <time>2014-09-01T11:33:25Z</time>
      </trkpt>
      <trkpt lat="46.01627" lon="6.77196">
        <ele>1693.2896</ele>
        <time>2014-09-01T11:33:30Z</time>
      </trkpt>
      <trkpt lat="46.01627" lon="6.77198">
        <ele>1693.2896</ele>
        <time>2014-09-01T11:33:35Z</time>
      </trkpt>
      <trkpt lat="46.01627" lon="6.77198">
        <ele>1693.2896</ele>
        <time>2014-09-01T11:33:40Z</time>
      </trkpt>
      <trkpt lat="46.01627" lon="6.77199">
        <ele>1693.2896</ele>
        <time>2014-09-01T11:33:45Z</time>
      </trkpt>
      <trkpt lat="46.01626" lon="6.77203">
        <ele>1694.7555</ele>
        <time>2014-09-01T11:33:50Z</time>
      </trkpt>
      <trkpt lat="46.01626" lon="6.7721">
        <ele>1694.7555</ele>
        <time>2014-09-01T11:33:55Z</time>
      </trkpt>
      <trkpt lat="46.01626" lon="6.77211">
        <ele>1694.7555</ele>
        <time>2014-09-01T11:34:00Z</time>
      </trkpt>
      <trkpt lat="46.01627" lon="6.77214">
        <ele>1694.7555</ele>
        <time>2014-09-01T11:34:05Z</time>
      </trkpt>
      <trkpt lat="46.01627" lon="6.77216">
        <ele>1696.4083</ele>
        <time>2014-09-01T11:34:10Z</time>
      </trkpt>
      <trkpt lat="46.01627" lon="6.77215">
        <ele>1696.4083</ele>
        <time>2014-09-01T11:34:15Z</time>
      </trkpt>
      <trkpt lat="46.01628" lon="6.77213">
        <ele>1696.4083</ele>
        <time>2014-09-01T11:34:20Z</time>
      </trkpt>
      <trkpt lat="46.01627" lon="6.77216">
        <ele>1696.4083</ele>
        <time>2014-09-01T11:34:25Z</time>
      </trkpt>
      <trkpt lat="46.01627" lon="6.77219">
        <ele>1696.4083</ele>
        <time>2014-09-01T11:34:30Z</time>
      </trkpt>
      <trkpt lat="46.01628" lon="6.77223">
        <ele>1698.2941</ele>
        <time>2014-09-01T11:34:35Z</time>
      </trkpt>
      <trkpt lat="46.01628" lon="6.77226">
        <ele>1698.2941</ele>
        <time>2014-09-01T11:34:40Z</time>
      </trkpt>
      <trkpt lat="46.01626" lon="6.77229">
        <ele>1698.2941</ele>
        <time>2014-09-01T11:34:45Z</time>
      </trkpt>
      <trkpt lat="46.01625" lon="6.77233">
        <ele>1698.2941</ele>
        <time>2014-09-01T11:34:50Z</time>
      </trkpt>
      <trkpt lat="46.01625" lon="6.77237">
        <ele>1700.3541</ele>
        <time>2014-09-01T11:34:55Z</time>
      </trkpt>
      <trkpt lat="46.01624" lon="6.7724">
        <ele>1700.3541</ele>
        <time>2014-09-01T11:35:00Z</time>
      </trkpt>
      <trkpt lat="46.01624" lon="6.7724">
        <ele>1700.3541</ele>
        <time>2014-09-01T11:35:05Z</time>
      </trkpt>
      <trkpt lat="46.01625" lon="6.77242">
        <ele>1700.3541</ele>
        <time>2014-09-01T11:35:10Z</time>
      </trkpt>
      <trkpt lat="46.01625" lon="6.77244">
        <ele>1700.3541</ele>
        <time>2014-09-01T11:35:15Z</time>
      </trkpt>
      <trkpt lat="46.01627" lon="6.77247">
        <ele>1700.3541</ele>
        <time>2014-09-01T11:35:20Z</time>
      </trkpt>
      <trkpt lat="46.01629" lon="6.7725">
        <ele>1701.9858</ele>
        <time>2014-09-01T11:35:25Z</time>
      </trkpt>
      <trkpt lat="46.01628" lon="6.77253">
        <ele>1701.9858</ele>
        <time>2014-09-01T11:35:30Z</time>
      </trkpt>
      <trkpt lat="46.01628" lon="6.77255">
        <ele>1701.9858</ele>
        <time>2014-09-01T11:35:35Z</time>
      </trkpt>
      <trkpt lat="46.01626" lon="6.77257">
        <ele>1701.9858</ele>
        <time>2014-09-01T11:35:40Z</time>
      </trkpt>
      <trkpt lat="46.01626" lon="6.77259">
        <ele>1701.9858</ele>
        <time>2014-09-01T11:35:45Z</time>
      </trkpt>
      <trkpt lat="46.01624" lon="6.77263">
        <ele>1703.727</ele>
        <time>2014-09-01T11:35:50Z</time>
      </trkpt>
      <trkpt lat="46.01623" lon="6.77265">
        <ele>1703.727</ele>
        <time>2014-09-01T11:35:55Z</time>
      </trkpt>
      <trkpt lat="46.01622" lon="6.77267">
        <ele>1703.727</ele>
        <time>2014-09-01T11:36:00Z</time>
      </trkpt>
      <trkpt lat="46.01622" lon="6.77268">
        <ele>1703.727</ele>
        <time>2014-09-01T11:36:05Z</time>
      </trkpt>
      <trkpt lat="46.01622" lon="6.77269">
        <ele>1703.727</ele>
        <time>2014-09-01T11:36:10Z</time>
      </trkpt>
      <trkpt lat="46.01622" lon="6.77269">
        <ele>1703.727</ele>
        <time>2014-09-01T11:36:15Z</time>
      </trkpt>
      <trkpt lat="46.01621" lon="6.77269">
        <ele>1703.727</ele>
        <time>2014-09-01T11:36:20Z</time>
      </trkpt>
      <trkpt lat="46.01622" lon="6.77267">
        <ele>1703.727</ele>
        <time>2014-09-01T11:36:25Z</time>
      </trkpt>
      <trkpt lat="46.01622" lon="6.77267">
        <ele>1703.727</ele>
        <time>2014-09-01T11:36:30Z</time>
      </trkpt>
      <trkpt lat="46.01622" lon="6.77268">
        <ele>1703.727</ele>
        <time>2014-09-01T11:36:35Z</time>
      </trkpt>
      <trkpt lat="46.01623" lon="6.77268">
        <ele>1703.727</ele>
        <time>2014-09-01T11:36:40Z</time>
      </trkpt>
      <trkpt lat="46.01621" lon="6.77275">
        <ele>1706.1625</ele>
        <time>2014-09-01T11:36:45Z</time>
      </trkpt>
      <trkpt lat="46.0162" lon="6.77281">
        <ele>1706.1625</ele>
        <time>2014-09-01T11:36:50Z</time>
      </trkpt>
      <trkpt lat="46.01617" lon="6.77284">
        <ele>1706.1625</ele>
        <time>2014-09-01T11:36:55Z</time>
      </trkpt>
      <trkpt lat="46.01615" lon="6.77288">
        <ele>1708.4047</ele>
        <time>2014-09-01T11:37:00Z</time>
      </trkpt>
      <trkpt lat="46.01614" lon="6.77288">
        <ele>1708.4047</ele>
        <time>2014-09-01T11:37:05Z</time>
      </trkpt>
      <trkpt lat="46.01612" lon="6.77291">
        <ele>1708.4047</ele>
        <time>2014-09-01T11:37:10Z</time>
      </trkpt>
      <trkpt lat="46.01612" lon="6.77291">
        <ele>1708.4047</ele>
        <time>2014-09-01T11:37:15Z</time>
      </trkpt>
      <trkpt lat="46.01611" lon="6.77292">
        <ele>1708.4047</ele>
        <time>2014-09-01T11:37:20Z</time>
      </trkpt>
      <trkpt lat="46.01611" lon="6.77293">
        <ele>1708.4047</ele>
        <time>2014-09-01T11:37:25Z</time>
      </trkpt>
      <trkpt lat="46.01611" lon="6.77293">
        <ele>1708.4047</ele>
        <time>2014-09-01T11:37:30Z</time>
      </trkpt>
      <trkpt lat="46.01611" lon="6.77296">
        <ele>1708.4047</ele>
        <time>2014-09-01T11:37:35Z</time>
      </trkpt>
      <trkpt lat="46.01611" lon="6.77297">
        <ele>1708.4047</ele>
        <time>2014-09-01T11:37:40Z</time>
      </trkpt>
      <trkpt lat="46.01612" lon="6.77299">
        <ele>1710.468</ele>
        <time>2014-09-01T11:37:45Z</time>
      </trkpt>
      <trkpt lat="46.01613" lon="6.77299">
        <ele>1710.468</ele>
        <time>2014-09-01T11:37:50Z</time>
      </trkpt>
      <trkpt lat="46.01614" lon="6.77301">
        <ele>1710.468</ele>
        <time>2014-09-01T11:37:55Z</time>
      </trkpt>
      <trkpt lat="46.01616" lon="6.77304">
        <ele>1710.468</ele>
        <time>2014-09-01T11:38:00Z</time>
      </trkpt>
      <trkpt lat="46.01617" lon="6.77306">
        <ele>1710.468</ele>
        <time>2014-09-01T11:38:05Z</time>
      </trkpt>
      <trkpt lat="46.01616" lon="6.7731">
        <ele>1712.2941</ele>
        <time>2014-09-01T11:38:10Z</time>
      </trkpt>
      <trkpt lat="46.01615" lon="6.77314">
        <ele>1712.2941</ele>
        <time>2014-09-01T11:38:15Z</time>
      </trkpt>
      <trkpt lat="46.01614" lon="6.77319">
        <ele>1712.2941</ele>
        <time>2014-09-01T11:38:20Z</time>
      </trkpt>
      <trkpt lat="46.01615" lon="6.7732">
        <ele>1712.2941</ele>
        <time>2014-09-01T11:38:25Z</time>
      </trkpt>
      <trkpt lat="46.01615" lon="6.77322">
        <ele>1713.9012</ele>
        <time>2014-09-01T11:38:30Z</time>
      </trkpt>
      <trkpt lat="46.01616" lon="6.77324">
        <ele>1713.9012</ele>
        <time>2014-09-01T11:38:35Z</time>
      </trkpt>
      <trkpt lat="46.01617" lon="6.7733">
        <ele>1713.9012</ele>
        <time>2014-09-01T11:38:40Z</time>
      </trkpt>
      <trkpt lat="46.01618" lon="6.77332">
        <ele>1713.9012</ele>
        <time>2014-09-01T11:38:45Z</time>
      </trkpt>
      <trkpt lat="46.01618" lon="6.77332">
        <ele>1713.9012</ele>
        <time>2014-09-01T11:38:50Z</time>
      </trkpt>
      <trkpt lat="46.01619" lon="6.77336">
        <ele>1715.6963</ele>
        <time>2014-09-01T11:39:00Z</time>
      </trkpt>
      <trkpt lat="46.0162" lon="6.77341">
        <ele>1715.6963</ele>
        <time>2014-09-01T11:39:05Z</time>
      </trkpt>
      <trkpt lat="46.01621" lon="6.77346">
        <ele>1715.6963</ele>
        <time>2014-09-01T11:39:10Z</time>
      </trkpt>
      <trkpt lat="46.01623" lon="6.77359">
        <ele>1717.6088</ele>
        <time>2014-09-01T11:39:15Z</time>
      </trkpt>
      <trkpt lat="46.01625" lon="6.77365">
        <ele>1717.6088</ele>
        <time>2014-09-01T11:39:20Z</time>
      </trkpt>
      <trkpt lat="46.01626" lon="6.77367">
        <ele>1717.6088</ele>
        <time>2014-09-01T11:39:25Z</time>
      </trkpt>
      <trkpt lat="46.01626" lon="6.77367">
        <ele>1717.6088</ele>
        <time>2014-09-01T11:39:30Z</time>
      </trkpt>
      <trkpt lat="46.01626" lon="6.77369">
        <ele>1717.6088</ele>
        <time>2014-09-01T11:39:35Z</time>
      </trkpt>
      <trkpt lat="46.01626" lon="6.77369">
        <ele>1717.6088</ele>
        <time>2014-09-01T11:39:40Z</time>
      </trkpt>
      <trkpt lat="46.01626" lon="6.77371">
        <ele>1719.746</ele>
        <time>2014-09-01T11:39:45Z</time>
      </trkpt>
      <trkpt lat="46.01626" lon="6.77374">
        <ele>1719.746</ele>
        <time>2014-09-01T11:39:50Z</time>
      </trkpt>
      <trkpt lat="46.01625" lon="6.77375">
        <ele>1719.746</ele>
        <time>2014-09-01T11:39:55Z</time>
      </trkpt>
      <trkpt lat="46.01628" lon="6.77382">
        <ele>1719.746</ele>
        <time>2014-09-01T11:40:00Z</time>
      </trkpt>
      <trkpt lat="46.01628" lon="6.77382">
        <ele>1719.746</ele>
        <time>2014-09-01T11:40:05Z</time>
      </trkpt>
      <trkpt lat="46.01627" lon="6.77383">
        <ele>1722.2784</ele>
        <time>2014-09-01T11:40:10Z</time>
      </trkpt>
      <trkpt lat="46.01627" lon="6.77386">
        <ele>1722.2784</ele>
        <time>2014-09-01T11:40:15Z</time>
      </trkpt>
      <trkpt lat="46.01627" lon="6.77386">
        <ele>1722.2784</ele>
        <time>2014-09-01T11:40:20Z</time>
      </trkpt>
      <trkpt lat="46.0163" lon="6.7739">
        <ele>1722.2784</ele>
        <time>2014-09-01T11:40:25Z</time>
      </trkpt>
      <trkpt lat="46.01631" lon="6.77391">
        <ele>1722.2784</ele>
        <time>2014-09-01T11:40:30Z</time>
      </trkpt>
      <trkpt lat="46.01631" lon="6.77392">
        <ele>1722.2784</ele>
        <time>2014-09-01T11:40:35Z</time>
      </trkpt>
      <trkpt lat="46.01632" lon="6.77392">
        <ele>1725.0029</ele>
        <time>2014-09-01T11:40:40Z</time>
      </trkpt>
      <trkpt lat="46.01632" lon="6.77392">
        <ele>1725.0029</ele>
        <time>2014-09-01T11:40:45Z</time>
      </trkpt>
      <trkpt lat="46.01633" lon="6.77392">
        <ele>1725.0029</ele>
        <time>2014-09-01T11:40:50Z</time>
      </trkpt>
      <trkpt lat="46.01633" lon="6.77394">
        <ele>1725.0029</ele>
        <time>2014-09-01T11:40:55Z</time>
      </trkpt>
      <trkpt lat="46.01633" lon="6.77394">
        <ele>1725.0029</ele>
        <time>2014-09-01T11:41:00Z</time>
      </trkpt>
      <trkpt lat="46.01636" lon="6.77397">
        <ele>1725.0029</ele>
        <time>2014-09-01T11:41:05Z</time>
      </trkpt>
      <trkpt lat="46.01638" lon="6.774">
        <ele>1727.7595</ele>
        <time>2014-09-01T11:41:10Z</time>
      </trkpt>
      <trkpt lat="46.01638" lon="6.77403">
        <ele>1727.7595</ele>
        <time>2014-09-01T11:41:15Z</time>
      </trkpt>
      <trkpt lat="46.01638" lon="6.77408">
        <ele>1727.7595</ele>
        <time>2014-09-01T11:41:20Z</time>
      </trkpt>
      <trkpt lat="46.01641" lon="6.77416">
        <ele>1730.313</ele>
        <time>2014-09-01T11:41:25Z</time>
      </trkpt>
      <trkpt lat="46.01643" lon="6.77419">
        <ele>1730.313</ele>
        <time>2014-09-01T11:41:30Z</time>
      </trkpt>
      <trkpt lat="46.01643" lon="6.7742">
        <ele>1730.313</ele>
        <time>2014-09-01T11:41:35Z</time>
      </trkpt>
      <trkpt lat="46.01644" lon="6.77426">
        <ele>1730.313</ele>
        <time>2014-09-01T11:41:40Z</time>
      </trkpt>
      <trkpt lat="46.01644" lon="6.77428">
        <ele>1732.8353</ele>
        <time>2014-09-01T11:41:45Z</time>
      </trkpt>
      <trkpt lat="46.01644" lon="6.77428">
        <ele>1732.8353</ele>
        <time>2014-09-01T11:41:50Z</time>
      </trkpt>
      <trkpt lat="46.01644" lon="6.77432">
        <ele>1732.8353</ele>
        <time>2014-09-01T11:41:55Z</time>
      </trkpt>
      <trkpt lat="46.01644" lon="6.77432">
        <ele>1732.8353</ele>
        <time>2014-09-01T11:42:00Z</time>
      </trkpt>
      <trkpt lat="46.01645" lon="6.77437">
        <ele>1732.8353</ele>
        <time>2014-09-01T11:42:05Z</time>
      </trkpt>
      <trkpt lat="46.01644" lon="6.77443">
        <ele>1735.385</ele>
        <time>2014-09-01T11:42:10Z</time>
      </trkpt>
      <trkpt lat="46.01643" lon="6.77449">
        <ele>1735.385</ele>
        <time>2014-09-01T11:42:15Z</time>
      </trkpt>
      <trkpt lat="46.01642" lon="6.77451">
        <ele>1735.385</ele>
        <time>2014-09-01T11:42:20Z</time>
      </trkpt>
      <trkpt lat="46.01642" lon="6.77454">
        <ele>1735.385</ele>
        <time>2014-09-01T11:42:25Z</time>
      </trkpt>
      <trkpt lat="46.01643" lon="6.77455">
        <ele>1735.385</ele>
        <time>2014-09-01T11:42:30Z</time>
      </trkpt>
      <trkpt lat="46.01643" lon="6.77455">
        <ele>1735.385</ele>
        <time>2014-09-01T11:42:35Z</time>
      </trkpt>
      <trkpt lat="46.01643" lon="6.77456">
        <ele>1737.9873</ele>
        <time>2014-09-01T11:42:45Z</time>
      </trkpt>
      <trkpt lat="46.01647" lon="6.77462">
        <ele>1737.9873</ele>
        <time>2014-09-01T11:42:50Z</time>
      </trkpt>
      <trkpt lat="46.0165" lon="6.77468">
        <ele>1740.3628</ele>
        <time>2014-09-01T11:42:55Z</time>
      </trkpt>
      <trkpt lat="46.01655" lon="6.77473">
        <ele>1740.3628</ele>
        <time>2014-09-01T11:43:00Z</time>
      </trkpt>
      <trkpt lat="46.01656" lon="6.77478">
        <ele>1742.4838</ele>
        <time>2014-09-01T11:43:05Z</time>
      </trkpt>
      <trkpt lat="46.01658" lon="6.77482">
        <ele>1742.4838</ele>
        <time>2014-09-01T11:43:10Z</time>
      </trkpt>
      <trkpt lat="46.01659" lon="6.77487">
        <ele>1742.4838</ele>
        <time>2014-09-01T11:43:15Z</time>
      </trkpt>
      <trkpt lat="46.0166" lon="6.77493">
        <ele>1744.3973</ele>
        <time>2014-09-01T11:43:20Z</time>
      </trkpt>
      <trkpt lat="46.0166" lon="6.77495">
        <ele>1744.3973</ele>
        <time>2014-09-01T11:43:25Z</time>
      </trkpt>
      <trkpt lat="46.0166" lon="6.77495">
        <ele>1744.3973</ele>
        <time>2014-09-01T11:43:30Z</time>
      </trkpt>
      <trkpt lat="46.0166" lon="6.77495">
        <ele>1744.3973</ele>
        <time>2014-09-01T11:43:35Z</time>
      </trkpt>
      <trkpt lat="46.0166" lon="6.77496">
        <ele>1744.3973</ele>
        <time>2014-09-01T11:43:40Z</time>
      </trkpt>
      <trkpt lat="46.01659" lon="6.77497">
        <ele>1744.3973</ele>
        <time>2014-09-01T11:43:45Z</time>
      </trkpt>
      <trkpt lat="46.01659" lon="6.77498">
        <ele>1744.3973</ele>
        <time>2014-09-01T11:43:50Z</time>
      </trkpt>
      <trkpt lat="46.01659" lon="6.77499">
        <ele>1744.3973</ele>
        <time>2014-09-01T11:43:55Z</time>
      </trkpt>
      <trkpt lat="46.01659" lon="6.77499">
        <ele>1744.3973</ele>
        <time>2014-09-01T11:44:00Z</time>
      </trkpt>
      <trkpt lat="46.01659" lon="6.77497">
        <ele>1744.3973</ele>
        <time>2014-09-01T11:44:05Z</time>
      </trkpt>
      <trkpt lat="46.01659" lon="6.77497">
        <ele>1744.3973</ele>
        <time>2014-09-01T11:44:10Z</time>
      </trkpt>
      <trkpt lat="46.01659" lon="6.77499">
        <ele>1744.3973</ele>
        <time>2014-09-01T11:44:15Z</time>
      </trkpt>
      <trkpt lat="46.01661" lon="6.77504">
        <ele>1746.5226</ele>
        <time>2014-09-01T11:44:20Z</time>
      </trkpt>
      <trkpt lat="46.01662" lon="6.77508">
        <ele>1746.5226</ele>
        <time>2014-09-01T11:44:25Z</time>
      </trkpt>
      <trkpt lat="46.01662" lon="6.77512">
        <ele>1746.5226</ele>
        <time>2014-09-01T11:44:30Z</time>
      </trkpt>
      <trkpt lat="46.01662" lon="6.77516">
        <ele>1748.411</ele>
        <time>2014-09-01T11:44:35Z</time>
      </trkpt>
      <trkpt lat="46.01666" lon="6.77523">
        <ele>1748.411</ele>
        <time>2014-09-01T11:44:40Z</time>
      </trkpt>
      <trkpt lat="46.01667" lon="6.77526">
        <ele>1748.411</ele>
        <time>2014-09-01T11:44:45Z</time>
      </trkpt>
      <trkpt lat="46.01667" lon="6.77527">
        <ele>1748.411</ele>
        <time>2014-09-01T11:44:50Z</time>
      </trkpt>
      <trkpt lat="46.01668" lon="6.77529">
        <ele>1750.0515</ele>
        <time>2014-09-01T11:44:55Z</time>
      </trkpt>
      <trkpt lat="46.01665" lon="6.77532">
        <ele>1750.0515</ele>
        <time>2014-09-01T11:45:00Z</time>
      </trkpt>
      <trkpt lat="46.01665" lon="6.77531">
        <ele>1750.0515</ele>
        <time>2014-09-01T11:45:05Z</time>
      </trkpt>
      <trkpt lat="46.01665" lon="6.77532">
        <ele>1750.0515</ele>
        <time>2014-09-01T11:45:10Z</time>
      </trkpt>
      <trkpt lat="46.01666" lon="6.77532">
        <ele>1750.0515</ele>
        <time>2014-09-01T11:45:15Z</time>
      </trkpt>
      <trkpt lat="46.01667" lon="6.77532">
        <ele>1750.0515</ele>
        <time>2014-09-01T11:45:20Z</time>
      </trkpt>
      <trkpt lat="46.01667" lon="6.77532">
        <ele>1750.0515</ele>
        <time>2014-09-01T11:45:25Z</time>
      </trkpt>
      <trkpt lat="46.01668" lon="6.77531">
        <ele>1750.0515</ele>
        <time>2014-09-01T11:45:50Z</time>
      </trkpt>
      <trkpt lat="46.01668" lon="6.77531">
        <ele>1750.0515</ele>
        <time>2014-09-01T11:45:55Z</time>
      </trkpt>
      <trkpt lat="46.01667" lon="6.77529">
        <ele>1750.0515</ele>
        <time>2014-09-01T11:46:00Z</time>
      </trkpt>
      <trkpt lat="46.01667" lon="6.77529">
        <ele>1750.0515</ele>
        <time>2014-09-01T11:46:05Z</time>
      </trkpt>
      <trkpt lat="46.01668" lon="6.7753">
        <ele>1750.0515</ele>
        <time>2014-09-01T11:47:45Z</time>
      </trkpt>
      <trkpt lat="46.01669" lon="6.77532">
        <ele>1751.7802</ele>
        <time>2014-09-01T11:47:50Z</time>
      </trkpt>
      <trkpt lat="46.01669" lon="6.77533">
        <ele>1751.7802</ele>
        <time>2014-09-01T11:47:55Z</time>
      </trkpt>
      <trkpt lat="46.01668" lon="6.77532">
        <ele>1751.7802</ele>
        <time>2014-09-01T11:48:00Z</time>
      </trkpt>
      <trkpt lat="46.01668" lon="6.77533">
        <ele>1751.7802</ele>
        <time>2014-09-01T11:48:05Z</time>
      </trkpt>
      <trkpt lat="46.01669" lon="6.77535">
        <ele>1751.7802</ele>
        <time>2014-09-01T11:48:10Z</time>
      </trkpt>
      <trkpt lat="46.01668" lon="6.77536">
        <ele>1751.7802</ele>
        <time>2014-09-01T11:48:15Z</time>
      </trkpt>
      <trkpt lat="46.01669" lon="6.77539">
        <ele>1751.7802</ele>
        <time>2014-09-01T11:48:20Z</time>
      </trkpt>
      <trkpt lat="46.01671" lon="6.77543">
        <ele>1753.6201</ele>
        <time>2014-09-01T11:48:25Z</time>
      </trkpt>
      <trkpt lat="46.01671" lon="6.77544">
        <ele>1753.6201</ele>
        <time>2014-09-01T11:48:30Z</time>
      </trkpt>
      <trkpt lat="46.01671" lon="6.77544">
        <ele>1753.6201</ele>
        <time>2014-09-01T11:48:35Z</time>
      </trkpt>
      <trkpt lat="46.01671" lon="6.77547">
        <ele>1753.6201</ele>
        <time>2014-09-01T11:48:40Z</time>
      </trkpt>
      <trkpt lat="46.01671" lon="6.77547">
        <ele>1753.6201</ele>
        <time>2014-09-01T11:48:45Z</time>
      </trkpt>
      <trkpt lat="46.01671" lon="6.77552">
        <ele>1753.6201</ele>
        <time>2014-09-01T11:50:45Z</time>
      </trkpt>
      <trkpt lat="46.0167" lon="6.77555">
        <ele>1753.6201</ele>
        <time>2014-09-01T11:50:50Z</time>
      </trkpt>
      <trkpt lat="46.0167" lon="6.77556">
        <ele>1755.6068</ele>
        <time>2014-09-01T11:50:55Z</time>
      </trkpt>
      <trkpt lat="46.0167" lon="6.77557">
        <ele>1755.6068</ele>
        <time>2014-09-01T11:51:00Z</time>
      </trkpt>
      <trkpt lat="46.0167" lon="6.77557">
        <ele>1755.6068</ele>
        <time>2014-09-01T11:51:05Z</time>
      </trkpt>
      <trkpt lat="46.0167" lon="6.77558">
        <ele>1755.6068</ele>
        <time>2014-09-01T11:51:10Z</time>
      </trkpt>
      <trkpt lat="46.01671" lon="6.77556">
        <ele>1755.6068</ele>
        <time>2014-09-01T11:51:15Z</time>
      </trkpt>
      <trkpt lat="46.01672" lon="6.77557">
        <ele>1755.6068</ele>
        <time>2014-09-01T11:51:20Z</time>
      </trkpt>
      <trkpt lat="46.01672" lon="6.77558">
        <ele>1755.6068</ele>
        <time>2014-09-01T11:51:25Z</time>
      </trkpt>
      <trkpt lat="46.01672" lon="6.77557">
        <ele>1755.6068</ele>
        <time>2014-09-01T11:51:30Z</time>
      </trkpt>
      <trkpt lat="46.01672" lon="6.77557">
        <ele>1755.6068</ele>
        <time>2014-09-01T11:51:35Z</time>
      </trkpt>
      <trkpt lat="46.01671" lon="6.77557">
        <ele>1755.6068</ele>
        <time>2014-09-01T11:51:40Z</time>
      </trkpt>
      <trkpt lat="46.0167" lon="6.77557">
        <ele>1755.6068</ele>
        <time>2014-09-01T11:51:45Z</time>
      </trkpt>
      <trkpt lat="46.01669" lon="6.77559">
        <ele>1755.6068</ele>
        <time>2014-09-01T11:51:50Z</time>
      </trkpt>
      <trkpt lat="46.0167" lon="6.7756">
        <ele>1757.4121</ele>
        <time>2014-09-01T11:51:55Z</time>
      </trkpt>
      <trkpt lat="46.0167" lon="6.77562">
        <ele>1757.4121</ele>
        <time>2014-09-01T11:52:00Z</time>
      </trkpt>
      <trkpt lat="46.01671" lon="6.77565">
        <ele>1757.4121</ele>
        <time>2014-09-01T11:52:05Z</time>
      </trkpt>
      <trkpt lat="46.01672" lon="6.77569">
        <ele>1757.4121</ele>
        <time>2014-09-01T11:52:10Z</time>
      </trkpt>
      <trkpt lat="46.01674" lon="6.77573">
        <ele>1758.8772</ele>
        <time>2014-09-01T11:52:15Z</time>
      </trkpt>
      <trkpt lat="46.01675" lon="6.77577">
        <ele>1758.8772</ele>
        <time>2014-09-01T11:52:20Z</time>
      </trkpt>
      <trkpt lat="46.01677" lon="6.77581">
        <ele>1758.8772</ele>
        <time>2014-09-01T11:52:25Z</time>
      </trkpt>
      <trkpt lat="46.0168" lon="6.77587">
        <ele>1760.1146</ele>
        <time>2014-09-01T11:52:30Z</time>
      </trkpt>
      <trkpt lat="46.01681" lon="6.77592">
        <ele>1760.1146</ele>
        <time>2014-09-01T11:52:35Z</time>
      </trkpt>
      <trkpt lat="46.01683" lon="6.77597">
        <ele>1760.1146</ele>
        <time>2014-09-01T11:52:40Z</time>
      </trkpt>
      <trkpt lat="46.01683" lon="6.77599">
        <ele>1761.244</ele>
        <time>2014-09-01T11:52:45Z</time>
      </trkpt>
      <trkpt lat="46.01683" lon="6.77604">
        <ele>1761.244</ele>
        <time>2014-09-01T11:52:50Z</time>
      </trkpt>
      <trkpt lat="46.01685" lon="6.77607">
        <ele>1761.244</ele>
        <time>2014-09-01T11:52:55Z</time>
      </trkpt>
      <trkpt lat="46.01685" lon="6.77613">
        <ele>1762.2902</ele>
        <time>2014-09-01T11:53:00Z</time>
      </trkpt>
      <trkpt lat="46.01686" lon="6.77619">
        <ele>1762.2902</ele>
        <time>2014-09-01T11:53:05Z</time>
      </trkpt>
      <trkpt lat="46.01686" lon="6.77624">
        <ele>1762.2902</ele>
        <time>2014-09-01T11:53:10Z</time>
      </trkpt>
      <trkpt lat="46.01686" lon="6.77625">
        <ele>1762.2902</ele>
        <time>2014-09-01T11:53:15Z</time>
      </trkpt>
      <trkpt lat="46.01684" lon="6.77628">
        <ele>1763.4346</ele>
        <time>2014-09-01T11:53:20Z</time>
      </trkpt>
      <trkpt lat="46.01684" lon="6.77633">
        <ele>1763.4346</ele>
        <time>2014-09-01T11:53:25Z</time>
      </trkpt>
      <trkpt lat="46.01683" lon="6.77639">
        <ele>1763.4346</ele>
        <time>2014-09-01T11:53:30Z</time>
      </trkpt>
      <trkpt lat="46.01682" lon="6.77647">
        <ele>1764.5712</ele>
        <time>2014-09-01T11:53:35Z</time>
      </trkpt>
      <trkpt lat="46.01681" lon="6.77653">
        <ele>1764.5712</ele>
        <time>2014-09-01T11:53:40Z</time>
      </trkpt>
      <trkpt lat="46.01679" lon="6.77657">
        <ele>1764.5712</ele>
        <time>2014-09-01T11:53:45Z</time>
      </trkpt>
      <trkpt lat="46.01678" lon="6.7766">
        <ele>1765.6165</ele>
        <time>2014-09-01T11:53:50Z</time>
      </trkpt>
      <trkpt lat="46.01676" lon="6.77663">
        <ele>1765.6165</ele>
        <time>2014-09-01T11:53:55Z</time>
      </trkpt>
      <trkpt lat="46.01675" lon="6.77668">
        <ele>1765.6165</ele>
        <time>2014-09-01T11:54:00Z</time>
      </trkpt>
      <trkpt lat="46.01674" lon="6.77674">
        <ele>1766.6659</ele>
        <time>2014-09-01T11:54:05Z</time>
      </trkpt>
      <trkpt lat="46.01673" lon="6.77679">
        <ele>1766.6659</ele>
        <time>2014-09-01T11:54:10Z</time>
      </trkpt>
      <trkpt lat="46.01672" lon="6.77686">
        <ele>1766.6659</ele>
        <time>2014-09-01T11:54:15Z</time>
      </trkpt>
      <trkpt lat="46.01673" lon="6.77692">
        <ele>1767.6351</ele>
        <time>2014-09-01T11:54:20Z</time>
      </trkpt>
      <trkpt lat="46.01673" lon="6.77695">
        <ele>1767.6351</ele>
        <time>2014-09-01T11:54:25Z</time>
      </trkpt>
      <trkpt lat="46.01672" lon="6.777">
        <ele>1767.6351</ele>
        <time>2014-09-01T11:54:30Z</time>
      </trkpt>
      <trkpt lat="46.01672" lon="6.77709">
        <ele>1768.4606</ele>
        <time>2014-09-01T11:54:35Z</time>
      </trkpt>
      <trkpt lat="46.01671" lon="6.77714">
        <ele>1768.4606</ele>
        <time>2014-09-01T11:54:40Z</time>
      </trkpt>
      <trkpt lat="46.01671" lon="6.7772">
        <ele>1768.4606</ele>
        <time>2014-09-01T11:54:45Z</time>
      </trkpt>
      <trkpt lat="46.0167" lon="6.77724">
        <ele>1769.242</ele>
        <time>2014-09-01T11:54:50Z</time>
      </trkpt>
      <trkpt lat="46.0167" lon="6.7773">
        <ele>1769.242</ele>
        <time>2014-09-01T11:54:55Z</time>
      </trkpt>
      <trkpt lat="46.01669" lon="6.77735">
        <ele>1769.242</ele>
        <time>2014-09-01T11:55:00Z</time>
      </trkpt>
      <trkpt lat="46.01671" lon="6.7774">
        <ele>1769.9567</ele>
        <time>2014-09-01T11:55:05Z</time>
      </trkpt>
      <trkpt lat="46.0167" lon="6.77742">
        <ele>1769.9567</ele>
        <time>2014-09-01T11:55:10Z</time>
      </trkpt>
      <trkpt lat="46.0167" lon="6.77746">
        <ele>1769.9567</ele>
        <time>2014-09-01T11:55:15Z</time>
      </trkpt>
      <trkpt lat="46.01668" lon="6.77748">
        <ele>1769.9567</ele>
        <time>2014-09-01T11:55:20Z</time>
      </trkpt>
      <trkpt lat="46.01668" lon="6.7775">
        <ele>1769.9567</ele>
        <time>2014-09-01T11:55:25Z</time>
      </trkpt>
      <trkpt lat="46.01667" lon="6.77751">
        <ele>1769.9567</ele>
        <time>2014-09-01T11:55:30Z</time>
      </trkpt>
      <trkpt lat="46.01668" lon="6.77752">
        <ele>1770.757</ele>
        <time>2014-09-01T11:55:35Z</time>
      </trkpt>
      <trkpt lat="46.01668" lon="6.77755">
        <ele>1770.757</ele>
        <time>2014-09-01T11:55:40Z</time>
      </trkpt>
      <trkpt lat="46.01668" lon="6.77758">
        <ele>1770.757</ele>
        <time>2014-09-01T11:55:45Z</time>
      </trkpt>
      <trkpt lat="46.01667" lon="6.77761">
        <ele>1770.757</ele>
        <time>2014-09-01T11:55:50Z</time>
      </trkpt>
      <trkpt lat="46.01667" lon="6.77771">
        <ele>1771.6105</ele>
        <time>2014-09-01T11:55:55Z</time>
      </trkpt>
      <trkpt lat="46.01665" lon="6.77772">
        <ele>1771.6105</ele>
        <time>2014-09-01T11:56:00Z</time>
      </trkpt>
      <trkpt lat="46.01666" lon="6.77772">
        <ele>1771.6105</ele>
        <time>2014-09-01T11:56:05Z</time>
      </trkpt>
      <trkpt lat="46.01667" lon="6.77771">
        <ele>1771.6105</ele>
        <time>2014-09-01T11:56:10Z</time>
      </trkpt>
      <trkpt lat="46.01667" lon="6.77772">
        <ele>1771.6105</ele>
        <time>2014-09-01T11:56:15Z</time>
      </trkpt>
      <trkpt lat="46.01665" lon="6.77773">
        <ele>1771.6105</ele>
        <time>2014-09-01T11:56:20Z</time>
      </trkpt>
      <trkpt lat="46.01664" lon="6.77777">
        <ele>1772.7607</ele>
        <time>2014-09-01T11:56:25Z</time>
      </trkpt>
      <trkpt lat="46.01663" lon="6.77779">
        <ele>1772.7607</ele>
        <time>2014-09-01T11:56:30Z</time>
      </trkpt>
      <trkpt lat="46.01661" lon="6.77779">
        <ele>1772.7607</ele>
        <time>2014-09-01T11:56:35Z</time>
      </trkpt>
      <trkpt lat="46.0166" lon="6.77781">
        <ele>1772.7607</ele>
        <time>2014-09-01T11:56:40Z</time>
      </trkpt>
      <trkpt lat="46.01659" lon="6.77782">
        <ele>1772.7607</ele>
        <time>2014-09-01T11:56:45Z</time>
      </trkpt>
      <trkpt lat="46.01658" lon="6.77783">
        <ele>1772.7607</ele>
        <time>2014-09-01T11:56:50Z</time>
      </trkpt>
      <trkpt lat="46.01657" lon="6.77784">
        <ele>1772.7607</ele>
        <time>2014-09-01T11:56:55Z</time>
      </trkpt>
      <trkpt lat="46.01657" lon="6.77785">
        <ele>1774.0868</ele>
        <time>2014-09-01T11:57:00Z</time>
      </trkpt>
      <trkpt lat="46.01657" lon="6.77786">
        <ele>1774.0868</ele>
        <time>2014-09-01T11:57:05Z</time>
      </trkpt>
      <trkpt lat="46.01656" lon="6.77788">
        <ele>1774.0868</ele>
        <time>2014-09-01T11:57:10Z</time>
      </trkpt>
      <trkpt lat="46.01655" lon="6.77793">
        <ele>1774.0868</ele>
        <time>2014-09-01T11:57:15Z</time>
      </trkpt>
      <trkpt lat="46.01655" lon="6.77796">
        <ele>1774.0868</ele>
        <time>2014-09-01T11:57:20Z</time>
      </trkpt>
      <trkpt lat="46.01655" lon="6.778">
        <ele>1775.4615</ele>
        <time>2014-09-01T11:57:25Z</time>
      </trkpt>
      <trkpt lat="46.01654" lon="6.77802">
        <ele>1775.4615</ele>
        <time>2014-09-01T11:57:30Z</time>
      </trkpt>
      <trkpt lat="46.01653" lon="6.77803">
        <ele>1775.4615</ele>
        <time>2014-09-01T11:57:35Z</time>
      </trkpt>
      <trkpt lat="46.01653" lon="6.77804">
        <ele>1775.4615</ele>
        <time>2014-09-01T11:57:40Z</time>
      </trkpt>
      <trkpt lat="46.0165" lon="6.77809">
        <ele>1775.4615</ele>
        <time>2014-09-01T11:57:45Z</time>
      </trkpt>
      <trkpt lat="46.01649" lon="6.77812">
        <ele>1777.084</ele>
        <time>2014-09-01T11:57:50Z</time>
      </trkpt>
      <trkpt lat="46.01649" lon="6.77813">
        <ele>1777.084</ele>
        <time>2014-09-01T11:57:55Z</time>
      </trkpt>
      <trkpt lat="46.01647" lon="6.77816">
        <ele>1777.084</ele>
        <time>2014-09-01T11:58:00Z</time>
      </trkpt>
      <trkpt lat="46.01646" lon="6.77817">
        <ele>1777.084</ele>
        <time>2014-09-01T11:58:05Z</time>
      </trkpt>
      <trkpt lat="46.01645" lon="6.77819">
        <ele>1777.084</ele>
        <time>2014-09-01T11:58:10Z</time>
      </trkpt>
      <trkpt lat="46.01643" lon="6.7782">
        <ele>1777.084</ele>
        <time>2014-09-01T11:58:15Z</time>
      </trkpt>
      <trkpt lat="46.01641" lon="6.77821">
        <ele>1778.8784</ele>
        <time>2014-09-01T11:58:20Z</time>
      </trkpt>
      <trkpt lat="46.01638" lon="6.77828">
        <ele>1778.8784</ele>
        <time>2014-09-01T11:58:25Z</time>
      </trkpt>
      <trkpt lat="46.01636" lon="6.77831">
        <ele>1778.8784</ele>
        <time>2014-09-01T11:58:30Z</time>
      </trkpt>
      <trkpt lat="46.01636" lon="6.77834">
        <ele>1780.8608</ele>
        <time>2014-09-01T11:58:35Z</time>
      </trkpt>
      <trkpt lat="46.01634" lon="6.7784">
        <ele>1780.8608</ele>
        <time>2014-09-01T11:58:40Z</time>
      </trkpt>
      <trkpt lat="46.01633" lon="6.77842">
        <ele>1780.8608</ele>
        <time>2014-09-01T11:58:45Z</time>
      </trkpt>
      <trkpt lat="46.01632" lon="6.77845">
        <ele>1780.8608</ele>
        <time>2014-09-01T11:58:50Z</time>
      </trkpt>
      <trkpt lat="46.01632" lon="6.77846">
        <ele>1782.8433</ele>
        <time>2014-09-01T11:58:55Z</time>
      </trkpt>
      <trkpt lat="46.01632" lon="6.77849">
        <ele>1782.8433</ele>
        <time>2014-09-01T11:59:00Z</time>
      </trkpt>
      <trkpt lat="46.01634" lon="6.77851">
        <ele>1782.8433</ele>
        <time>2014-09-01T11:59:05Z</time>
      </trkpt>
      <trkpt lat="46.01634" lon="6.7785">
        <ele>1782.8433</ele>
        <time>2014-09-01T11:59:10Z</time>
      </trkpt>
      <trkpt lat="46.01633" lon="6.77848">
        <ele>1782.8433</ele>
        <time>2014-09-01T11:59:15Z</time>
      </trkpt>
      <trkpt lat="46.01632" lon="6.77848">
        <ele>1782.8433</ele>
        <time>2014-09-01T11:59:20Z</time>
      </trkpt>
      <trkpt lat="46.01628" lon="6.7785">
        <ele>1785.0121</ele>
        <time>2014-09-01T11:59:25Z</time>
      </trkpt>
      <trkpt lat="46.01623" lon="6.77851">
        <ele>1785.0121</ele>
        <time>2014-09-01T11:59:30Z</time>
      </trkpt>
      <trkpt lat="46.0162" lon="6.77853">
        <ele>1785.0121</ele>
        <time>2014-09-01T11:59:35Z</time>
      </trkpt>
      <trkpt lat="46.01616" lon="6.77855">
        <ele>1787.0927</ele>
        <time>2014-09-01T11:59:40Z</time>
      </trkpt>
      <trkpt lat="46.01612" lon="6.77856">
        <ele>1787.0927</ele>
        <time>2014-09-01T11:59:45Z</time>
      </trkpt>
      <trkpt lat="46.01608" lon="6.77857">
        <ele>1787.0927</ele>
        <time>2014-09-01T11:59:50Z</time>
      </trkpt>
      <trkpt lat="46.01603" lon="6.77856">
        <ele>1788.917</ele>
        <time>2014-09-01T11:59:55Z</time>
      </trkpt>
      <trkpt lat="46.01602" lon="6.77855">
        <ele>1788.917</ele>
        <time>2014-09-01T12:00:00Z</time>
      </trkpt>
      <trkpt lat="46.01599" lon="6.77855">
        <ele>1788.917</ele>
        <time>2014-09-01T12:00:30Z</time>
      </trkpt>
      <trkpt lat="46.01593" lon="6.77853">
        <ele>1790.5178</ele>
        <time>2014-09-01T12:00:35Z</time>
      </trkpt>
      <trkpt lat="46.0159" lon="6.77854">
        <ele>1790.5178</ele>
        <time>2014-09-01T12:00:40Z</time>
      </trkpt>
      <trkpt lat="46.01586" lon="6.77852">
        <ele>1790.5178</ele>
        <time>2014-09-01T12:00:45Z</time>
      </trkpt>
      <trkpt lat="46.01581" lon="6.77849">
        <ele>1791.8394</ele>
        <time>2014-09-01T12:00:50Z</time>
      </trkpt>
      <trkpt lat="46.01579" lon="6.77845">
        <ele>1791.8394</ele>
        <time>2014-09-01T12:00:55Z</time>
      </trkpt>
      <trkpt lat="46.01574" lon="6.77844">
        <ele>1791.8394</ele>
        <time>2014-09-01T12:01:00Z</time>
      </trkpt>
      <trkpt lat="46.01569" lon="6.77844">
        <ele>1792.9171</ele>
        <time>2014-09-01T12:01:05Z</time>
      </trkpt>
      <trkpt lat="46.01564" lon="6.77846">
        <ele>1792.9171</ele>
        <time>2014-09-01T12:01:10Z</time>
      </trkpt>
      <trkpt lat="46.0156" lon="6.77845">
        <ele>1793.8425</ele>
        <time>2014-09-01T12:01:15Z</time>
      </trkpt>
      <trkpt lat="46.01553" lon="6.77844">
        <ele>1793.8425</ele>
        <time>2014-09-01T12:01:20Z</time>
      </trkpt>
      <trkpt lat="46.01547" lon="6.77843">
        <ele>1794.7004</ele>
        <time>2014-09-01T12:01:25Z</time>
      </trkpt>
      <trkpt lat="46.01544" lon="6.77844">
        <ele>1794.7004</ele>
        <time>2014-09-01T12:01:30Z</time>
      </trkpt>
      <trkpt lat="46.01539" lon="6.77846">
        <ele>1794.7004</ele>
        <time>2014-09-01T12:01:35Z</time>
      </trkpt>
      <trkpt lat="46.01535" lon="6.77847">
        <ele>1795.6562</ele>
        <time>2014-09-01T12:01:40Z</time>
      </trkpt>
      <trkpt lat="46.01531" lon="6.77848">
        <ele>1795.6562</ele>
        <time>2014-09-01T12:01:45Z</time>
      </trkpt>
      <trkpt lat="46.01528" lon="6.77849">
        <ele>1795.6562</ele>
        <time>2014-09-01T12:01:50Z</time>
      </trkpt>
      <trkpt lat="46.01524" lon="6.77853">
        <ele>1796.5603</ele>
        <time>2014-09-01T12:01:55Z</time>
      </trkpt>
      <trkpt lat="46.01524" lon="6.77857">
        <ele>1796.5603</ele>
        <time>2014-09-01T12:02:00Z</time>
      </trkpt>
      <trkpt lat="46.01521" lon="6.77862">
        <ele>1796.5603</ele>
        <time>2014-09-01T12:02:05Z</time>
      </trkpt>
      <trkpt lat="46.01518" lon="6.77865">
        <ele>1797.4181</ele>
        <time>2014-09-01T12:02:10Z</time>
      </trkpt>
      <trkpt lat="46.01514" lon="6.77868">
        <ele>1797.4181</ele>
        <time>2014-09-01T12:02:15Z</time>
      </trkpt>
      <trkpt lat="46.0151" lon="6.77869">
        <ele>1797.4181</ele>
        <time>2014-09-01T12:02:20Z</time>
      </trkpt>
      <trkpt lat="46.01508" lon="6.77868">
        <ele>1798.1917</ele>
        <time>2014-09-01T12:02:25Z</time>
      </trkpt>
      <trkpt lat="46.01503" lon="6.77869">
        <ele>1798.1917</ele>
        <time>2014-09-01T12:02:30Z</time>
      </trkpt>
      <trkpt lat="46.01499" lon="6.77872">
        <ele>1798.7737</ele>
        <time>2014-09-01T12:02:35Z</time>
      </trkpt>
      <trkpt lat="46.01494" lon="6.77878">
        <ele>1798.7737</ele>
        <time>2014-09-01T12:02:40Z</time>
      </trkpt>
      <trkpt lat="46.01491" lon="6.77885">
        <ele>1799.2529</ele>
        <time>2014-09-01T12:02:45Z</time>
      </trkpt>
      <trkpt lat="46.01487" lon="6.77886">
        <ele>1799.2529</ele>
        <time>2014-09-01T12:02:50Z</time>
      </trkpt>
      <trkpt lat="46.01487" lon="6.77886">
        <ele>1799.2529</ele>
        <time>2014-09-01T12:02:55Z</time>
      </trkpt>
      <trkpt lat="46.01485" lon="6.77889">
        <ele>1799.2529</ele>
        <time>2014-09-01T12:03:00Z</time>
      </trkpt>
      <trkpt lat="46.01481" lon="6.77894">
        <ele>1799.6685</ele>
        <time>2014-09-01T12:03:05Z</time>
      </trkpt>
      <trkpt lat="46.01477" lon="6.77898">
        <ele>1799.6685</ele>
        <time>2014-09-01T12:03:10Z</time>
      </trkpt>
      <trkpt lat="46.01475" lon="6.779">
        <ele>1799.6685</ele>
        <time>2014-09-01T12:03:15Z</time>
      </trkpt>
      <trkpt lat="46.01473" lon="6.77902">
        <ele>1800.0422</ele>
        <time>2014-09-01T12:03:20Z</time>
      </trkpt>
      <trkpt lat="46.01472" lon="6.77905">
        <ele>1800.0422</ele>
        <time>2014-09-01T12:03:25Z</time>
      </trkpt>
      <trkpt lat="46.0147" lon="6.77904">
        <ele>1800.0422</ele>
        <time>2014-09-01T12:03:30Z</time>
      </trkpt>
      <trkpt lat="46.01468" lon="6.77905">
        <ele>1800.0422</ele>
        <time>2014-09-01T12:03:35Z</time>
      </trkpt>
      <trkpt lat="46.01465" lon="6.77906">
        <ele>1800.2362</ele>
        <time>2014-09-01T12:03:40Z</time>
      </trkpt>
      <trkpt lat="46.01462" lon="6.77905">
        <ele>1800.2362</ele>
        <time>2014-09-01T12:03:45Z</time>
      </trkpt>
      <trkpt lat="46.0146" lon="6.77905">
        <ele>1800.2362</ele>
        <time>2014-09-01T12:03:50Z</time>
      </trkpt>
      <trkpt lat="46.01457" lon="6.77905">
        <ele>1800.2362</ele>
        <time>2014-09-01T12:03:55Z</time>
      </trkpt>
      <trkpt lat="46.01453" lon="6.77904">
        <ele>1799.993</ele>
        <time>2014-09-01T12:04:00Z</time>
      </trkpt>
      <trkpt lat="46.0145" lon="6.77906">
        <ele>1799.993</ele>
        <time>2014-09-01T12:04:05Z</time>
      </trkpt>
      <trkpt lat="46.0145" lon="6.77905">
        <ele>1799.993</ele>
        <time>2014-09-01T12:04:10Z</time>
      </trkpt>
      <trkpt lat="46.01446" lon="6.77907">
        <ele>1799.993</ele>
        <time>2014-09-01T12:04:15Z</time>
      </trkpt>
      <trkpt lat="46.01444" lon="6.77908">
        <ele>1799.335</ele>
        <time>2014-09-01T12:04:20Z</time>
      </trkpt>
      <trkpt lat="46.01444" lon="6.77908">
        <ele>1799.335</ele>
        <time>2014-09-01T12:05:30Z</time>
      </trkpt>
      <trkpt lat="46.0144" lon="6.77907">
        <ele>1799.335</ele>
        <time>2014-09-01T12:05:35Z</time>
      </trkpt>
      <trkpt lat="46.01435" lon="6.77906">
        <ele>1798.2405</ele>
        <time>2014-09-01T12:05:40Z</time>
      </trkpt>
      <trkpt lat="46.0143" lon="6.77906">
        <ele>1798.2405</ele>
        <time>2014-09-01T12:05:45Z</time>
      </trkpt>
      <trkpt lat="46.01425" lon="6.77904">
        <ele>1796.8636</ele>
        <time>2014-09-01T12:05:50Z</time>
      </trkpt>
      <trkpt lat="46.0142" lon="6.77903">
        <ele>1796.8636</ele>
        <time>2014-09-01T12:05:55Z</time>
      </trkpt>
      <trkpt lat="46.01416" lon="6.77903">
        <ele>1795.103</ele>
        <time>2014-09-01T12:06:00Z</time>
      </trkpt>
      <trkpt lat="46.01411" lon="6.77904">
        <ele>1795.103</ele>
        <time>2014-09-01T12:06:05Z</time>
      </trkpt>
      <trkpt lat="46.01405" lon="6.77904">
        <ele>1793.1536</ele>
        <time>2014-09-01T12:06:10Z</time>
      </trkpt>
      <trkpt lat="46.01402" lon="6.77905">
        <ele>1793.1536</ele>
        <time>2014-09-01T12:06:15Z</time>
      </trkpt>
      <trkpt lat="46.01399" lon="6.77906">
        <ele>1793.1536</ele>
        <time>2014-09-01T12:06:20Z</time>
      </trkpt>
      <trkpt lat="46.01396" lon="6.77904">
        <ele>1790.966</ele>
        <time>2014-09-01T12:06:25Z</time>
      </trkpt>
      <trkpt lat="46.01391" lon="6.77902">
        <ele>1790.966</ele>
        <time>2014-09-01T12:06:30Z</time>
      </trkpt>
      <trkpt lat="46.01387" lon="6.77899">
        <ele>1788.5382</ele>
        <time>2014-09-01T12:06:35Z</time>
      </trkpt>
      <trkpt lat="46.01384" lon="6.77894">
        <ele>1788.5382</ele>
        <time>2014-09-01T12:06:40Z</time>
      </trkpt>
      <trkpt lat="46.01381" lon="6.77889">
        <ele>1788.5382</ele>
        <time>2014-09-01T12:06:45Z</time>
      </trkpt>
      <trkpt lat="46.01379" lon="6.7789">
        <ele>1785.6816</ele>
        <time>2014-09-01T12:06:50Z</time>
      </trkpt>
      <trkpt lat="46.01373" lon="6.7789">
        <ele>1785.6816</ele>
        <time>2014-09-01T12:06:55Z</time>
      </trkpt>
      <trkpt lat="46.01368" lon="6.77892">
        <ele>1783.015</ele>
        <time>2014-09-01T12:07:00Z</time>
      </trkpt>
      <trkpt lat="46.01363" lon="6.77894">
        <ele>1783.015</ele>
        <time>2014-09-01T12:07:05Z</time>
      </trkpt>
      <trkpt lat="46.0136" lon="6.77894">
        <ele>1780.4192</ele>
        <time>2014-09-01T12:07:10Z</time>
      </trkpt>
      <trkpt lat="46.01356" lon="6.77894">
        <ele>1780.4192</ele>
        <time>2014-09-01T12:07:15Z</time>
      </trkpt>
      <trkpt lat="46.01354" lon="6.77895">
        <ele>1780.4192</ele>
        <time>2014-09-01T12:07:20Z</time>
      </trkpt>
      <trkpt lat="46.01352" lon="6.77896">
        <ele>1780.4192</ele>
        <time>2014-09-01T12:07:25Z</time>
      </trkpt>
      <trkpt lat="46.01352" lon="6.77896">
        <ele>1780.4192</ele>
        <time>2014-09-01T12:07:30Z</time>
      </trkpt>
      <trkpt lat="46.01349" lon="6.77897">
        <ele>1777.3799</ele>
        <time>2014-09-01T12:07:35Z</time>
      </trkpt>
      <trkpt lat="46.01342" lon="6.77899">
        <ele>1777.3799</ele>
        <time>2014-09-01T12:07:40Z</time>
      </trkpt>
      <trkpt lat="46.01336" lon="6.77901">
        <ele>1774.4303</ele>
        <time>2014-09-01T12:07:45Z</time>
      </trkpt>
      <trkpt lat="46.01332" lon="6.77905">
        <ele>1774.4303</ele>
        <time>2014-09-01T12:07:50Z</time>
      </trkpt>
      <trkpt lat="46.01328" lon="6.77906">
        <ele>1771.6895</ele>
        <time>2014-09-01T12:07:55Z</time>
      </trkpt>
      <trkpt lat="46.01324" lon="6.77909">
        <ele>1771.6895</ele>
        <time>2014-09-01T12:08:00Z</time>
      </trkpt>
      <trkpt lat="46.01319" lon="6.77912">
        <ele>1769.1658</ele>
        <time>2014-09-01T12:08:05Z</time>
      </trkpt>
      <trkpt lat="46.01315" lon="6.77917">
        <ele>1769.1658</ele>
        <time>2014-09-01T12:08:10Z</time>
      </trkpt>
      <trkpt lat="46.01311" lon="6.77923">
        <ele>1766.8661</ele>
        <time>2014-09-01T12:08:15Z</time>
      </trkpt>
      <trkpt lat="46.01308" lon="6.77929">
        <ele>1766.8661</ele>
        <time>2014-09-01T12:08:20Z</time>
      </trkpt>
      <trkpt lat="46.01306" lon="6.77935">
        <ele>1764.7529</ele>
        <time>2014-09-01T12:08:25Z</time>
      </trkpt>
      <trkpt lat="46.01303" lon="6.7794">
        <ele>1764.7529</ele>
        <time>2014-09-01T12:08:30Z</time>
      </trkpt>
      <trkpt lat="46.013" lon="6.77945">
        <ele>1764.7529</ele>
        <time>2014-09-01T12:08:35Z</time>
      </trkpt>
      <trkpt lat="46.01297" lon="6.77949">
        <ele>1762.7761</ele>
        <time>2014-09-01T12:08:40Z</time>
      </trkpt>
      <trkpt lat="46.01295" lon="6.77952">
        <ele>1762.7761</ele>
        <time>2014-09-01T12:08:45Z</time>
      </trkpt>
      <trkpt lat="46.0129" lon="6.77957">
        <ele>1760.9462</ele>
        <time>2014-09-01T12:08:50Z</time>
      </trkpt>
      <trkpt lat="46.01287" lon="6.77962">
        <ele>1760.9462</ele>
        <time>2014-09-01T12:08:55Z</time>
      </trkpt>
      <trkpt lat="46.01285" lon="6.77964">
        <ele>1760.9462</ele>
        <time>2014-09-01T12:09:00Z</time>
      </trkpt>
      <trkpt lat="46.01285" lon="6.77969">
        <ele>1759.1714</ele>
        <time>2014-09-01T12:09:05Z</time>
      </trkpt>
      <trkpt lat="46.01284" lon="6.77971">
        <ele>1759.1714</ele>
        <time>2014-09-01T12:09:10Z</time>
      </trkpt>
      <trkpt lat="46.01281" lon="6.77976">
        <ele>1759.1714</ele>
        <time>2014-09-01T12:09:15Z</time>
      </trkpt>
      <trkpt lat="46.0128" lon="6.77985">
        <ele>1757.3806</ele>
        <time>2014-09-01T12:09:20Z</time>
      </trkpt>
      <trkpt lat="46.01276" lon="6.7799">
        <ele>1757.3806</ele>
        <time>2014-09-01T12:09:25Z</time>
      </trkpt>
      <trkpt lat="46.01276" lon="6.77993">
        <ele>1757.3806</ele>
        <time>2014-09-01T12:09:30Z</time>
      </trkpt>
      <trkpt lat="46.01273" lon="6.77996">
        <ele>1755.6088</ele>
        <time>2014-09-01T12:09:35Z</time>
      </trkpt>
      <trkpt lat="46.01271" lon="6.78001">
        <ele>1755.6088</ele>
        <time>2014-09-01T12:09:40Z</time>
      </trkpt>
      <trkpt lat="46.01269" lon="6.78005">
        <ele>1755.6088</ele>
        <time>2014-09-01T12:09:45Z</time>
      </trkpt>
      <trkpt lat="46.01268" lon="6.78012">
        <ele>1753.6716</ele>
        <time>2014-09-01T12:09:50Z</time>
      </trkpt>
      <trkpt lat="46.01267" lon="6.78016">
        <ele>1753.6716</ele>
        <time>2014-09-01T12:09:55Z</time>
      </trkpt>
      <trkpt lat="46.01267" lon="6.78019">
        <ele>1753.6716</ele>
        <time>2014-09-01T12:10:00Z</time>
      </trkpt>
      <trkpt lat="46.01265" lon="6.78023">
        <ele>1753.6716</ele>
        <time>2014-09-01T12:10:05Z</time>
      </trkpt>
      <trkpt lat="46.01262" lon="6.78032">
        <ele>1751.5573</ele>
        <time>2014-09-01T12:10:10Z</time>
      </trkpt>
      <trkpt lat="46.01261" lon="6.78034">
        <ele>1751.5573</ele>
        <time>2014-09-01T12:10:15Z</time>
      </trkpt>
      <trkpt lat="46.01258" lon="6.78039">
        <ele>1751.5573</ele>
        <time>2014-09-01T12:10:20Z</time>
      </trkpt>
      <trkpt lat="46.01256" lon="6.78042">
        <ele>1749.298</ele>
        <time>2014-09-01T12:10:25Z</time>
      </trkpt>
      <trkpt lat="46.01251" lon="6.78047">
        <ele>1749.298</ele>
        <time>2014-09-01T12:10:30Z</time>
      </trkpt>
      <trkpt lat="46.01246" lon="6.78051">
        <ele>1746.9819</ele>
        <time>2014-09-01T12:10:35Z</time>
      </trkpt>
      <trkpt lat="46.01242" lon="6.78052">
        <ele>1746.9819</ele>
        <time>2014-09-01T12:10:40Z</time>
      </trkpt>
      <trkpt lat="46.01236" lon="6.78057">
        <ele>1744.4884</ele>
        <time>2014-09-01T12:10:45Z</time>
      </trkpt>
      <trkpt lat="46.01231" lon="6.78061">
        <ele>1744.4884</ele>
        <time>2014-09-01T12:10:50Z</time>
      </trkpt>
      <trkpt lat="46.01228" lon="6.78068">
        <ele>1741.908</ele>
        <time>2014-09-01T12:10:55Z</time>
      </trkpt>
      <trkpt lat="46.01225" lon="6.78074">
        <ele>1741.908</ele>
        <time>2014-09-01T12:11:00Z</time>
      </trkpt>
      <trkpt lat="46.01222" lon="6.7808">
        <ele>1739.3387</ele>
        <time>2014-09-01T12:11:05Z</time>
      </trkpt>
      <trkpt lat="46.01216" lon="6.78084">
        <ele>1739.3387</ele>
        <time>2014-09-01T12:11:10Z</time>
      </trkpt>
      <trkpt lat="46.01213" lon="6.78086">
        <ele>1736.7418</ele>
        <time>2014-09-01T12:11:15Z</time>
      </trkpt>
      <trkpt lat="46.0121" lon="6.78089">
        <ele>1736.7418</ele>
        <time>2014-09-01T12:11:20Z</time>
      </trkpt>
      <trkpt lat="46.01208" lon="6.78094">
        <ele>1736.7418</ele>
        <time>2014-09-01T12:11:25Z</time>
      </trkpt>
      <trkpt lat="46.01202" lon="6.78095">
        <ele>1734.4844</ele>
        <time>2014-09-01T12:11:30Z</time>
      </trkpt>
      <trkpt lat="46.01198" lon="6.78098">
        <ele>1734.4844</ele>
        <time>2014-09-01T12:11:35Z</time>
      </trkpt>
      <trkpt lat="46.01196" lon="6.78099">
        <ele>1734.4844</ele>
        <time>2014-09-01T12:11:40Z</time>
      </trkpt>
      <trkpt lat="46.01195" lon="6.78101">
        <ele>1734.4844</ele>
        <time>2014-09-01T12:11:45Z</time>
      </trkpt>
      <trkpt lat="46.01196" lon="6.78102">
        <ele>1734.4844</ele>
        <time>2014-09-01T12:11:50Z</time>
      </trkpt>
      <trkpt lat="46.01195" lon="6.78104">
        <ele>1732.5597</ele>
        <time>2014-09-01T12:11:55Z</time>
      </trkpt>
      <trkpt lat="46.01193" lon="6.78103">
        <ele>1732.5597</ele>
        <time>2014-09-01T12:12:00Z</time>
      </trkpt>
      <trkpt lat="46.01192" lon="6.78102">
        <ele>1732.5597</ele>
        <time>2014-09-01T12:12:05Z</time>
      </trkpt>
      <trkpt lat="46.0119" lon="6.78107">
        <ele>1732.5597</ele>
        <time>2014-09-01T12:12:10Z</time>
      </trkpt>
      <trkpt lat="46.01187" lon="6.7811">
        <ele>1731.1477</ele>
        <time>2014-09-01T12:12:15Z</time>
      </trkpt>
      <trkpt lat="46.01184" lon="6.78112">
        <ele>1731.1477</ele>
        <time>2014-09-01T12:12:20Z</time>
      </trkpt>
      <trkpt lat="46.01182" lon="6.78113">
        <ele>1731.1477</ele>
        <time>2014-09-01T12:12:25Z</time>
      </trkpt>
      <trkpt lat="46.01181" lon="6.78115">
        <ele>1731.1477</ele>
        <time>2014-09-01T12:12:30Z</time>
      </trkpt>
      <trkpt lat="46.0118" lon="6.78116">
        <ele>1731.1477</ele>
        <time>2014-09-01T12:12:35Z</time>
      </trkpt>
      <trkpt lat="46.01175" lon="6.78118">
        <ele>1730.2261</ele>
        <time>2014-09-01T12:12:40Z</time>
      </trkpt>
      <trkpt lat="46.01173" lon="6.78121">
        <ele>1730.2261</ele>
        <time>2014-09-01T12:12:45Z</time>
      </trkpt>
      <trkpt lat="46.01173" lon="6.78122">
        <ele>1730.2261</ele>
        <time>2014-09-01T12:12:50Z</time>
      </trkpt>
      <trkpt lat="46.01168" lon="6.78123">
        <ele>1730.2261</ele>
        <time>2014-09-01T12:12:55Z</time>
      </trkpt>
      <trkpt lat="46.01168" lon="6.78123">
        <ele>1730.2261</ele>
        <time>2014-09-01T12:13:00Z</time>
      </trkpt>
      <trkpt lat="46.01163" lon="6.78126">
        <ele>1729.787</ele>
        <time>2014-09-01T12:13:05Z</time>
      </trkpt>
      <trkpt lat="46.01162" lon="6.78127">
        <ele>1729.787</ele>
        <time>2014-09-01T12:13:10Z</time>
      </trkpt>
      <trkpt lat="46.01157" lon="6.78129">
        <ele>1729.787</ele>
        <time>2014-09-01T12:13:15Z</time>
      </trkpt>
      <trkpt lat="46.01155" lon="6.78131">
        <ele>1729.787</ele>
        <time>2014-09-01T12:13:20Z</time>
      </trkpt>
      <trkpt lat="46.01149" lon="6.78139">
        <ele>1729.4182</ele>
        <time>2014-09-01T12:13:25Z</time>
      </trkpt>
      <trkpt lat="46.01147" lon="6.78144">
        <ele>1729.4182</ele>
        <time>2014-09-01T12:13:30Z</time>
      </trkpt>
      <trkpt lat="46.01146" lon="6.78145">
        <ele>1729.4182</ele>
        <time>2014-09-01T12:13:35Z</time>
      </trkpt>
      <trkpt lat="46.01146" lon="6.78145">
        <ele>1729.4182</ele>
        <time>2014-09-01T12:13:40Z</time>
      </trkpt>
      <trkpt lat="46.01144" lon="6.78145">
        <ele>1729.4182</ele>
        <time>2014-09-01T12:13:45Z</time>
      </trkpt>
      <trkpt lat="46.01143" lon="6.78146">
        <ele>1729.4182</ele>
        <time>2014-09-01T12:13:50Z</time>
      </trkpt>
      <trkpt lat="46.01137" lon="6.78149">
        <ele>1729.6595</ele>
        <time>2014-09-01T12:13:55Z</time>
      </trkpt>
      <trkpt lat="46.01135" lon="6.7815">
        <ele>1729.6595</ele>
        <time>2014-09-01T12:14:00Z</time>
      </trkpt>
      <trkpt lat="46.01134" lon="6.78151">
        <ele>1729.6595</ele>
        <time>2014-09-01T12:14:05Z</time>
      </trkpt>
      <trkpt lat="46.0113" lon="6.78156">
        <ele>1729.6595</ele>
        <time>2014-09-01T12:14:10Z</time>
      </trkpt>
      <trkpt lat="46.01128" lon="6.78158">
        <ele>1730.2892</ele>
        <time>2014-09-01T12:14:15Z</time>
      </trkpt>
      <trkpt lat="46.01128" lon="6.78162">
        <ele>1730.2892</ele>
        <time>2014-09-01T12:14:20Z</time>
      </trkpt>
      <trkpt lat="46.01126" lon="6.78167">
        <ele>1730.2892</ele>
        <time>2014-09-01T12:14:25Z</time>
      </trkpt>
      <trkpt lat="46.01125" lon="6.78176">
        <ele>1731.2439</ele>
        <time>2014-09-01T12:14:30Z</time>
      </trkpt>
      <trkpt lat="46.01123" lon="6.78183">
        <ele>1731.2439</ele>
        <time>2014-09-01T12:14:35Z</time>
      </trkpt>
      <trkpt lat="46.01122" lon="6.78187">
        <ele>1731.2439</ele>
        <time>2014-09-01T12:14:40Z</time>
      </trkpt>
      <trkpt lat="46.0112" lon="6.78191">
        <ele>1732.7384</ele>
        <time>2014-09-01T12:14:45Z</time>
      </trkpt>
      <trkpt lat="46.01116" lon="6.78199">
        <ele>1732.7384</ele>
        <time>2014-09-01T12:14:50Z</time>
      </trkpt>
      <trkpt lat="46.01115" lon="6.78202">
        <ele>1734.451</ele>
        <time>2014-09-01T12:14:55Z</time>
      </trkpt>
      <trkpt lat="46.0111" lon="6.78204">
        <ele>1734.451</ele>
        <time>2014-09-01T12:15:00Z</time>
      </trkpt>
      <trkpt lat="46.01107" lon="6.78206">
        <ele>1734.451</ele>
        <time>2014-09-01T12:15:05Z</time>
      </trkpt>
      <trkpt lat="46.01104" lon="6.78208">
        <ele>1736.4003</ele>
        <time>2014-09-01T12:15:10Z</time>
      </trkpt>
      <trkpt lat="46.01101" lon="6.78205">
        <ele>1736.4003</ele>
        <time>2014-09-01T12:15:15Z</time>
      </trkpt>
      <trkpt lat="46.01098" lon="6.78206">
        <ele>1736.4003</ele>
        <time>2014-09-01T12:15:20Z</time>
      </trkpt>
      <trkpt lat="46.01097" lon="6.78209">
        <ele>1736.4003</ele>
        <time>2014-09-01T12:15:25Z</time>
      </trkpt>
      <trkpt lat="46.01097" lon="6.78209">
        <ele>1736.4003</ele>
        <time>2014-09-01T12:15:30Z</time>
      </trkpt>
      <trkpt lat="46.01093" lon="6.78211">
        <ele>1738.6024</ele>
        <time>2014-09-01T12:15:35Z</time>
      </trkpt>
      <trkpt lat="46.01091" lon="6.78214">
        <ele>1738.6024</ele>
        <time>2014-09-01T12:15:40Z</time>
      </trkpt>
      <trkpt lat="46.01088" lon="6.78217">
        <ele>1738.6024</ele>
        <time>2014-09-01T12:15:45Z</time>
      </trkpt>
      <trkpt lat="46.01085" lon="6.78222">
        <ele>1740.6974</ele>
        <time>2014-09-01T12:15:50Z</time>
      </trkpt>
      <trkpt lat="46.01083" lon="6.78227">
        <ele>1740.6974</ele>
        <time>2014-09-01T12:15:55Z</time>
      </trkpt>
      <trkpt lat="46.0108" lon="6.78227">
        <ele>1740.6974</ele>
        <time>2014-09-01T12:16:00Z</time>
      </trkpt>
      <trkpt lat="46.01077" lon="6.78231">
        <ele>1742.3806</ele>
        <time>2014-09-01T12:16:05Z</time>
      </trkpt>
      <trkpt lat="46.01074" lon="6.78232">
        <ele>1742.3806</ele>
        <time>2014-09-01T12:16:10Z</time>
      </trkpt>
      <trkpt lat="46.01071" lon="6.78236">
        <ele>1742.3806</ele>
        <time>2014-09-01T12:16:15Z</time>
      </trkpt>
      <trkpt lat="46.01069" lon="6.7824">
        <ele>1743.7891</ele>
        <time>2014-09-01T12:16:20Z</time>
      </trkpt>
      <trkpt lat="46.01067" lon="6.78243">
        <ele>1743.7891</ele>
        <time>2014-09-01T12:16:25Z</time>
      </trkpt>
      <trkpt lat="46.01063" lon="6.78246">
        <ele>1743.7891</ele>
        <time>2014-09-01T12:16:30Z</time>
      </trkpt>
      <trkpt lat="46.01062" lon="6.78252">
        <ele>1744.9496</ele>
        <time>2014-09-01T12:16:35Z</time>
      </trkpt>
      <trkpt lat="46.01062" lon="6.78255">
        <ele>1744.9496</ele>
        <time>2014-09-01T12:16:40Z</time>
      </trkpt>
      <trkpt lat="46.01062" lon="6.78255">
        <ele>1744.9496</ele>
        <time>2014-09-01T12:16:45Z</time>
      </trkpt>
      <trkpt lat="46.01061" lon="6.78255">
        <ele>1744.9496</ele>
        <time>2014-09-01T12:16:50Z</time>
      </trkpt>
      <trkpt lat="46.0106" lon="6.78255">
        <ele>1744.9496</ele>
        <time>2014-09-01T12:16:55Z</time>
      </trkpt>
      <trkpt lat="46.01056" lon="6.78258">
        <ele>1744.9496</ele>
        <time>2014-09-01T12:17:00Z</time>
      </trkpt>
      <trkpt lat="46.01055" lon="6.78258">
        <ele>1746.0897</ele>
        <time>2014-09-01T12:17:05Z</time>
      </trkpt>
      <trkpt lat="46.01052" lon="6.78259">
        <ele>1746.0897</ele>
        <time>2014-09-01T12:17:10Z</time>
      </trkpt>
      <trkpt lat="46.0105" lon="6.78265">
        <ele>1746.0897</ele>
        <time>2014-09-01T12:17:15Z</time>
      </trkpt>
      <trkpt lat="46.01044" lon="6.78271">
        <ele>1747.5067</ele>
        <time>2014-09-01T12:17:20Z</time>
      </trkpt>
      <trkpt lat="46.01036" lon="6.78272">
        <ele>1747.5067</ele>
        <time>2014-09-01T12:17:25Z</time>
      </trkpt>
      <trkpt lat="46.01033" lon="6.78276">
        <ele>1748.9714</ele>
        <time>2014-09-01T12:17:30Z</time>
      </trkpt>
      <trkpt lat="46.01033" lon="6.7828">
        <ele>1748.9714</ele>
        <time>2014-09-01T12:17:35Z</time>
      </trkpt>
      <trkpt lat="46.0103" lon="6.78288">
        <ele>1750.372</ele>
        <time>2014-09-01T12:17:40Z</time>
      </trkpt>
      <trkpt lat="46.01027" lon="6.78294">
        <ele>1750.372</ele>
        <time>2014-09-01T12:17:45Z</time>
      </trkpt>
      <trkpt lat="46.01028" lon="6.78302">
        <ele>1751.6483</ele>
        <time>2014-09-01T12:17:50Z</time>
      </trkpt>
      <trkpt lat="46.01026" lon="6.78307">
        <ele>1751.6483</ele>
        <time>2014-09-01T12:17:55Z</time>
      </trkpt>
      <trkpt lat="46.01025" lon="6.7831">
        <ele>1751.6483</ele>
        <time>2014-09-01T12:18:00Z</time>
      </trkpt>
      <trkpt lat="46.01025" lon="6.7831">
        <ele>1751.6483</ele>
        <time>2014-09-01T12:18:05Z</time>
      </trkpt>
      <trkpt lat="46.01026" lon="6.78313">
        <ele>1752.7312</ele>
        <time>2014-09-01T12:18:15Z</time>
      </trkpt>
      <trkpt lat="46.01026" lon="6.78313">
        <ele>1752.7312</ele>
        <time>2014-09-01T12:18:20Z</time>
      </trkpt>
      <trkpt lat="46.01023" lon="6.78317">
        <ele>1752.7312</ele>
        <time>2014-09-01T12:18:30Z</time>
      </trkpt>
      <trkpt lat="46.0102" lon="6.78322">
        <ele>1752.7312</ele>
        <time>2014-09-01T12:18:35Z</time>
      </trkpt>
      <trkpt lat="46.01018" lon="6.78326">
        <ele>1753.9174</ele>
        <time>2014-09-01T12:18:40Z</time>
      </trkpt>
      <trkpt lat="46.01017" lon="6.7833">
        <ele>1753.9174</ele>
        <time>2014-09-01T12:18:45Z</time>
      </trkpt>
      <trkpt lat="46.01018" lon="6.78332">
        <ele>1753.9174</ele>
        <time>2014-09-01T12:18:50Z</time>
      </trkpt>
      <trkpt lat="46.01014" lon="6.78337">
        <ele>1753.9174</ele>
        <time>2014-09-01T12:18:55Z</time>
      </trkpt>
      <trkpt lat="46.01014" lon="6.78338">
        <ele>1755.7551</ele>
        <time>2014-09-01T12:19:00Z</time>
      </trkpt>
      <trkpt lat="46.01014" lon="6.78338">
        <ele>1755.7551</ele>
        <time>2014-09-01T12:19:05Z</time>
      </trkpt>
      <trkpt lat="46.01015" lon="6.78339">
        <ele>1755.7551</ele>
        <time>2014-09-01T12:19:15Z</time>
      </trkpt>
      <trkpt lat="46.01014" lon="6.78339">
        <ele>1755.7551</ele>
        <time>2014-09-01T12:19:20Z</time>
      </trkpt>
      <trkpt lat="46.0101" lon="6.78341">
        <ele>1755.7551</ele>
        <time>2014-09-01T12:19:25Z</time>
      </trkpt>
      <trkpt lat="46.01007" lon="6.78344">
        <ele>1755.7551</ele>
        <time>2014-09-01T12:19:30Z</time>
      </trkpt>
      <trkpt lat="46.01005" lon="6.78346">
        <ele>1757.166</ele>
        <time>2014-09-01T12:19:35Z</time>
      </trkpt>
      <trkpt lat="46.01004" lon="6.78353">
        <ele>1757.166</ele>
        <time>2014-09-01T12:19:40Z</time>
      </trkpt>
      <trkpt lat="46.01003" lon="6.7836">
        <ele>1758.305</ele>
        <time>2014-09-01T12:19:45Z</time>
      </trkpt>
      <trkpt lat="46.01003" lon="6.7836">
        <ele>1758.305</ele>
        <time>2014-09-01T12:19:50Z</time>
      </trkpt>
      <trkpt lat="46.00998" lon="6.78359">
        <ele>1758.305</ele>
        <time>2014-09-01T12:20:20Z</time>
      </trkpt>
      <trkpt lat="46.00992" lon="6.78361">
        <ele>1759.6625</ele>
        <time>2014-09-01T12:20:25Z</time>
      </trkpt>
      <trkpt lat="46.00989" lon="6.78363">
        <ele>1759.6625</ele>
        <time>2014-09-01T12:20:30Z</time>
      </trkpt>
      <trkpt lat="46.00984" lon="6.78364">
        <ele>1759.6625</ele>
        <time>2014-09-01T12:20:35Z</time>
      </trkpt>
      <trkpt lat="46.00981" lon="6.78365">
        <ele>1761.1304</ele>
        <time>2014-09-01T12:20:40Z</time>
      </trkpt>
      <trkpt lat="46.00978" lon="6.78367">
        <ele>1761.1304</ele>
        <time>2014-09-01T12:20:45Z</time>
      </trkpt>
      <trkpt lat="46.00973" lon="6.7837">
        <ele>1762.4065</ele>
        <time>2014-09-01T12:20:50Z</time>
      </trkpt>
      <trkpt lat="46.00968" lon="6.78371">
        <ele>1762.4065</ele>
        <time>2014-09-01T12:20:55Z</time>
      </trkpt>
      <trkpt lat="46.00964" lon="6.78374">
        <ele>1763.4568</ele>
        <time>2014-09-01T12:21:00Z</time>
      </trkpt>
      <trkpt lat="46.0096" lon="6.78374">
        <ele>1763.4568</ele>
        <time>2014-09-01T12:21:05Z</time>
      </trkpt>
      <trkpt lat="46.00955" lon="6.78372">
        <ele>1764.1783</ele>
        <time>2014-09-01T12:21:10Z</time>
      </trkpt>
      <trkpt lat="46.0095" lon="6.78367">
        <ele>1764.1783</ele>
        <time>2014-09-01T12:21:15Z</time>
      </trkpt>
      <trkpt lat="46.00947" lon="6.78364">
        <ele>1764.6357</ele>
        <time>2014-09-01T12:21:20Z</time>
      </trkpt>
      <trkpt lat="46.00945" lon="6.78363">
        <ele>1764.6357</ele>
        <time>2014-09-01T12:21:25Z</time>
      </trkpt>
      <trkpt lat="46.00941" lon="6.78365">
        <ele>1764.6357</ele>
        <time>2014-09-01T12:21:30Z</time>
      </trkpt>
      <trkpt lat="46.00936" lon="6.78367">
        <ele>1764.9902</ele>
        <time>2014-09-01T12:21:35Z</time>
      </trkpt>
      <trkpt lat="46.00931" lon="6.78372">
        <ele>1764.9902</ele>
        <time>2014-09-01T12:21:40Z</time>
      </trkpt>
      <trkpt lat="46.00926" lon="6.78369">
        <ele>1765.0029</ele>
        <time>2014-09-01T12:21:45Z</time>
      </trkpt>
      <trkpt lat="46.0092" lon="6.78368">
        <ele>1765.0029</ele>
        <time>2014-09-01T12:21:50Z</time>
      </trkpt>
      <trkpt lat="46.00918" lon="6.78367">
        <ele>1765.0029</ele>
        <time>2014-09-01T12:21:55Z</time>
      </trkpt>
      <trkpt lat="46.00914" lon="6.78368">
        <ele>1764.5686</ele>
        <time>2014-09-01T12:22:00Z</time>
      </trkpt>
      <trkpt lat="46.00909" lon="6.78368">
        <ele>1764.5686</ele>
        <time>2014-09-01T12:22:05Z</time>
      </trkpt>
      <trkpt lat="46.00907" lon="6.78369">
        <ele>1764.5686</ele>
        <time>2014-09-01T12:22:10Z</time>
      </trkpt>
      <trkpt lat="46.00907" lon="6.78369">
        <ele>1764.5686</ele>
        <time>2014-09-01T12:22:15Z</time>
      </trkpt>
      <trkpt lat="46.00905" lon="6.78369">
        <ele>1764.0093</ele>
        <time>2014-09-01T12:22:20Z</time>
      </trkpt>
      <trkpt lat="46.00905" lon="6.78369">
        <ele>1764.0093</ele>
        <time>2014-09-01T12:22:25Z</time>
      </trkpt>
      <trkpt lat="46.00899" lon="6.78365">
        <ele>1764.0093</ele>
        <time>2014-09-01T12:22:30Z</time>
      </trkpt>
      <trkpt lat="46.00892" lon="6.7836">
        <ele>1763.422</ele>
        <time>2014-09-01T12:22:35Z</time>
      </trkpt>
      <trkpt lat="46.00888" lon="6.78357">
        <ele>1763.422</ele>
        <time>2014-09-01T12:22:40Z</time>
      </trkpt>
      <trkpt lat="46.00885" lon="6.78356">
        <ele>1763.422</ele>
        <time>2014-09-01T12:22:45Z</time>
      </trkpt>
      <trkpt lat="46.00883" lon="6.78356">
        <ele>1762.9115</ele>
        <time>2014-09-01T12:22:50Z</time>
      </trkpt>
      <trkpt lat="46.0088" lon="6.78356">
        <ele>1762.9115</ele>
        <time>2014-09-01T12:22:55Z</time>
      </trkpt>
      <trkpt lat="46.00874" lon="6.78355">
        <ele>1762.4879</ele>
        <time>2014-09-01T12:23:00Z</time>
      </trkpt>
      <trkpt lat="46.00868" lon="6.78358">
        <ele>1762.4879</ele>
        <time>2014-09-01T12:23:05Z</time>
      </trkpt>
      <trkpt lat="46.00865" lon="6.78361">
        <ele>1762.1608</ele>
        <time>2014-09-01T12:23:10Z</time>
      </trkpt>
      <trkpt lat="46.00861" lon="6.78363">
        <ele>1762.1608</ele>
        <time>2014-09-01T12:23:15Z</time>
      </trkpt>
      <trkpt lat="46.00857" lon="6.78365">
        <ele>1762.1608</ele>
        <time>2014-09-01T12:23:20Z</time>
      </trkpt>
      <trkpt lat="46.00853" lon="6.78367">
        <ele>1761.9818</ele>
        <time>2014-09-01T12:23:25Z</time>
      </trkpt>
      <trkpt lat="46.00849" lon="6.78368">
        <ele>1761.9818</ele>
        <time>2014-09-01T12:23:30Z</time>
      </trkpt>
      <trkpt lat="46.00844" lon="6.7837">
        <ele>1761.5807</ele>
        <time>2014-09-01T12:23:35Z</time>
      </trkpt>
      <trkpt lat="46.0084" lon="6.7837">
        <ele>1761.5807</ele>
        <time>2014-09-01T12:23:40Z</time>
      </trkpt>
      <trkpt lat="46.00836" lon="6.78375">
        <ele>1761.1196</ele>
        <time>2014-09-01T12:23:45Z</time>
      </trkpt>
      <trkpt lat="46.00832" lon="6.78381">
        <ele>1761.1196</ele>
        <time>2014-09-01T12:23:50Z</time>
      </trkpt>
      <trkpt lat="46.0083" lon="6.78385">
        <ele>1760.7776</ele>
        <time>2014-09-01T12:23:55Z</time>
      </trkpt>
      <trkpt lat="46.00824" lon="6.78389">
        <ele>1760.7776</ele>
        <time>2014-09-01T12:24:00Z</time>
      </trkpt>
      <trkpt lat="46.00821" lon="6.78394">
        <ele>1760.6194</ele>
        <time>2014-09-01T12:24:05Z</time>
      </trkpt>
      <trkpt lat="46.00819" lon="6.78394">
        <ele>1760.6194</ele>
        <time>2014-09-01T12:24:10Z</time>
      </trkpt>
      <trkpt lat="46.00815" lon="6.78397">
        <ele>1760.6194</ele>
        <time>2014-09-01T12:24:15Z</time>
      </trkpt>
      <trkpt lat="46.00812" lon="6.78402">
        <ele>1760.431</ele>
        <time>2014-09-01T12:24:20Z</time>
      </trkpt>
      <trkpt lat="46.00808" lon="6.78404">
        <ele>1760.431</ele>
        <time>2014-09-01T12:24:25Z</time>
      </trkpt>
      <trkpt lat="46.00803" lon="6.78406">
        <ele>1760.1725</ele>
        <time>2014-09-01T12:24:30Z</time>
      </trkpt>
      <trkpt lat="46.00798" lon="6.78408">
        <ele>1760.1725</ele>
        <time>2014-09-01T12:24:35Z</time>
      </trkpt>
      <trkpt lat="46.00796" lon="6.78409">
        <ele>1760.1725</ele>
        <time>2014-09-01T12:24:40Z</time>
      </trkpt>
      <trkpt lat="46.00792" lon="6.78411">
        <ele>1759.9224</ele>
        <time>2014-09-01T12:24:45Z</time>
      </trkpt>
      <trkpt lat="46.00787" lon="6.78413">
        <ele>1759.9224</ele>
        <time>2014-09-01T12:24:50Z</time>
      </trkpt>
      <trkpt lat="46.00783" lon="6.78414">
        <ele>1759.8401</ele>
        <time>2014-09-01T12:24:55Z</time>
      </trkpt>
      <trkpt lat="46.00778" lon="6.78415">
        <ele>1759.8401</ele>
        <time>2014-09-01T12:25:00Z</time>
      </trkpt>
      <trkpt lat="46.00774" lon="6.7842">
        <ele>1759.9575</ele>
        <time>2014-09-01T12:25:05Z</time>
      </trkpt>
      <trkpt lat="46.00771" lon="6.78422">
        <ele>1759.9575</ele>
        <time>2014-09-01T12:25:10Z</time>
      </trkpt>
      <trkpt lat="46.00766" lon="6.78426">
        <ele>1759.9575</ele>
        <time>2014-09-01T12:25:15Z</time>
      </trkpt>
      <trkpt lat="46.00761" lon="6.78428">
        <ele>1760.2028</ele>
        <time>2014-09-01T12:25:20Z</time>
      </trkpt>
      <trkpt lat="46.0076" lon="6.7843">
        <ele>1760.2028</ele>
        <time>2014-09-01T12:25:25Z</time>
      </trkpt>
      <trkpt lat="46.0076" lon="6.7843">
        <ele>1760.2028</ele>
        <time>2014-09-01T12:25:30Z</time>
      </trkpt>
      <trkpt lat="46.00758" lon="6.78433">
        <ele>1760.2028</ele>
        <time>2014-09-01T12:25:35Z</time>
      </trkpt>
      <trkpt lat="46.00755" lon="6.78441">
        <ele>1760.4655</ele>
        <time>2014-09-01T12:25:40Z</time>
      </trkpt>
      <trkpt lat="46.00753" lon="6.78443">
        <ele>1760.4655</ele>
        <time>2014-09-01T12:25:45Z</time>
      </trkpt>
      <trkpt lat="46.0075" lon="6.78446">
        <ele>1760.4655</ele>
        <time>2014-09-01T12:25:50Z</time>
      </trkpt>
      <trkpt lat="46.00746" lon="6.78445">
        <ele>1760.9606</ele>
        <time>2014-09-01T12:25:55Z</time>
      </trkpt>
      <trkpt lat="46.00743" lon="6.78446">
        <ele>1760.9606</ele>
        <time>2014-09-01T12:26:00Z</time>
      </trkpt>
      <trkpt lat="46.00739" lon="6.78445">
        <ele>1760.9606</ele>
        <time>2014-09-01T12:26:05Z</time>
      </trkpt>
      <trkpt lat="46.00737" lon="6.78448">
        <ele>1761.0652</ele>
        <time>2014-09-01T12:26:10Z</time>
      </trkpt>
      <trkpt lat="46.00734" lon="6.7845">
        <ele>1761.0652</ele>
        <time>2014-09-01T12:26:15Z</time>
      </trkpt>
      <trkpt lat="46.00734" lon="6.7845">
        <ele>1761.0652</ele>
        <time>2014-09-01T12:26:20Z</time>
      </trkpt>
      <trkpt lat="46.0073" lon="6.78451">
        <ele>1761.0652</ele>
        <time>2014-09-01T12:26:25Z</time>
      </trkpt>
      <trkpt lat="46.00729" lon="6.78454">
        <ele>1761.1544</ele>
        <time>2014-09-01T12:26:30Z</time>
      </trkpt>
      <trkpt lat="46.00729" lon="6.78455">
        <ele>1761.1544</ele>
        <time>2014-09-01T12:26:35Z</time>
      </trkpt>
      <trkpt lat="46.00726" lon="6.78459">
        <ele>1761.1544</ele>
        <time>2014-09-01T12:26:40Z</time>
      </trkpt>
      <trkpt lat="46.00725" lon="6.78461">
        <ele>1761.1544</ele>
        <time>2014-09-01T12:26:45Z</time>
      </trkpt>
      <trkpt lat="46.00723" lon="6.78464">
        <ele>1761.7197</ele>
        <time>2014-09-01T12:26:50Z</time>
      </trkpt>
      <trkpt lat="46.00719" lon="6.78468">
        <ele>1761.7197</ele>
        <time>2014-09-01T12:26:55Z</time>
      </trkpt>
      <trkpt lat="46.00716" lon="6.78473">
        <ele>1762.3508</ele>
        <time>2014-09-01T12:27:00Z</time>
      </trkpt>
      <trkpt lat="46.00712" lon="6.78478">
        <ele>1762.3508</ele>
        <time>2014-09-01T12:27:05Z</time>
      </trkpt>
      <trkpt lat="46.00711" lon="6.78482">
        <ele>1762.3508</ele>
        <time>2014-09-01T12:27:10Z</time>
      </trkpt>
      <trkpt lat="46.00709" lon="6.78486">
        <ele>1763.3013</ele>
        <time>2014-09-01T12:27:15Z</time>
      </trkpt>
      <trkpt lat="46.00705" lon="6.78491">
        <ele>1763.3013</ele>
        <time>2014-09-01T12:27:20Z</time>
      </trkpt>
      <trkpt lat="46.00702" lon="6.78496">
        <ele>1764.5457</ele>
        <time>2014-09-01T12:27:25Z</time>
      </trkpt>
      <trkpt lat="46.00701" lon="6.785">
        <ele>1764.5457</ele>
        <time>2014-09-01T12:27:30Z</time>
      </trkpt>
      <trkpt lat="46.00702" lon="6.78504">
        <ele>1764.5457</ele>
        <time>2014-09-01T12:27:35Z</time>
      </trkpt>
      <trkpt lat="46.00702" lon="6.78508">
        <ele>1764.5457</ele>
        <time>2014-09-01T12:27:40Z</time>
      </trkpt>
      <trkpt lat="46.00701" lon="6.78509">
        <ele>1765.959</ele>
        <time>2014-09-01T12:27:45Z</time>
      </trkpt>
      <trkpt lat="46.007" lon="6.78514">
        <ele>1765.959</ele>
        <time>2014-09-01T12:27:50Z</time>
      </trkpt>
      <trkpt lat="46.00698" lon="6.78519">
        <ele>1765.959</ele>
        <time>2014-09-01T12:27:55Z</time>
      </trkpt>
      <trkpt lat="46.00697" lon="6.78523">
        <ele>1767.4535</ele>
        <time>2014-09-01T12:28:00Z</time>
      </trkpt>
      <trkpt lat="46.00698" lon="6.78527">
        <ele>1767.4535</ele>
        <time>2014-09-01T12:28:05Z</time>
      </trkpt>
      <trkpt lat="46.00699" lon="6.78532">
        <ele>1767.4535</ele>
        <time>2014-09-01T12:28:10Z</time>
      </trkpt>
      <trkpt lat="46.00699" lon="6.78534">
        <ele>1767.4535</ele>
        <time>2014-09-01T12:28:15Z</time>
      </trkpt>
      <trkpt lat="46.00699" lon="6.78534">
        <ele>1767.4535</ele>
        <time>2014-09-01T12:28:20Z</time>
      </trkpt>
      <trkpt lat="46.007" lon="6.78536">
        <ele>1768.9481</ele>
        <time>2014-09-01T12:28:25Z</time>
      </trkpt>
      <trkpt lat="46.00701" lon="6.78538">
        <ele>1768.9481</ele>
        <time>2014-09-01T12:28:30Z</time>
      </trkpt>
      <trkpt lat="46.00703" lon="6.7854">
        <ele>1768.9481</ele>
        <time>2014-09-01T12:28:35Z</time>
      </trkpt>
      <trkpt lat="46.00704" lon="6.78543">
        <ele>1768.9481</ele>
        <time>2014-09-01T12:28:40Z</time>
      </trkpt>
      <trkpt lat="46.00706" lon="6.78547">
        <ele>1770.5546</ele>
        <time>2014-09-01T12:28:45Z</time>
      </trkpt>
      <trkpt lat="46.00706" lon="6.7855">
        <ele>1770.5546</ele>
        <time>2014-09-01T12:28:50Z</time>
      </trkpt>
      <trkpt lat="46.00706" lon="6.78552">
        <ele>1770.5546</ele>
        <time>2014-09-01T12:28:55Z</time>
      </trkpt>
      <trkpt lat="46.00706" lon="6.78553">
        <ele>1770.5546</ele>
        <time>2014-09-01T12:29:00Z</time>
      </trkpt>
      <trkpt lat="46.00708" lon="6.78556">
        <ele>1770.5546</ele>
        <time>2014-09-01T12:29:05Z</time>
      </trkpt>
      <trkpt lat="46.0071" lon="6.78557">
        <ele>1772.002</ele>
        <time>2014-09-01T12:29:10Z</time>
      </trkpt>
      <trkpt lat="46.0071" lon="6.78557">
        <ele>1772.002</ele>
        <time>2014-09-01T12:29:15Z</time>
      </trkpt>
      <trkpt lat="46.00709" lon="6.78557">
        <ele>1772.002</ele>
        <time>2014-09-01T12:29:20Z</time>
      </trkpt>
      <trkpt lat="46.00709" lon="6.78557">
        <ele>1772.002</ele>
        <time>2014-09-01T12:29:25Z</time>
      </trkpt>
      <trkpt lat="46.00711" lon="6.78559">
        <ele>1772.002</ele>
        <time>2014-09-01T12:29:45Z</time>
      </trkpt>
      <trkpt lat="46.00712" lon="6.78561">
        <ele>1772.002</ele>
        <time>2014-09-01T12:29:50Z</time>
      </trkpt>
      <trkpt lat="46.00717" lon="6.78565">
        <ele>1773.0249</ele>
        <time>2014-09-01T12:29:55Z</time>
      </trkpt>
      <trkpt lat="46.00721" lon="6.78573">
        <ele>1773.0249</ele>
        <time>2014-09-01T12:30:00Z</time>
      </trkpt>
      <trkpt lat="46.00724" lon="6.78583">
        <ele>1773.8403</ele>
        <time>2014-09-01T12:30:05Z</time>
      </trkpt>
      <trkpt lat="46.00727" lon="6.78589">
        <ele>1773.8403</ele>
        <time>2014-09-01T12:30:10Z</time>
      </trkpt>
      <trkpt lat="46.00728" lon="6.78592">
        <ele>1773.8403</ele>
        <time>2014-09-01T12:30:15Z</time>
      </trkpt>
      <trkpt lat="46.00728" lon="6.78596">
        <ele>1774.7792</ele>
        <time>2014-09-01T12:30:20Z</time>
      </trkpt>
      <trkpt lat="46.00726" lon="6.78604">
        <ele>1774.7792</ele>
        <time>2014-09-01T12:30:25Z</time>
      </trkpt>
      <trkpt lat="46.00724" lon="6.78609">
        <ele>1775.8743</ele>
        <time>2014-09-01T12:30:30Z</time>
      </trkpt>
      <trkpt lat="46.00723" lon="6.78612">
        <ele>1775.8743</ele>
        <time>2014-09-01T12:30:35Z</time>
      </trkpt>
      <trkpt lat="46.00723" lon="6.78616">
        <ele>1775.8743</ele>
        <time>2014-09-01T12:30:40Z</time>
      </trkpt>
      <trkpt lat="46.00722" lon="6.7862">
        <ele>1775.8743</ele>
        <time>2014-09-01T12:30:45Z</time>
      </trkpt>
      <trkpt lat="46.0072" lon="6.78624">
        <ele>1777.1555</ele>
        <time>2014-09-01T12:30:50Z</time>
      </trkpt>
      <trkpt lat="46.00719" lon="6.78625">
        <ele>1777.1555</ele>
        <time>2014-09-01T12:30:55Z</time>
      </trkpt>
      <trkpt lat="46.00719" lon="6.78625">
        <ele>1777.1555</ele>
        <time>2014-09-01T12:31:00Z</time>
      </trkpt>
      <trkpt lat="46.00717" lon="6.78625">
        <ele>1777.1555</ele>
        <time>2014-09-01T12:31:05Z</time>
      </trkpt>
      <trkpt lat="46.00716" lon="6.78625">
        <ele>1777.1555</ele>
        <time>2014-09-01T12:31:10Z</time>
      </trkpt>
      <trkpt lat="46.00716" lon="6.78625">
        <ele>1777.1555</ele>
        <time>2014-09-01T12:31:15Z</time>
      </trkpt>
      <trkpt lat="46.00714" lon="6.78626">
        <ele>1777.1555</ele>
        <time>2014-09-01T12:31:20Z</time>
      </trkpt>
      <trkpt lat="46.0071" lon="6.78627">
        <ele>1778.5204</ele>
        <time>2014-09-01T12:31:25Z</time>
      </trkpt>
      <trkpt lat="46.00708" lon="6.78628">
        <ele>1778.5204</ele>
        <time>2014-09-01T12:31:30Z</time>
      </trkpt>
      <trkpt lat="46.00707" lon="6.78628">
        <ele>1778.5204</ele>
        <time>2014-09-01T12:31:35Z</time>
      </trkpt>
      <trkpt lat="46.00704" lon="6.78629">
        <ele>1778.5204</ele>
        <time>2014-09-01T12:31:40Z</time>
      </trkpt>
      <trkpt lat="46.00702" lon="6.78632">
        <ele>1779.9027</ele>
        <time>2014-09-01T12:31:45Z</time>
      </trkpt>
      <trkpt lat="46.007" lon="6.78634">
        <ele>1779.9027</ele>
        <time>2014-09-01T12:31:50Z</time>
      </trkpt>
      <trkpt lat="46.00697" lon="6.78636">
        <ele>1779.9027</ele>
        <time>2014-09-01T12:31:55Z</time>
      </trkpt>
      <trkpt lat="46.00695" lon="6.78637">
        <ele>1779.9027</ele>
        <time>2014-09-01T12:32:00Z</time>
      </trkpt>
      <trkpt lat="46.00692" lon="6.78637">
        <ele>1781.3853</ele>
        <time>2014-09-01T12:32:05Z</time>
      </trkpt>
      <trkpt lat="46.00687" lon="6.78635">
        <ele>1781.3853</ele>
        <time>2014-09-01T12:32:10Z</time>
      </trkpt>
      <trkpt lat="46.00686" lon="6.78635">
        <ele>1781.3853</ele>
        <time>2014-09-01T12:32:15Z</time>
      </trkpt>
      <trkpt lat="46.00683" lon="6.78633">
        <ele>1782.6122</ele>
        <time>2014-09-01T12:32:20Z</time>
      </trkpt>
      <trkpt lat="46.0068" lon="6.78631">
        <ele>1782.6122</ele>
        <time>2014-09-01T12:32:25Z</time>
      </trkpt>
      <trkpt lat="46.00678" lon="6.78629">
        <ele>1782.6122</ele>
        <time>2014-09-01T12:32:30Z</time>
      </trkpt>
      <trkpt lat="46.00678" lon="6.78629">
        <ele>1782.6122</ele>
        <time>2014-09-01T12:32:35Z</time>
      </trkpt>
      <trkpt lat="46.00674" lon="6.78629">
        <ele>1783.6145</ele>
        <time>2014-09-01T12:32:40Z</time>
      </trkpt>
      <trkpt lat="46.00671" lon="6.7863">
        <ele>1783.6145</ele>
        <time>2014-09-01T12:32:45Z</time>
      </trkpt>
      <trkpt lat="46.00669" lon="6.78631">
        <ele>1783.6145</ele>
        <time>2014-09-01T12:32:50Z</time>
      </trkpt>
      <trkpt lat="46.00666" lon="6.78631">
        <ele>1783.6145</ele>
        <time>2014-09-01T12:32:55Z</time>
      </trkpt>
      <trkpt lat="46.00666" lon="6.78631">
        <ele>1784.1052</ele>
        <time>2014-09-01T12:33:00Z</time>
      </trkpt>
      <trkpt lat="46.00662" lon="6.78634">
        <ele>1784.1052</ele>
        <time>2014-09-01T12:33:05Z</time>
      </trkpt>
      <trkpt lat="46.00661" lon="6.78634">
        <ele>1784.1052</ele>
        <time>2014-09-01T12:33:10Z</time>
      </trkpt>
      <trkpt lat="46.0066" lon="6.78634">
        <ele>1784.1052</ele>
        <time>2014-09-01T12:33:15Z</time>
      </trkpt>
      <trkpt lat="46.00659" lon="6.78635">
        <ele>1784.1052</ele>
        <time>2014-09-01T12:33:20Z</time>
      </trkpt>
      <trkpt lat="46.00656" lon="6.78637">
        <ele>1784.8859</ele>
        <time>2014-09-01T12:33:25Z</time>
      </trkpt>
      <trkpt lat="46.00656" lon="6.78637">
        <ele>1784.8859</ele>
        <time>2014-09-01T12:33:30Z</time>
      </trkpt>
      <trkpt lat="46.00653" lon="6.7864">
        <ele>1784.8859</ele>
        <time>2014-09-01T12:33:35Z</time>
      </trkpt>
      <trkpt lat="46.00652" lon="6.78641">
        <ele>1784.8859</ele>
        <time>2014-09-01T12:33:40Z</time>
      </trkpt>
      <trkpt lat="46.0065" lon="6.78652">
        <ele>1785.8339</ele>
        <time>2014-09-01T12:33:45Z</time>
      </trkpt>
      <trkpt lat="46.00646" lon="6.78658">
        <ele>1785.8339</ele>
        <time>2014-09-01T12:33:50Z</time>
      </trkpt>
      <trkpt lat="46.00643" lon="6.78662">
        <ele>1786.8352</ele>
        <time>2014-09-01T12:33:55Z</time>
      </trkpt>
      <trkpt lat="46.0064" lon="6.78667">
        <ele>1786.8352</ele>
        <time>2014-09-01T12:34:00Z</time>
      </trkpt>
      <trkpt lat="46.00638" lon="6.7867">
        <ele>1786.8352</ele>
        <time>2014-09-01T12:34:05Z</time>
      </trkpt>
      <trkpt lat="46.00634" lon="6.78674">
        <ele>1788.2308</ele>
        <time>2014-09-01T12:34:10Z</time>
      </trkpt>
      <trkpt lat="46.0063" lon="6.78677">
        <ele>1788.2308</ele>
        <time>2014-09-01T12:34:15Z</time>
      </trkpt>
      <trkpt lat="46.00626" lon="6.78681">
        <ele>1789.7449</ele>
        <time>2014-09-01T12:34:20Z</time>
      </trkpt>
      <trkpt lat="46.00622" lon="6.78684">
        <ele>1789.7449</ele>
        <time>2014-09-01T12:34:25Z</time>
      </trkpt>
      <trkpt lat="46.0062" lon="6.78686">
        <ele>1789.7449</ele>
        <time>2014-09-01T12:34:30Z</time>
      </trkpt>
      <trkpt lat="46.00617" lon="6.7869">
        <ele>1791.0637</ele>
        <time>2014-09-01T12:34:35Z</time>
      </trkpt>
      <trkpt lat="46.00614" lon="6.78692">
        <ele>1791.0637</ele>
        <time>2014-09-01T12:34:40Z</time>
      </trkpt>
      <trkpt lat="46.00611" lon="6.78698">
        <ele>1791.0637</ele>
        <time>2014-09-01T12:34:45Z</time>
      </trkpt>
      <trkpt lat="46.00609" lon="6.78701">
        <ele>1792.2434</ele>
        <time>2014-09-01T12:34:50Z</time>
      </trkpt>
      <trkpt lat="46.00607" lon="6.78705">
        <ele>1792.2434</ele>
        <time>2014-09-01T12:34:55Z</time>
      </trkpt>
      <trkpt lat="46.00605" lon="6.7871">
        <ele>1792.2434</ele>
        <time>2014-09-01T12:35:00Z</time>
      </trkpt>
      <trkpt lat="46.00602" lon="6.78714">
        <ele>1793.4657</ele>
        <time>2014-09-01T12:35:05Z</time>
      </trkpt>
      <trkpt lat="46.00598" lon="6.78717">
        <ele>1793.4657</ele>
        <time>2014-09-01T12:35:10Z</time>
      </trkpt>
      <trkpt lat="46.00595" lon="6.7872">
        <ele>1793.4657</ele>
        <time>2014-09-01T12:35:15Z</time>
      </trkpt>
      <trkpt lat="46.00593" lon="6.78721">
        <ele>1794.611</ele>
        <time>2014-09-01T12:35:20Z</time>
      </trkpt>
      <trkpt lat="46.0059" lon="6.78726">
        <ele>1794.611</ele>
        <time>2014-09-01T12:35:25Z</time>
      </trkpt>
      <trkpt lat="46.00586" lon="6.78734">
        <ele>1795.5254</ele>
        <time>2014-09-01T12:35:30Z</time>
      </trkpt>
      <trkpt lat="46.00583" lon="6.7874">
        <ele>1795.5254</ele>
        <time>2014-09-01T12:35:35Z</time>
      </trkpt>
      <trkpt lat="46.00579" lon="6.78744">
        <ele>1796.2832</ele>
        <time>2014-09-01T12:35:40Z</time>
      </trkpt>
      <trkpt lat="46.00578" lon="6.78747">
        <ele>1796.2832</ele>
        <time>2014-09-01T12:35:45Z</time>
      </trkpt>
      <trkpt lat="46.00577" lon="6.78747">
        <ele>1796.2832</ele>
        <time>2014-09-01T12:35:50Z</time>
      </trkpt>
      <trkpt lat="46.00574" lon="6.78749">
        <ele>1796.2832</ele>
        <time>2014-09-01T12:35:55Z</time>
      </trkpt>
      <trkpt lat="46.00574" lon="6.78752">
        <ele>1796.2832</ele>
        <time>2014-09-01T12:36:00Z</time>
      </trkpt>
      <trkpt lat="46.00572" lon="6.78755">
        <ele>1796.3198</ele>
        <time>2014-09-01T12:36:05Z</time>
      </trkpt>
      <trkpt lat="46.00569" lon="6.78762">
        <ele>1796.3198</ele>
        <time>2014-09-01T12:36:10Z</time>
      </trkpt>
      <trkpt lat="46.00565" lon="6.78769">
        <ele>1796.1515</ele>
        <time>2014-09-01T12:36:15Z</time>
      </trkpt>
      <trkpt lat="46.00563" lon="6.7877">
        <ele>1796.1515</ele>
        <time>2014-09-01T12:36:20Z</time>
      </trkpt>
      <trkpt lat="46.00561" lon="6.78774">
        <ele>1796.1515</ele>
        <time>2014-09-01T12:36:25Z</time>
      </trkpt>
      <trkpt lat="46.00556" lon="6.78779">
        <ele>1795.5223</ele>
        <time>2014-09-01T12:36:30Z</time>
      </trkpt>
      <trkpt lat="46.00552" lon="6.78789">
        <ele>1795.5223</ele>
        <time>2014-09-01T12:36:35Z</time>
      </trkpt>
      <trkpt lat="46.0055" lon="6.78795">
        <ele>1794.7876</ele>
        <time>2014-09-01T12:36:40Z</time>
      </trkpt>
      <trkpt lat="46.00547" lon="6.78803">
        <ele>1794.7876</ele>
        <time>2014-09-01T12:36:45Z</time>
      </trkpt>
      <trkpt lat="46.00545" lon="6.7881">
        <ele>1794.1757</ele>
        <time>2014-09-01T12:36:50Z</time>
      </trkpt>
      <trkpt lat="46.00544" lon="6.78818">
        <ele>1794.1757</ele>
        <time>2014-09-01T12:36:55Z</time>
      </trkpt>
      <trkpt lat="46.00543" lon="6.78823">
        <ele>1793.4221</ele>
        <time>2014-09-01T12:37:00Z</time>
      </trkpt>
      <trkpt lat="46.00543" lon="6.78824">
        <ele>1793.4221</ele>
        <time>2014-09-01T12:37:05Z</time>
      </trkpt>
      <trkpt lat="46.00539" lon="6.78826">
        <ele>1793.4221</ele>
        <time>2014-09-01T12:37:10Z</time>
      </trkpt>
      <trkpt lat="46.00535" lon="6.7883">
        <ele>1792.9888</ele>
        <time>2014-09-01T12:37:15Z</time>
      </trkpt>
      <trkpt lat="46.00528" lon="6.78829">
        <ele>1792.9888</ele>
        <time>2014-09-01T12:37:20Z</time>
      </trkpt>
      <trkpt lat="46.00524" lon="6.7883">
        <ele>1792.7549</ele>
        <time>2014-09-01T12:37:25Z</time>
      </trkpt>
      <trkpt lat="46.00522" lon="6.78832">
        <ele>1792.7549</ele>
        <time>2014-09-01T12:37:30Z</time>
      </trkpt>
      <trkpt lat="46.00519" lon="6.78836">
        <ele>1792.7549</ele>
        <time>2014-09-01T12:37:35Z</time>
      </trkpt>
      <trkpt lat="46.00518" lon="6.78844">
        <ele>1792.507</ele>
        <time>2014-09-01T12:37:40Z</time>
      </trkpt>
      <trkpt lat="46.00518" lon="6.78849">
        <ele>1792.507</ele>
        <time>2014-09-01T12:37:45Z</time>
      </trkpt>
      <trkpt lat="46.00517" lon="6.78853">
        <ele>1792.507</ele>
        <time>2014-09-01T12:37:50Z</time>
      </trkpt>
      <trkpt lat="46.00515" lon="6.78852">
        <ele>1792.507</ele>
        <time>2014-09-01T12:37:55Z</time>
      </trkpt>
      <trkpt lat="46.00513" lon="6.78856">
        <ele>1792.6527</ele>
        <time>2014-09-01T12:38:00Z</time>
      </trkpt>
      <trkpt lat="46.0051" lon="6.78862">
        <ele>1792.6527</ele>
        <time>2014-09-01T12:38:05Z</time>
      </trkpt>
      <trkpt lat="46.00508" lon="6.78868">
        <ele>1792.7902</ele>
        <time>2014-09-01T12:38:10Z</time>
      </trkpt>
      <trkpt lat="46.00505" lon="6.78877">
        <ele>1792.7902</ele>
        <time>2014-09-01T12:38:15Z</time>
      </trkpt>
      <trkpt lat="46.005" lon="6.78885">
        <ele>1793.0084</ele>
        <time>2014-09-01T12:38:20Z</time>
      </trkpt>
      <trkpt lat="46.00496" lon="6.78893">
        <ele>1793.0084</ele>
        <time>2014-09-01T12:38:25Z</time>
      </trkpt>
      <trkpt lat="46.00495" lon="6.78898">
        <ele>1793.2887</ele>
        <time>2014-09-01T12:38:30Z</time>
      </trkpt>
      <trkpt lat="46.00493" lon="6.789">
        <ele>1793.2887</ele>
        <time>2014-09-01T12:38:35Z</time>
      </trkpt>
      <trkpt lat="46.00491" lon="6.78904">
        <ele>1793.2887</ele>
        <time>2014-09-01T12:38:40Z</time>
      </trkpt>
      <trkpt lat="46.00486" lon="6.78909">
        <ele>1793.4115</ele>
        <time>2014-09-01T12:38:45Z</time>
      </trkpt>
      <trkpt lat="46.00481" lon="6.78914">
        <ele>1793.4115</ele>
        <time>2014-09-01T12:38:50Z</time>
      </trkpt>
      <trkpt lat="46.00478" lon="6.7892">
        <ele>1793.3038</ele>
        <time>2014-09-01T12:38:55Z</time>
      </trkpt>
      <trkpt lat="46.00476" lon="6.78924">
        <ele>1793.3038</ele>
        <time>2014-09-01T12:39:00Z</time>
      </trkpt>
      <trkpt lat="46.00473" lon="6.78927">
        <ele>1793.3038</ele>
        <time>2014-09-01T12:39:05Z</time>
      </trkpt>
      <trkpt lat="46.00471" lon="6.7893">
        <ele>1792.9703</ele>
        <time>2014-09-01T12:39:10Z</time>
      </trkpt>
      <trkpt lat="46.00471" lon="6.78934">
        <ele>1792.9703</ele>
        <time>2014-09-01T12:39:15Z</time>
      </trkpt>
      <trkpt lat="46.00472" lon="6.78941">
        <ele>1792.9703</ele>
        <time>2014-09-01T12:39:20Z</time>
      </trkpt>
      <trkpt lat="46.00471" lon="6.78945">
        <ele>1792.6035</ele>
        <time>2014-09-01T12:39:25Z</time>
      </trkpt>
      <trkpt lat="46.00472" lon="6.78951">
        <ele>1792.6035</ele>
        <time>2014-09-01T12:39:30Z</time>
      </trkpt>
      <trkpt lat="46.00472" lon="6.78955">
        <ele>1792.6035</ele>
        <time>2014-09-01T12:39:35Z</time>
      </trkpt>
      <trkpt lat="46.00475" lon="6.78958">
        <ele>1791.8196</ele>
        <time>2014-09-01T12:39:40Z</time>
      </trkpt>
      <trkpt lat="46.00477" lon="6.78959">
        <ele>1791.8196</ele>
        <time>2014-09-01T12:39:45Z</time>
      </trkpt>
      <trkpt lat="46.00479" lon="6.78966">
        <ele>1791.8196</ele>
        <time>2014-09-01T12:39:50Z</time>
      </trkpt>
      <trkpt lat="46.0048" lon="6.78977">
        <ele>1791.2585</ele>
        <time>2014-09-01T12:39:55Z</time>
      </trkpt>
      <trkpt lat="46.0048" lon="6.78983">
        <ele>1791.2585</ele>
        <time>2014-09-01T12:40:00Z</time>
      </trkpt>
      <trkpt lat="46.00481" lon="6.78986">
        <ele>1791.2585</ele>
        <time>2014-09-01T12:40:05Z</time>
      </trkpt>
      <trkpt lat="46.00481" lon="6.78986">
        <ele>1791.2585</ele>
        <time>2014-09-01T12:40:10Z</time>
      </trkpt>
      <trkpt lat="46.00482" lon="6.78987">
        <ele>1791.2585</ele>
        <time>2014-09-01T12:40:15Z</time>
      </trkpt>
      <trkpt lat="46.00482" lon="6.78987">
        <ele>1791.2585</ele>
        <time>2014-09-01T12:40:20Z</time>
      </trkpt>
      <trkpt lat="46.00483" lon="6.78986">
        <ele>1791.2585</ele>
        <time>2014-09-01T12:40:35Z</time>
      </trkpt>
      <trkpt lat="46.00483" lon="6.78986">
        <ele>1791.2585</ele>
        <time>2014-09-01T12:40:40Z</time>
      </trkpt>
      <trkpt lat="46.00482" lon="6.78986">
        <ele>1791.5415</ele>
        <time>2014-09-01T12:41:45Z</time>
      </trkpt>
      <trkpt lat="46.00482" lon="6.78986">
        <ele>1791.5415</ele>
        <time>2014-09-01T12:41:50Z</time>
      </trkpt>
      <trkpt lat="46.00482" lon="6.7899">
        <ele>1791.5415</ele>
        <time>2014-09-01T12:42:00Z</time>
      </trkpt>
      <trkpt lat="46.00481" lon="6.78996">
        <ele>1791.5415</ele>
        <time>2014-09-01T12:42:05Z</time>
      </trkpt>
      <trkpt lat="46.00481" lon="6.79002">
        <ele>1791.411</ele>
        <time>2014-09-01T12:42:10Z</time>
      </trkpt>
      <trkpt lat="46.00482" lon="6.7901">
        <ele>1791.411</ele>
        <time>2014-09-01T12:42:15Z</time>
      </trkpt>
      <trkpt lat="46.00483" lon="6.79017">
        <ele>1791.1014</ele>
        <time>2014-09-01T12:42:20Z</time>
      </trkpt>
      <trkpt lat="46.00483" lon="6.79023">
        <ele>1791.1014</ele>
        <time>2014-09-01T12:42:25Z</time>
      </trkpt>
      <trkpt lat="46.00483" lon="6.7903">
        <ele>1790.2534</ele>
        <time>2014-09-01T12:42:30Z</time>
      </trkpt>
      <trkpt lat="46.00482" lon="6.79034">
        <ele>1790.2534</ele>
        <time>2014-09-01T12:42:35Z</time>
      </trkpt>
      <trkpt lat="46.00482" lon="6.79041">
        <ele>1790.2534</ele>
        <time>2014-09-01T12:42:40Z</time>
      </trkpt>
      <trkpt lat="46.00481" lon="6.79048">
        <ele>1788.9392</ele>
        <time>2014-09-01T12:42:45Z</time>
      </trkpt>
      <trkpt lat="46.00481" lon="6.79056">
        <ele>1788.9392</ele>
        <time>2014-09-01T12:42:50Z</time>
      </trkpt>
      <trkpt lat="46.00481" lon="6.79064">
        <ele>1787.7169</ele>
        <time>2014-09-01T12:42:55Z</time>
      </trkpt>
      <trkpt lat="46.0048" lon="6.79073">
        <ele>1787.7169</ele>
        <time>2014-09-01T12:43:00Z</time>
      </trkpt>
      <trkpt lat="46.0048" lon="6.79079">
        <ele>1786.6855</ele>
        <time>2014-09-01T12:43:05Z</time>
      </trkpt>
      <trkpt lat="46.00479" lon="6.79087">
        <ele>1786.6855</ele>
        <time>2014-09-01T12:43:10Z</time>
      </trkpt>
      <trkpt lat="46.00479" lon="6.79089">
        <ele>1786.6855</ele>
        <time>2014-09-01T12:43:15Z</time>
      </trkpt>
      <trkpt lat="46.00479" lon="6.79089">
        <ele>1786.6855</ele>
        <time>2014-09-01T12:43:20Z</time>
      </trkpt>
      <trkpt lat="46.0048" lon="6.79091">
        <ele>1786.6855</ele>
        <time>2014-09-01T12:43:30Z</time>
      </trkpt>
      <trkpt lat="46.00479" lon="6.79095">
        <ele>1786.4258</ele>
        <time>2014-09-01T12:43:35Z</time>
      </trkpt>
      <trkpt lat="46.00479" lon="6.79102">
        <ele>1786.4258</ele>
        <time>2014-09-01T12:43:40Z</time>
      </trkpt>
      <trkpt lat="46.00477" lon="6.79107">
        <ele>1786.4258</ele>
        <time>2014-09-01T12:43:45Z</time>
      </trkpt>
      <trkpt lat="46.00475" lon="6.7911">
        <ele>1786.681</ele>
        <time>2014-09-01T12:43:50Z</time>
      </trkpt>
      <trkpt lat="46.00474" lon="6.79116">
        <ele>1786.681</ele>
        <time>2014-09-01T12:43:55Z</time>
      </trkpt>
      <trkpt lat="46.00471" lon="6.79125">
        <ele>1787.284</ele>
        <time>2014-09-01T12:44:00Z</time>
      </trkpt>
      <trkpt lat="46.00471" lon="6.79125">
        <ele>1787.284</ele>
        <time>2014-09-01T12:44:05Z</time>
      </trkpt>
      <trkpt lat="46.0047" lon="6.79127">
        <ele>1787.284</ele>
        <time>2014-09-01T12:44:20Z</time>
      </trkpt>
      <trkpt lat="46.00467" lon="6.79133">
        <ele>1787.284</ele>
        <time>2014-09-01T12:44:25Z</time>
      </trkpt>
      <trkpt lat="46.00466" lon="6.79137">
        <ele>1788.612</ele>
        <time>2014-09-01T12:44:30Z</time>
      </trkpt>
      <trkpt lat="46.00465" lon="6.79142">
        <ele>1788.612</ele>
        <time>2014-09-01T12:44:35Z</time>
      </trkpt>
      <trkpt lat="46.00465" lon="6.79144">
        <ele>1788.612</ele>
        <time>2014-09-01T12:44:40Z</time>
      </trkpt>
      <trkpt lat="46.00463" lon="6.79151">
        <ele>1790.1765</ele>
        <time>2014-09-01T12:44:45Z</time>
      </trkpt>
      <trkpt lat="46.00464" lon="6.79152">
        <ele>1790.1765</ele>
        <time>2014-09-01T12:44:50Z</time>
      </trkpt>
      <trkpt lat="46.00464" lon="6.79152">
        <ele>1790.1765</ele>
        <time>2014-09-01T12:44:55Z</time>
      </trkpt>
      <trkpt lat="46.00464" lon="6.79153">
        <ele>1790.1765</ele>
        <time>2014-09-01T12:45:05Z</time>
      </trkpt>
      <trkpt lat="46.00461" lon="6.79153">
        <ele>1790.1765</ele>
        <time>2014-09-01T12:45:10Z</time>
      </trkpt>
      <trkpt lat="46.00458" lon="6.79152">
        <ele>1790.1765</ele>
        <time>2014-09-01T12:45:15Z</time>
      </trkpt>
      <trkpt lat="46.00457" lon="6.79152">
        <ele>1791.5674</ele>
        <time>2014-09-01T12:45:20Z</time>
      </trkpt>
      <trkpt lat="46.00455" lon="6.79151">
        <ele>1791.5674</ele>
        <time>2014-09-01T12:45:25Z</time>
      </trkpt>
      <trkpt lat="46.00452" lon="6.7915">
        <ele>1791.5674</ele>
        <time>2014-09-01T12:45:30Z</time>
      </trkpt>
      <trkpt lat="46.0045" lon="6.79149">
        <ele>1791.5674</ele>
        <time>2014-09-01T12:45:35Z</time>
      </trkpt>
      <trkpt lat="46.00449" lon="6.79148">
        <ele>1791.5674</ele>
        <time>2014-09-01T12:45:40Z</time>
      </trkpt>
      <trkpt lat="46.00447" lon="6.79146">
        <ele>1792.7509</ele>
        <time>2014-09-01T12:45:45Z</time>
      </trkpt>
      <trkpt lat="46.00446" lon="6.79148">
        <ele>1792.7509</ele>
        <time>2014-09-01T12:45:50Z</time>
      </trkpt>
      <trkpt lat="46.00445" lon="6.79149">
        <ele>1792.7509</ele>
        <time>2014-09-01T12:45:55Z</time>
      </trkpt>
      <trkpt lat="46.00445" lon="6.79148">
        <ele>1792.7509</ele>
        <time>2014-09-01T12:46:00Z</time>
      </trkpt>
      <trkpt lat="46.00445" lon="6.79148">
        <ele>1792.7509</ele>
        <time>2014-09-01T12:46:05Z</time>
      </trkpt>
      <trkpt lat="46.00445" lon="6.79147">
        <ele>1792.7509</ele>
        <time>2014-09-01T12:46:20Z</time>
      </trkpt>
      <trkpt lat="46.00445" lon="6.79147">
        <ele>1792.7509</ele>
        <time>2014-09-01T12:46:25Z</time>
      </trkpt>
      <trkpt lat="46.00444" lon="6.79147">
        <ele>1792.7509</ele>
        <time>2014-09-01T12:46:35Z</time>
      </trkpt>
      <trkpt lat="46.00443" lon="6.79149">
        <ele>1792.7509</ele>
        <time>2014-09-01T12:46:40Z</time>
      </trkpt>
      <trkpt lat="46.00443" lon="6.79149">
        <ele>1792.7509</ele>
        <time>2014-09-01T12:46:45Z</time>
      </trkpt>
      <trkpt lat="46.00444" lon="6.79149">
        <ele>1792.7509</ele>
        <time>2014-09-01T12:46:55Z</time>
      </trkpt>
      <trkpt lat="46.00444" lon="6.79149">
        <ele>1792.7509</ele>
        <time>2014-09-01T12:47:00Z</time>
      </trkpt>
      <trkpt lat="46.00443" lon="6.79149">
        <ele>1794.4889</ele>
        <time>2014-09-01T12:48:30Z</time>
      </trkpt>
      <trkpt lat="46.00441" lon="6.79148">
        <ele>1794.4889</ele>
        <time>2014-09-01T12:48:35Z</time>
      </trkpt>
      <trkpt lat="46.00441" lon="6.79148">
        <ele>1794.4889</ele>
        <time>2014-09-01T12:48:40Z</time>
      </trkpt>
      <trkpt lat="46.00446" lon="6.79159">
        <ele>1795.8073</ele>
        <time>2014-09-01T13:24:43Z</time>
      </trkpt>
      <trkpt lat="46.00439" lon="6.79152">
        <ele>1797.1256</ele>
        <time>2014-09-01T13:24:53Z</time>
      </trkpt>
      <trkpt lat="46.00442" lon="6.79152">
        <ele>1797.1256</ele>
        <time>2014-09-01T13:24:58Z</time>
      </trkpt>
      <trkpt lat="46.00449" lon="6.7915">
        <ele>1799.5652</ele>
        <time>2014-09-01T13:25:08Z</time>
      </trkpt>
      <trkpt lat="46.00454" lon="6.79153">
        <ele>1799.5652</ele>
        <time>2014-09-01T13:25:13Z</time>
      </trkpt>
      <trkpt lat="46.00456" lon="6.79157">
        <ele>1799.5652</ele>
        <time>2014-09-01T13:25:18Z</time>
      </trkpt>
      <trkpt lat="46.00455" lon="6.79164">
        <ele>1801.4697</ele>
        <time>2014-09-01T13:25:23Z</time>
      </trkpt>
      <trkpt lat="46.00454" lon="6.79168">
        <ele>1801.4697</ele>
        <time>2014-09-01T13:25:28Z</time>
      </trkpt>
      <trkpt lat="46.00454" lon="6.79174">
        <ele>1801.4697</ele>
        <time>2014-09-01T13:25:33Z</time>
      </trkpt>
      <trkpt lat="46.0045" lon="6.7918">
        <ele>1802.8453</ele>
        <time>2014-09-01T13:25:38Z</time>
      </trkpt>
      <trkpt lat="46.00447" lon="6.79186">
        <ele>1802.8453</ele>
        <time>2014-09-01T13:25:43Z</time>
      </trkpt>
      <trkpt lat="46.00445" lon="6.79191">
        <ele>1803.9292</ele>
        <time>2014-09-01T13:25:48Z</time>
      </trkpt>
      <trkpt lat="46.00444" lon="6.79195">
        <ele>1803.9292</ele>
        <time>2014-09-01T13:25:53Z</time>
      </trkpt>
      <trkpt lat="46.00441" lon="6.79199">
        <ele>1803.9292</ele>
        <time>2014-09-01T13:25:58Z</time>
      </trkpt>
      <trkpt lat="46.00437" lon="6.79202">
        <ele>1804.1929</ele>
        <time>2014-09-01T13:26:03Z</time>
      </trkpt>
      <trkpt lat="46.00434" lon="6.79205">
        <ele>1804.1929</ele>
        <time>2014-09-01T13:26:08Z</time>
      </trkpt>
      <trkpt lat="46.00432" lon="6.79207">
        <ele>1804.1929</ele>
        <time>2014-09-01T13:26:13Z</time>
      </trkpt>
      <trkpt lat="46.00425" lon="6.79209">
        <ele>1804.0714</ele>
        <time>2014-09-01T13:26:18Z</time>
      </trkpt>
      <trkpt lat="46.00419" lon="6.79209">
        <ele>1804.0714</ele>
        <time>2014-09-01T13:26:23Z</time>
      </trkpt>
      <trkpt lat="46.00413" lon="6.79208">
        <ele>1803.6807</ele>
        <time>2014-09-01T13:26:28Z</time>
      </trkpt>
      <trkpt lat="46.00409" lon="6.79209">
        <ele>1803.6807</ele>
        <time>2014-09-01T13:26:33Z</time>
      </trkpt>
      <trkpt lat="46.00408" lon="6.79211">
        <ele>1803.6807</ele>
        <time>2014-09-01T13:26:38Z</time>
      </trkpt>
      <trkpt lat="46.00405" lon="6.79215">
        <ele>1803.3162</ele>
        <time>2014-09-01T13:26:43Z</time>
      </trkpt>
      <trkpt lat="46.00401" lon="6.79219">
        <ele>1803.3162</ele>
        <time>2014-09-01T13:26:48Z</time>
      </trkpt>
      <trkpt lat="46.00398" lon="6.79222">
        <ele>1803.3162</ele>
        <time>2014-09-01T13:26:53Z</time>
      </trkpt>
      <trkpt lat="46.00396" lon="6.79224">
        <ele>1802.2717</ele>
        <time>2014-09-01T13:26:58Z</time>
      </trkpt>
      <trkpt lat="46.00392" lon="6.7923">
        <ele>1802.2717</ele>
        <time>2014-09-01T13:27:03Z</time>
      </trkpt>
      <trkpt lat="46.00391" lon="6.79233">
        <ele>1802.2717</ele>
        <time>2014-09-01T13:27:08Z</time>
      </trkpt>
      <trkpt lat="46.0039" lon="6.79236">
        <ele>1801.1631</ele>
        <time>2014-09-01T13:27:13Z</time>
      </trkpt>
      <trkpt lat="46.00386" lon="6.79238">
        <ele>1801.1631</ele>
        <time>2014-09-01T13:27:18Z</time>
      </trkpt>
      <trkpt lat="46.00383" lon="6.79242">
        <ele>1801.1631</ele>
        <time>2014-09-01T13:27:23Z</time>
      </trkpt>
      <trkpt lat="46.00379" lon="6.79248">
        <ele>1800.3019</ele>
        <time>2014-09-01T13:27:28Z</time>
      </trkpt>
      <trkpt lat="46.00377" lon="6.79252">
        <ele>1800.3019</ele>
        <time>2014-09-01T13:27:33Z</time>
      </trkpt>
      <trkpt lat="46.00373" lon="6.79258">
        <ele>1800.3019</ele>
        <time>2014-09-01T13:27:38Z</time>
      </trkpt>
      <trkpt lat="46.0037" lon="6.79261">
        <ele>1799.2982</ele>
        <time>2014-09-01T13:27:43Z</time>
      </trkpt>
      <trkpt lat="46.00363" lon="6.79262">
        <ele>1799.2982</ele>
        <time>2014-09-01T13:27:48Z</time>
      </trkpt>
      <trkpt lat="46.00361" lon="6.79263">
        <ele>1799.2982</ele>
        <time>2014-09-01T13:27:53Z</time>
      </trkpt>
      <trkpt lat="46.00359" lon="6.79263">
        <ele>1798.7141</ele>
        <time>2014-09-01T13:27:58Z</time>
      </trkpt>
      <trkpt lat="46.00356" lon="6.79261">
        <ele>1798.7141</ele>
        <time>2014-09-01T13:28:03Z</time>
      </trkpt>
      <trkpt lat="46.00356" lon="6.79261">
        <ele>1798.7141</ele>
        <time>2014-09-01T13:28:08Z</time>
      </trkpt>
      <trkpt lat="46.00352" lon="6.79261">
        <ele>1798.7141</ele>
        <time>2014-09-01T13:28:13Z</time>
      </trkpt>
      <trkpt lat="46.00351" lon="6.79261">
        <ele>1798.7141</ele>
        <time>2014-09-01T13:28:18Z</time>
      </trkpt>
      <trkpt lat="46.00348" lon="6.79259">
        <ele>1798.7085</ele>
        <time>2014-09-01T13:28:23Z</time>
      </trkpt>
      <trkpt lat="46.00346" lon="6.79258">
        <ele>1798.7085</ele>
        <time>2014-09-01T13:28:28Z</time>
      </trkpt>
      <trkpt lat="46.00342" lon="6.79258">
        <ele>1798.7085</ele>
        <time>2014-09-01T13:28:33Z</time>
      </trkpt>
      <trkpt lat="46.00341" lon="6.79258">
        <ele>1798.7085</ele>
        <time>2014-09-01T13:28:38Z</time>
      </trkpt>
      <trkpt lat="46.0034" lon="6.79259">
        <ele>1798.7085</ele>
        <time>2014-09-01T13:28:43Z</time>
      </trkpt>
      <trkpt lat="46.00339" lon="6.7926">
        <ele>1799.5712</ele>
        <time>2014-09-01T13:28:48Z</time>
      </trkpt>
      <trkpt lat="46.00338" lon="6.79261">
        <ele>1799.5712</ele>
        <time>2014-09-01T13:28:53Z</time>
      </trkpt>
      <trkpt lat="46.00338" lon="6.79261">
        <ele>1799.5712</ele>
        <time>2014-09-01T13:28:58Z</time>
      </trkpt>
      <trkpt lat="46.00338" lon="6.79262">
        <ele>1799.5712</ele>
        <time>2014-09-01T13:29:08Z</time>
      </trkpt>
      <trkpt lat="46.00337" lon="6.79264">
        <ele>1799.5712</ele>
        <time>2014-09-01T13:29:13Z</time>
      </trkpt>
      <trkpt lat="46.00335" lon="6.79268">
        <ele>1799.5712</ele>
        <time>2014-09-01T13:29:18Z</time>
      </trkpt>
      <trkpt lat="46.00336" lon="6.79269">
        <ele>1799.5712</ele>
        <time>2014-09-01T13:29:23Z</time>
      </trkpt>
      <trkpt lat="46.00337" lon="6.7927">
        <ele>1801.136</ele>
        <time>2014-09-01T13:29:28Z</time>
      </trkpt>
      <trkpt lat="46.00338" lon="6.79274">
        <ele>1801.136</ele>
        <time>2014-09-01T13:29:33Z</time>
      </trkpt>
      <trkpt lat="46.00338" lon="6.79276">
        <ele>1801.136</ele>
        <time>2014-09-01T13:29:38Z</time>
      </trkpt>
      <trkpt lat="46.00335" lon="6.79279">
        <ele>1801.136</ele>
        <time>2014-09-01T13:29:43Z</time>
      </trkpt>
      <trkpt lat="46.00334" lon="6.79279">
        <ele>1801.136</ele>
        <time>2014-09-01T13:29:48Z</time>
      </trkpt>
      <trkpt lat="46.00333" lon="6.79278">
        <ele>1802.8865</ele>
        <time>2014-09-01T13:29:53Z</time>
      </trkpt>
      <trkpt lat="46.00332" lon="6.79278">
        <ele>1802.8865</ele>
        <time>2014-09-01T13:29:58Z</time>
      </trkpt>
      <trkpt lat="46.0033" lon="6.79278">
        <ele>1802.8865</ele>
        <time>2014-09-01T13:30:03Z</time>
      </trkpt>
      <trkpt lat="46.00327" lon="6.79279">
        <ele>1802.8865</ele>
        <time>2014-09-01T13:30:08Z</time>
      </trkpt>
      <trkpt lat="46.00325" lon="6.79279">
        <ele>1802.8865</ele>
        <time>2014-09-01T13:30:13Z</time>
      </trkpt>
      <trkpt lat="46.00322" lon="6.79278">
        <ele>1805.2805</ele>
        <time>2014-09-01T13:30:18Z</time>
      </trkpt>
      <trkpt lat="46.00319" lon="6.79278">
        <ele>1805.2805</ele>
        <time>2014-09-01T13:30:23Z</time>
      </trkpt>
      <trkpt lat="46.00315" lon="6.79281">
        <ele>1805.2805</ele>
        <time>2014-09-01T13:30:28Z</time>
      </trkpt>
      <trkpt lat="46.00313" lon="6.7928">
        <ele>1807.7749</ele>
        <time>2014-09-01T13:30:33Z</time>
      </trkpt>
      <trkpt lat="46.00312" lon="6.7928">
        <ele>1807.7749</ele>
        <time>2014-09-01T13:30:38Z</time>
      </trkpt>
      <trkpt lat="46.00312" lon="6.7928">
        <ele>1807.7749</ele>
        <time>2014-09-01T13:30:43Z</time>
      </trkpt>
      <trkpt lat="46.00311" lon="6.7928">
        <ele>1807.7749</ele>
        <time>2014-09-01T13:30:48Z</time>
      </trkpt>
      <trkpt lat="46.00311" lon="6.7928">
        <ele>1807.7749</ele>
        <time>2014-09-01T13:30:53Z</time>
      </trkpt>
      <trkpt lat="46.00309" lon="6.79278">
        <ele>1807.7749</ele>
        <time>2014-09-01T13:30:58Z</time>
      </trkpt>
      <trkpt lat="46.00309" lon="6.79278">
        <ele>1807.7749</ele>
        <time>2014-09-01T13:31:03Z</time>
      </trkpt>
      <trkpt lat="46.00309" lon="6.79278">
        <ele>1807.7749</ele>
        <time>2014-09-01T13:31:08Z</time>
      </trkpt>
      <trkpt lat="46.00307" lon="6.79279">
        <ele>1807.7749</ele>
        <time>2014-09-01T13:31:23Z</time>
      </trkpt>
      <trkpt lat="46.00306" lon="6.79279">
        <ele>1807.7749</ele>
        <time>2014-09-01T13:31:28Z</time>
      </trkpt>
      <trkpt lat="46.00303" lon="6.79278">
        <ele>1811.2208</ele>
        <time>2014-09-01T13:31:58Z</time>
      </trkpt>
      <trkpt lat="46.00301" lon="6.79276">
        <ele>1811.2208</ele>
        <time>2014-09-01T13:32:03Z</time>
      </trkpt>
      <trkpt lat="46.00295" lon="6.79274">
        <ele>1811.2208</ele>
        <time>2014-09-01T13:32:08Z</time>
      </trkpt>
      <trkpt lat="46.00292" lon="6.79274">
        <ele>1814.3434</ele>
        <time>2014-09-01T13:32:13Z</time>
      </trkpt>
      <trkpt lat="46.00292" lon="6.79274">
        <ele>1814.3434</ele>
        <time>2014-09-01T13:32:18Z</time>
      </trkpt>
      <trkpt lat="46.00285" lon="6.79273">
        <ele>1814.3434</ele>
        <time>2014-09-01T13:32:28Z</time>
      </trkpt>
      <trkpt lat="46.00283" lon="6.79271">
        <ele>1817.3315</ele>
        <time>2014-09-01T13:32:33Z</time>
      </trkpt>
      <trkpt lat="46.00283" lon="6.79271">
        <ele>1817.3315</ele>
        <time>2014-09-01T13:32:38Z</time>
      </trkpt>
      <trkpt lat="46.00282" lon="6.7927">
        <ele>1817.3315</ele>
        <time>2014-09-01T13:32:43Z</time>
      </trkpt>
      <trkpt lat="46.00282" lon="6.7927">
        <ele>1817.3315</ele>
        <time>2014-09-01T13:32:48Z</time>
      </trkpt>
      <trkpt lat="46.0028" lon="6.7927">
        <ele>1817.3315</ele>
        <time>2014-09-01T13:32:53Z</time>
      </trkpt>
      <trkpt lat="46.00275" lon="6.79268">
        <ele>1817.3315</ele>
        <time>2014-09-01T13:32:58Z</time>
      </trkpt>
      <trkpt lat="46.00271" lon="6.79267">
        <ele>1821.0234</ele>
        <time>2014-09-01T13:33:03Z</time>
      </trkpt>
      <trkpt lat="46.00271" lon="6.79267">
        <ele>1821.0234</ele>
        <time>2014-09-01T13:33:08Z</time>
      </trkpt>
      <trkpt lat="46.0027" lon="6.79267">
        <ele>1821.0234</ele>
        <time>2014-09-01T13:33:13Z</time>
      </trkpt>
      <trkpt lat="46.00267" lon="6.79266">
        <ele>1821.0234</ele>
        <time>2014-09-01T13:33:18Z</time>
      </trkpt>
      <trkpt lat="46.00265" lon="6.79266">
        <ele>1821.0234</ele>
        <time>2014-09-01T13:33:23Z</time>
      </trkpt>
      <trkpt lat="46.00263" lon="6.79266">
        <ele>1821.0234</ele>
        <time>2014-09-01T13:33:28Z</time>
      </trkpt>
      <trkpt lat="46.00263" lon="6.79266">
        <ele>1821.0234</ele>
        <time>2014-09-01T13:33:33Z</time>
      </trkpt>
      <trkpt lat="46.0026" lon="6.79264">
        <ele>1824.7529</ele>
        <time>2014-09-01T13:33:38Z</time>
      </trkpt>
      <trkpt lat="46.00257" lon="6.79263">
        <ele>1824.7529</ele>
        <time>2014-09-01T13:33:43Z</time>
      </trkpt>
      <trkpt lat="46.00257" lon="6.79263">
        <ele>1824.7529</ele>
        <time>2014-09-01T13:33:48Z</time>
      </trkpt>
      <trkpt lat="46.00256" lon="6.79263">
        <ele>1824.7529</ele>
        <time>2014-09-01T13:34:28Z</time>
      </trkpt>
      <trkpt lat="46.00256" lon="6.79263">
        <ele>1824.7529</ele>
        <time>2014-09-01T13:34:33Z</time>
      </trkpt>
      <trkpt lat="46.00251" lon="6.79262">
        <ele>1829.0845</ele>
        <time>2014-09-01T13:34:38Z</time>
      </trkpt>
      <trkpt lat="46.00251" lon="6.79262">
        <ele>1829.0845</ele>
        <time>2014-09-01T13:34:43Z</time>
      </trkpt>
      <trkpt lat="46.00247" lon="6.79262">
        <ele>1829.0845</ele>
        <time>2014-09-01T13:34:48Z</time>
      </trkpt>
      <trkpt lat="46.00247" lon="6.79262">
        <ele>1829.0845</ele>
        <time>2014-09-01T13:34:53Z</time>
      </trkpt>
      <trkpt lat="46.00245" lon="6.79262">
        <ele>1829.0845</ele>
        <time>2014-09-01T13:34:58Z</time>
      </trkpt>
      <trkpt lat="46.00245" lon="6.79262">
        <ele>1829.0845</ele>
        <time>2014-09-01T13:35:03Z</time>
      </trkpt>
      <trkpt lat="46.00237" lon="6.79254">
        <ele>1833.5308</ele>
        <time>2014-09-01T13:35:08Z</time>
      </trkpt>
      <trkpt lat="46.00234" lon="6.79253">
        <ele>1833.5308</ele>
        <time>2014-09-01T13:35:13Z</time>
      </trkpt>
      <trkpt lat="46.00234" lon="6.79253">
        <ele>1833.5308</ele>
        <time>2014-09-01T13:35:18Z</time>
      </trkpt>
      <trkpt lat="46.00233" lon="6.79253">
        <ele>1833.5308</ele>
        <time>2014-09-01T13:35:48Z</time>
      </trkpt>
      <trkpt lat="46.00232" lon="6.79253">
        <ele>1833.5308</ele>
        <time>2014-09-01T13:35:53Z</time>
      </trkpt>
      <trkpt lat="46.00231" lon="6.79251">
        <ele>1833.5308</ele>
        <time>2014-09-01T13:35:58Z</time>
      </trkpt>
      <trkpt lat="46.00231" lon="6.79251">
        <ele>1833.5308</ele>
        <time>2014-09-01T13:36:03Z</time>
      </trkpt>
      <trkpt lat="46.0023" lon="6.79251">
        <ele>1833.5308</ele>
        <time>2014-09-01T13:36:13Z</time>
      </trkpt>
      <trkpt lat="46.00228" lon="6.79249">
        <ele>1838.1875</ele>
        <time>2014-09-01T13:36:18Z</time>
      </trkpt>
      <trkpt lat="46.00228" lon="6.79249">
        <ele>1838.1875</ele>
        <time>2014-09-01T13:36:23Z</time>
      </trkpt>
      <trkpt lat="46.00219" lon="6.79244">
        <ele>1842.5814</ele>
        <time>2014-09-01T13:36:28Z</time>
      </trkpt>
      <trkpt lat="46.00216" lon="6.79243">
        <ele>1842.5814</ele>
        <time>2014-09-01T13:36:33Z</time>
      </trkpt>
      <trkpt lat="46.00215" lon="6.79238">
        <ele>1842.5814</ele>
        <time>2014-09-01T13:36:38Z</time>
      </trkpt>
      <trkpt lat="46.00215" lon="6.79236">
        <ele>1842.5814</ele>
        <time>2014-09-01T13:36:43Z</time>
      </trkpt>
      <trkpt lat="46.00212" lon="6.79229">
        <ele>1847.1246</ele>
        <time>2014-09-01T13:36:48Z</time>
      </trkpt>
      <trkpt lat="46.00212" lon="6.79229">
        <ele>1847.1246</ele>
        <time>2014-09-01T13:36:53Z</time>
      </trkpt>
      <trkpt lat="46.00211" lon="6.79229">
        <ele>1847.1246</ele>
        <time>2014-09-01T13:36:58Z</time>
      </trkpt>
      <trkpt lat="46.00209" lon="6.79226">
        <ele>1847.1246</ele>
        <time>2014-09-01T13:37:03Z</time>
      </trkpt>
      <trkpt lat="46.00207" lon="6.79225">
        <ele>1847.1246</ele>
        <time>2014-09-01T13:37:08Z</time>
      </trkpt>
      <trkpt lat="46.00207" lon="6.79225">
        <ele>1847.1246</ele>
        <time>2014-09-01T13:37:13Z</time>
      </trkpt>
      <trkpt lat="46.00207" lon="6.79225">
        <ele>1847.1246</ele>
        <time>2014-09-01T13:37:33Z</time>
      </trkpt>
      <trkpt lat="46.00207" lon="6.79225">
        <ele>1847.1246</ele>
        <time>2014-09-01T13:37:38Z</time>
      </trkpt>
      <trkpt lat="46.00206" lon="6.79225">
        <ele>1847.1246</ele>
        <time>2014-09-01T13:37:43Z</time>
      </trkpt>
      <trkpt lat="46.00206" lon="6.79225">
        <ele>1847.1246</ele>
        <time>2014-09-01T13:37:48Z</time>
      </trkpt>
      <trkpt lat="46.00205" lon="6.79229">
        <ele>1852.2424</ele>
        <time>2014-09-01T13:37:58Z</time>
      </trkpt>
      <trkpt lat="46.00201" lon="6.79234">
        <ele>1852.2424</ele>
        <time>2014-09-01T13:38:03Z</time>
      </trkpt>
      <trkpt lat="46.00198" lon="6.79235">
        <ele>1852.2424</ele>
        <time>2014-09-01T13:38:08Z</time>
      </trkpt>
      <trkpt lat="46.00197" lon="6.79234">
        <ele>1857.1023</ele>
        <time>2014-09-01T13:38:13Z</time>
      </trkpt>
      <trkpt lat="46.00195" lon="6.7923">
        <ele>1857.1023</ele>
        <time>2014-09-01T13:38:18Z</time>
      </trkpt>
      <trkpt lat="46.00191" lon="6.7923">
        <ele>1857.1023</ele>
        <time>2014-09-01T13:38:23Z</time>
      </trkpt>
      <trkpt lat="46.0019" lon="6.7923">
        <ele>1857.1023</ele>
        <time>2014-09-01T13:38:28Z</time>
      </trkpt>
      <trkpt lat="46.0019" lon="6.7923">
        <ele>1857.1023</ele>
        <time>2014-09-01T13:38:33Z</time>
      </trkpt>
      <trkpt lat="46.00187" lon="6.79234">
        <ele>1862.0724</ele>
        <time>2014-09-01T13:38:38Z</time>
      </trkpt>
      <trkpt lat="46.00186" lon="6.79238">
        <ele>1862.0724</ele>
        <time>2014-09-01T13:38:43Z</time>
      </trkpt>
      <trkpt lat="46.00187" lon="6.79243">
        <ele>1862.0724</ele>
        <time>2014-09-01T13:38:48Z</time>
      </trkpt>
      <trkpt lat="46.00189" lon="6.79247">
        <ele>1866.5428</ele>
        <time>2014-09-01T13:38:53Z</time>
      </trkpt>
      <trkpt lat="46.0019" lon="6.79248">
        <ele>1866.5428</ele>
        <time>2014-09-01T13:38:58Z</time>
      </trkpt>
      <trkpt lat="46.0019" lon="6.79248">
        <ele>1866.5428</ele>
        <time>2014-09-01T13:39:03Z</time>
      </trkpt>
      <trkpt lat="46.00189" lon="6.7925">
        <ele>1866.5428</ele>
        <time>2014-09-01T13:39:08Z</time>
      </trkpt>
      <trkpt lat="46.00189" lon="6.7925">
        <ele>1866.5428</ele>
        <time>2014-09-01T13:39:13Z</time>
      </trkpt>
      <trkpt lat="46.0019" lon="6.79251">
        <ele>1866.5428</ele>
        <time>2014-09-01T13:39:18Z</time>
      </trkpt>
      <trkpt lat="46.00191" lon="6.79254">
        <ele>1866.5428</ele>
        <time>2014-09-01T13:39:23Z</time>
      </trkpt>
      <trkpt lat="46.00191" lon="6.79254">
        <ele>1866.5428</ele>
        <time>2014-09-01T13:39:28Z</time>
      </trkpt>
      <trkpt lat="46.00191" lon="6.79256">
        <ele>1866.5428</ele>
        <time>2014-09-01T13:39:43Z</time>
      </trkpt>
      <trkpt lat="46.0019" lon="6.79271">
        <ele>1870.9586</ele>
        <time>2014-09-01T13:39:48Z</time>
      </trkpt>
      <trkpt lat="46.00192" lon="6.79277">
        <ele>1870.9586</ele>
        <time>2014-09-01T13:39:53Z</time>
      </trkpt>
      <trkpt lat="46.00193" lon="6.79281">
        <ele>1870.9586</ele>
        <time>2014-09-01T13:39:58Z</time>
      </trkpt>
      <trkpt lat="46.00192" lon="6.79283">
        <ele>1874.9979</ele>
        <time>2014-09-01T13:40:03Z</time>
      </trkpt>
      <trkpt lat="46.00192" lon="6.79286">
        <ele>1874.9979</ele>
        <time>2014-09-01T13:40:08Z</time>
      </trkpt>
      <trkpt lat="46.00192" lon="6.79287">
        <ele>1874.9979</ele>
        <time>2014-09-01T13:40:13Z</time>
      </trkpt>
      <trkpt lat="46.00192" lon="6.7929">
        <ele>1874.9979</ele>
        <time>2014-09-01T13:40:18Z</time>
      </trkpt>
      <trkpt lat="46.00192" lon="6.7929">
        <ele>1874.9979</ele>
        <time>2014-09-01T13:40:23Z</time>
      </trkpt>
      <trkpt lat="46.00193" lon="6.79292">
        <ele>1874.9979</ele>
        <time>2014-09-01T13:40:28Z</time>
      </trkpt>
      <trkpt lat="46.00194" lon="6.79293">
        <ele>1874.9979</ele>
        <time>2014-09-01T13:40:33Z</time>
      </trkpt>
      <trkpt lat="46.00195" lon="6.79295">
        <ele>1878.8969</ele>
        <time>2014-09-01T13:40:38Z</time>
      </trkpt>
      <trkpt lat="46.00197" lon="6.79298">
        <ele>1878.8969</ele>
        <time>2014-09-01T13:40:43Z</time>
      </trkpt>
      <trkpt lat="46.00198" lon="6.79301">
        <ele>1878.8969</ele>
        <time>2014-09-01T13:40:48Z</time>
      </trkpt>
      <trkpt lat="46.00198" lon="6.79304">
        <ele>1878.8969</ele>
        <time>2014-09-01T13:40:53Z</time>
      </trkpt>
      <trkpt lat="46.00197" lon="6.79305">
        <ele>1878.8969</ele>
        <time>2014-09-01T13:40:58Z</time>
      </trkpt>
      <trkpt lat="46.00196" lon="6.79308">
        <ele>1882.7021</ele>
        <time>2014-09-01T13:41:03Z</time>
      </trkpt>
      <trkpt lat="46.00198" lon="6.79313">
        <ele>1882.7021</ele>
        <time>2014-09-01T13:41:08Z</time>
      </trkpt>
      <trkpt lat="46.002" lon="6.79314">
        <ele>1882.7021</ele>
        <time>2014-09-01T13:41:13Z</time>
      </trkpt>
      <trkpt lat="46.00201" lon="6.79315">
        <ele>1882.7021</ele>
        <time>2014-09-01T13:41:18Z</time>
      </trkpt>
      <trkpt lat="46.00201" lon="6.79319">
        <ele>1886.5581</ele>
        <time>2014-09-01T13:41:23Z</time>
      </trkpt>
      <trkpt lat="46.00202" lon="6.79323">
        <ele>1886.5581</ele>
        <time>2014-09-01T13:41:28Z</time>
      </trkpt>
      <trkpt lat="46.00202" lon="6.79326">
        <ele>1886.5581</ele>
        <time>2014-09-01T13:41:33Z</time>
      </trkpt>
      <trkpt lat="46.00201" lon="6.7933">
        <ele>1886.5581</ele>
        <time>2014-09-01T13:41:38Z</time>
      </trkpt>
      <trkpt lat="46.002" lon="6.79332">
        <ele>1890.2533</ele>
        <time>2014-09-01T13:41:43Z</time>
      </trkpt>
      <trkpt lat="46.00202" lon="6.79334">
        <ele>1890.2533</ele>
        <time>2014-09-01T13:41:48Z</time>
      </trkpt>
      <trkpt lat="46.00203" lon="6.79338">
        <ele>1890.2533</ele>
        <time>2014-09-01T13:41:53Z</time>
      </trkpt>
      <trkpt lat="46.00203" lon="6.79342">
        <ele>1890.2533</ele>
        <time>2014-09-01T13:41:58Z</time>
      </trkpt>
      <trkpt lat="46.00203" lon="6.79343">
        <ele>1890.2533</ele>
        <time>2014-09-01T13:42:03Z</time>
      </trkpt>
      <trkpt lat="46.00203" lon="6.79343">
        <ele>1890.2533</ele>
        <time>2014-09-01T13:42:08Z</time>
      </trkpt>
      <trkpt lat="46.00203" lon="6.79346">
        <ele>1893.7794</ele>
        <time>2014-09-01T13:42:13Z</time>
      </trkpt>
      <trkpt lat="46.00205" lon="6.79347">
        <ele>1893.7794</ele>
        <time>2014-09-01T13:42:18Z</time>
      </trkpt>
      <trkpt lat="46.00207" lon="6.79349">
        <ele>1893.7794</ele>
        <time>2014-09-01T13:42:23Z</time>
      </trkpt>
      <trkpt lat="46.00207" lon="6.79353">
        <ele>1893.7794</ele>
        <time>2014-09-01T13:42:28Z</time>
      </trkpt>
      <trkpt lat="46.00208" lon="6.79356">
        <ele>1897.1154</ele>
        <time>2014-09-01T13:42:33Z</time>
      </trkpt>
      <trkpt lat="46.00208" lon="6.79358">
        <ele>1897.1154</ele>
        <time>2014-09-01T13:42:38Z</time>
      </trkpt>
      <trkpt lat="46.00208" lon="6.79359">
        <ele>1897.1154</ele>
        <time>2014-09-01T13:42:43Z</time>
      </trkpt>
      <trkpt lat="46.00208" lon="6.79361">
        <ele>1897.1154</ele>
        <time>2014-09-01T13:42:48Z</time>
      </trkpt>
      <trkpt lat="46.00209" lon="6.79364">
        <ele>1897.1154</ele>
        <time>2014-09-01T13:42:53Z</time>
      </trkpt>
      <trkpt lat="46.00209" lon="6.79369">
        <ele>1900.3289</ele>
        <time>2014-09-01T13:42:58Z</time>
      </trkpt>
      <trkpt lat="46.00209" lon="6.79371">
        <ele>1900.3289</ele>
        <time>2014-09-01T13:43:03Z</time>
      </trkpt>
      <trkpt lat="46.00212" lon="6.79372">
        <ele>1900.3289</ele>
        <time>2014-09-01T13:43:08Z</time>
      </trkpt>
      <trkpt lat="46.00214" lon="6.79372">
        <ele>1900.3289</ele>
        <time>2014-09-01T13:43:13Z</time>
      </trkpt>
      <trkpt lat="46.00216" lon="6.79372">
        <ele>1900.3289</ele>
        <time>2014-09-01T13:43:18Z</time>
      </trkpt>
      <trkpt lat="46.00213" lon="6.79378">
        <ele>1903.4688</ele>
        <time>2014-09-01T13:43:23Z</time>
      </trkpt>
      <trkpt lat="46.00215" lon="6.79379">
        <ele>1903.4688</ele>
        <time>2014-09-01T13:43:28Z</time>
      </trkpt>
      <trkpt lat="46.00215" lon="6.79381">
        <ele>1903.4688</ele>
        <time>2014-09-01T13:43:33Z</time>
      </trkpt>
      <trkpt lat="46.00215" lon="6.79385">
        <ele>1903.4688</ele>
        <time>2014-09-01T13:43:38Z</time>
      </trkpt>
      <trkpt lat="46.00215" lon="6.79387">
        <ele>1903.4688</ele>
        <time>2014-09-01T13:43:43Z</time>
      </trkpt>
      <trkpt lat="46.00216" lon="6.79388">
        <ele>1906.8689</ele>
        <time>2014-09-01T13:43:48Z</time>
      </trkpt>
      <trkpt lat="46.00218" lon="6.79392">
        <ele>1906.8689</ele>
        <time>2014-09-01T13:43:53Z</time>
      </trkpt>
      <trkpt lat="46.00218" lon="6.79394">
        <ele>1906.8689</ele>
        <time>2014-09-01T13:43:58Z</time>
      </trkpt>
      <trkpt lat="46.00217" lon="6.79397">
        <ele>1906.8689</ele>
        <time>2014-09-01T13:44:03Z</time>
      </trkpt>
      <trkpt lat="46.00216" lon="6.79399">
        <ele>1906.8689</ele>
        <time>2014-09-01T13:44:08Z</time>
      </trkpt>
      <trkpt lat="46.00217" lon="6.79399">
        <ele>1906.8689</ele>
        <time>2014-09-01T13:44:13Z</time>
      </trkpt>
      <trkpt lat="46.00217" lon="6.79399">
        <ele>1910.3052</ele>
        <time>2014-09-01T13:44:18Z</time>
      </trkpt>
      <trkpt lat="46.00217" lon="6.794">
        <ele>1910.3052</ele>
        <time>2014-09-01T13:44:23Z</time>
      </trkpt>
      <trkpt lat="46.00217" lon="6.79403">
        <ele>1910.3052</ele>
        <time>2014-09-01T13:44:28Z</time>
      </trkpt>
      <trkpt lat="46.00216" lon="6.79405">
        <ele>1910.3052</ele>
        <time>2014-09-01T13:44:33Z</time>
      </trkpt>
      <trkpt lat="46.00216" lon="6.79407">
        <ele>1910.3052</ele>
        <time>2014-09-01T13:44:38Z</time>
      </trkpt>
      <trkpt lat="46.00217" lon="6.7941">
        <ele>1910.3052</ele>
        <time>2014-09-01T13:44:43Z</time>
      </trkpt>
      <trkpt lat="46.00217" lon="6.79411">
        <ele>1913.6564</ele>
        <time>2014-09-01T13:44:48Z</time>
      </trkpt>
      <trkpt lat="46.00216" lon="6.79412">
        <ele>1913.6564</ele>
        <time>2014-09-01T13:44:53Z</time>
      </trkpt>
      <trkpt lat="46.00216" lon="6.79413">
        <ele>1913.6564</ele>
        <time>2014-09-01T13:44:58Z</time>
      </trkpt>
      <trkpt lat="46.00218" lon="6.79418">
        <ele>1913.6564</ele>
        <time>2014-09-01T13:45:03Z</time>
      </trkpt>
      <trkpt lat="46.00219" lon="6.79419">
        <ele>1913.6564</ele>
        <time>2014-09-01T13:45:08Z</time>
      </trkpt>
      <trkpt lat="46.0022" lon="6.79421">
        <ele>1913.6564</ele>
        <time>2014-09-01T13:45:13Z</time>
      </trkpt>
      <trkpt lat="46.00221" lon="6.79424">
        <ele>1917.0269</ele>
        <time>2014-09-01T13:45:18Z</time>
      </trkpt>
      <trkpt lat="46.00221" lon="6.79426">
        <ele>1917.0269</ele>
        <time>2014-09-01T13:45:23Z</time>
      </trkpt>
      <trkpt lat="46.00221" lon="6.79427">
        <ele>1917.0269</ele>
        <time>2014-09-01T13:45:28Z</time>
      </trkpt>
      <trkpt lat="46.00221" lon="6.79428">
        <ele>1917.0269</ele>
        <time>2014-09-01T13:45:33Z</time>
      </trkpt>
      <trkpt lat="46.00221" lon="6.79429">
        <ele>1917.0269</ele>
        <time>2014-09-01T13:45:38Z</time>
      </trkpt>
      <trkpt lat="46.00222" lon="6.79432">
        <ele>1917.0269</ele>
        <time>2014-09-01T13:45:43Z</time>
      </trkpt>
      <trkpt lat="46.00221" lon="6.79435">
        <ele>1917.0269</ele>
        <time>2014-09-01T13:45:48Z</time>
      </trkpt>
      <trkpt lat="46.0022" lon="6.7944">
        <ele>1920.182</ele>
        <time>2014-09-01T13:45:53Z</time>
      </trkpt>
      <trkpt lat="46.00219" lon="6.79445">
        <ele>1920.182</ele>
        <time>2014-09-01T13:45:58Z</time>
      </trkpt>
      <trkpt lat="46.00219" lon="6.79449">
        <ele>1920.182</ele>
        <time>2014-09-01T13:46:03Z</time>
      </trkpt>
      <trkpt lat="46.00217" lon="6.79455">
        <ele>1923.1503</ele>
        <time>2014-09-01T13:46:08Z</time>
      </trkpt>
      <trkpt lat="46.00217" lon="6.7946">
        <ele>1923.1503</ele>
        <time>2014-09-01T13:46:13Z</time>
      </trkpt>
      <trkpt lat="46.00217" lon="6.79461">
        <ele>1923.1503</ele>
        <time>2014-09-01T13:46:18Z</time>
      </trkpt>
      <trkpt lat="46.00218" lon="6.79464">
        <ele>1923.1503</ele>
        <time>2014-09-01T13:46:23Z</time>
      </trkpt>
      <trkpt lat="46.00218" lon="6.79464">
        <ele>1923.1503</ele>
        <time>2014-09-01T13:46:28Z</time>
      </trkpt>
      <trkpt lat="46.00217" lon="6.79468">
        <ele>1925.9442</ele>
        <time>2014-09-01T13:46:33Z</time>
      </trkpt>
      <trkpt lat="46.00219" lon="6.79477">
        <ele>1925.9442</ele>
        <time>2014-09-01T13:46:38Z</time>
      </trkpt>
      <trkpt lat="46.00219" lon="6.79477">
        <ele>1925.9442</ele>
        <time>2014-09-01T13:46:43Z</time>
      </trkpt>
      <trkpt lat="46.00219" lon="6.7948">
        <ele>1928.3602</ele>
        <time>2014-09-01T13:46:48Z</time>
      </trkpt>
      <trkpt lat="46.00218" lon="6.79483">
        <ele>1928.3602</ele>
        <time>2014-09-01T13:46:53Z</time>
      </trkpt>
      <trkpt lat="46.00218" lon="6.79489">
        <ele>1928.3602</ele>
        <time>2014-09-01T13:46:58Z</time>
      </trkpt>
      <trkpt lat="46.00219" lon="6.79494">
        <ele>1930.5997</ele>
        <time>2014-09-01T13:47:03Z</time>
      </trkpt>
      <trkpt lat="46.00218" lon="6.79498">
        <ele>1930.5997</ele>
        <time>2014-09-01T13:47:08Z</time>
      </trkpt>
      <trkpt lat="46.00217" lon="6.79503">
        <ele>1930.5997</ele>
        <time>2014-09-01T13:47:13Z</time>
      </trkpt>
      <trkpt lat="46.00216" lon="6.79508">
        <ele>1932.6627</ele>
        <time>2014-09-01T13:47:18Z</time>
      </trkpt>
      <trkpt lat="46.00216" lon="6.79511">
        <ele>1932.6627</ele>
        <time>2014-09-01T13:47:23Z</time>
      </trkpt>
      <trkpt lat="46.00216" lon="6.79512">
        <ele>1932.6627</ele>
        <time>2014-09-01T13:47:28Z</time>
      </trkpt>
      <trkpt lat="46.00215" lon="6.79512">
        <ele>1932.6627</ele>
        <time>2014-09-01T13:47:33Z</time>
      </trkpt>
      <trkpt lat="46.00216" lon="6.79512">
        <ele>1932.6627</ele>
        <time>2014-09-01T13:47:38Z</time>
      </trkpt>
      <trkpt lat="46.00216" lon="6.79512">
        <ele>1932.6627</ele>
        <time>2014-09-01T13:47:43Z</time>
      </trkpt>
      <trkpt lat="46.00217" lon="6.79513">
        <ele>1932.6627</ele>
        <time>2014-09-01T13:47:48Z</time>
      </trkpt>
      <trkpt lat="46.00217" lon="6.79517">
        <ele>1932.6627</ele>
        <time>2014-09-01T13:47:53Z</time>
      </trkpt>
      <trkpt lat="46.00217" lon="6.79519">
        <ele>1935.0111</ele>
        <time>2014-09-01T13:47:58Z</time>
      </trkpt>
      <trkpt lat="46.00217" lon="6.7952">
        <ele>1935.0111</ele>
        <time>2014-09-01T13:48:03Z</time>
      </trkpt>
      <trkpt lat="46.00217" lon="6.79523">
        <ele>1935.0111</ele>
        <time>2014-09-01T13:48:08Z</time>
      </trkpt>
      <trkpt lat="46.00217" lon="6.79524">
        <ele>1935.0111</ele>
        <time>2014-09-01T13:48:13Z</time>
      </trkpt>
      <trkpt lat="46.00217" lon="6.79525">
        <ele>1935.0111</ele>
        <time>2014-09-01T13:48:18Z</time>
      </trkpt>
      <trkpt lat="46.00216" lon="6.79528">
        <ele>1935.0111</ele>
        <time>2014-09-01T13:48:23Z</time>
      </trkpt>
      <trkpt lat="46.00216" lon="6.7953">
        <ele>1935.0111</ele>
        <time>2014-09-01T13:48:28Z</time>
      </trkpt>
      <trkpt lat="46.00216" lon="6.79531">
        <ele>1935.0111</ele>
        <time>2014-09-01T13:48:33Z</time>
      </trkpt>
      <trkpt lat="46.00216" lon="6.79534">
        <ele>1937.5533</ele>
        <time>2014-09-01T13:48:38Z</time>
      </trkpt>
      <trkpt lat="46.00216" lon="6.79534">
        <ele>1937.5533</ele>
        <time>2014-09-01T13:48:43Z</time>
      </trkpt>
      <trkpt lat="46.00216" lon="6.79537">
        <ele>1937.5533</ele>
        <time>2014-09-01T13:48:48Z</time>
      </trkpt>
      <trkpt lat="46.00217" lon="6.79538">
        <ele>1937.5533</ele>
        <time>2014-09-01T13:48:53Z</time>
      </trkpt>
      <trkpt lat="46.00216" lon="6.79539">
        <ele>1937.5533</ele>
        <time>2014-09-01T13:48:58Z</time>
      </trkpt>
      <trkpt lat="46.00215" lon="6.79544">
        <ele>1937.5533</ele>
        <time>2014-09-01T13:49:03Z</time>
      </trkpt>
      <trkpt lat="46.00214" lon="6.79546">
        <ele>1939.9303</ele>
        <time>2014-09-01T13:49:08Z</time>
      </trkpt>
      <trkpt lat="46.00213" lon="6.79547">
        <ele>1939.9303</ele>
        <time>2014-09-01T13:49:13Z</time>
      </trkpt>
      <trkpt lat="46.00214" lon="6.79548">
        <ele>1939.9303</ele>
        <time>2014-09-01T13:49:18Z</time>
      </trkpt>
      <trkpt lat="46.00213" lon="6.79549">
        <ele>1939.9303</ele>
        <time>2014-09-01T13:49:23Z</time>
      </trkpt>
      <trkpt lat="46.00212" lon="6.79552">
        <ele>1939.9303</ele>
        <time>2014-09-01T13:49:28Z</time>
      </trkpt>
      <trkpt lat="46.00213" lon="6.79554">
        <ele>1939.9303</ele>
        <time>2014-09-01T13:49:33Z</time>
      </trkpt>
      <trkpt lat="46.00214" lon="6.79558">
        <ele>1939.9303</ele>
        <time>2014-09-01T13:49:38Z</time>
      </trkpt>
      <trkpt lat="46.00214" lon="6.79559">
        <ele>1942.3286</ele>
        <time>2014-09-01T13:49:43Z</time>
      </trkpt>
      <trkpt lat="46.00215" lon="6.7956">
        <ele>1942.3286</ele>
        <time>2014-09-01T13:49:48Z</time>
      </trkpt>
      <trkpt lat="46.00214" lon="6.7956">
        <ele>1942.3286</ele>
        <time>2014-09-01T13:49:53Z</time>
      </trkpt>
      <trkpt lat="46.00214" lon="6.7956">
        <ele>1942.3286</ele>
        <time>2014-09-01T13:49:58Z</time>
      </trkpt>
      <trkpt lat="46.00214" lon="6.7956">
        <ele>1942.3286</ele>
        <time>2014-09-01T13:50:03Z</time>
      </trkpt>
      <trkpt lat="46.00213" lon="6.79559">
        <ele>1942.3286</ele>
        <time>2014-09-01T13:50:08Z</time>
      </trkpt>
      <trkpt lat="46.00213" lon="6.79559">
        <ele>1942.3286</ele>
        <time>2014-09-01T13:50:13Z</time>
      </trkpt>
      <trkpt lat="46.00213" lon="6.7956">
        <ele>1942.3286</ele>
        <time>2014-09-01T13:50:18Z</time>
      </trkpt>
      <trkpt lat="46.00212" lon="6.7956">
        <ele>1942.3286</ele>
        <time>2014-09-01T13:50:23Z</time>
      </trkpt>
      <trkpt lat="46.00211" lon="6.79561">
        <ele>1942.3286</ele>
        <time>2014-09-01T13:50:28Z</time>
      </trkpt>
      <trkpt lat="46.0021" lon="6.79561">
        <ele>1942.3286</ele>
        <time>2014-09-01T13:50:33Z</time>
      </trkpt>
      <trkpt lat="46.00209" lon="6.79562">
        <ele>1942.3286</ele>
        <time>2014-09-01T13:50:38Z</time>
      </trkpt>
      <trkpt lat="46.00208" lon="6.79562">
        <ele>1942.3286</ele>
        <time>2014-09-01T13:50:43Z</time>
      </trkpt>
      <trkpt lat="46.00207" lon="6.79562">
        <ele>1944.8635</ele>
        <time>2014-09-01T13:50:48Z</time>
      </trkpt>
      <trkpt lat="46.00205" lon="6.79563">
        <ele>1944.8635</ele>
        <time>2014-09-01T13:50:53Z</time>
      </trkpt>
      <trkpt lat="46.00205" lon="6.79567">
        <ele>1944.8635</ele>
        <time>2014-09-01T13:50:58Z</time>
      </trkpt>
      <trkpt lat="46.00204" lon="6.7957">
        <ele>1944.8635</ele>
        <time>2014-09-01T13:51:03Z</time>
      </trkpt>
      <trkpt lat="46.00204" lon="6.79571">
        <ele>1944.8635</ele>
        <time>2014-09-01T13:51:08Z</time>
      </trkpt>
      <trkpt lat="46.00205" lon="6.79573">
        <ele>1944.8635</ele>
        <time>2014-09-01T13:51:13Z</time>
      </trkpt>
      <trkpt lat="46.00204" lon="6.79575">
        <ele>1947.9587</ele>
        <time>2014-09-01T13:51:18Z</time>
      </trkpt>
      <trkpt lat="46.00203" lon="6.79577">
        <ele>1947.9587</ele>
        <time>2014-09-01T13:51:23Z</time>
      </trkpt>
      <trkpt lat="46.00203" lon="6.79578">
        <ele>1947.9587</ele>
        <time>2014-09-01T13:51:28Z</time>
      </trkpt>
      <trkpt lat="46.00203" lon="6.79579">
        <ele>1947.9587</ele>
        <time>2014-09-01T13:51:33Z</time>
      </trkpt>
      <trkpt lat="46.00203" lon="6.7958">
        <ele>1947.9587</ele>
        <time>2014-09-01T13:51:38Z</time>
      </trkpt>
      <trkpt lat="46.00202" lon="6.79581">
        <ele>1947.9587</ele>
        <time>2014-09-01T13:51:43Z</time>
      </trkpt>
      <trkpt lat="46.00202" lon="6.79583">
        <ele>1947.9587</ele>
        <time>2014-09-01T13:51:48Z</time>
      </trkpt>
      <trkpt lat="46.00203" lon="6.79589">
        <ele>1950.9965</ele>
        <time>2014-09-01T13:51:53Z</time>
      </trkpt>
      <trkpt lat="46.00204" lon="6.79592">
        <ele>1950.9965</ele>
        <time>2014-09-01T13:51:58Z</time>
      </trkpt>
      <trkpt lat="46.00205" lon="6.79591">
        <ele>1950.9965</ele>
        <time>2014-09-01T13:52:03Z</time>
      </trkpt>
      <trkpt lat="46.00206" lon="6.7959">
        <ele>1950.9965</ele>
        <time>2014-09-01T13:52:08Z</time>
      </trkpt>
      <trkpt lat="46.00206" lon="6.79591">
        <ele>1950.9965</ele>
        <time>2014-09-01T13:52:13Z</time>
      </trkpt>
      <trkpt lat="46.00205" lon="6.79592">
        <ele>1950.9965</ele>
        <time>2014-09-01T13:52:18Z</time>
      </trkpt>
      <trkpt lat="46.00205" lon="6.79592">
        <ele>1950.9965</ele>
        <time>2014-09-01T13:52:23Z</time>
      </trkpt>
      <trkpt lat="46.00205" lon="6.79592">
        <ele>1950.9965</ele>
        <time>2014-09-01T13:52:28Z</time>
      </trkpt>
      <trkpt lat="46.00206" lon="6.79592">
        <ele>1950.9965</ele>
        <time>2014-09-01T13:52:33Z</time>
      </trkpt>
      <trkpt lat="46.00205" lon="6.79591">
        <ele>1953.9232</ele>
        <time>2014-09-01T13:52:38Z</time>
      </trkpt>
      <trkpt lat="46.00204" lon="6.79591">
        <ele>1953.9232</ele>
        <time>2014-09-01T13:52:43Z</time>
      </trkpt>
      <trkpt lat="46.00203" lon="6.7959">
        <ele>1953.9232</ele>
        <time>2014-09-01T13:52:48Z</time>
      </trkpt>
      <trkpt lat="46.00203" lon="6.7959">
        <ele>1953.9232</ele>
        <time>2014-09-01T13:52:53Z</time>
      </trkpt>
      <trkpt lat="46.00202" lon="6.7959">
        <ele>1953.9232</ele>
        <time>2014-09-01T13:52:58Z</time>
      </trkpt>
      <trkpt lat="46.00203" lon="6.7959">
        <ele>1953.9232</ele>
        <time>2014-09-01T13:53:03Z</time>
      </trkpt>
      <trkpt lat="46.00203" lon="6.7959">
        <ele>1953.9232</ele>
        <time>2014-09-01T13:53:08Z</time>
      </trkpt>
      <trkpt lat="46.00203" lon="6.79592">
        <ele>1953.9232</ele>
        <time>2014-09-01T13:53:13Z</time>
      </trkpt>
      <trkpt lat="46.00202" lon="6.79594">
        <ele>1953.9232</ele>
        <time>2014-09-01T13:53:18Z</time>
      </trkpt>
      <trkpt lat="46.00201" lon="6.79594">
        <ele>1953.9232</ele>
        <time>2014-09-01T13:53:23Z</time>
      </trkpt>
      <trkpt lat="46.002" lon="6.79594">
        <ele>1953.9232</ele>
        <time>2014-09-01T13:53:28Z</time>
      </trkpt>
      <trkpt lat="46.002" lon="6.79594">
        <ele>1953.9232</ele>
        <time>2014-09-01T13:53:33Z</time>
      </trkpt>
      <trkpt lat="46.00199" lon="6.79593">
        <ele>1956.6754</ele>
        <time>2014-09-01T13:53:38Z</time>
      </trkpt>
      <trkpt lat="46.00199" lon="6.79591">
        <ele>1956.6754</ele>
        <time>2014-09-01T13:53:43Z</time>
      </trkpt>
      <trkpt lat="46.00199" lon="6.79593">
        <ele>1956.6754</ele>
        <time>2014-09-01T13:53:48Z</time>
      </trkpt>
      <trkpt lat="46.002" lon="6.79597">
        <ele>1956.6754</ele>
        <time>2014-09-01T13:53:53Z</time>
      </trkpt>
      <trkpt lat="46.002" lon="6.79601">
        <ele>1956.6754</ele>
        <time>2014-09-01T13:53:58Z</time>
      </trkpt>
      <trkpt lat="46.00199" lon="6.79605">
        <ele>1959.3103</ele>
        <time>2014-09-01T13:54:03Z</time>
      </trkpt>
      <trkpt lat="46.00199" lon="6.79608">
        <ele>1959.3103</ele>
        <time>2014-09-01T13:54:08Z</time>
      </trkpt>
      <trkpt lat="46.00199" lon="6.7961">
        <ele>1959.3103</ele>
        <time>2014-09-01T13:54:13Z</time>
      </trkpt>
      <trkpt lat="46.002" lon="6.79612">
        <ele>1959.3103</ele>
        <time>2014-09-01T13:54:18Z</time>
      </trkpt>
      <trkpt lat="46.002" lon="6.79614">
        <ele>1959.3103</ele>
        <time>2014-09-01T13:54:23Z</time>
      </trkpt>
      <trkpt lat="46.002" lon="6.79616">
        <ele>1959.3103</ele>
        <time>2014-09-01T13:54:28Z</time>
      </trkpt>
      <trkpt lat="46.00198" lon="6.79617">
        <ele>1961.7366</ele>
        <time>2014-09-01T13:54:33Z</time>
      </trkpt>
      <trkpt lat="46.00197" lon="6.7962">
        <ele>1961.7366</ele>
        <time>2014-09-01T13:54:38Z</time>
      </trkpt>
      <trkpt lat="46.00196" lon="6.79621">
        <ele>1961.7366</ele>
        <time>2014-09-01T13:54:43Z</time>
      </trkpt>
      <trkpt lat="46.00194" lon="6.79624">
        <ele>1961.7366</ele>
        <time>2014-09-01T13:54:48Z</time>
      </trkpt>
      <trkpt lat="46.00193" lon="6.79627">
        <ele>1961.7366</ele>
        <time>2014-09-01T13:54:53Z</time>
      </trkpt>
      <trkpt lat="46.00195" lon="6.79631">
        <ele>1964.0726</ele>
        <time>2014-09-01T13:54:58Z</time>
      </trkpt>
      <trkpt lat="46.00195" lon="6.79633">
        <ele>1964.0726</ele>
        <time>2014-09-01T13:55:03Z</time>
      </trkpt>
      <trkpt lat="46.00196" lon="6.79637">
        <ele>1964.0726</ele>
        <time>2014-09-01T13:55:08Z</time>
      </trkpt>
      <trkpt lat="46.00196" lon="6.7964">
        <ele>1964.0726</ele>
        <time>2014-09-01T13:55:13Z</time>
      </trkpt>
      <trkpt lat="46.00197" lon="6.79643">
        <ele>1966.4136</ele>
        <time>2014-09-01T13:55:18Z</time>
      </trkpt>
      <trkpt lat="46.00198" lon="6.79646">
        <ele>1966.4136</ele>
        <time>2014-09-01T13:55:23Z</time>
      </trkpt>
      <trkpt lat="46.00198" lon="6.79647">
        <ele>1966.4136</ele>
        <time>2014-09-01T13:55:28Z</time>
      </trkpt>
      <trkpt lat="46.00201" lon="6.7965">
        <ele>1966.4136</ele>
        <time>2014-09-01T13:55:33Z</time>
      </trkpt>
      <trkpt lat="46.00204" lon="6.79653">
        <ele>1968.819</ele>
        <time>2014-09-01T13:55:38Z</time>
      </trkpt>
      <trkpt lat="46.00206" lon="6.79656">
        <ele>1968.819</ele>
        <time>2014-09-01T13:55:43Z</time>
      </trkpt>
      <trkpt lat="46.00208" lon="6.7966">
        <ele>1968.819</ele>
        <time>2014-09-01T13:55:48Z</time>
      </trkpt>
      <trkpt lat="46.00209" lon="6.79663">
        <ele>1968.819</ele>
        <time>2014-09-01T13:55:53Z</time>
      </trkpt>
      <trkpt lat="46.00209" lon="6.79666">
        <ele>1971.0123</ele>
        <time>2014-09-01T13:55:58Z</time>
      </trkpt>
      <trkpt lat="46.0021" lon="6.79671">
        <ele>1971.0123</ele>
        <time>2014-09-01T13:56:03Z</time>
      </trkpt>
      <trkpt lat="46.00211" lon="6.79674">
        <ele>1971.0123</ele>
        <time>2014-09-01T13:56:08Z</time>
      </trkpt>
      <trkpt lat="46.00211" lon="6.79677">
        <ele>1971.0123</ele>
        <time>2014-09-01T13:56:13Z</time>
      </trkpt>
      <trkpt lat="46.00211" lon="6.79681">
        <ele>1973.2279</ele>
        <time>2014-09-01T13:56:18Z</time>
      </trkpt>
      <trkpt lat="46.00211" lon="6.79683">
        <ele>1973.2279</ele>
        <time>2014-09-01T13:56:23Z</time>
      </trkpt>
      <trkpt lat="46.00211" lon="6.79685">
        <ele>1973.2279</ele>
        <time>2014-09-01T13:56:28Z</time>
      </trkpt>
      <trkpt lat="46.00212" lon="6.79688">
        <ele>1973.2279</ele>
        <time>2014-09-01T13:56:33Z</time>
      </trkpt>
      <trkpt lat="46.00213" lon="6.7969">
        <ele>1973.2279</ele>
        <time>2014-09-01T13:56:38Z</time>
      </trkpt>
      <trkpt lat="46.00214" lon="6.79694">
        <ele>1975.5388</ele>
        <time>2014-09-01T13:56:43Z</time>
      </trkpt>
      <trkpt lat="46.00214" lon="6.79696">
        <ele>1975.5388</ele>
        <time>2014-09-01T13:56:48Z</time>
      </trkpt>
      <trkpt lat="46.00214" lon="6.79699">
        <ele>1975.5388</ele>
        <time>2014-09-01T13:56:53Z</time>
      </trkpt>
      <trkpt lat="46.00214" lon="6.79701">
        <ele>1975.5388</ele>
        <time>2014-09-01T13:56:58Z</time>
      </trkpt>
      <trkpt lat="46.00215" lon="6.79705">
        <ele>1975.5388</ele>
        <time>2014-09-01T13:57:03Z</time>
      </trkpt>
      <trkpt lat="46.00217" lon="6.79708">
        <ele>1977.7819</ele>
        <time>2014-09-01T13:57:08Z</time>
      </trkpt>
      <trkpt lat="46.00218" lon="6.79712">
        <ele>1977.7819</ele>
        <time>2014-09-01T13:57:13Z</time>
      </trkpt>
      <trkpt lat="46.00218" lon="6.79717">
        <ele>1977.7819</ele>
        <time>2014-09-01T13:57:18Z</time>
      </trkpt>
      <trkpt lat="46.00219" lon="6.79721">
        <ele>1980.022</ele>
        <time>2014-09-01T13:57:23Z</time>
      </trkpt>
      <trkpt lat="46.00219" lon="6.79724">
        <ele>1980.022</ele>
        <time>2014-09-01T13:57:28Z</time>
      </trkpt>
      <trkpt lat="46.00218" lon="6.79727">
        <ele>1980.022</ele>
        <time>2014-09-01T13:57:33Z</time>
      </trkpt>
      <trkpt lat="46.00219" lon="6.79729">
        <ele>1980.022</ele>
        <time>2014-09-01T13:57:38Z</time>
      </trkpt>
      <trkpt lat="46.00219" lon="6.79732">
        <ele>1980.022</ele>
        <time>2014-09-01T13:57:43Z</time>
      </trkpt>
      <trkpt lat="46.00219" lon="6.79734">
        <ele>1982.2188</ele>
        <time>2014-09-01T13:57:48Z</time>
      </trkpt>
      <trkpt lat="46.00217" lon="6.79735">
        <ele>1982.2188</ele>
        <time>2014-09-01T13:57:53Z</time>
      </trkpt>
      <trkpt lat="46.00217" lon="6.79739">
        <ele>1982.2188</ele>
        <time>2014-09-01T13:57:58Z</time>
      </trkpt>
      <trkpt lat="46.00217" lon="6.79744">
        <ele>1982.2188</ele>
        <time>2014-09-01T13:58:03Z</time>
      </trkpt>
      <trkpt lat="46.00215" lon="6.79744">
        <ele>1984.1903</ele>
        <time>2014-09-01T13:58:08Z</time>
      </trkpt>
      <trkpt lat="46.00214" lon="6.79744">
        <ele>1984.1903</ele>
        <time>2014-09-01T13:58:13Z</time>
      </trkpt>
      <trkpt lat="46.00213" lon="6.79741">
        <ele>1984.1903</ele>
        <time>2014-09-01T13:58:18Z</time>
      </trkpt>
      <trkpt lat="46.00211" lon="6.79739">
        <ele>1984.1903</ele>
        <time>2014-09-01T13:58:23Z</time>
      </trkpt>
      <trkpt lat="46.00211" lon="6.79738">
        <ele>1984.1903</ele>
        <time>2014-09-01T13:58:28Z</time>
      </trkpt>
      <trkpt lat="46.00209" lon="6.79736">
        <ele>1984.1903</ele>
        <time>2014-09-01T13:58:33Z</time>
      </trkpt>
      <trkpt lat="46.00207" lon="6.79734">
        <ele>1986.4034</ele>
        <time>2014-09-01T13:58:38Z</time>
      </trkpt>
      <trkpt lat="46.00204" lon="6.79732">
        <ele>1986.4034</ele>
        <time>2014-09-01T13:58:43Z</time>
      </trkpt>
      <trkpt lat="46.00202" lon="6.79732">
        <ele>1986.4034</ele>
        <time>2014-09-01T13:58:48Z</time>
      </trkpt>
      <trkpt lat="46.002" lon="6.79729">
        <ele>1986.4034</ele>
        <time>2014-09-01T13:58:53Z</time>
      </trkpt>
      <trkpt lat="46.00199" lon="6.79728">
        <ele>1988.5398</ele>
        <time>2014-09-01T13:58:58Z</time>
      </trkpt>
      <trkpt lat="46.00194" lon="6.79728">
        <ele>1988.5398</ele>
        <time>2014-09-01T13:59:03Z</time>
      </trkpt>
      <trkpt lat="46.00192" lon="6.79728">
        <ele>1988.5398</ele>
        <time>2014-09-01T13:59:08Z</time>
      </trkpt>
      <trkpt lat="46.00191" lon="6.79729">
        <ele>1988.5398</ele>
        <time>2014-09-01T13:59:13Z</time>
      </trkpt>
      <trkpt lat="46.00189" lon="6.79729">
        <ele>1990.4927</ele>
        <time>2014-09-01T13:59:18Z</time>
      </trkpt>
      <trkpt lat="46.00186" lon="6.79727">
        <ele>1990.4927</ele>
        <time>2014-09-01T13:59:23Z</time>
      </trkpt>
      <trkpt lat="46.00184" lon="6.79725">
        <ele>1990.4927</ele>
        <time>2014-09-01T13:59:28Z</time>
      </trkpt>
      <trkpt lat="46.00181" lon="6.79724">
        <ele>1990.4927</ele>
        <time>2014-09-01T13:59:33Z</time>
      </trkpt>
      <trkpt lat="46.00179" lon="6.79724">
        <ele>1992.4368</ele>
        <time>2014-09-01T13:59:38Z</time>
      </trkpt>
      <trkpt lat="46.00178" lon="6.79724">
        <ele>1992.4368</ele>
        <time>2014-09-01T13:59:43Z</time>
      </trkpt>
      <trkpt lat="46.00176" lon="6.79723">
        <ele>1992.4368</ele>
        <time>2014-09-01T13:59:48Z</time>
      </trkpt>
      <trkpt lat="46.00174" lon="6.79722">
        <ele>1992.4368</ele>
        <time>2014-09-01T13:59:53Z</time>
      </trkpt>
      <trkpt lat="46.00173" lon="6.79722">
        <ele>1992.4368</ele>
        <time>2014-09-01T13:59:58Z</time>
      </trkpt>
      <trkpt lat="46.00171" lon="6.79723">
        <ele>1992.4368</ele>
        <time>2014-09-01T14:00:03Z</time>
      </trkpt>
      <trkpt lat="46.00169" lon="6.79724">
        <ele>1994.2751</ele>
        <time>2014-09-01T14:00:08Z</time>
      </trkpt>
      <trkpt lat="46.00166" lon="6.79724">
        <ele>1994.2751</ele>
        <time>2014-09-01T14:00:13Z</time>
      </trkpt>
      <trkpt lat="46.00164" lon="6.79724">
        <ele>1994.2751</ele>
        <time>2014-09-01T14:00:18Z</time>
      </trkpt>
      <trkpt lat="46.00162" lon="6.79723">
        <ele>1994.2751</ele>
        <time>2014-09-01T14:00:23Z</time>
      </trkpt>
      <trkpt lat="46.00161" lon="6.79723">
        <ele>1996.0908</ele>
        <time>2014-09-01T14:00:28Z</time>
      </trkpt>
      <trkpt lat="46.00159" lon="6.79724">
        <ele>1996.0908</ele>
        <time>2014-09-01T14:00:33Z</time>
      </trkpt>
      <trkpt lat="46.00158" lon="6.79726">
        <ele>1996.0908</ele>
        <time>2014-09-01T14:00:38Z</time>
      </trkpt>
      <trkpt lat="46.00156" lon="6.79727">
        <ele>1996.0908</ele>
        <time>2014-09-01T14:00:43Z</time>
      </trkpt>
      <trkpt lat="46.00155" lon="6.79727">
        <ele>1996.0908</ele>
        <time>2014-09-01T14:00:48Z</time>
      </trkpt>
      <trkpt lat="46.00153" lon="6.79728">
        <ele>1996.0908</ele>
        <time>2014-09-01T14:00:53Z</time>
      </trkpt>
      <trkpt lat="46.00153" lon="6.79729">
        <ele>1997.8887</ele>
        <time>2014-09-01T14:00:58Z</time>
      </trkpt>
      <trkpt lat="46.00151" lon="6.79729">
        <ele>1997.8887</ele>
        <time>2014-09-01T14:01:03Z</time>
      </trkpt>
      <trkpt lat="46.0015" lon="6.79729">
        <ele>1997.8887</ele>
        <time>2014-09-01T14:01:08Z</time>
      </trkpt>
      <trkpt lat="46.0015" lon="6.7973">
        <ele>1997.8887</ele>
        <time>2014-09-01T14:01:13Z</time>
      </trkpt>
      <trkpt lat="46.0015" lon="6.79731">
        <ele>1997.8887</ele>
        <time>2014-09-01T14:01:18Z</time>
      </trkpt>
      <trkpt lat="46.00151" lon="6.79733">
        <ele>1997.8887</ele>
        <time>2014-09-01T14:01:23Z</time>
      </trkpt>
      <trkpt lat="46.00152" lon="6.79735">
        <ele>1997.8887</ele>
        <time>2014-09-01T14:01:28Z</time>
      </trkpt>
      <trkpt lat="46.00154" lon="6.7974">
        <ele>1999.9182</ele>
        <time>2014-09-01T14:01:33Z</time>
      </trkpt>
      <trkpt lat="46.00154" lon="6.79742">
        <ele>1999.9182</ele>
        <time>2014-09-01T14:01:38Z</time>
      </trkpt>
      <trkpt lat="46.00154" lon="6.79743">
        <ele>1999.9182</ele>
        <time>2014-09-01T14:01:43Z</time>
      </trkpt>
      <trkpt lat="46.00155" lon="6.79744">
        <ele>1999.9182</ele>
        <time>2014-09-01T14:01:48Z</time>
      </trkpt>
      <trkpt lat="46.00157" lon="6.79748">
        <ele>1999.9182</ele>
        <time>2014-09-01T14:01:53Z</time>
      </trkpt>
      <trkpt lat="46.00158" lon="6.79751">
        <ele>1999.9182</ele>
        <time>2014-09-01T14:01:58Z</time>
      </trkpt>
      <trkpt lat="46.00159" lon="6.79753">
        <ele>2002.1793</ele>
        <time>2014-09-01T14:02:03Z</time>
      </trkpt>
      <trkpt lat="46.00159" lon="6.79756">
        <ele>2002.1793</ele>
        <time>2014-09-01T14:02:08Z</time>
      </trkpt>
      <trkpt lat="46.0016" lon="6.7976">
        <ele>2002.1793</ele>
        <time>2014-09-01T14:02:13Z</time>
      </trkpt>
      <trkpt lat="46.00161" lon="6.79762">
        <ele>2002.1793</ele>
        <time>2014-09-01T14:02:18Z</time>
      </trkpt>
      <trkpt lat="46.00162" lon="6.79762">
        <ele>2002.1793</ele>
        <time>2014-09-01T14:02:23Z</time>
      </trkpt>
      <trkpt lat="46.00163" lon="6.79765">
        <ele>2004.3975</ele>
        <time>2014-09-01T14:02:28Z</time>
      </trkpt>
      <trkpt lat="46.00163" lon="6.79764">
        <ele>2004.3975</ele>
        <time>2014-09-01T14:02:33Z</time>
      </trkpt>
      <trkpt lat="46.00164" lon="6.79764">
        <ele>2004.3975</ele>
        <time>2014-09-01T14:02:38Z</time>
      </trkpt>
      <trkpt lat="46.00164" lon="6.79764">
        <ele>2004.3975</ele>
        <time>2014-09-01T14:02:43Z</time>
      </trkpt>
      <trkpt lat="46.00164" lon="6.79764">
        <ele>2004.3975</ele>
        <time>2014-09-01T14:02:48Z</time>
      </trkpt>
      <trkpt lat="46.00164" lon="6.79764">
        <ele>2004.3975</ele>
        <time>2014-09-01T14:02:53Z</time>
      </trkpt>
      <trkpt lat="46.00164" lon="6.79764">
        <ele>2004.3975</ele>
        <time>2014-09-01T14:02:58Z</time>
      </trkpt>
      <trkpt lat="46.00164" lon="6.79764">
        <ele>2004.3975</ele>
        <time>2014-09-01T14:03:03Z</time>
      </trkpt>
      <trkpt lat="46.00166" lon="6.79767">
        <ele>2004.3975</ele>
        <time>2014-09-01T14:03:08Z</time>
      </trkpt>
      <trkpt lat="46.00168" lon="6.79769">
        <ele>2004.3975</ele>
        <time>2014-09-01T14:03:13Z</time>
      </trkpt>
      <trkpt lat="46.00167" lon="6.79775">
        <ele>2006.5199</ele>
        <time>2014-09-01T14:03:18Z</time>
      </trkpt>
      <trkpt lat="46.00166" lon="6.79779">
        <ele>2006.5199</ele>
        <time>2014-09-01T14:03:23Z</time>
      </trkpt>
      <trkpt lat="46.00166" lon="6.79784">
        <ele>2006.5199</ele>
        <time>2014-09-01T14:03:28Z</time>
      </trkpt>
      <trkpt lat="46.00165" lon="6.79788">
        <ele>2006.5199</ele>
        <time>2014-09-01T14:03:33Z</time>
      </trkpt>
      <trkpt lat="46.00166" lon="6.79789">
        <ele>2008.8295</ele>
        <time>2014-09-01T14:03:38Z</time>
      </trkpt>
      <trkpt lat="46.00166" lon="6.79792">
        <ele>2008.8295</ele>
        <time>2014-09-01T14:03:43Z</time>
      </trkpt>
      <trkpt lat="46.00168" lon="6.79796">
        <ele>2008.8295</ele>
        <time>2014-09-01T14:03:48Z</time>
      </trkpt>
      <trkpt lat="46.00168" lon="6.79797">
        <ele>2008.8295</ele>
        <time>2014-09-01T14:03:53Z</time>
      </trkpt>
      <trkpt lat="46.00168" lon="6.79796">
        <ele>2008.8295</ele>
        <time>2014-09-01T14:03:58Z</time>
      </trkpt>
      <trkpt lat="46.00169" lon="6.79796">
        <ele>2008.8295</ele>
        <time>2014-09-01T14:04:03Z</time>
      </trkpt>
      <trkpt lat="46.00169" lon="6.79799">
        <ele>2011.1123</ele>
        <time>2014-09-01T14:04:08Z</time>
      </trkpt>
      <trkpt lat="46.00167" lon="6.79801">
        <ele>2011.1123</ele>
        <time>2014-09-01T14:04:13Z</time>
      </trkpt>
      <trkpt lat="46.00167" lon="6.79803">
        <ele>2011.1123</ele>
        <time>2014-09-01T14:04:18Z</time>
      </trkpt>
      <trkpt lat="46.00167" lon="6.79808">
        <ele>2011.1123</ele>
        <time>2014-09-01T14:04:23Z</time>
      </trkpt>
      <trkpt lat="46.00167" lon="6.7981">
        <ele>2011.1123</ele>
        <time>2014-09-01T14:04:28Z</time>
      </trkpt>
      <trkpt lat="46.00166" lon="6.7981">
        <ele>2013.357</ele>
        <time>2014-09-01T14:04:33Z</time>
      </trkpt>
      <trkpt lat="46.00164" lon="6.7981">
        <ele>2013.357</ele>
        <time>2014-09-01T14:04:38Z</time>
      </trkpt>
      <trkpt lat="46.00162" lon="6.79809">
        <ele>2013.357</ele>
        <time>2014-09-01T14:04:43Z</time>
      </trkpt>
      <trkpt lat="46.00161" lon="6.7981">
        <ele>2013.357</ele>
        <time>2014-09-01T14:04:48Z</time>
      </trkpt>
      <trkpt lat="46.00161" lon="6.79813">
        <ele>2013.357</ele>
        <time>2014-09-01T14:04:53Z</time>
      </trkpt>
      <trkpt lat="46.00162" lon="6.79817">
        <ele>2015.7556</ele>
        <time>2014-09-01T14:04:58Z</time>
      </trkpt>
      <trkpt lat="46.00162" lon="6.79819">
        <ele>2015.7556</ele>
        <time>2014-09-01T14:05:03Z</time>
      </trkpt>
      <trkpt lat="46.0016" lon="6.79821">
        <ele>2015.7556</ele>
        <time>2014-09-01T14:05:08Z</time>
      </trkpt>
      <trkpt lat="46.00158" lon="6.79821">
        <ele>2015.7556</ele>
        <time>2014-09-01T14:05:13Z</time>
      </trkpt>
      <trkpt lat="46.00158" lon="6.79821">
        <ele>2015.7556</ele>
        <time>2014-09-01T14:05:18Z</time>
      </trkpt>
      <trkpt lat="46.00159" lon="6.79822">
        <ele>2015.7556</ele>
        <time>2014-09-01T14:05:23Z</time>
      </trkpt>
      <trkpt lat="46.00158" lon="6.79826">
        <ele>2018.2831</ele>
        <time>2014-09-01T14:05:28Z</time>
      </trkpt>
      <trkpt lat="46.00157" lon="6.79828">
        <ele>2018.2831</ele>
        <time>2014-09-01T14:05:33Z</time>
      </trkpt>
      <trkpt lat="46.00157" lon="6.79829">
        <ele>2018.2831</ele>
        <time>2014-09-01T14:05:38Z</time>
      </trkpt>
      <trkpt lat="46.00156" lon="6.7983">
        <ele>2018.2831</ele>
        <time>2014-09-01T14:05:43Z</time>
      </trkpt>
      <trkpt lat="46.00154" lon="6.79829">
        <ele>2018.2831</ele>
        <time>2014-09-01T14:05:48Z</time>
      </trkpt>
      <trkpt lat="46.00151" lon="6.7983">
        <ele>2018.2831</ele>
        <time>2014-09-01T14:05:53Z</time>
      </trkpt>
      <trkpt lat="46.00148" lon="6.7983">
        <ele>2020.916</ele>
        <time>2014-09-01T14:05:58Z</time>
      </trkpt>
      <trkpt lat="46.00146" lon="6.79828">
        <ele>2020.916</ele>
        <time>2014-09-01T14:06:03Z</time>
      </trkpt>
      <trkpt lat="46.00144" lon="6.79827">
        <ele>2020.916</ele>
        <time>2014-09-01T14:06:08Z</time>
      </trkpt>
      <trkpt lat="46.00142" lon="6.79825">
        <ele>2020.916</ele>
        <time>2014-09-01T14:06:13Z</time>
      </trkpt>
      <trkpt lat="46.0014" lon="6.79826">
        <ele>2023.5605</ele>
        <time>2014-09-01T14:06:18Z</time>
      </trkpt>
      <trkpt lat="46.0014" lon="6.79826">
        <ele>2023.5605</ele>
        <time>2014-09-01T14:06:23Z</time>
      </trkpt>
      <trkpt lat="46.0014" lon="6.79827">
        <ele>2023.5605</ele>
        <time>2014-09-01T14:06:28Z</time>
      </trkpt>
      <trkpt lat="46.0014" lon="6.79828">
        <ele>2023.5605</ele>
        <time>2014-09-01T14:06:33Z</time>
      </trkpt>
      <trkpt lat="46.00141" lon="6.79828">
        <ele>2023.5605</ele>
        <time>2014-09-01T14:06:38Z</time>
      </trkpt>
      <trkpt lat="46.00142" lon="6.7983">
        <ele>2023.5605</ele>
        <time>2014-09-01T14:06:43Z</time>
      </trkpt>
      <trkpt lat="46.00143" lon="6.79833">
        <ele>2023.5605</ele>
        <time>2014-09-01T14:06:48Z</time>
      </trkpt>
      <trkpt lat="46.00144" lon="6.79836">
        <ele>2026.2446</ele>
        <time>2014-09-01T14:06:53Z</time>
      </trkpt>
      <trkpt lat="46.00144" lon="6.7984">
        <ele>2026.2446</ele>
        <time>2014-09-01T14:06:58Z</time>
      </trkpt>
      <trkpt lat="46.00144" lon="6.79842">
        <ele>2026.2446</ele>
        <time>2014-09-01T14:07:03Z</time>
      </trkpt>
      <trkpt lat="46.00144" lon="6.79843">
        <ele>2026.2446</ele>
        <time>2014-09-01T14:07:08Z</time>
      </trkpt>
      <trkpt lat="46.00142" lon="6.79841">
        <ele>2026.2446</ele>
        <time>2014-09-01T14:07:13Z</time>
      </trkpt>
      <trkpt lat="46.0014" lon="6.79838">
        <ele>2028.7634</ele>
        <time>2014-09-01T14:07:18Z</time>
      </trkpt>
      <trkpt lat="46.00138" lon="6.79838">
        <ele>2028.7634</ele>
        <time>2014-09-01T14:07:23Z</time>
      </trkpt>
      <trkpt lat="46.00137" lon="6.79838">
        <ele>2028.7634</ele>
        <time>2014-09-01T14:07:28Z</time>
      </trkpt>
      <trkpt lat="46.00137" lon="6.79842">
        <ele>2028.7634</ele>
        <time>2014-09-01T14:07:33Z</time>
      </trkpt>
      <trkpt lat="46.00138" lon="6.79846">
        <ele>2028.7634</ele>
        <time>2014-09-01T14:07:38Z</time>
      </trkpt>
      <trkpt lat="46.00137" lon="6.79849">
        <ele>2031.4899</ele>
        <time>2014-09-01T14:07:43Z</time>
      </trkpt>
      <trkpt lat="46.00136" lon="6.7985">
        <ele>2031.4899</ele>
        <time>2014-09-01T14:07:48Z</time>
      </trkpt>
      <trkpt lat="46.00135" lon="6.79848">
        <ele>2031.4899</ele>
        <time>2014-09-01T14:07:53Z</time>
      </trkpt>
      <trkpt lat="46.00133" lon="6.79847">
        <ele>2031.4899</ele>
        <time>2014-09-01T14:07:58Z</time>
      </trkpt>
      <trkpt lat="46.00131" lon="6.79846">
        <ele>2031.4899</ele>
        <time>2014-09-01T14:08:03Z</time>
      </trkpt>
      <trkpt lat="46.0013" lon="6.79846">
        <ele>2031.4899</ele>
        <time>2014-09-01T14:08:08Z</time>
      </trkpt>
      <trkpt lat="46.0013" lon="6.79848">
        <ele>2034.3937</ele>
        <time>2014-09-01T14:08:13Z</time>
      </trkpt>
      <trkpt lat="46.0013" lon="6.7985">
        <ele>2034.3937</ele>
        <time>2014-09-01T14:08:18Z</time>
      </trkpt>
      <trkpt lat="46.00131" lon="6.79853">
        <ele>2034.3937</ele>
        <time>2014-09-01T14:08:23Z</time>
      </trkpt>
      <trkpt lat="46.00131" lon="6.79853">
        <ele>2034.3937</ele>
        <time>2014-09-01T14:08:28Z</time>
      </trkpt>
      <trkpt lat="46.00128" lon="6.79854">
        <ele>2034.3937</ele>
        <time>2014-09-01T14:08:33Z</time>
      </trkpt>
      <trkpt lat="46.00126" lon="6.79853">
        <ele>2034.3937</ele>
        <time>2014-09-01T14:08:38Z</time>
      </trkpt>
      <trkpt lat="46.00124" lon="6.79852">
        <ele>2037.2451</ele>
        <time>2014-09-01T14:08:43Z</time>
      </trkpt>
      <trkpt lat="46.00124" lon="6.79852">
        <ele>2037.2451</ele>
        <time>2014-09-01T14:08:48Z</time>
      </trkpt>
      <trkpt lat="46.00125" lon="6.79853">
        <ele>2037.2451</ele>
        <time>2014-09-01T14:08:53Z</time>
      </trkpt>
      <trkpt lat="46.00125" lon="6.79852">
        <ele>2037.2451</ele>
        <time>2014-09-01T14:08:58Z</time>
      </trkpt>
      <trkpt lat="46.00125" lon="6.79852">
        <ele>2037.2451</ele>
        <time>2014-09-01T14:09:03Z</time>
      </trkpt>
      <trkpt lat="46.00125" lon="6.79851">
        <ele>2037.2451</ele>
        <time>2014-09-01T14:09:08Z</time>
      </trkpt>
      <trkpt lat="46.00122" lon="6.79849">
        <ele>2037.2451</ele>
        <time>2014-09-01T14:09:13Z</time>
      </trkpt>
      <trkpt lat="46.00121" lon="6.79849">
        <ele>2037.2451</ele>
        <time>2014-09-01T14:09:18Z</time>
      </trkpt>
      <trkpt lat="46.00118" lon="6.7985">
        <ele>2039.8164</ele>
        <time>2014-09-01T14:09:23Z</time>
      </trkpt>
      <trkpt lat="46.00116" lon="6.79851">
        <ele>2039.8164</ele>
        <time>2014-09-01T14:09:28Z</time>
      </trkpt>
      <trkpt lat="46.00113" lon="6.79851">
        <ele>2039.8164</ele>
        <time>2014-09-01T14:09:33Z</time>
      </trkpt>
      <trkpt lat="46.0011" lon="6.79851">
        <ele>2039.8164</ele>
        <time>2014-09-01T14:09:38Z</time>
      </trkpt>
      <trkpt lat="46.00108" lon="6.7985">
        <ele>2042.3445</ele>
        <time>2014-09-01T14:09:43Z</time>
      </trkpt>
      <trkpt lat="46.00106" lon="6.79848">
        <ele>2042.3445</ele>
        <time>2014-09-01T14:09:48Z</time>
      </trkpt>
      <trkpt lat="46.00102" lon="6.79848">
        <ele>2042.3445</ele>
        <time>2014-09-01T14:09:53Z</time>
      </trkpt>
      <trkpt lat="46.001" lon="6.79849">
        <ele>2042.3445</ele>
        <time>2014-09-01T14:09:58Z</time>
      </trkpt>
      <trkpt lat="46.00098" lon="6.7985">
        <ele>2044.7749</ele>
        <time>2014-09-01T14:10:03Z</time>
      </trkpt>
      <trkpt lat="46.00095" lon="6.79851">
        <ele>2044.7749</ele>
        <time>2014-09-01T14:10:08Z</time>
      </trkpt>
      <trkpt lat="46.00093" lon="6.79853">
        <ele>2044.7749</ele>
        <time>2014-09-01T14:10:13Z</time>
      </trkpt>
      <trkpt lat="46.00091" lon="6.79854">
        <ele>2044.7749</ele>
        <time>2014-09-01T14:10:18Z</time>
      </trkpt>
      <trkpt lat="46.00088" lon="6.79855">
        <ele>2047.0864</ele>
        <time>2014-09-01T14:10:23Z</time>
      </trkpt>
      <trkpt lat="46.00087" lon="6.79856">
        <ele>2047.0864</ele>
        <time>2014-09-01T14:10:28Z</time>
      </trkpt>
      <trkpt lat="46.00085" lon="6.79857">
        <ele>2047.0864</ele>
        <time>2014-09-01T14:10:33Z</time>
      </trkpt>
      <trkpt lat="46.00083" lon="6.79856">
        <ele>2047.0864</ele>
        <time>2014-09-01T14:10:38Z</time>
      </trkpt>
      <trkpt lat="46.00083" lon="6.79856">
        <ele>2047.0864</ele>
        <time>2014-09-01T14:10:43Z</time>
      </trkpt>
      <trkpt lat="46.0008" lon="6.79857">
        <ele>2047.0864</ele>
        <time>2014-09-01T14:10:48Z</time>
      </trkpt>
      <trkpt lat="46.00078" lon="6.79856">
        <ele>2049.49</ele>
        <time>2014-09-01T14:10:53Z</time>
      </trkpt>
      <trkpt lat="46.00076" lon="6.79856">
        <ele>2049.49</ele>
        <time>2014-09-01T14:10:58Z</time>
      </trkpt>
      <trkpt lat="46.00076" lon="6.79856">
        <ele>2049.49</ele>
        <time>2014-09-01T14:11:03Z</time>
      </trkpt>
      <trkpt lat="46.00074" lon="6.79857">
        <ele>2049.49</ele>
        <time>2014-09-01T14:11:08Z</time>
      </trkpt>
      <trkpt lat="46.00071" lon="6.79856">
        <ele>2049.49</ele>
        <time>2014-09-01T14:11:13Z</time>
      </trkpt>
      <trkpt lat="46.0007" lon="6.79855">
        <ele>2049.49</ele>
        <time>2014-09-01T14:11:18Z</time>
      </trkpt>
      <trkpt lat="46.00069" lon="6.79856">
        <ele>2049.49</ele>
        <time>2014-09-01T14:11:23Z</time>
      </trkpt>
      <trkpt lat="46.00067" lon="6.79856">
        <ele>2051.9363</ele>
        <time>2014-09-01T14:11:28Z</time>
      </trkpt>
      <trkpt lat="46.00066" lon="6.79855">
        <ele>2051.9363</ele>
        <time>2014-09-01T14:11:33Z</time>
      </trkpt>
      <trkpt lat="46.00064" lon="6.79855">
        <ele>2051.9363</ele>
        <time>2014-09-01T14:11:38Z</time>
      </trkpt>
      <trkpt lat="46.00061" lon="6.79854">
        <ele>2051.9363</ele>
        <time>2014-09-01T14:11:43Z</time>
      </trkpt>
      <trkpt lat="46.0006" lon="6.79853">
        <ele>2051.9363</ele>
        <time>2014-09-01T14:11:48Z</time>
      </trkpt>
      <trkpt lat="46.00059" lon="6.79852">
        <ele>2051.9363</ele>
        <time>2014-09-01T14:11:53Z</time>
      </trkpt>
      <trkpt lat="46.00058" lon="6.79851">
        <ele>2054.2634</ele>
        <time>2014-09-01T14:11:58Z</time>
      </trkpt>
      <trkpt lat="46.00056" lon="6.79853">
        <ele>2054.2634</ele>
        <time>2014-09-01T14:12:03Z</time>
      </trkpt>
      <trkpt lat="46.00054" lon="6.79854">
        <ele>2054.2634</ele>
        <time>2014-09-01T14:12:08Z</time>
      </trkpt>
      <trkpt lat="46.00051" lon="6.79853">
        <ele>2054.2634</ele>
        <time>2014-09-01T14:12:13Z</time>
      </trkpt>
      <trkpt lat="46.0005" lon="6.79853">
        <ele>2056.6394</ele>
        <time>2014-09-01T14:12:18Z</time>
      </trkpt>
      <trkpt lat="46.00048" lon="6.79851">
        <ele>2056.6394</ele>
        <time>2014-09-01T14:12:23Z</time>
      </trkpt>
      <trkpt lat="46.00046" lon="6.7985">
        <ele>2056.6394</ele>
        <time>2014-09-01T14:12:28Z</time>
      </trkpt>
      <trkpt lat="46.00044" lon="6.79849">
        <ele>2056.6394</ele>
        <time>2014-09-01T14:12:33Z</time>
      </trkpt>
      <trkpt lat="46.00041" lon="6.79846">
        <ele>2059.2485</ele>
        <time>2014-09-01T14:12:38Z</time>
      </trkpt>
      <trkpt lat="46.0004" lon="6.79845">
        <ele>2059.2485</ele>
        <time>2014-09-01T14:12:43Z</time>
      </trkpt>
      <trkpt lat="46.00039" lon="6.79844">
        <ele>2059.2485</ele>
        <time>2014-09-01T14:12:48Z</time>
      </trkpt>
      <trkpt lat="46.00038" lon="6.79844">
        <ele>2059.2485</ele>
        <time>2014-09-01T14:12:53Z</time>
      </trkpt>
      <trkpt lat="46.00037" lon="6.79843">
        <ele>2059.2485</ele>
        <time>2014-09-01T14:12:58Z</time>
      </trkpt>
      <trkpt lat="46.00036" lon="6.79844">
        <ele>2059.2485</ele>
        <time>2014-09-01T14:13:03Z</time>
      </trkpt>
      <trkpt lat="46.00034" lon="6.79844">
        <ele>2059.2485</ele>
        <time>2014-09-01T14:13:08Z</time>
      </trkpt>
      <trkpt lat="46.00031" lon="6.79844">
        <ele>2062.0154</ele>
        <time>2014-09-01T14:13:13Z</time>
      </trkpt>
      <trkpt lat="46.00029" lon="6.79842">
        <ele>2062.0154</ele>
        <time>2014-09-01T14:13:18Z</time>
      </trkpt>
      <trkpt lat="46.00026" lon="6.79841">
        <ele>2062.0154</ele>
        <time>2014-09-01T14:13:23Z</time>
      </trkpt>
      <trkpt lat="46.00023" lon="6.79842">
        <ele>2062.0154</ele>
        <time>2014-09-01T14:13:28Z</time>
      </trkpt>
      <trkpt lat="46.00019" lon="6.79842">
        <ele>2064.971</ele>
        <time>2014-09-01T14:13:33Z</time>
      </trkpt>
      <trkpt lat="46.00014" lon="6.79842">
        <ele>2064.971</ele>
        <time>2014-09-01T14:13:38Z</time>
      </trkpt>
      <trkpt lat="46.00011" lon="6.79842">
        <ele>2064.971</ele>
        <time>2014-09-01T14:13:43Z</time>
      </trkpt>
      <trkpt lat="46.00008" lon="6.79843">
        <ele>2067.7253</ele>
        <time>2014-09-01T14:13:48Z</time>
      </trkpt>
      <trkpt lat="46.00004" lon="6.79843">
        <ele>2067.7253</ele>
        <time>2014-09-01T14:13:53Z</time>
      </trkpt>
      <trkpt lat="46" lon="6.79844">
        <ele>2067.7253</ele>
        <time>2014-09-01T14:13:58Z</time>
      </trkpt>
      <trkpt lat="45.99997" lon="6.79844">
        <ele>2070.3071</ele>
        <time>2014-09-01T14:14:03Z</time>
      </trkpt>
      <trkpt lat="45.99993" lon="6.79843">
        <ele>2070.3071</ele>
        <time>2014-09-01T14:14:08Z</time>
      </trkpt>
      <trkpt lat="45.99991" lon="6.79843">
        <ele>2070.3071</ele>
        <time>2014-09-01T14:14:13Z</time>
      </trkpt>
      <trkpt lat="45.99989" lon="6.79845">
        <ele>2070.3071</ele>
        <time>2014-09-01T14:14:18Z</time>
      </trkpt>
      <trkpt lat="45.99986" lon="6.79846">
        <ele>2072.7861</ele>
        <time>2014-09-01T14:14:23Z</time>
      </trkpt>
      <trkpt lat="45.99983" lon="6.79849">
        <ele>2072.7861</ele>
        <time>2014-09-01T14:14:28Z</time>
      </trkpt>
      <trkpt lat="45.99984" lon="6.79849">
        <ele>2072.7861</ele>
        <time>2014-09-01T14:14:33Z</time>
      </trkpt>
      <trkpt lat="45.99984" lon="6.79849">
        <ele>2072.7861</ele>
        <time>2014-09-01T14:14:38Z</time>
      </trkpt>
      <trkpt lat="45.99983" lon="6.79849">
        <ele>2072.7861</ele>
        <time>2014-09-01T14:14:43Z</time>
      </trkpt>
      <trkpt lat="45.99983" lon="6.79848">
        <ele>2072.7861</ele>
        <time>2014-09-01T14:14:48Z</time>
      </trkpt>
      <trkpt lat="45.99984" lon="6.79848">
        <ele>2072.7861</ele>
        <time>2014-09-01T14:14:53Z</time>
      </trkpt>
      <trkpt lat="45.99983" lon="6.79848">
        <ele>2072.7861</ele>
        <time>2014-09-01T14:14:58Z</time>
      </trkpt>
      <trkpt lat="45.9998" lon="6.79851">
        <ele>2075.0835</ele>
        <time>2014-09-01T14:15:03Z</time>
      </trkpt>
      <trkpt lat="45.99978" lon="6.79854">
        <ele>2075.0835</ele>
        <time>2014-09-01T14:15:08Z</time>
      </trkpt>
      <trkpt lat="45.99974" lon="6.79859">
        <ele>2075.0835</ele>
        <time>2014-09-01T14:15:13Z</time>
      </trkpt>
      <trkpt lat="45.99971" lon="6.79862">
        <ele>2077.04</ele>
        <time>2014-09-01T14:15:18Z</time>
      </trkpt>
      <trkpt lat="45.99967" lon="6.79864">
        <ele>2077.04</ele>
        <time>2014-09-01T14:15:23Z</time>
      </trkpt>
      <trkpt lat="45.99963" lon="6.79866">
        <ele>2077.04</ele>
        <time>2014-09-01T14:15:28Z</time>
      </trkpt>
      <trkpt lat="45.9996" lon="6.79869">
        <ele>2078.6821</ele>
        <time>2014-09-01T14:15:33Z</time>
      </trkpt>
      <trkpt lat="45.99957" lon="6.79871">
        <ele>2078.6821</ele>
        <time>2014-09-01T14:15:38Z</time>
      </trkpt>
      <trkpt lat="45.99954" lon="6.79874">
        <ele>2078.6821</ele>
        <time>2014-09-01T14:15:43Z</time>
      </trkpt>
      <trkpt lat="45.99953" lon="6.79878">
        <ele>2080.0933</ele>
        <time>2014-09-01T14:15:48Z</time>
      </trkpt>
      <trkpt lat="45.9995" lon="6.79881">
        <ele>2080.0933</ele>
        <time>2014-09-01T14:15:53Z</time>
      </trkpt>
      <trkpt lat="45.99947" lon="6.79883">
        <ele>2080.0933</ele>
        <time>2014-09-01T14:15:58Z</time>
      </trkpt>
      <trkpt lat="45.99946" lon="6.79884">
        <ele>2080.0933</ele>
        <time>2014-09-01T14:16:03Z</time>
      </trkpt>
      <trkpt lat="45.99946" lon="6.79883">
        <ele>2080.0933</ele>
        <time>2014-09-01T14:16:08Z</time>
      </trkpt>
      <trkpt lat="45.99946" lon="6.79883">
        <ele>2080.0933</ele>
        <time>2014-09-01T14:16:13Z</time>
      </trkpt>
      <trkpt lat="45.99946" lon="6.79883">
        <ele>2081.5232</ele>
        <time>2014-09-01T14:16:18Z</time>
      </trkpt>
      <trkpt lat="45.99949" lon="6.79883">
        <ele>2081.5232</ele>
        <time>2014-09-01T14:16:23Z</time>
      </trkpt>
      <trkpt lat="45.9995" lon="6.79884">
        <ele>2081.5232</ele>
        <time>2014-09-01T14:16:28Z</time>
      </trkpt>
      <trkpt lat="45.9995" lon="6.79884">
        <ele>2081.5232</ele>
        <time>2014-09-01T14:16:33Z</time>
      </trkpt>
      <trkpt lat="45.9995" lon="6.79883">
        <ele>2081.5232</ele>
        <time>2014-09-01T14:16:38Z</time>
      </trkpt>
      <trkpt lat="45.9995" lon="6.79882">
        <ele>2081.5232</ele>
        <time>2014-09-01T14:16:43Z</time>
      </trkpt>
      <trkpt lat="45.9995" lon="6.79881">
        <ele>2081.5232</ele>
        <time>2014-09-01T14:16:48Z</time>
      </trkpt>
      <trkpt lat="45.99951" lon="6.79882">
        <ele>2081.5232</ele>
        <time>2014-09-01T14:16:53Z</time>
      </trkpt>
      <trkpt lat="45.99951" lon="6.79884">
        <ele>2081.5232</ele>
        <time>2014-09-01T14:16:58Z</time>
      </trkpt>
      <trkpt lat="45.99951" lon="6.79885">
        <ele>2082.8445</ele>
        <time>2014-09-01T14:17:03Z</time>
      </trkpt>
      <trkpt lat="45.9995" lon="6.79883">
        <ele>2082.8445</ele>
        <time>2014-09-01T14:17:08Z</time>
      </trkpt>
      <trkpt lat="45.99948" lon="6.79881">
        <ele>2082.8445</ele>
        <time>2014-09-01T14:17:13Z</time>
      </trkpt>
      <trkpt lat="45.99948" lon="6.79879">
        <ele>2082.8445</ele>
        <time>2014-09-01T14:17:18Z</time>
      </trkpt>
      <trkpt lat="45.99948" lon="6.79879">
        <ele>2082.8445</ele>
        <time>2014-09-01T14:17:23Z</time>
      </trkpt>
      <trkpt lat="45.99949" lon="6.79879">
        <ele>2082.8445</ele>
        <time>2014-09-01T14:17:28Z</time>
      </trkpt>
      <trkpt lat="45.99951" lon="6.79878">
        <ele>2082.8445</ele>
        <time>2014-09-01T14:17:33Z</time>
      </trkpt>
      <trkpt lat="45.99952" lon="6.79878">
        <ele>2084.082</ele>
        <time>2014-09-01T14:17:38Z</time>
      </trkpt>
      <trkpt lat="45.99952" lon="6.79878">
        <ele>2084.082</ele>
        <time>2014-09-01T14:17:43Z</time>
      </trkpt>
      <trkpt lat="45.99952" lon="6.79878">
        <ele>2084.082</ele>
        <time>2014-09-01T14:18:18Z</time>
      </trkpt>
      <trkpt lat="45.9995" lon="6.79878">
        <ele>2084.082</ele>
        <time>2014-09-01T14:18:23Z</time>
      </trkpt>
      <trkpt lat="45.99949" lon="6.79878">
        <ele>2084.082</ele>
        <time>2014-09-01T14:18:28Z</time>
      </trkpt>
      <trkpt lat="45.99947" lon="6.79879">
        <ele>2084.082</ele>
        <time>2014-09-01T14:18:33Z</time>
      </trkpt>
      <trkpt lat="45.99946" lon="6.79879">
        <ele>2084.082</ele>
        <time>2014-09-01T14:18:38Z</time>
      </trkpt>
      <trkpt lat="45.99945" lon="6.79881">
        <ele>2084.082</ele>
        <time>2014-09-01T14:18:43Z</time>
      </trkpt>
      <trkpt lat="45.99945" lon="6.79882">
        <ele>2084.082</ele>
        <time>2014-09-01T14:18:48Z</time>
      </trkpt>
      <trkpt lat="45.99945" lon="6.79882">
        <ele>2084.082</ele>
        <time>2014-09-01T14:18:53Z</time>
      </trkpt>
      <trkpt lat="45.99945" lon="6.79883">
        <ele>2084.082</ele>
        <time>2014-09-01T14:18:58Z</time>
      </trkpt>
      <trkpt lat="45.99945" lon="6.79883">
        <ele>2085.4617</ele>
        <time>2014-09-01T14:19:03Z</time>
      </trkpt>
      <trkpt lat="45.99945" lon="6.79884">
        <ele>2085.4617</ele>
        <time>2014-09-01T14:19:08Z</time>
      </trkpt>
      <trkpt lat="45.99946" lon="6.79884">
        <ele>2085.4617</ele>
        <time>2014-09-01T14:19:13Z</time>
      </trkpt>
      <trkpt lat="45.99946" lon="6.79884">
        <ele>2085.4617</ele>
        <time>2014-09-01T14:19:18Z</time>
      </trkpt>
      <trkpt lat="45.99946" lon="6.79885">
        <ele>2085.4617</ele>
        <time>2014-09-01T14:19:23Z</time>
      </trkpt>
      <trkpt lat="45.99946" lon="6.79884">
        <ele>2085.4617</ele>
        <time>2014-09-01T14:19:28Z</time>
      </trkpt>
      <trkpt lat="45.99946" lon="6.79885">
        <ele>2085.4617</ele>
        <time>2014-09-01T14:19:33Z</time>
      </trkpt>
      <trkpt lat="45.99946" lon="6.79884">
        <ele>2085.4617</ele>
        <time>2014-09-01T14:19:38Z</time>
      </trkpt>
      <trkpt lat="45.99946" lon="6.79885">
        <ele>2085.4617</ele>
        <time>2014-09-01T14:19:43Z</time>
      </trkpt>
      <trkpt lat="45.99946" lon="6.79887">
        <ele>2085.4617</ele>
        <time>2014-09-01T14:19:48Z</time>
      </trkpt>
      <trkpt lat="45.99947" lon="6.79888">
        <ele>2085.4617</ele>
        <time>2014-09-01T14:19:53Z</time>
      </trkpt>
      <trkpt lat="45.99947" lon="6.79887">
        <ele>2085.4617</ele>
        <time>2014-09-01T14:19:58Z</time>
      </trkpt>
      <trkpt lat="45.99947" lon="6.79887">
        <ele>2085.4617</ele>
        <time>2014-09-01T14:20:03Z</time>
      </trkpt>
      <trkpt lat="45.99947" lon="6.79887">
        <ele>2085.4617</ele>
        <time>2014-09-01T14:20:08Z</time>
      </trkpt>
      <trkpt lat="45.99948" lon="6.79888">
        <ele>2085.4617</ele>
        <time>2014-09-01T14:20:13Z</time>
      </trkpt>
      <trkpt lat="45.99948" lon="6.79889">
        <ele>2085.4617</ele>
        <time>2014-09-01T14:20:18Z</time>
      </trkpt>
      <trkpt lat="45.99948" lon="6.7989">
        <ele>2085.4617</ele>
        <time>2014-09-01T14:20:23Z</time>
      </trkpt>
      <trkpt lat="45.99945" lon="6.79892">
        <ele>2086.6587</ele>
        <time>2014-09-01T14:20:28Z</time>
      </trkpt>
      <trkpt lat="45.99939" lon="6.79894">
        <ele>2086.6587</ele>
        <time>2014-09-01T14:20:33Z</time>
      </trkpt>
      <trkpt lat="45.99936" lon="6.79897">
        <ele>2087.503</ele>
        <time>2014-09-01T14:20:38Z</time>
      </trkpt>
      <trkpt lat="45.99932" lon="6.79903">
        <ele>2087.503</ele>
        <time>2014-09-01T14:20:43Z</time>
      </trkpt>
      <trkpt lat="45.99929" lon="6.79906">
        <ele>2087.503</ele>
        <time>2014-09-01T14:20:48Z</time>
      </trkpt>
      <trkpt lat="45.99927" lon="6.79908">
        <ele>2088.096</ele>
        <time>2014-09-01T14:20:53Z</time>
      </trkpt>
      <trkpt lat="45.99922" lon="6.79914">
        <ele>2088.096</ele>
        <time>2014-09-01T14:20:58Z</time>
      </trkpt>
      <trkpt lat="45.99919" lon="6.79918">
        <ele>2088.5625</ele>
        <time>2014-09-01T14:21:03Z</time>
      </trkpt>
      <trkpt lat="45.99917" lon="6.7992">
        <ele>2088.5625</ele>
        <time>2014-09-01T14:21:08Z</time>
      </trkpt>
      <trkpt lat="45.99915" lon="6.79923">
        <ele>2088.5625</ele>
        <time>2014-09-01T14:21:13Z</time>
      </trkpt>
      <trkpt lat="45.99913" lon="6.79927">
        <ele>2088.5625</ele>
        <time>2014-09-01T14:21:18Z</time>
      </trkpt>
      <trkpt lat="45.99911" lon="6.79929">
        <ele>2088.845</ele>
        <time>2014-09-01T14:21:23Z</time>
      </trkpt>
      <trkpt lat="45.99908" lon="6.79928">
        <ele>2088.845</ele>
        <time>2014-09-01T14:21:28Z</time>
      </trkpt>
      <trkpt lat="45.99905" lon="6.79929">
        <ele>2088.845</ele>
        <time>2014-09-01T14:21:33Z</time>
      </trkpt>
      <trkpt lat="45.99902" lon="6.79928">
        <ele>2089.3079</ele>
        <time>2014-09-01T14:21:38Z</time>
      </trkpt>
      <trkpt lat="45.999" lon="6.79928">
        <ele>2089.3079</ele>
        <time>2014-09-01T14:21:43Z</time>
      </trkpt>
      <trkpt lat="45.99897" lon="6.79927">
        <ele>2089.3079</ele>
        <time>2014-09-01T14:21:48Z</time>
      </trkpt>
      <trkpt lat="45.99892" lon="6.79928">
        <ele>2089.7563</ele>
        <time>2014-09-01T14:21:53Z</time>
      </trkpt>
      <trkpt lat="45.99889" lon="6.79926">
        <ele>2089.7563</ele>
        <time>2014-09-01T14:21:58Z</time>
      </trkpt>
      <trkpt lat="45.99888" lon="6.79927">
        <ele>2089.7563</ele>
        <time>2014-09-01T14:22:03Z</time>
      </trkpt>
      <trkpt lat="45.99887" lon="6.79928">
        <ele>2089.7563</ele>
        <time>2014-09-01T14:22:08Z</time>
      </trkpt>
      <trkpt lat="45.99885" lon="6.7993">
        <ele>2089.7563</ele>
        <time>2014-09-01T14:22:13Z</time>
      </trkpt>
      <trkpt lat="45.99883" lon="6.79932">
        <ele>2090.167</ele>
        <time>2014-09-01T14:22:18Z</time>
      </trkpt>
      <trkpt lat="45.99879" lon="6.79933">
        <ele>2090.167</ele>
        <time>2014-09-01T14:22:23Z</time>
      </trkpt>
      <trkpt lat="45.99876" lon="6.79929">
        <ele>2090.167</ele>
        <time>2014-09-01T14:22:28Z</time>
      </trkpt>
      <trkpt lat="45.99877" lon="6.7993">
        <ele>2090.167</ele>
        <time>2014-09-01T14:22:33Z</time>
      </trkpt>
      <trkpt lat="45.99876" lon="6.79931">
        <ele>2090.4324</ele>
        <time>2014-09-01T14:22:38Z</time>
      </trkpt>
      <trkpt lat="45.99875" lon="6.79932">
        <ele>2090.4324</ele>
        <time>2014-09-01T14:22:43Z</time>
      </trkpt>
      <trkpt lat="45.99873" lon="6.7993">
        <ele>2090.4324</ele>
        <time>2014-09-01T14:22:48Z</time>
      </trkpt>
      <trkpt lat="45.99871" lon="6.79928">
        <ele>2090.4324</ele>
        <time>2014-09-01T14:22:53Z</time>
      </trkpt>
      <trkpt lat="45.9987" lon="6.79927">
        <ele>2090.4324</ele>
        <time>2014-09-01T14:22:58Z</time>
      </trkpt>
      <trkpt lat="45.99868" lon="6.79922">
        <ele>2090.9143</ele>
        <time>2014-09-01T14:23:03Z</time>
      </trkpt>
      <trkpt lat="45.99864" lon="6.79918">
        <ele>2090.9143</ele>
        <time>2014-09-01T14:23:08Z</time>
      </trkpt>
      <trkpt lat="45.99863" lon="6.79915">
        <ele>2090.9143</ele>
        <time>2014-09-01T14:23:13Z</time>
      </trkpt>
      <trkpt lat="45.99859" lon="6.79914">
        <ele>2091.5872</ele>
        <time>2014-09-01T14:23:18Z</time>
      </trkpt>
      <trkpt lat="45.99859" lon="6.79914">
        <ele>2091.5872</ele>
        <time>2014-09-01T14:23:23Z</time>
      </trkpt>
      <trkpt lat="45.99855" lon="6.79909">
        <ele>2091.5872</ele>
        <time>2014-09-01T14:23:33Z</time>
      </trkpt>
      <trkpt lat="45.99843" lon="6.79899">
        <ele>2092.3398</ele>
        <time>2014-09-01T14:23:38Z</time>
      </trkpt>
      <trkpt lat="45.99838" lon="6.79896">
        <ele>2092.3398</ele>
        <time>2014-09-01T14:23:43Z</time>
      </trkpt>
      <trkpt lat="45.99838" lon="6.79895">
        <ele>2092.3398</ele>
        <time>2014-09-01T14:23:48Z</time>
      </trkpt>
      <trkpt lat="45.99836" lon="6.79895">
        <ele>2092.3398</ele>
        <time>2014-09-01T14:23:53Z</time>
      </trkpt>
      <trkpt lat="45.99835" lon="6.79894">
        <ele>2093.1265</ele>
        <time>2014-09-01T14:23:58Z</time>
      </trkpt>
      <trkpt lat="45.99835" lon="6.79894">
        <ele>2093.1265</ele>
        <time>2014-09-01T14:24:03Z</time>
      </trkpt>
      <trkpt lat="45.99835" lon="6.79887">
        <ele>2093.1265</ele>
        <time>2014-09-01T14:24:08Z</time>
      </trkpt>
      <trkpt lat="45.99833" lon="6.79884">
        <ele>2093.1265</ele>
        <time>2014-09-01T14:24:13Z</time>
      </trkpt>
      <trkpt lat="45.99826" lon="6.7988">
        <ele>2094.2073</ele>
        <time>2014-09-01T14:24:18Z</time>
      </trkpt>
      <trkpt lat="45.99819" lon="6.79874">
        <ele>2094.2073</ele>
        <time>2014-09-01T14:24:23Z</time>
      </trkpt>
      <trkpt lat="45.99818" lon="6.79875">
        <ele>2095.1597</ele>
        <time>2014-09-01T14:24:28Z</time>
      </trkpt>
      <trkpt lat="45.99817" lon="6.79873">
        <ele>2095.1597</ele>
        <time>2014-09-01T14:24:33Z</time>
      </trkpt>
      <trkpt lat="45.99816" lon="6.79871">
        <ele>2095.1597</ele>
        <time>2014-09-01T14:24:38Z</time>
      </trkpt>
      <trkpt lat="45.99815" lon="6.7987">
        <ele>2095.1597</ele>
        <time>2014-09-01T14:24:43Z</time>
      </trkpt>
      <trkpt lat="45.99814" lon="6.79871">
        <ele>2095.1597</ele>
        <time>2014-09-01T14:24:48Z</time>
      </trkpt>
      <trkpt lat="45.99812" lon="6.7987">
        <ele>2095.1597</ele>
        <time>2014-09-01T14:24:53Z</time>
      </trkpt>
      <trkpt lat="45.99812" lon="6.79866">
        <ele>2095.837</ele>
        <time>2014-09-01T14:24:58Z</time>
      </trkpt>
      <trkpt lat="45.99812" lon="6.79865">
        <ele>2095.837</ele>
        <time>2014-09-01T14:25:03Z</time>
      </trkpt>
      <trkpt lat="45.99809" lon="6.79864">
        <ele>2095.837</ele>
        <time>2014-09-01T14:25:08Z</time>
      </trkpt>
      <trkpt lat="45.99807" lon="6.7986">
        <ele>2095.837</ele>
        <time>2014-09-01T14:25:13Z</time>
      </trkpt>
      <trkpt lat="45.99805" lon="6.79856">
        <ele>2096.4353</ele>
        <time>2014-09-01T14:25:18Z</time>
      </trkpt>
      <trkpt lat="45.99807" lon="6.79851">
        <ele>2096.4353</ele>
        <time>2014-09-01T14:25:23Z</time>
      </trkpt>
      <trkpt lat="45.99805" lon="6.79844">
        <ele>2097.1226</ele>
        <time>2014-09-01T14:25:28Z</time>
      </trkpt>
      <trkpt lat="45.99804" lon="6.79838">
        <ele>2097.1226</ele>
        <time>2014-09-01T14:25:33Z</time>
      </trkpt>
      <trkpt lat="45.99804" lon="6.79837">
        <ele>2097.1226</ele>
        <time>2014-09-01T14:25:38Z</time>
      </trkpt>
      <trkpt lat="45.99805" lon="6.79832">
        <ele>2097.1226</ele>
        <time>2014-09-01T14:25:43Z</time>
      </trkpt>
      <trkpt lat="45.99804" lon="6.79829">
        <ele>2098.2266</ele>
        <time>2014-09-01T14:25:48Z</time>
      </trkpt>
      <trkpt lat="45.99804" lon="6.79824">
        <ele>2098.2266</ele>
        <time>2014-09-01T14:25:53Z</time>
      </trkpt>
      <trkpt lat="45.99803" lon="6.79816">
        <ele>2099.5598</ele>
        <time>2014-09-01T14:25:58Z</time>
      </trkpt>
      <trkpt lat="45.99801" lon="6.79813">
        <ele>2099.5598</ele>
        <time>2014-09-01T14:26:03Z</time>
      </trkpt>
      <trkpt lat="45.99799" lon="6.79809">
        <ele>2099.5598</ele>
        <time>2014-09-01T14:26:08Z</time>
      </trkpt>
      <trkpt lat="45.99798" lon="6.79809">
        <ele>2099.5598</ele>
        <time>2014-09-01T14:26:13Z</time>
      </trkpt>
      <trkpt lat="45.99798" lon="6.79808">
        <ele>2099.5598</ele>
        <time>2014-09-01T14:26:18Z</time>
      </trkpt>
      <trkpt lat="45.99795" lon="6.79808">
        <ele>2101.1062</ele>
        <time>2014-09-01T14:26:23Z</time>
      </trkpt>
      <trkpt lat="45.99793" lon="6.79806">
        <ele>2101.1062</ele>
        <time>2014-09-01T14:26:28Z</time>
      </trkpt>
      <trkpt lat="45.99792" lon="6.79804">
        <ele>2101.1062</ele>
        <time>2014-09-01T14:26:33Z</time>
      </trkpt>
      <trkpt lat="45.99789" lon="6.79803">
        <ele>2101.1062</ele>
        <time>2014-09-01T14:26:38Z</time>
      </trkpt>
      <trkpt lat="45.99788" lon="6.79802">
        <ele>2101.1062</ele>
        <time>2014-09-01T14:26:43Z</time>
      </trkpt>
      <trkpt lat="45.99787" lon="6.79801">
        <ele>2102.6338</ele>
        <time>2014-09-01T14:26:48Z</time>
      </trkpt>
      <trkpt lat="45.99786" lon="6.79797">
        <ele>2102.6338</ele>
        <time>2014-09-01T14:26:53Z</time>
      </trkpt>
      <trkpt lat="45.99784" lon="6.79791">
        <ele>2102.6338</ele>
        <time>2014-09-01T14:26:58Z</time>
      </trkpt>
      <trkpt lat="45.99781" lon="6.79786">
        <ele>2104.0437</ele>
        <time>2014-09-01T14:27:03Z</time>
      </trkpt>
      <trkpt lat="45.99778" lon="6.79784">
        <ele>2104.0437</ele>
        <time>2014-09-01T14:27:08Z</time>
      </trkpt>
      <trkpt lat="45.99773" lon="6.79781">
        <ele>2105.4023</ele>
        <time>2014-09-01T14:27:13Z</time>
      </trkpt>
      <trkpt lat="45.99769" lon="6.79778">
        <ele>2105.4023</ele>
        <time>2014-09-01T14:27:18Z</time>
      </trkpt>
      <trkpt lat="45.99766" lon="6.79775">
        <ele>2105.4023</ele>
        <time>2014-09-01T14:27:23Z</time>
      </trkpt>
      <trkpt lat="45.99763" lon="6.79772">
        <ele>2106.6416</ele>
        <time>2014-09-01T14:27:28Z</time>
      </trkpt>
      <trkpt lat="45.99759" lon="6.79767">
        <ele>2106.6416</ele>
        <time>2014-09-01T14:27:33Z</time>
      </trkpt>
      <trkpt lat="45.99757" lon="6.79765">
        <ele>2106.6416</ele>
        <time>2014-09-01T14:27:38Z</time>
      </trkpt>
      <trkpt lat="45.99753" lon="6.79763">
        <ele>2107.6414</ele>
        <time>2014-09-01T14:27:43Z</time>
      </trkpt>
      <trkpt lat="45.99751" lon="6.79759">
        <ele>2107.6414</ele>
        <time>2014-09-01T14:27:48Z</time>
      </trkpt>
      <trkpt lat="45.99746" lon="6.79757">
        <ele>2107.6414</ele>
        <time>2014-09-01T14:27:53Z</time>
      </trkpt>
      <trkpt lat="45.99742" lon="6.79757">
        <ele>2108.4924</ele>
        <time>2014-09-01T14:27:58Z</time>
      </trkpt>
      <trkpt lat="45.99738" lon="6.79758">
        <ele>2108.4924</ele>
        <time>2014-09-01T14:28:03Z</time>
      </trkpt>
      <trkpt lat="45.99735" lon="6.79757">
        <ele>2108.4924</ele>
        <time>2014-09-01T14:28:08Z</time>
      </trkpt>
      <trkpt lat="45.9973" lon="6.79753">
        <ele>2109.1785</ele>
        <time>2014-09-01T14:28:13Z</time>
      </trkpt>
      <trkpt lat="45.99726" lon="6.79751">
        <ele>2109.1785</ele>
        <time>2014-09-01T14:28:18Z</time>
      </trkpt>
      <trkpt lat="45.99721" lon="6.79746">
        <ele>2109.7136</ele>
        <time>2014-09-01T14:28:23Z</time>
      </trkpt>
      <trkpt lat="45.99717" lon="6.79745">
        <ele>2109.7136</ele>
        <time>2014-09-01T14:28:28Z</time>
      </trkpt>
      <trkpt lat="45.99714" lon="6.79745">
        <ele>2109.7136</ele>
        <time>2014-09-01T14:28:33Z</time>
      </trkpt>
      <trkpt lat="45.99712" lon="6.79746">
        <ele>2109.7136</ele>
        <time>2014-09-01T14:28:38Z</time>
      </trkpt>
      <trkpt lat="45.9971" lon="6.79749">
        <ele>2109.967</ele>
        <time>2014-09-01T14:28:43Z</time>
      </trkpt>
      <trkpt lat="45.99709" lon="6.79758">
        <ele>2109.967</ele>
        <time>2014-09-01T14:28:48Z</time>
      </trkpt>
      <trkpt lat="45.99709" lon="6.79763">
        <ele>2110.0056</ele>
        <time>2014-09-01T14:28:53Z</time>
      </trkpt>
      <trkpt lat="45.99708" lon="6.7977">
        <ele>2110.0056</ele>
        <time>2014-09-01T14:28:58Z</time>
      </trkpt>
      <trkpt lat="45.99706" lon="6.79775">
        <ele>2110.0056</ele>
        <time>2014-09-01T14:29:03Z</time>
      </trkpt>
      <trkpt lat="45.99706" lon="6.7978">
        <ele>2109.8774</ele>
        <time>2014-09-01T14:29:08Z</time>
      </trkpt>
      <trkpt lat="45.99704" lon="6.79784">
        <ele>2109.8774</ele>
        <time>2014-09-01T14:29:13Z</time>
      </trkpt>
      <trkpt lat="45.99703" lon="6.79787">
        <ele>2109.8774</ele>
        <time>2014-09-01T14:29:18Z</time>
      </trkpt>
      <trkpt lat="45.99703" lon="6.79791">
        <ele>2109.4834</ele>
        <time>2014-09-01T14:29:23Z</time>
      </trkpt>
      <trkpt lat="45.99701" lon="6.79797">
        <ele>2109.4834</ele>
        <time>2014-09-01T14:29:28Z</time>
      </trkpt>
      <trkpt lat="45.99698" lon="6.79804">
        <ele>2108.9197</ele>
        <time>2014-09-01T14:29:33Z</time>
      </trkpt>
      <trkpt lat="45.99696" lon="6.79809">
        <ele>2108.9197</ele>
        <time>2014-09-01T14:29:38Z</time>
      </trkpt>
      <trkpt lat="45.99695" lon="6.79813">
        <ele>2108.9197</ele>
        <time>2014-09-01T14:29:43Z</time>
      </trkpt>
      <trkpt lat="45.99692" lon="6.79816">
        <ele>2108.146</ele>
        <time>2014-09-01T14:29:48Z</time>
      </trkpt>
      <trkpt lat="45.9969" lon="6.79817">
        <ele>2108.146</ele>
        <time>2014-09-01T14:29:53Z</time>
      </trkpt>
      <trkpt lat="45.9969" lon="6.79817">
        <ele>2108.146</ele>
        <time>2014-09-01T14:29:58Z</time>
      </trkpt>
      <trkpt lat="45.99689" lon="6.79818">
        <ele>2108.146</ele>
        <time>2014-09-01T14:30:03Z</time>
      </trkpt>
      <trkpt lat="45.99689" lon="6.79819">
        <ele>2108.146</ele>
        <time>2014-09-01T14:30:08Z</time>
      </trkpt>
      <trkpt lat="45.99688" lon="6.7982">
        <ele>2108.146</ele>
        <time>2014-09-01T14:30:13Z</time>
      </trkpt>
      <trkpt lat="45.99689" lon="6.79823">
        <ele>2108.146</ele>
        <time>2014-09-01T14:30:18Z</time>
      </trkpt>
      <trkpt lat="45.99688" lon="6.79823">
        <ele>2108.146</ele>
        <time>2014-09-01T14:30:23Z</time>
      </trkpt>
      <trkpt lat="45.99688" lon="6.79823">
        <ele>2108.146</ele>
        <time>2014-09-01T14:30:28Z</time>
      </trkpt>
      <trkpt lat="45.99687" lon="6.79823">
        <ele>2108.146</ele>
        <time>2014-09-01T14:30:33Z</time>
      </trkpt>
      <trkpt lat="45.99688" lon="6.79823">
        <ele>2107.3274</ele>
        <time>2014-09-01T14:30:38Z</time>
      </trkpt>
      <trkpt lat="45.99688" lon="6.79823">
        <ele>2107.3274</ele>
        <time>2014-09-01T14:30:43Z</time>
      </trkpt>
      <trkpt lat="45.99687" lon="6.79823">
        <ele>2107.3274</ele>
        <time>2014-09-01T14:30:48Z</time>
      </trkpt>
      <trkpt lat="45.99687" lon="6.79823">
        <ele>2107.3274</ele>
        <time>2014-09-01T14:30:53Z</time>
      </trkpt>
      <trkpt lat="45.99687" lon="6.79821">
        <ele>2107.3274</ele>
        <time>2014-09-01T14:30:58Z</time>
      </trkpt>
      <trkpt lat="45.99687" lon="6.7982">
        <ele>2107.3274</ele>
        <time>2014-09-01T14:31:03Z</time>
      </trkpt>
      <trkpt lat="45.99687" lon="6.79818">
        <ele>2107.3274</ele>
        <time>2014-09-01T14:31:08Z</time>
      </trkpt>
      <trkpt lat="45.99687" lon="6.79818">
        <ele>2107.3274</ele>
        <time>2014-09-01T14:31:13Z</time>
      </trkpt>
      <trkpt lat="45.99686" lon="6.79818">
        <ele>2107.3274</ele>
        <time>2014-09-01T14:31:18Z</time>
      </trkpt>
      <trkpt lat="45.99686" lon="6.79819">
        <ele>2107.3274</ele>
        <time>2014-09-01T14:31:23Z</time>
      </trkpt>
      <trkpt lat="45.99687" lon="6.79819">
        <ele>2107.3274</ele>
        <time>2014-09-01T14:31:28Z</time>
      </trkpt>
      <trkpt lat="45.99687" lon="6.79819">
        <ele>2107.3274</ele>
        <time>2014-09-01T14:31:33Z</time>
      </trkpt>
      <trkpt lat="45.99686" lon="6.79819">
        <ele>2107.3274</ele>
        <time>2014-09-01T14:31:38Z</time>
      </trkpt>
      <trkpt lat="45.99687" lon="6.7982">
        <ele>2107.3274</ele>
        <time>2014-09-01T14:31:43Z</time>
      </trkpt>
      <trkpt lat="45.99686" lon="6.79821">
        <ele>2106.7893</ele>
        <time>2014-09-01T14:31:48Z</time>
      </trkpt>
      <trkpt lat="45.99685" lon="6.79821">
        <ele>2106.7893</ele>
        <time>2014-09-01T14:31:53Z</time>
      </trkpt>
      <trkpt lat="45.99686" lon="6.79819">
        <ele>2106.7893</ele>
        <time>2014-09-01T14:31:58Z</time>
      </trkpt>
      <trkpt lat="45.99686" lon="6.79818">
        <ele>2106.7893</ele>
        <time>2014-09-01T14:32:03Z</time>
      </trkpt>
      <trkpt lat="45.99686" lon="6.79817">
        <ele>2106.7893</ele>
        <time>2014-09-01T14:32:08Z</time>
      </trkpt>
      <trkpt lat="45.99686" lon="6.79819">
        <ele>2106.7893</ele>
        <time>2014-09-01T14:32:13Z</time>
      </trkpt>
      <trkpt lat="45.99686" lon="6.7982">
        <ele>2106.7893</ele>
        <time>2014-09-01T14:32:18Z</time>
      </trkpt>
      <trkpt lat="45.99686" lon="6.79819">
        <ele>2106.7893</ele>
        <time>2014-09-01T14:32:23Z</time>
      </trkpt>
      <trkpt lat="45.99687" lon="6.79818">
        <ele>2106.7893</ele>
        <time>2014-09-01T14:32:28Z</time>
      </trkpt>
      <trkpt lat="45.99687" lon="6.79818">
        <ele>2106.7893</ele>
        <time>2014-09-01T14:32:33Z</time>
      </trkpt>
      <trkpt lat="45.99687" lon="6.79819">
        <ele>2106.7893</ele>
        <time>2014-09-01T14:32:38Z</time>
      </trkpt>
      <trkpt lat="45.99687" lon="6.79819">
        <ele>2106.7893</ele>
        <time>2014-09-01T14:32:43Z</time>
      </trkpt>
      <trkpt lat="45.99686" lon="6.79821">
        <ele>2106.7893</ele>
        <time>2014-09-01T14:32:48Z</time>
      </trkpt>
      <trkpt lat="45.99686" lon="6.79821">
        <ele>2106.4727</ele>
        <time>2014-09-01T14:32:53Z</time>
      </trkpt>
      <trkpt lat="45.99686" lon="6.7982">
        <ele>2106.4727</ele>
        <time>2014-09-01T14:32:58Z</time>
      </trkpt>
      <trkpt lat="45.99686" lon="6.7982">
        <ele>2106.4727</ele>
        <time>2014-09-01T14:33:03Z</time>
      </trkpt>
      <trkpt lat="45.99686" lon="6.79819">
        <ele>2106.4727</ele>
        <time>2014-09-01T14:33:08Z</time>
      </trkpt>
      <trkpt lat="45.99686" lon="6.79819">
        <ele>2106.4727</ele>
        <time>2014-09-01T14:33:13Z</time>
      </trkpt>
      <trkpt lat="45.99686" lon="6.79819">
        <ele>2106.4727</ele>
        <time>2014-09-01T14:33:18Z</time>
      </trkpt>
      <trkpt lat="45.99686" lon="6.79818">
        <ele>2106.4727</ele>
        <time>2014-09-01T14:33:23Z</time>
      </trkpt>
      <trkpt lat="45.99687" lon="6.79818">
        <ele>2106.4727</ele>
        <time>2014-09-01T14:33:28Z</time>
      </trkpt>
      <trkpt lat="45.99687" lon="6.79818">
        <ele>2106.4727</ele>
        <time>2014-09-01T14:33:33Z</time>
      </trkpt>
      <trkpt lat="45.99687" lon="6.79817">
        <ele>2106.4727</ele>
        <time>2014-09-01T14:33:38Z</time>
      </trkpt>
      <trkpt lat="45.99687" lon="6.79816">
        <ele>2106.4727</ele>
        <time>2014-09-01T14:33:43Z</time>
      </trkpt>
      <trkpt lat="45.99688" lon="6.79816">
        <ele>2106.4727</ele>
        <time>2014-09-01T14:33:48Z</time>
      </trkpt>
      <trkpt lat="45.99687" lon="6.79818">
        <ele>2106.4727</ele>
        <time>2014-09-01T14:33:53Z</time>
      </trkpt>
      <trkpt lat="45.99686" lon="6.79819">
        <ele>2106.4727</ele>
        <time>2014-09-01T14:33:58Z</time>
      </trkpt>
      <trkpt lat="45.99687" lon="6.79821">
        <ele>2106.4727</ele>
        <time>2014-09-01T14:34:03Z</time>
      </trkpt>
      <trkpt lat="45.99687" lon="6.79821">
        <ele>2106.4727</ele>
        <time>2014-09-01T14:34:08Z</time>
      </trkpt>
      <trkpt lat="45.99687" lon="6.7982">
        <ele>2106.0625</ele>
        <time>2014-09-01T14:34:13Z</time>
      </trkpt>
      <trkpt lat="45.99689" lon="6.79821">
        <ele>2106.0625</ele>
        <time>2014-09-01T14:34:18Z</time>
      </trkpt>
      <trkpt lat="45.99691" lon="6.79823">
        <ele>2106.0625</ele>
        <time>2014-09-01T14:34:23Z</time>
      </trkpt>
      <trkpt lat="45.99693" lon="6.79826">
        <ele>2106.0625</ele>
        <time>2014-09-01T14:34:28Z</time>
      </trkpt>
      <trkpt lat="45.99694" lon="6.7983">
        <ele>2105.2087</ele>
        <time>2014-09-01T14:34:33Z</time>
      </trkpt>
      <trkpt lat="45.99694" lon="6.79832">
        <ele>2105.2087</ele>
        <time>2014-09-01T14:34:38Z</time>
      </trkpt>
      <trkpt lat="45.99692" lon="6.79833">
        <ele>2105.2087</ele>
        <time>2014-09-01T14:34:43Z</time>
      </trkpt>
      <trkpt lat="45.99689" lon="6.79836">
        <ele>2105.2087</ele>
        <time>2014-09-01T14:34:48Z</time>
      </trkpt>
      <trkpt lat="45.99686" lon="6.79837">
        <ele>2103.6902</ele>
        <time>2014-09-01T14:34:53Z</time>
      </trkpt>
      <trkpt lat="45.99686" lon="6.79838">
        <ele>2103.6902</ele>
        <time>2014-09-01T14:34:58Z</time>
      </trkpt>
      <trkpt lat="45.99683" lon="6.79841">
        <ele>2103.6902</ele>
        <time>2014-09-01T14:35:03Z</time>
      </trkpt>
      <trkpt lat="45.99682" lon="6.79846">
        <ele>2103.6902</ele>
        <time>2014-09-01T14:35:08Z</time>
      </trkpt>
      <trkpt lat="45.99682" lon="6.79849">
        <ele>2101.3892</ele>
        <time>2014-09-01T14:35:13Z</time>
      </trkpt>
      <trkpt lat="45.9968" lon="6.79851">
        <ele>2101.3892</ele>
        <time>2014-09-01T14:35:18Z</time>
      </trkpt>
      <trkpt lat="45.99679" lon="6.79855">
        <ele>2101.3892</ele>
        <time>2014-09-01T14:35:23Z</time>
      </trkpt>
      <trkpt lat="45.99679" lon="6.79855">
        <ele>2101.3892</ele>
        <time>2014-09-01T14:35:28Z</time>
      </trkpt>
      <trkpt lat="45.99677" lon="6.79855">
        <ele>2101.3892</ele>
        <time>2014-09-01T14:35:33Z</time>
      </trkpt>
      <trkpt lat="45.99676" lon="6.79854">
        <ele>2101.3892</ele>
        <time>2014-09-01T14:35:38Z</time>
      </trkpt>
      <trkpt lat="45.99675" lon="6.79855">
        <ele>2099.4526</ele>
        <time>2014-09-01T14:35:43Z</time>
      </trkpt>
      <trkpt lat="45.99672" lon="6.79856">
        <ele>2099.4526</ele>
        <time>2014-09-01T14:35:48Z</time>
      </trkpt>
      <trkpt lat="45.99668" lon="6.79854">
        <ele>2099.4526</ele>
        <time>2014-09-01T14:35:53Z</time>
      </trkpt>
      <trkpt lat="45.99662" lon="6.79852">
        <ele>2097.617</ele>
        <time>2014-09-01T14:35:58Z</time>
      </trkpt>
      <trkpt lat="45.99658" lon="6.79852">
        <ele>2097.617</ele>
        <time>2014-09-01T14:36:03Z</time>
      </trkpt>
      <trkpt lat="45.99653" lon="6.79853">
        <ele>2097.617</ele>
        <time>2014-09-01T14:36:08Z</time>
      </trkpt>
      <trkpt lat="45.9965" lon="6.79854">
        <ele>2095.766</ele>
        <time>2014-09-01T14:36:13Z</time>
      </trkpt>
      <trkpt lat="45.99645" lon="6.79856">
        <ele>2095.766</ele>
        <time>2014-09-01T14:36:18Z</time>
      </trkpt>
      <trkpt lat="45.99644" lon="6.79857">
        <ele>2095.766</ele>
        <time>2014-09-01T14:36:23Z</time>
      </trkpt>
      <trkpt lat="45.99641" lon="6.7986">
        <ele>2093.8074</ele>
        <time>2014-09-01T14:36:28Z</time>
      </trkpt>
      <trkpt lat="45.99636" lon="6.79863">
        <ele>2093.8074</ele>
        <time>2014-09-01T14:36:33Z</time>
      </trkpt>
      <trkpt lat="45.99631" lon="6.79866">
        <ele>2091.684</ele>
        <time>2014-09-01T14:36:38Z</time>
      </trkpt>
      <trkpt lat="45.99627" lon="6.79868">
        <ele>2091.684</ele>
        <time>2014-09-01T14:36:43Z</time>
      </trkpt>
      <trkpt lat="45.99622" lon="6.7987">
        <ele>2091.684</ele>
        <time>2014-09-01T14:36:48Z</time>
      </trkpt>
      <trkpt lat="45.99619" lon="6.79871">
        <ele>2089.4297</ele>
        <time>2014-09-01T14:36:53Z</time>
      </trkpt>
      <trkpt lat="45.99615" lon="6.7987">
        <ele>2089.4297</ele>
        <time>2014-09-01T14:36:58Z</time>
      </trkpt>
      <trkpt lat="45.99612" lon="6.7987">
        <ele>2089.4297</ele>
        <time>2014-09-01T14:37:03Z</time>
      </trkpt>
      <trkpt lat="45.99608" lon="6.79871">
        <ele>2086.9753</ele>
        <time>2014-09-01T14:37:08Z</time>
      </trkpt>
      <trkpt lat="45.99601" lon="6.79873">
        <ele>2086.9753</ele>
        <time>2014-09-01T14:37:13Z</time>
      </trkpt>
      <trkpt lat="45.99595" lon="6.79874">
        <ele>2084.574</ele>
        <time>2014-09-01T14:37:18Z</time>
      </trkpt>
      <trkpt lat="45.99588" lon="6.79877">
        <ele>2084.574</ele>
        <time>2014-09-01T14:37:23Z</time>
      </trkpt>
      <trkpt lat="45.99583" lon="6.79878">
        <ele>2082.359</ele>
        <time>2014-09-01T14:37:28Z</time>
      </trkpt>
      <trkpt lat="45.99579" lon="6.79878">
        <ele>2082.359</ele>
        <time>2014-09-01T14:37:33Z</time>
      </trkpt>
      <trkpt lat="45.99575" lon="6.79878">
        <ele>2082.359</ele>
        <time>2014-09-01T14:37:38Z</time>
      </trkpt>
      <trkpt lat="45.99572" lon="6.79881">
        <ele>2080.0352</ele>
        <time>2014-09-01T14:37:43Z</time>
      </trkpt>
      <trkpt lat="45.99569" lon="6.79883">
        <ele>2080.0352</ele>
        <time>2014-09-01T14:37:48Z</time>
      </trkpt>
      <trkpt lat="45.99568" lon="6.79883">
        <ele>2080.0352</ele>
        <time>2014-09-01T14:37:53Z</time>
      </trkpt>
      <trkpt lat="45.99564" lon="6.79884">
        <ele>2080.0352</ele>
        <time>2014-09-01T14:37:58Z</time>
      </trkpt>
      <trkpt lat="45.99558" lon="6.79885">
        <ele>2077.0413</ele>
        <time>2014-09-01T14:38:03Z</time>
      </trkpt>
      <trkpt lat="45.99552" lon="6.79888">
        <ele>2077.0413</ele>
        <time>2014-09-01T14:38:08Z</time>
      </trkpt>
      <trkpt lat="45.99548" lon="6.79891">
        <ele>2074.112</ele>
        <time>2014-09-01T14:38:13Z</time>
      </trkpt>
      <trkpt lat="45.99542" lon="6.79891">
        <ele>2074.112</ele>
        <time>2014-09-01T14:38:18Z</time>
      </trkpt>
      <trkpt lat="45.99538" lon="6.7989">
        <ele>2071.2654</ele>
        <time>2014-09-01T14:38:23Z</time>
      </trkpt>
      <trkpt lat="45.99531" lon="6.79892">
        <ele>2071.2654</ele>
        <time>2014-09-01T14:38:28Z</time>
      </trkpt>
      <trkpt lat="45.99527" lon="6.79891">
        <ele>2068.6035</ele>
        <time>2014-09-01T14:38:33Z</time>
      </trkpt>
      <trkpt lat="45.99521" lon="6.79893">
        <ele>2068.6035</ele>
        <time>2014-09-01T14:38:38Z</time>
      </trkpt>
      <trkpt lat="45.99517" lon="6.79893">
        <ele>2066.1777</ele>
        <time>2014-09-01T14:38:43Z</time>
      </trkpt>
      <trkpt lat="45.99512" lon="6.79893">
        <ele>2066.1777</ele>
        <time>2014-09-01T14:38:48Z</time>
      </trkpt>
      <trkpt lat="45.99509" lon="6.79894">
        <ele>2066.1777</ele>
        <time>2014-09-01T14:38:53Z</time>
      </trkpt>
      <trkpt lat="45.99504" lon="6.79896">
        <ele>2064.063</ele>
        <time>2014-09-01T14:38:58Z</time>
      </trkpt>
      <trkpt lat="45.99497" lon="6.79899">
        <ele>2064.063</ele>
        <time>2014-09-01T14:39:03Z</time>
      </trkpt>
      <trkpt lat="45.99491" lon="6.79902">
        <ele>2062.2988</ele>
        <time>2014-09-01T14:39:08Z</time>
      </trkpt>
      <trkpt lat="45.99487" lon="6.79903">
        <ele>2062.2988</ele>
        <time>2014-09-01T14:39:13Z</time>
      </trkpt>
      <trkpt lat="45.99483" lon="6.79903">
        <ele>2062.2988</ele>
        <time>2014-09-01T14:39:18Z</time>
      </trkpt>
      <trkpt lat="45.99481" lon="6.79903">
        <ele>2060.6902</ele>
        <time>2014-09-01T14:39:23Z</time>
      </trkpt>
      <trkpt lat="45.99476" lon="6.799">
        <ele>2060.6902</ele>
        <time>2014-09-01T14:39:28Z</time>
      </trkpt>
      <trkpt lat="45.99473" lon="6.79901">
        <ele>2060.6902</ele>
        <time>2014-09-01T14:39:33Z</time>
      </trkpt>
      <trkpt lat="45.99467" lon="6.799">
        <ele>2059.2285</ele>
        <time>2014-09-01T14:39:38Z</time>
      </trkpt>
      <trkpt lat="45.99462" lon="6.79901">
        <ele>2059.2285</ele>
        <time>2014-09-01T14:39:43Z</time>
      </trkpt>
      <trkpt lat="45.99458" lon="6.79902">
        <ele>2057.7903</ele>
        <time>2014-09-01T14:39:48Z</time>
      </trkpt>
      <trkpt lat="45.99453" lon="6.79903">
        <ele>2057.7903</ele>
        <time>2014-09-01T14:39:53Z</time>
      </trkpt>
      <trkpt lat="45.99447" lon="6.79903">
        <ele>2056.3323</ele>
        <time>2014-09-01T14:39:58Z</time>
      </trkpt>
      <trkpt lat="45.99441" lon="6.79904">
        <ele>2056.3323</ele>
        <time>2014-09-01T14:40:03Z</time>
      </trkpt>
      <trkpt lat="45.99437" lon="6.79904">
        <ele>2054.8867</ele>
        <time>2014-09-01T14:40:08Z</time>
      </trkpt>
      <trkpt lat="45.99434" lon="6.79904">
        <ele>2054.8867</ele>
        <time>2014-09-01T14:40:13Z</time>
      </trkpt>
      <trkpt lat="45.99431" lon="6.79907">
        <ele>2054.8867</ele>
        <time>2014-09-01T14:40:18Z</time>
      </trkpt>
      <trkpt lat="45.99425" lon="6.79915">
        <ele>2053.4255</ele>
        <time>2014-09-01T14:40:23Z</time>
      </trkpt>
      <trkpt lat="45.99422" lon="6.79922">
        <ele>2053.4255</ele>
        <time>2014-09-01T14:40:28Z</time>
      </trkpt>
      <trkpt lat="45.99419" lon="6.79929">
        <ele>2051.9656</ele>
        <time>2014-09-01T14:40:33Z</time>
      </trkpt>
      <trkpt lat="45.99418" lon="6.79933">
        <ele>2051.9656</ele>
        <time>2014-09-01T14:40:38Z</time>
      </trkpt>
      <trkpt lat="45.99418" lon="6.79936">
        <ele>2051.9656</ele>
        <time>2014-09-01T14:40:43Z</time>
      </trkpt>
      <trkpt lat="45.99415" lon="6.79941">
        <ele>2050.5518</ele>
        <time>2014-09-01T14:40:48Z</time>
      </trkpt>
      <trkpt lat="45.99417" lon="6.79945">
        <ele>2050.5518</ele>
        <time>2014-09-01T14:40:53Z</time>
      </trkpt>
      <trkpt lat="45.99421" lon="6.79951">
        <ele>2049.3828</ele>
        <time>2014-09-01T14:40:58Z</time>
      </trkpt>
      <trkpt lat="45.99419" lon="6.79959">
        <ele>2049.3828</ele>
        <time>2014-09-01T14:41:03Z</time>
      </trkpt>
      <trkpt lat="45.99416" lon="6.79966">
        <ele>2048.499</ele>
        <time>2014-09-01T14:41:08Z</time>
      </trkpt>
      <trkpt lat="45.99414" lon="6.79972">
        <ele>2048.499</ele>
        <time>2014-09-01T14:41:13Z</time>
      </trkpt>
      <trkpt lat="45.99412" lon="6.79977">
        <ele>2048.499</ele>
        <time>2014-09-01T14:41:18Z</time>
      </trkpt>
      <trkpt lat="45.99411" lon="6.7998">
        <ele>2047.792</ele>
        <time>2014-09-01T14:41:23Z</time>
      </trkpt>
      <trkpt lat="45.99404" lon="6.79989">
        <ele>2047.2185</ele>
        <time>2014-09-01T14:41:28Z</time>
      </trkpt>
      <trkpt lat="45.99402" lon="6.7999">
        <ele>2047.2185</ele>
        <time>2014-09-01T14:41:33Z</time>
      </trkpt>
      <trkpt lat="45.99401" lon="6.79988">
        <ele>2047.2185</ele>
        <time>2014-09-01T14:41:38Z</time>
      </trkpt>
      <trkpt lat="45.99399" lon="6.79987">
        <ele>2047.2185</ele>
        <time>2014-09-01T14:41:43Z</time>
      </trkpt>
      <trkpt lat="45.99396" lon="6.79988">
        <ele>2046.839</ele>
        <time>2014-09-01T14:41:48Z</time>
      </trkpt>
      <trkpt lat="45.99395" lon="6.79987">
        <ele>2046.839</ele>
        <time>2014-09-01T14:41:53Z</time>
      </trkpt>
      <trkpt lat="45.99391" lon="6.79991">
        <ele>2046.839</ele>
        <time>2014-09-01T14:41:58Z</time>
      </trkpt>
      <trkpt lat="45.99387" lon="6.79995">
        <ele>2046.968</ele>
        <time>2014-09-01T14:42:03Z</time>
      </trkpt>
      <trkpt lat="45.99384" lon="6.80002">
        <ele>2046.968</ele>
        <time>2014-09-01T14:42:08Z</time>
      </trkpt>
      <trkpt lat="45.99381" lon="6.80008">
        <ele>2047.2904</ele>
        <time>2014-09-01T14:42:13Z</time>
      </trkpt>
      <trkpt lat="45.9938" lon="6.80014">
        <ele>2047.2904</ele>
        <time>2014-09-01T14:42:18Z</time>
      </trkpt>
      <trkpt lat="45.99379" lon="6.8002">
        <ele>2047.2904</ele>
        <time>2014-09-01T14:42:23Z</time>
      </trkpt>
      <trkpt lat="45.99376" lon="6.80027">
        <ele>2047.7585</ele>
        <time>2014-09-01T14:42:28Z</time>
      </trkpt>
      <trkpt lat="45.99373" lon="6.80028">
        <ele>2047.7585</ele>
        <time>2014-09-01T14:42:33Z</time>
      </trkpt>
      <trkpt lat="45.99367" lon="6.80032">
        <ele>2048.1978</ele>
        <time>2014-09-01T14:42:38Z</time>
      </trkpt>
      <trkpt lat="45.99363" lon="6.80036">
        <ele>2048.1978</ele>
        <time>2014-09-01T14:42:43Z</time>
      </trkpt>
      <trkpt lat="45.9936" lon="6.80037">
        <ele>2048.1978</ele>
        <time>2014-09-01T14:42:48Z</time>
      </trkpt>
      <trkpt lat="45.99356" lon="6.80042">
        <ele>2048.5334</ele>
        <time>2014-09-01T14:42:53Z</time>
      </trkpt>
      <trkpt lat="45.99355" lon="6.80046">
        <ele>2048.5334</ele>
        <time>2014-09-01T14:42:58Z</time>
      </trkpt>
      <trkpt lat="45.99355" lon="6.80049">
        <ele>2048.5334</ele>
        <time>2014-09-01T14:43:03Z</time>
      </trkpt>
      <trkpt lat="45.99354" lon="6.8005">
        <ele>2048.5334</ele>
        <time>2014-09-01T14:43:08Z</time>
      </trkpt>
      <trkpt lat="45.99351" lon="6.80054">
        <ele>2048.8257</ele>
        <time>2014-09-01T14:43:13Z</time>
      </trkpt>
      <trkpt lat="45.99348" lon="6.80059">
        <ele>2048.8257</ele>
        <time>2014-09-01T14:43:18Z</time>
      </trkpt>
      <trkpt lat="45.99347" lon="6.80063">
        <ele>2048.8257</ele>
        <time>2014-09-01T14:43:23Z</time>
      </trkpt>
      <trkpt lat="45.99342" lon="6.80067">
        <ele>2048.9436</ele>
        <time>2014-09-01T14:43:28Z</time>
      </trkpt>
      <trkpt lat="45.99337" lon="6.80071">
        <ele>2048.9436</ele>
        <time>2014-09-01T14:43:33Z</time>
      </trkpt>
      <trkpt lat="45.99332" lon="6.80079">
        <ele>2049.0974</ele>
        <time>2014-09-01T14:43:38Z</time>
      </trkpt>
      <trkpt lat="45.99331" lon="6.80082">
        <ele>2049.0974</ele>
        <time>2014-09-01T14:43:43Z</time>
      </trkpt>
      <trkpt lat="45.99325" lon="6.80084">
        <ele>2049.0974</ele>
        <time>2014-09-01T14:43:48Z</time>
      </trkpt>
      <trkpt lat="45.99322" lon="6.80084">
        <ele>2049.3232</ele>
        <time>2014-09-01T14:43:53Z</time>
      </trkpt>
      <trkpt lat="45.99315" lon="6.80084">
        <ele>2049.3232</ele>
        <time>2014-09-01T14:43:58Z</time>
      </trkpt>
      <trkpt lat="45.99311" lon="6.80085">
        <ele>2049.655</ele>
        <time>2014-09-01T14:44:03Z</time>
      </trkpt>
      <trkpt lat="45.99306" lon="6.80084">
        <ele>2049.655</ele>
        <time>2014-09-01T14:44:08Z</time>
      </trkpt>
      <trkpt lat="45.993" lon="6.80084">
        <ele>2049.9072</ele>
        <time>2014-09-01T14:44:13Z</time>
      </trkpt>
      <trkpt lat="45.99297" lon="6.80083">
        <ele>2049.9072</ele>
        <time>2014-09-01T14:44:18Z</time>
      </trkpt>
      <trkpt lat="45.99293" lon="6.80082">
        <ele>2049.9072</ele>
        <time>2014-09-01T14:44:23Z</time>
      </trkpt>
      <trkpt lat="45.99287" lon="6.80082">
        <ele>2050.1245</ele>
        <time>2014-09-01T14:44:28Z</time>
      </trkpt>
      <trkpt lat="45.99284" lon="6.80082">
        <ele>2050.1245</ele>
        <time>2014-09-01T14:44:33Z</time>
      </trkpt>
      <trkpt lat="45.99281" lon="6.80079">
        <ele>2050.1245</ele>
        <time>2014-09-01T14:44:38Z</time>
      </trkpt>
      <trkpt lat="45.99274" lon="6.80079">
        <ele>2050.478</ele>
        <time>2014-09-01T14:44:43Z</time>
      </trkpt>
      <trkpt lat="45.99268" lon="6.80078">
        <ele>2050.478</ele>
        <time>2014-09-01T14:44:48Z</time>
      </trkpt>
      <trkpt lat="45.99262" lon="6.80075">
        <ele>2051.0688</ele>
        <time>2014-09-01T14:44:53Z</time>
      </trkpt>
      <trkpt lat="45.99257" lon="6.80074">
        <ele>2051.0688</ele>
        <time>2014-09-01T14:44:58Z</time>
      </trkpt>
      <trkpt lat="45.99254" lon="6.80072">
        <ele>2051.0688</ele>
        <time>2014-09-01T14:45:03Z</time>
      </trkpt>
      <trkpt lat="45.99248" lon="6.80069">
        <ele>2051.514</ele>
        <time>2014-09-01T14:45:08Z</time>
      </trkpt>
      <trkpt lat="45.99244" lon="6.80069">
        <ele>2051.514</ele>
        <time>2014-09-01T14:45:13Z</time>
      </trkpt>
      <trkpt lat="45.9924" lon="6.8007">
        <ele>2051.514</ele>
        <time>2014-09-01T14:45:18Z</time>
      </trkpt>
      <trkpt lat="45.99234" lon="6.80072">
        <ele>2051.6323</ele>
        <time>2014-09-01T14:45:23Z</time>
      </trkpt>
      <trkpt lat="45.99229" lon="6.80069">
        <ele>2051.6323</ele>
        <time>2014-09-01T14:45:28Z</time>
      </trkpt>
      <trkpt lat="45.99223" lon="6.80068">
        <ele>2051.343</ele>
        <time>2014-09-01T14:45:33Z</time>
      </trkpt>
      <trkpt lat="45.99217" lon="6.80073">
        <ele>2051.343</ele>
        <time>2014-09-01T14:45:38Z</time>
      </trkpt>
      <trkpt lat="45.99212" lon="6.80074">
        <ele>2050.804</ele>
        <time>2014-09-01T14:45:43Z</time>
      </trkpt>
      <trkpt lat="45.99206" lon="6.80075">
        <ele>2050.804</ele>
        <time>2014-09-01T14:45:48Z</time>
      </trkpt>
      <trkpt lat="45.992" lon="6.80078">
        <ele>2050.2764</ele>
        <time>2014-09-01T14:45:53Z</time>
      </trkpt>
      <trkpt lat="45.99193" lon="6.80081">
        <ele>2050.2764</ele>
        <time>2014-09-01T14:45:58Z</time>
      </trkpt>
      <trkpt lat="45.99188" lon="6.80081">
        <ele>2049.7295</ele>
        <time>2014-09-01T14:46:03Z</time>
      </trkpt>
      <trkpt lat="45.99183" lon="6.80084">
        <ele>2049.7295</ele>
        <time>2014-09-01T14:46:08Z</time>
      </trkpt>
      <trkpt lat="45.99177" lon="6.80086">
        <ele>2049.4082</ele>
        <time>2014-09-01T14:46:13Z</time>
      </trkpt>
      <trkpt lat="45.99173" lon="6.80086">
        <ele>2049.4082</ele>
        <time>2014-09-01T14:46:18Z</time>
      </trkpt>
      <trkpt lat="45.99169" lon="6.80084">
        <ele>2049.4082</ele>
        <time>2014-09-01T14:46:23Z</time>
      </trkpt>
      <trkpt lat="45.99163" lon="6.80084">
        <ele>2049.251</ele>
        <time>2014-09-01T14:46:28Z</time>
      </trkpt>
      <trkpt lat="45.99158" lon="6.80082">
        <ele>2049.251</ele>
        <time>2014-09-01T14:46:33Z</time>
      </trkpt>
      <trkpt lat="45.99153" lon="6.80086">
        <ele>2049.2002</ele>
        <time>2014-09-01T14:46:38Z</time>
      </trkpt>
      <trkpt lat="45.99149" lon="6.80087">
        <ele>2049.2002</ele>
        <time>2014-09-01T14:46:43Z</time>
      </trkpt>
      <trkpt lat="45.99145" lon="6.80088">
        <ele>2049.2002</ele>
        <time>2014-09-01T14:46:48Z</time>
      </trkpt>
      <trkpt lat="45.9914" lon="6.8009">
        <ele>2048.6548</ele>
        <time>2014-09-01T14:46:53Z</time>
      </trkpt>
      <trkpt lat="45.99135" lon="6.80092">
        <ele>2048.6548</ele>
        <time>2014-09-01T14:46:58Z</time>
      </trkpt>
      <trkpt lat="45.99129" lon="6.80094">
        <ele>2047.967</ele>
        <time>2014-09-01T14:47:03Z</time>
      </trkpt>
      <trkpt lat="45.99125" lon="6.80095">
        <ele>2047.967</ele>
        <time>2014-09-01T14:47:08Z</time>
      </trkpt>
      <trkpt lat="45.99119" lon="6.80096">
        <ele>2047.2913</ele>
        <time>2014-09-01T14:47:13Z</time>
      </trkpt>
      <trkpt lat="45.99113" lon="6.80098">
        <ele>2047.2913</ele>
        <time>2014-09-01T14:47:18Z</time>
      </trkpt>
      <trkpt lat="45.99107" lon="6.801">
        <ele>2046.5973</ele>
        <time>2014-09-01T14:47:23Z</time>
      </trkpt>
      <trkpt lat="45.99103" lon="6.80102">
        <ele>2046.5973</ele>
        <time>2014-09-01T14:47:28Z</time>
      </trkpt>
      <trkpt lat="45.99098" lon="6.80104">
        <ele>2045.6266</ele>
        <time>2014-09-01T14:47:33Z</time>
      </trkpt>
      <trkpt lat="45.99094" lon="6.80106">
        <ele>2045.6266</ele>
        <time>2014-09-01T14:47:38Z</time>
      </trkpt>
      <trkpt lat="45.99089" lon="6.80107">
        <ele>2044.7317</ele>
        <time>2014-09-01T14:47:43Z</time>
      </trkpt>
      <trkpt lat="45.99085" lon="6.80109">
        <ele>2044.7317</ele>
        <time>2014-09-01T14:47:48Z</time>
      </trkpt>
      <trkpt lat="45.9908" lon="6.80113">
        <ele>2043.936</ele>
        <time>2014-09-01T14:47:53Z</time>
      </trkpt>
      <trkpt lat="45.99076" lon="6.80115">
        <ele>2043.936</ele>
        <time>2014-09-01T14:47:58Z</time>
      </trkpt>
      <trkpt lat="45.99071" lon="6.80115">
        <ele>2043.2471</ele>
        <time>2014-09-01T14:48:03Z</time>
      </trkpt>
      <trkpt lat="45.99065" lon="6.80119">
        <ele>2043.2471</ele>
        <time>2014-09-01T14:48:08Z</time>
      </trkpt>
      <trkpt lat="45.99059" lon="6.80121">
        <ele>2042.4264</ele>
        <time>2014-09-01T14:48:13Z</time>
      </trkpt>
      <trkpt lat="45.99053" lon="6.80123">
        <ele>2042.4264</ele>
        <time>2014-09-01T14:48:18Z</time>
      </trkpt>
      <trkpt lat="45.99048" lon="6.80126">
        <ele>2041.7288</ele>
        <time>2014-09-01T14:48:23Z</time>
      </trkpt>
      <trkpt lat="45.99041" lon="6.80128">
        <ele>2041.7288</ele>
        <time>2014-09-01T14:48:28Z</time>
      </trkpt>
      <trkpt lat="45.99035" lon="6.80128">
        <ele>2041.3184</ele>
        <time>2014-09-01T14:48:33Z</time>
      </trkpt>
      <trkpt lat="45.99028" lon="6.80133">
        <ele>2041.3184</ele>
        <time>2014-09-01T14:48:38Z</time>
      </trkpt>
      <trkpt lat="45.99024" lon="6.80133">
        <ele>2041.3318</ele>
        <time>2014-09-01T14:48:43Z</time>
      </trkpt>
      <trkpt lat="45.99022" lon="6.80133">
        <ele>2041.3318</ele>
        <time>2014-09-01T14:48:48Z</time>
      </trkpt>
      <trkpt lat="45.99019" lon="6.80135">
        <ele>2041.3318</ele>
        <time>2014-09-01T14:48:53Z</time>
      </trkpt>
      <trkpt lat="45.99015" lon="6.80133">
        <ele>2041.3318</ele>
        <time>2014-09-01T14:48:58Z</time>
      </trkpt>
      <trkpt lat="45.99011" lon="6.80132">
        <ele>2042.1685</ele>
        <time>2014-09-01T14:49:03Z</time>
      </trkpt>
      <trkpt lat="45.99006" lon="6.80132">
        <ele>2042.1685</ele>
        <time>2014-09-01T14:49:08Z</time>
      </trkpt>
      <trkpt lat="45.99001" lon="6.80133">
        <ele>2043.0144</ele>
        <time>2014-09-01T14:49:13Z</time>
      </trkpt>
      <trkpt lat="45.98997" lon="6.80133">
        <ele>2043.0144</ele>
        <time>2014-09-01T14:49:18Z</time>
      </trkpt>
      <trkpt lat="45.98992" lon="6.8013">
        <ele>2043.8937</ele>
        <time>2014-09-01T14:49:23Z</time>
      </trkpt>
      <trkpt lat="45.98988" lon="6.80126">
        <ele>2043.8937</ele>
        <time>2014-09-01T14:49:28Z</time>
      </trkpt>
      <trkpt lat="45.98983" lon="6.80124">
        <ele>2044.8284</ele>
        <time>2014-09-01T14:49:33Z</time>
      </trkpt>
      <trkpt lat="45.98978" lon="6.80122">
        <ele>2044.8284</ele>
        <time>2014-09-01T14:49:38Z</time>
      </trkpt>
      <trkpt lat="45.98977" lon="6.80122">
        <ele>2044.8284</ele>
        <time>2014-09-01T14:49:43Z</time>
      </trkpt>
      <trkpt lat="45.98976" lon="6.80121">
        <ele>2044.8284</ele>
        <time>2014-09-01T14:50:08Z</time>
      </trkpt>
      <trkpt lat="45.98973" lon="6.80115">
        <ele>2046.142</ele>
        <time>2014-09-01T14:50:13Z</time>
      </trkpt>
      <trkpt lat="45.98969" lon="6.80107">
        <ele>2046.142</ele>
        <time>2014-09-01T14:50:18Z</time>
      </trkpt>
      <trkpt lat="45.98966" lon="6.80105">
        <ele>2047.4553</ele>
        <time>2014-09-01T14:50:23Z</time>
      </trkpt>
      <trkpt lat="45.98962" lon="6.80102">
        <ele>2047.4553</ele>
        <time>2014-09-01T14:50:28Z</time>
      </trkpt>
      <trkpt lat="45.98958" lon="6.80099">
        <ele>2047.4553</ele>
        <time>2014-09-01T14:50:33Z</time>
      </trkpt>
      <trkpt lat="45.98953" lon="6.80094">
        <ele>2049.0085</ele>
        <time>2014-09-01T14:50:38Z</time>
      </trkpt>
      <trkpt lat="45.98948" lon="6.80089">
        <ele>2049.0085</ele>
        <time>2014-09-01T14:50:43Z</time>
      </trkpt>
      <trkpt lat="45.98945" lon="6.80086">
        <ele>2050.677</ele>
        <time>2014-09-01T14:50:48Z</time>
      </trkpt>
      <trkpt lat="45.98943" lon="6.80083">
        <ele>2050.677</ele>
        <time>2014-09-01T14:50:53Z</time>
      </trkpt>
      <trkpt lat="45.98939" lon="6.8008">
        <ele>2050.677</ele>
        <time>2014-09-01T14:50:58Z</time>
      </trkpt>
      <trkpt lat="45.98934" lon="6.80076">
        <ele>2052.3462</ele>
        <time>2014-09-01T14:51:03Z</time>
      </trkpt>
      <trkpt lat="45.98931" lon="6.80072">
        <ele>2052.3462</ele>
        <time>2014-09-01T14:51:08Z</time>
      </trkpt>
      <trkpt lat="45.98928" lon="6.80069">
        <ele>2052.3462</ele>
        <time>2014-09-01T14:51:13Z</time>
      </trkpt>
      <trkpt lat="45.98923" lon="6.80067">
        <ele>2053.8079</ele>
        <time>2014-09-01T14:51:18Z</time>
      </trkpt>
      <trkpt lat="45.98919" lon="6.80065">
        <ele>2053.8079</ele>
        <time>2014-09-01T14:51:23Z</time>
      </trkpt>
      <trkpt lat="45.98915" lon="6.80064">
        <ele>2053.8079</ele>
        <time>2014-09-01T14:51:28Z</time>
      </trkpt>
      <trkpt lat="45.98912" lon="6.80063">
        <ele>2054.9573</ele>
        <time>2014-09-01T14:51:33Z</time>
      </trkpt>
      <trkpt lat="45.98909" lon="6.80062">
        <ele>2054.9573</ele>
        <time>2014-09-01T14:51:38Z</time>
      </trkpt>
      <trkpt lat="45.98906" lon="6.80061">
        <ele>2054.9573</ele>
        <time>2014-09-01T14:51:43Z</time>
      </trkpt>
      <trkpt lat="45.98903" lon="6.80055">
        <ele>2055.8706</ele>
        <time>2014-09-01T14:51:48Z</time>
      </trkpt>
      <trkpt lat="45.989" lon="6.80049">
        <ele>2055.8706</ele>
        <time>2014-09-01T14:51:53Z</time>
      </trkpt>
      <trkpt lat="45.98898" lon="6.80049">
        <ele>2055.8706</ele>
        <time>2014-09-01T14:51:58Z</time>
      </trkpt>
      <trkpt lat="45.98893" lon="6.80046">
        <ele>2056.735</ele>
        <time>2014-09-01T14:52:03Z</time>
      </trkpt>
      <trkpt lat="45.98891" lon="6.80045">
        <ele>2056.735</ele>
        <time>2014-09-01T14:52:08Z</time>
      </trkpt>
      <trkpt lat="45.98888" lon="6.80044">
        <ele>2056.735</ele>
        <time>2014-09-01T14:52:13Z</time>
      </trkpt>
      <trkpt lat="45.98884" lon="6.80041">
        <ele>2057.724</ele>
        <time>2014-09-01T14:52:18Z</time>
      </trkpt>
      <trkpt lat="45.98879" lon="6.80038">
        <ele>2057.724</ele>
        <time>2014-09-01T14:52:23Z</time>
      </trkpt>
      <trkpt lat="45.98875" lon="6.80035">
        <ele>2058.7678</ele>
        <time>2014-09-01T14:52:28Z</time>
      </trkpt>
      <trkpt lat="45.98877" lon="6.80033">
        <ele>2058.7678</ele>
        <time>2014-09-01T14:52:33Z</time>
      </trkpt>
      <trkpt lat="45.98876" lon="6.80029">
        <ele>2058.7678</ele>
        <time>2014-09-01T14:52:38Z</time>
      </trkpt>
      <trkpt lat="45.98875" lon="6.80027">
        <ele>2058.7678</ele>
        <time>2014-09-01T14:52:43Z</time>
      </trkpt>
      <trkpt lat="45.98873" lon="6.80022">
        <ele>2059.3687</ele>
        <time>2014-09-01T14:52:48Z</time>
      </trkpt>
      <trkpt lat="45.9887" lon="6.8002">
        <ele>2059.3687</ele>
        <time>2014-09-01T14:52:53Z</time>
      </trkpt>
      <trkpt lat="45.98867" lon="6.80018">
        <ele>2059.3687</ele>
        <time>2014-09-01T14:52:58Z</time>
      </trkpt>
      <trkpt lat="45.98864" lon="6.80017">
        <ele>2059.716</ele>
        <time>2014-09-01T14:53:03Z</time>
      </trkpt>
      <trkpt lat="45.9886" lon="6.80016">
        <ele>2059.716</ele>
        <time>2014-09-01T14:53:08Z</time>
      </trkpt>
      <trkpt lat="45.98858" lon="6.80017">
        <ele>2059.716</ele>
        <time>2014-09-01T14:53:13Z</time>
      </trkpt>
      <trkpt lat="45.98856" lon="6.80017">
        <ele>2059.716</ele>
        <time>2014-09-01T14:53:18Z</time>
      </trkpt>
      <trkpt lat="45.98856" lon="6.80017">
        <ele>2059.716</ele>
        <time>2014-09-01T14:53:23Z</time>
      </trkpt>
      <trkpt lat="45.98857" lon="6.80017">
        <ele>2059.716</ele>
        <time>2014-09-01T14:53:28Z</time>
      </trkpt>
      <trkpt lat="45.98857" lon="6.80016">
        <ele>2060.231</ele>
        <time>2014-09-01T14:53:33Z</time>
      </trkpt>
      <trkpt lat="45.98857" lon="6.80016">
        <ele>2060.231</ele>
        <time>2014-09-01T14:53:38Z</time>
      </trkpt>
      <trkpt lat="45.98857" lon="6.80015">
        <ele>2060.231</ele>
        <time>2014-09-01T14:53:43Z</time>
      </trkpt>
      <trkpt lat="45.98857" lon="6.80014">
        <ele>2060.231</ele>
        <time>2014-09-01T14:53:48Z</time>
      </trkpt>
      <trkpt lat="45.98856" lon="6.80014">
        <ele>2060.231</ele>
        <time>2014-09-01T14:53:53Z</time>
      </trkpt>
      <trkpt lat="45.98854" lon="6.80014">
        <ele>2060.231</ele>
        <time>2014-09-01T14:53:58Z</time>
      </trkpt>
      <trkpt lat="45.98853" lon="6.80014">
        <ele>2060.231</ele>
        <time>2014-09-01T14:54:03Z</time>
      </trkpt>
      <trkpt lat="45.98852" lon="6.80014">
        <ele>2060.231</ele>
        <time>2014-09-01T14:54:08Z</time>
      </trkpt>
      <trkpt lat="45.9885" lon="6.80013">
        <ele>2060.231</ele>
        <time>2014-09-01T14:54:13Z</time>
      </trkpt>
      <trkpt lat="45.9885" lon="6.80015">
        <ele>2061.087</ele>
        <time>2014-09-01T14:54:18Z</time>
      </trkpt>
      <trkpt lat="45.9885" lon="6.80013">
        <ele>2061.087</ele>
        <time>2014-09-01T14:54:23Z</time>
      </trkpt>
      <trkpt lat="45.9885" lon="6.80014">
        <ele>2061.087</ele>
        <time>2014-09-01T14:54:28Z</time>
      </trkpt>
      <trkpt lat="45.98851" lon="6.80015">
        <ele>2061.087</ele>
        <time>2014-09-01T14:54:33Z</time>
      </trkpt>
      <trkpt lat="45.98851" lon="6.80016">
        <ele>2061.087</ele>
        <time>2014-09-01T14:54:38Z</time>
      </trkpt>
      <trkpt lat="45.98851" lon="6.80016">
        <ele>2061.087</ele>
        <time>2014-09-01T14:54:43Z</time>
      </trkpt>
      <trkpt lat="45.98851" lon="6.80014">
        <ele>2061.087</ele>
        <time>2014-09-01T14:54:48Z</time>
      </trkpt>
      <trkpt lat="45.98851" lon="6.80011">
        <ele>2061.087</ele>
        <time>2014-09-01T14:54:53Z</time>
      </trkpt>
      <trkpt lat="45.98852" lon="6.80009">
        <ele>2062.0693</ele>
        <time>2014-09-01T14:54:58Z</time>
      </trkpt>
      <trkpt lat="45.98851" lon="6.80009">
        <ele>2062.0693</ele>
        <time>2014-09-01T14:55:03Z</time>
      </trkpt>
      <trkpt lat="45.9885" lon="6.8001">
        <ele>2062.0693</ele>
        <time>2014-09-01T14:55:08Z</time>
      </trkpt>
      <trkpt lat="45.9885" lon="6.8001">
        <ele>2062.0693</ele>
        <time>2014-09-01T14:55:13Z</time>
      </trkpt>
      <trkpt lat="45.98849" lon="6.8001">
        <ele>2062.0693</ele>
        <time>2014-09-01T14:55:18Z</time>
      </trkpt>
      <trkpt lat="45.98849" lon="6.8001">
        <ele>2062.0693</ele>
        <time>2014-09-01T14:55:23Z</time>
      </trkpt>
      <trkpt lat="45.98848" lon="6.80011">
        <ele>2062.0693</ele>
        <time>2014-09-01T14:55:28Z</time>
      </trkpt>
      <trkpt lat="45.98848" lon="6.80011">
        <ele>2062.0693</ele>
        <time>2014-09-01T14:55:33Z</time>
      </trkpt>
      <trkpt lat="45.98848" lon="6.80011">
        <ele>2062.0693</ele>
        <time>2014-09-01T14:55:38Z</time>
      </trkpt>
      <trkpt lat="45.98845" lon="6.80011">
        <ele>2062.0693</ele>
        <time>2014-09-01T14:55:43Z</time>
      </trkpt>
      <trkpt lat="45.98842" lon="6.80008">
        <ele>2063.3684</ele>
        <time>2014-09-01T14:55:48Z</time>
      </trkpt>
      <trkpt lat="45.98836" lon="6.80004">
        <ele>2063.3684</ele>
        <time>2014-09-01T14:55:53Z</time>
      </trkpt>
      <trkpt lat="45.98833" lon="6.79999">
        <ele>2064.4097</ele>
        <time>2014-09-01T14:55:58Z</time>
      </trkpt>
      <trkpt lat="45.98829" lon="6.79995">
        <ele>2064.4097</ele>
        <time>2014-09-01T14:56:03Z</time>
      </trkpt>
      <trkpt lat="45.98824" lon="6.79994">
        <ele>2065.2964</ele>
        <time>2014-09-01T14:56:08Z</time>
      </trkpt>
      <trkpt lat="45.98821" lon="6.79994">
        <ele>2065.2964</ele>
        <time>2014-09-01T14:56:13Z</time>
      </trkpt>
      <trkpt lat="45.98816" lon="6.79992">
        <ele>2065.2964</ele>
        <time>2014-09-01T14:56:18Z</time>
      </trkpt>
      <trkpt lat="45.98812" lon="6.79991">
        <ele>2066.3835</ele>
        <time>2014-09-01T14:56:23Z</time>
      </trkpt>
      <trkpt lat="45.98808" lon="6.79989">
        <ele>2066.3835</ele>
        <time>2014-09-01T14:56:28Z</time>
      </trkpt>
      <trkpt lat="45.98804" lon="6.79987">
        <ele>2066.3835</ele>
        <time>2014-09-01T14:56:33Z</time>
      </trkpt>
      <trkpt lat="45.98802" lon="6.79985">
        <ele>2067.6545</ele>
        <time>2014-09-01T14:56:38Z</time>
      </trkpt>
      <trkpt lat="45.98801" lon="6.79982">
        <ele>2067.6545</ele>
        <time>2014-09-01T14:56:43Z</time>
      </trkpt>
      <trkpt lat="45.988" lon="6.7998">
        <ele>2067.6545</ele>
        <time>2014-09-01T14:56:48Z</time>
      </trkpt>
      <trkpt lat="45.98799" lon="6.79981">
        <ele>2067.6545</ele>
        <time>2014-09-01T14:56:53Z</time>
      </trkpt>
      <trkpt lat="45.98796" lon="6.79979">
        <ele>2067.6545</ele>
        <time>2014-09-01T14:56:58Z</time>
      </trkpt>
      <trkpt lat="45.98795" lon="6.79979">
        <ele>2068.92</ele>
        <time>2014-09-01T14:57:03Z</time>
      </trkpt>
      <trkpt lat="45.98794" lon="6.79976">
        <ele>2068.92</ele>
        <time>2014-09-01T14:57:08Z</time>
      </trkpt>
      <trkpt lat="45.98796" lon="6.79975">
        <ele>2068.92</ele>
        <time>2014-09-01T14:57:13Z</time>
      </trkpt>
      <trkpt lat="45.98796" lon="6.79971">
        <ele>2068.92</ele>
        <time>2014-09-01T14:57:18Z</time>
      </trkpt>
      <trkpt lat="45.98797" lon="6.79969">
        <ele>2068.92</ele>
        <time>2014-09-01T14:57:23Z</time>
      </trkpt>
      <trkpt lat="45.98798" lon="6.79963">
        <ele>2070.3792</ele>
        <time>2014-09-01T14:57:28Z</time>
      </trkpt>
      <trkpt lat="45.98798" lon="6.79959">
        <ele>2070.3792</ele>
        <time>2014-09-01T14:57:33Z</time>
      </trkpt>
      <trkpt lat="45.988" lon="6.79954">
        <ele>2070.3792</ele>
        <time>2014-09-01T14:57:38Z</time>
      </trkpt>
      <trkpt lat="45.988" lon="6.7995">
        <ele>2071.9287</ele>
        <time>2014-09-01T14:57:43Z</time>
      </trkpt>
      <trkpt lat="45.988" lon="6.79945">
        <ele>2071.9287</ele>
        <time>2014-09-01T14:57:48Z</time>
      </trkpt>
      <trkpt lat="45.988" lon="6.79942">
        <ele>2071.9287</ele>
        <time>2014-09-01T14:57:53Z</time>
      </trkpt>
      <trkpt lat="45.988" lon="6.7994">
        <ele>2071.9287</ele>
        <time>2014-09-01T14:57:58Z</time>
      </trkpt>
      <trkpt lat="45.988" lon="6.79938">
        <ele>2071.9287</ele>
        <time>2014-09-01T14:58:03Z</time>
      </trkpt>
      <trkpt lat="45.98799" lon="6.79934">
        <ele>2073.6882</ele>
        <time>2014-09-01T14:58:08Z</time>
      </trkpt>
      <trkpt lat="45.98799" lon="6.79931">
        <ele>2073.6882</ele>
        <time>2014-09-01T14:58:13Z</time>
      </trkpt>
      <trkpt lat="45.98795" lon="6.79923">
        <ele>2075.3938</ele>
        <time>2014-09-01T14:58:18Z</time>
      </trkpt>
      <trkpt lat="45.98793" lon="6.79917">
        <ele>2075.3938</ele>
        <time>2014-09-01T14:58:23Z</time>
      </trkpt>
      <trkpt lat="45.98793" lon="6.79915">
        <ele>2075.3938</ele>
        <time>2014-09-01T14:58:28Z</time>
      </trkpt>
      <trkpt lat="45.98791" lon="6.79913">
        <ele>2075.3938</ele>
        <time>2014-09-01T14:58:33Z</time>
      </trkpt>
      <trkpt lat="45.9879" lon="6.79912">
        <ele>2076.9592</ele>
        <time>2014-09-01T14:58:38Z</time>
      </trkpt>
      <trkpt lat="45.98791" lon="6.79911">
        <ele>2076.9592</ele>
        <time>2014-09-01T14:58:43Z</time>
      </trkpt>
      <trkpt lat="45.9879" lon="6.79911">
        <ele>2076.9592</ele>
        <time>2014-09-01T14:58:48Z</time>
      </trkpt>
      <trkpt lat="45.98789" lon="6.79913">
        <ele>2076.9592</ele>
        <time>2014-09-01T14:58:53Z</time>
      </trkpt>
      <trkpt lat="45.98789" lon="6.79917">
        <ele>2076.9592</ele>
        <time>2014-09-01T14:58:58Z</time>
      </trkpt>
      <trkpt lat="45.98787" lon="6.79921">
        <ele>2078.1187</ele>
        <time>2014-09-01T14:59:03Z</time>
      </trkpt>
      <trkpt lat="45.98784" lon="6.79925">
        <ele>2078.1187</ele>
        <time>2014-09-01T14:59:08Z</time>
      </trkpt>
      <trkpt lat="45.98784" lon="6.79926">
        <ele>2078.1187</ele>
        <time>2014-09-01T14:59:13Z</time>
      </trkpt>
      <trkpt lat="45.98782" lon="6.79928">
        <ele>2078.1187</ele>
        <time>2014-09-01T14:59:18Z</time>
      </trkpt>
      <trkpt lat="45.98779" lon="6.79931">
        <ele>2078.914</ele>
        <time>2014-09-01T14:59:23Z</time>
      </trkpt>
      <trkpt lat="45.98777" lon="6.79934">
        <ele>2078.914</ele>
        <time>2014-09-01T14:59:28Z</time>
      </trkpt>
      <trkpt lat="45.98777" lon="6.79935">
        <ele>2078.914</ele>
        <time>2014-09-01T14:59:33Z</time>
      </trkpt>
      <trkpt lat="45.98776" lon="6.79936">
        <ele>2078.914</ele>
        <time>2014-09-01T14:59:38Z</time>
      </trkpt>
      <trkpt lat="45.98775" lon="6.79936">
        <ele>2078.914</ele>
        <time>2014-09-01T14:59:43Z</time>
      </trkpt>
      <trkpt lat="45.98775" lon="6.79936">
        <ele>2078.914</ele>
        <time>2014-09-01T14:59:48Z</time>
      </trkpt>
      <trkpt lat="45.98772" lon="6.79938">
        <ele>2079.934</ele>
        <time>2014-09-01T14:59:53Z</time>
      </trkpt>
      <trkpt lat="45.98772" lon="6.79939">
        <ele>2079.934</ele>
        <time>2014-09-01T14:59:58Z</time>
      </trkpt>
      <trkpt lat="45.9877" lon="6.79942">
        <ele>2079.934</ele>
        <time>2014-09-01T15:00:03Z</time>
      </trkpt>
      <trkpt lat="45.98771" lon="6.79944">
        <ele>2079.934</ele>
        <time>2014-09-01T15:00:08Z</time>
      </trkpt>
      <trkpt lat="45.98771" lon="6.79944">
        <ele>2079.934</ele>
        <time>2014-09-01T15:00:13Z</time>
      </trkpt>
      <trkpt lat="45.98772" lon="6.79945">
        <ele>2079.934</ele>
        <time>2014-09-01T15:00:18Z</time>
      </trkpt>
      <trkpt lat="45.98772" lon="6.79947">
        <ele>2079.934</ele>
        <time>2014-09-01T15:00:23Z</time>
      </trkpt>
      <trkpt lat="45.98771" lon="6.79948">
        <ele>2079.934</ele>
        <time>2014-09-01T15:00:28Z</time>
      </trkpt>
      <trkpt lat="45.9877" lon="6.79951">
        <ele>2081.478</ele>
        <time>2014-09-01T15:00:33Z</time>
      </trkpt>
      <trkpt lat="45.98768" lon="6.79955">
        <ele>2081.478</ele>
        <time>2014-09-01T15:00:38Z</time>
      </trkpt>
      <trkpt lat="45.98766" lon="6.79956">
        <ele>2081.478</ele>
        <time>2014-09-01T15:00:43Z</time>
      </trkpt>
      <trkpt lat="45.98768" lon="6.79953">
        <ele>2083.0007</ele>
        <time>2014-09-01T15:00:48Z</time>
      </trkpt>
      <trkpt lat="45.98768" lon="6.79953">
        <ele>2083.0007</ele>
        <time>2014-09-01T15:00:53Z</time>
      </trkpt>
      <trkpt lat="45.98768" lon="6.79953">
        <ele>2083.0007</ele>
        <time>2014-09-01T15:00:58Z</time>
      </trkpt>
      <trkpt lat="45.98768" lon="6.79952">
        <ele>2083.0007</ele>
        <time>2014-09-01T15:01:03Z</time>
      </trkpt>
      <trkpt lat="45.98768" lon="6.79948">
        <ele>2083.0007</ele>
        <time>2014-09-01T15:01:08Z</time>
      </trkpt>
      <trkpt lat="45.98768" lon="6.79946">
        <ele>2083.0007</ele>
        <time>2014-09-01T15:01:13Z</time>
      </trkpt>
      <trkpt lat="45.98769" lon="6.79946">
        <ele>2083.0007</ele>
        <time>2014-09-01T15:01:18Z</time>
      </trkpt>
      <trkpt lat="45.98767" lon="6.79949">
        <ele>2083.9536</ele>
        <time>2014-09-01T15:01:23Z</time>
      </trkpt>
      <trkpt lat="45.98765" lon="6.79951">
        <ele>2083.9536</ele>
        <time>2014-09-01T15:01:28Z</time>
      </trkpt>
      <trkpt lat="45.98763" lon="6.79953">
        <ele>2083.9536</ele>
        <time>2014-09-01T15:01:33Z</time>
      </trkpt>
      <trkpt lat="45.98759" lon="6.79956">
        <ele>2084.4216</ele>
        <time>2014-09-01T15:01:38Z</time>
      </trkpt>
      <trkpt lat="45.98758" lon="6.79959">
        <ele>2084.4216</ele>
        <time>2014-09-01T15:01:43Z</time>
      </trkpt>
      <trkpt lat="45.98755" lon="6.7996">
        <ele>2084.4216</ele>
        <time>2014-09-01T15:01:48Z</time>
      </trkpt>
      <trkpt lat="45.98753" lon="6.7996">
        <ele>2084.4216</ele>
        <time>2014-09-01T15:01:53Z</time>
      </trkpt>
      <trkpt lat="45.98751" lon="6.79962">
        <ele>2084.931</ele>
        <time>2014-09-01T15:01:58Z</time>
      </trkpt>
      <trkpt lat="45.98749" lon="6.79963">
        <ele>2084.931</ele>
        <time>2014-09-01T15:02:03Z</time>
      </trkpt>
      <trkpt lat="45.98745" lon="6.79963">
        <ele>2084.931</ele>
        <time>2014-09-01T15:02:08Z</time>
      </trkpt>
      <trkpt lat="45.98742" lon="6.79962">
        <ele>2084.931</ele>
        <time>2014-09-01T15:02:13Z</time>
      </trkpt>
      <trkpt lat="45.98741" lon="6.79964">
        <ele>2086.1277</ele>
        <time>2014-09-01T15:02:18Z</time>
      </trkpt>
      <trkpt lat="45.98739" lon="6.79964">
        <ele>2086.1277</ele>
        <time>2014-09-01T15:02:23Z</time>
      </trkpt>
      <trkpt lat="45.98737" lon="6.79963">
        <ele>2086.1277</ele>
        <time>2014-09-01T15:02:28Z</time>
      </trkpt>
      <trkpt lat="45.98736" lon="6.79964">
        <ele>2086.1277</ele>
        <time>2014-09-01T15:02:33Z</time>
      </trkpt>
      <trkpt lat="45.98736" lon="6.79963">
        <ele>2086.1277</ele>
        <time>2014-09-01T15:02:38Z</time>
      </trkpt>
      <trkpt lat="45.98736" lon="6.79963">
        <ele>2086.1277</ele>
        <time>2014-09-01T15:02:43Z</time>
      </trkpt>
      <trkpt lat="45.98734" lon="6.79965">
        <ele>2086.1277</ele>
        <time>2014-09-01T15:02:48Z</time>
      </trkpt>
      <trkpt lat="45.98732" lon="6.79966">
        <ele>2087.961</ele>
        <time>2014-09-01T15:02:53Z</time>
      </trkpt>
      <trkpt lat="45.9873" lon="6.79965">
        <ele>2087.961</ele>
        <time>2014-09-01T15:02:58Z</time>
      </trkpt>
      <trkpt lat="45.98729" lon="6.79966">
        <ele>2087.961</ele>
        <time>2014-09-01T15:03:03Z</time>
      </trkpt>
      <trkpt lat="45.98727" lon="6.79965">
        <ele>2087.961</ele>
        <time>2014-09-01T15:03:08Z</time>
      </trkpt>
      <trkpt lat="45.98725" lon="6.79965">
        <ele>2087.961</ele>
        <time>2014-09-01T15:03:13Z</time>
      </trkpt>
      <trkpt lat="45.98723" lon="6.79968">
        <ele>2090.006</ele>
        <time>2014-09-01T15:03:18Z</time>
      </trkpt>
      <trkpt lat="45.9872" lon="6.79969">
        <ele>2090.006</ele>
        <time>2014-09-01T15:03:23Z</time>
      </trkpt>
      <trkpt lat="45.98719" lon="6.7997">
        <ele>2090.006</ele>
        <time>2014-09-01T15:03:28Z</time>
      </trkpt>
      <trkpt lat="45.98716" lon="6.79969">
        <ele>2090.006</ele>
        <time>2014-09-01T15:03:33Z</time>
      </trkpt>
      <trkpt lat="45.98714" lon="6.7997">
        <ele>2091.6104</ele>
        <time>2014-09-01T15:03:38Z</time>
      </trkpt>
      <trkpt lat="45.98713" lon="6.79971">
        <ele>2091.6104</ele>
        <time>2014-09-01T15:03:43Z</time>
      </trkpt>
      <trkpt lat="45.98708" lon="6.79971">
        <ele>2091.6104</ele>
        <time>2014-09-01T15:03:48Z</time>
      </trkpt>
      <trkpt lat="45.98706" lon="6.7997">
        <ele>2091.6104</ele>
        <time>2014-09-01T15:03:53Z</time>
      </trkpt>
      <trkpt lat="45.98703" lon="6.79968">
        <ele>2093.4097</ele>
        <time>2014-09-01T15:03:58Z</time>
      </trkpt>
      <trkpt lat="45.987" lon="6.79968">
        <ele>2093.4097</ele>
        <time>2014-09-01T15:04:03Z</time>
      </trkpt>
      <trkpt lat="45.98698" lon="6.79969">
        <ele>2093.4097</ele>
        <time>2014-09-01T15:04:08Z</time>
      </trkpt>
      <trkpt lat="45.98697" lon="6.7997">
        <ele>2093.4097</ele>
        <time>2014-09-01T15:04:13Z</time>
      </trkpt>
      <trkpt lat="45.98696" lon="6.7997">
        <ele>2093.4097</ele>
        <time>2014-09-01T15:04:18Z</time>
      </trkpt>
      <trkpt lat="45.98693" lon="6.7997">
        <ele>2095.8481</ele>
        <time>2014-09-01T15:04:23Z</time>
      </trkpt>
      <trkpt lat="45.9869" lon="6.7997">
        <ele>2095.8481</ele>
        <time>2014-09-01T15:04:28Z</time>
      </trkpt>
      <trkpt lat="45.98688" lon="6.79972">
        <ele>2095.8481</ele>
        <time>2014-09-01T15:04:33Z</time>
      </trkpt>
      <trkpt lat="45.98686" lon="6.79973">
        <ele>2095.8481</ele>
        <time>2014-09-01T15:04:38Z</time>
      </trkpt>
      <trkpt lat="45.98685" lon="6.79973">
        <ele>2095.8481</ele>
        <time>2014-09-01T15:04:43Z</time>
      </trkpt>
      <trkpt lat="45.98683" lon="6.79973">
        <ele>2098.2266</ele>
        <time>2014-09-01T15:04:48Z</time>
      </trkpt>
      <trkpt lat="45.98681" lon="6.79972">
        <ele>2098.2266</ele>
        <time>2014-09-01T15:04:53Z</time>
      </trkpt>
      <trkpt lat="45.9868" lon="6.79972">
        <ele>2098.2266</ele>
        <time>2014-09-01T15:04:58Z</time>
      </trkpt>
      <trkpt lat="45.98678" lon="6.79972">
        <ele>2098.2266</ele>
        <time>2014-09-01T15:05:03Z</time>
      </trkpt>
      <trkpt lat="45.98673" lon="6.79972">
        <ele>2100.848</ele>
        <time>2014-09-01T15:05:08Z</time>
      </trkpt>
      <trkpt lat="45.98671" lon="6.79972">
        <ele>2100.848</ele>
        <time>2014-09-01T15:05:13Z</time>
      </trkpt>
      <trkpt lat="45.9867" lon="6.79971">
        <ele>2100.848</ele>
        <time>2014-09-01T15:05:18Z</time>
      </trkpt>
      <trkpt lat="45.98668" lon="6.7997">
        <ele>2100.848</ele>
        <time>2014-09-01T15:05:23Z</time>
      </trkpt>
      <trkpt lat="45.98665" lon="6.79969">
        <ele>2100.848</ele>
        <time>2014-09-01T15:05:28Z</time>
      </trkpt>
      <trkpt lat="45.98663" lon="6.79969">
        <ele>2103.69</ele>
        <time>2014-09-01T15:05:33Z</time>
      </trkpt>
      <trkpt lat="45.98663" lon="6.79969">
        <ele>2103.69</ele>
        <time>2014-09-01T15:05:38Z</time>
      </trkpt>
      <trkpt lat="45.9866" lon="6.7997">
        <ele>2103.69</ele>
        <time>2014-09-01T15:05:43Z</time>
      </trkpt>
      <trkpt lat="45.98658" lon="6.79971">
        <ele>2103.69</ele>
        <time>2014-09-01T15:05:48Z</time>
      </trkpt>
      <trkpt lat="45.98655" lon="6.79971">
        <ele>2103.69</ele>
        <time>2014-09-01T15:05:53Z</time>
      </trkpt>
      <trkpt lat="45.98653" lon="6.79974">
        <ele>2106.3281</ele>
        <time>2014-09-01T15:05:58Z</time>
      </trkpt>
      <trkpt lat="45.98651" lon="6.79975">
        <ele>2106.3281</ele>
        <time>2014-09-01T15:06:03Z</time>
      </trkpt>
      <trkpt lat="45.9865" lon="6.79974">
        <ele>2106.3281</ele>
        <time>2014-09-01T15:06:08Z</time>
      </trkpt>
      <trkpt lat="45.98649" lon="6.79975">
        <ele>2106.3281</ele>
        <time>2014-09-01T15:06:13Z</time>
      </trkpt>
      <trkpt lat="45.98647" lon="6.79978">
        <ele>2106.3281</ele>
        <time>2014-09-01T15:06:18Z</time>
      </trkpt>
      <trkpt lat="45.98644" lon="6.79978">
        <ele>2108.9026</ele>
        <time>2014-09-01T15:06:23Z</time>
      </trkpt>
      <trkpt lat="45.98642" lon="6.79978">
        <ele>2108.9026</ele>
        <time>2014-09-01T15:06:28Z</time>
      </trkpt>
      <trkpt lat="45.9864" lon="6.79978">
        <ele>2108.9026</ele>
        <time>2014-09-01T15:06:33Z</time>
      </trkpt>
      <trkpt lat="45.98636" lon="6.79979">
        <ele>2108.9026</ele>
        <time>2014-09-01T15:06:38Z</time>
      </trkpt>
      <trkpt lat="45.98632" lon="6.79979">
        <ele>2111.6882</ele>
        <time>2014-09-01T15:06:43Z</time>
      </trkpt>
      <trkpt lat="45.98629" lon="6.79975">
        <ele>2111.6882</ele>
        <time>2014-09-01T15:06:48Z</time>
      </trkpt>
      <trkpt lat="45.98625" lon="6.79972">
        <ele>2111.6882</ele>
        <time>2014-09-01T15:06:53Z</time>
      </trkpt>
      <trkpt lat="45.98623" lon="6.7997">
        <ele>2114.434</ele>
        <time>2014-09-01T15:06:58Z</time>
      </trkpt>
      <trkpt lat="45.98622" lon="6.7997">
        <ele>2114.434</ele>
        <time>2014-09-01T15:07:03Z</time>
      </trkpt>
      <trkpt lat="45.98622" lon="6.79969">
        <ele>2114.434</ele>
        <time>2014-09-01T15:07:08Z</time>
      </trkpt>
      <trkpt lat="45.98621" lon="6.79969">
        <ele>2114.434</ele>
        <time>2014-09-01T15:07:13Z</time>
      </trkpt>
      <trkpt lat="45.98621" lon="6.79971">
        <ele>2114.434</ele>
        <time>2014-09-01T15:07:18Z</time>
      </trkpt>
      <trkpt lat="45.98619" lon="6.79971">
        <ele>2114.434</ele>
        <time>2014-09-01T15:07:23Z</time>
      </trkpt>
      <trkpt lat="45.98617" lon="6.79971">
        <ele>2114.434</ele>
        <time>2014-09-01T15:07:28Z</time>
      </trkpt>
      <trkpt lat="45.98614" lon="6.79972">
        <ele>2117.8452</ele>
        <time>2014-09-01T15:07:33Z</time>
      </trkpt>
      <trkpt lat="45.98612" lon="6.7997">
        <ele>2117.8452</ele>
        <time>2014-09-01T15:07:38Z</time>
      </trkpt>
      <trkpt lat="45.9861" lon="6.79967">
        <ele>2117.8452</ele>
        <time>2014-09-01T15:07:43Z</time>
      </trkpt>
      <trkpt lat="45.98607" lon="6.79962">
        <ele>2121.1318</ele>
        <time>2014-09-01T15:07:48Z</time>
      </trkpt>
      <trkpt lat="45.98605" lon="6.79959">
        <ele>2121.1318</ele>
        <time>2014-09-01T15:07:53Z</time>
      </trkpt>
      <trkpt lat="45.98606" lon="6.7996">
        <ele>2121.1318</ele>
        <time>2014-09-01T15:07:58Z</time>
      </trkpt>
      <trkpt lat="45.98605" lon="6.79959">
        <ele>2121.1318</ele>
        <time>2014-09-01T15:08:03Z</time>
      </trkpt>
      <trkpt lat="45.98605" lon="6.79958">
        <ele>2121.1318</ele>
        <time>2014-09-01T15:08:08Z</time>
      </trkpt>
      <trkpt lat="45.98605" lon="6.79958">
        <ele>2121.1318</ele>
        <time>2014-09-01T15:08:13Z</time>
      </trkpt>
      <trkpt lat="45.98605" lon="6.79959">
        <ele>2121.1318</ele>
        <time>2014-09-01T15:08:18Z</time>
      </trkpt>
      <trkpt lat="45.98604" lon="6.79959">
        <ele>2121.1318</ele>
        <time>2014-09-01T15:08:23Z</time>
      </trkpt>
      <trkpt lat="45.98603" lon="6.79957">
        <ele>2121.1318</ele>
        <time>2014-09-01T15:08:28Z</time>
      </trkpt>
      <trkpt lat="45.98603" lon="6.79953">
        <ele>2124.7441</ele>
        <time>2014-09-01T15:08:33Z</time>
      </trkpt>
      <trkpt lat="45.98602" lon="6.79947">
        <ele>2124.7441</ele>
        <time>2014-09-01T15:08:38Z</time>
      </trkpt>
      <trkpt lat="45.986" lon="6.79941">
        <ele>2128.263</ele>
        <time>2014-09-01T15:08:43Z</time>
      </trkpt>
      <trkpt lat="45.98598" lon="6.79941">
        <ele>2128.263</ele>
        <time>2014-09-01T15:08:48Z</time>
      </trkpt>
      <trkpt lat="45.98593" lon="6.7994">
        <ele>2128.263</ele>
        <time>2014-09-01T15:08:53Z</time>
      </trkpt>
      <trkpt lat="45.98591" lon="6.79939">
        <ele>2131.3003</ele>
        <time>2014-09-01T15:08:58Z</time>
      </trkpt>
      <trkpt lat="45.98589" lon="6.79938">
        <ele>2131.3003</ele>
        <time>2014-09-01T15:09:03Z</time>
      </trkpt>
      <trkpt lat="45.98587" lon="6.79937">
        <ele>2131.3003</ele>
        <time>2014-09-01T15:09:08Z</time>
      </trkpt>
      <trkpt lat="45.98586" lon="6.7994">
        <ele>2131.3003</ele>
        <time>2014-09-01T15:09:13Z</time>
      </trkpt>
      <trkpt lat="45.98584" lon="6.7994">
        <ele>2131.3003</ele>
        <time>2014-09-01T15:09:18Z</time>
      </trkpt>
      <trkpt lat="45.9858" lon="6.79938">
        <ele>2134.2185</ele>
        <time>2014-09-01T15:09:23Z</time>
      </trkpt>
      <trkpt lat="45.98577" lon="6.79937">
        <ele>2134.2185</ele>
        <time>2014-09-01T15:09:28Z</time>
      </trkpt>
      <trkpt lat="45.98574" lon="6.79935">
        <ele>2134.2185</ele>
        <time>2014-09-01T15:09:33Z</time>
      </trkpt>
      <trkpt lat="45.98571" lon="6.7993">
        <ele>2136.9358</ele>
        <time>2014-09-01T15:09:38Z</time>
      </trkpt>
      <trkpt lat="45.98569" lon="6.79924">
        <ele>2136.9358</ele>
        <time>2014-09-01T15:09:43Z</time>
      </trkpt>
      <trkpt lat="45.98567" lon="6.79919">
        <ele>2136.9358</ele>
        <time>2014-09-01T15:09:48Z</time>
      </trkpt>
      <trkpt lat="45.98565" lon="6.79913">
        <ele>2139.392</ele>
        <time>2014-09-01T15:09:53Z</time>
      </trkpt>
      <trkpt lat="45.98564" lon="6.79906">
        <ele>2139.392</ele>
        <time>2014-09-01T15:09:58Z</time>
      </trkpt>
      <trkpt lat="45.98563" lon="6.79901">
        <ele>2139.392</ele>
        <time>2014-09-01T15:10:03Z</time>
      </trkpt>
      <trkpt lat="45.98561" lon="6.79896">
        <ele>2141.806</ele>
        <time>2014-09-01T15:10:08Z</time>
      </trkpt>
      <trkpt lat="45.9856" lon="6.7989">
        <ele>2141.806</ele>
        <time>2014-09-01T15:10:13Z</time>
      </trkpt>
      <trkpt lat="45.98559" lon="6.79886">
        <ele>2141.806</ele>
        <time>2014-09-01T15:10:18Z</time>
      </trkpt>
      <trkpt lat="45.98559" lon="6.79883">
        <ele>2144.1638</ele>
        <time>2014-09-01T15:10:23Z</time>
      </trkpt>
      <trkpt lat="45.98558" lon="6.79878">
        <ele>2144.1638</ele>
        <time>2014-09-01T15:10:28Z</time>
      </trkpt>
      <trkpt lat="45.98556" lon="6.79874">
        <ele>2144.1638</ele>
        <time>2014-09-01T15:10:33Z</time>
      </trkpt>
      <trkpt lat="45.98555" lon="6.7987">
        <ele>2146.5547</ele>
        <time>2014-09-01T15:10:38Z</time>
      </trkpt>
      <trkpt lat="45.98554" lon="6.79861">
        <ele>2146.5547</ele>
        <time>2014-09-01T15:10:43Z</time>
      </trkpt>
      <trkpt lat="45.98551" lon="6.79855">
        <ele>2148.888</ele>
        <time>2014-09-01T15:10:48Z</time>
      </trkpt>
      <trkpt lat="45.98551" lon="6.79852">
        <ele>2148.888</ele>
        <time>2014-09-01T15:10:53Z</time>
      </trkpt>
      <trkpt lat="45.98552" lon="6.79846">
        <ele>2148.888</ele>
        <time>2014-09-01T15:10:58Z</time>
      </trkpt>
      <trkpt lat="45.9855" lon="6.79841">
        <ele>2151.109</ele>
        <time>2014-09-01T15:11:03Z</time>
      </trkpt>
      <trkpt lat="45.98549" lon="6.79836">
        <ele>2151.109</ele>
        <time>2014-09-01T15:11:08Z</time>
      </trkpt>
      <trkpt lat="45.98548" lon="6.7983">
        <ele>2151.109</ele>
        <time>2014-09-01T15:11:13Z</time>
      </trkpt>
      <trkpt lat="45.98545" lon="6.79826">
        <ele>2153.1384</ele>
        <time>2014-09-01T15:11:18Z</time>
      </trkpt>
      <trkpt lat="45.98542" lon="6.79825">
        <ele>2153.1384</ele>
        <time>2014-09-01T15:11:23Z</time>
      </trkpt>
      <trkpt lat="45.98538" lon="6.79822">
        <ele>2153.1384</ele>
        <time>2014-09-01T15:11:28Z</time>
      </trkpt>
      <trkpt lat="45.98533" lon="6.79818">
        <ele>2154.9326</ele>
        <time>2014-09-01T15:11:33Z</time>
      </trkpt>
      <trkpt lat="45.98531" lon="6.79817">
        <ele>2154.9326</ele>
        <time>2014-09-01T15:11:38Z</time>
      </trkpt>
      <trkpt lat="45.98529" lon="6.79815">
        <ele>2154.9326</ele>
        <time>2014-09-01T15:11:43Z</time>
      </trkpt>
      <trkpt lat="45.98527" lon="6.79813">
        <ele>2154.9326</ele>
        <time>2014-09-01T15:11:48Z</time>
      </trkpt>
      <trkpt lat="45.98524" lon="6.79813">
        <ele>2156.5525</ele>
        <time>2014-09-01T15:11:53Z</time>
      </trkpt>
      <trkpt lat="45.9852" lon="6.79811">
        <ele>2156.5525</ele>
        <time>2014-09-01T15:11:58Z</time>
      </trkpt>
      <trkpt lat="45.98516" lon="6.79812">
        <ele>2156.5525</ele>
        <time>2014-09-01T15:12:03Z</time>
      </trkpt>
      <trkpt lat="45.98514" lon="6.79812">
        <ele>2157.8677</ele>
        <time>2014-09-01T15:12:08Z</time>
      </trkpt>
      <trkpt lat="45.98509" lon="6.79813">
        <ele>2157.8677</ele>
        <time>2014-09-01T15:12:13Z</time>
      </trkpt>
      <trkpt lat="45.98505" lon="6.79815">
        <ele>2157.8677</ele>
        <time>2014-09-01T15:12:18Z</time>
      </trkpt>
      <trkpt lat="45.98502" lon="6.79818">
        <ele>2158.8882</ele>
        <time>2014-09-01T15:12:23Z</time>
      </trkpt>
      <trkpt lat="45.98499" lon="6.79819">
        <ele>2158.8882</ele>
        <time>2014-09-01T15:12:28Z</time>
      </trkpt>
      <trkpt lat="45.98495" lon="6.79819">
        <ele>2158.8882</ele>
        <time>2014-09-01T15:12:33Z</time>
      </trkpt>
      <trkpt lat="45.98491" lon="6.7982">
        <ele>2159.725</ele>
        <time>2014-09-01T15:12:38Z</time>
      </trkpt>
      <trkpt lat="45.98488" lon="6.79821">
        <ele>2159.725</ele>
        <time>2014-09-01T15:12:43Z</time>
      </trkpt>
      <trkpt lat="45.98484" lon="6.79821">
        <ele>2159.725</ele>
        <time>2014-09-01T15:12:48Z</time>
      </trkpt>
      <trkpt lat="45.98479" lon="6.79819">
        <ele>2160.5398</ele>
        <time>2014-09-01T15:12:53Z</time>
      </trkpt>
      <trkpt lat="45.98476" lon="6.79818">
        <ele>2160.5398</ele>
        <time>2014-09-01T15:12:58Z</time>
      </trkpt>
      <trkpt lat="45.98474" lon="6.79818">
        <ele>2160.5398</ele>
        <time>2014-09-01T15:13:03Z</time>
      </trkpt>
      <trkpt lat="45.98471" lon="6.7982">
        <ele>2160.5398</ele>
        <time>2014-09-01T15:13:08Z</time>
      </trkpt>
      <trkpt lat="45.98468" lon="6.79822">
        <ele>2161.5676</ele>
        <time>2014-09-01T15:13:13Z</time>
      </trkpt>
      <trkpt lat="45.98464" lon="6.79822">
        <ele>2161.5676</ele>
        <time>2014-09-01T15:13:18Z</time>
      </trkpt>
      <trkpt lat="45.9846" lon="6.7982">
        <ele>2161.5676</ele>
        <time>2014-09-01T15:13:23Z</time>
      </trkpt>
      <trkpt lat="45.98455" lon="6.79813">
        <ele>2162.5798</ele>
        <time>2014-09-01T15:13:28Z</time>
      </trkpt>
      <trkpt lat="45.98452" lon="6.7981">
        <ele>2162.5798</ele>
        <time>2014-09-01T15:13:33Z</time>
      </trkpt>
      <trkpt lat="45.9845" lon="6.79807">
        <ele>2162.5798</ele>
        <time>2014-09-01T15:13:38Z</time>
      </trkpt>
      <trkpt lat="45.98448" lon="6.79806">
        <ele>2163.7683</ele>
        <time>2014-09-01T15:13:43Z</time>
      </trkpt>
      <trkpt lat="45.98444" lon="6.79804">
        <ele>2163.7683</ele>
        <time>2014-09-01T15:13:48Z</time>
      </trkpt>
      <trkpt lat="45.9844" lon="6.79802">
        <ele>2163.7683</ele>
        <time>2014-09-01T15:13:53Z</time>
      </trkpt>
      <trkpt lat="45.98437" lon="6.79802">
        <ele>2165.0361</ele>
        <time>2014-09-01T15:13:58Z</time>
      </trkpt>
      <trkpt lat="45.98434" lon="6.79799">
        <ele>2165.0361</ele>
        <time>2014-09-01T15:14:03Z</time>
      </trkpt>
      <trkpt lat="45.9843" lon="6.79795">
        <ele>2165.0361</ele>
        <time>2014-09-01T15:14:08Z</time>
      </trkpt>
      <trkpt lat="45.98428" lon="6.79792">
        <ele>2166.2502</ele>
        <time>2014-09-01T15:14:13Z</time>
      </trkpt>
      <trkpt lat="45.98426" lon="6.7979">
        <ele>2166.2502</ele>
        <time>2014-09-01T15:14:18Z</time>
      </trkpt>
      <trkpt lat="45.98424" lon="6.79789">
        <ele>2166.2502</ele>
        <time>2014-09-01T15:14:23Z</time>
      </trkpt>
      <trkpt lat="45.98421" lon="6.79788">
        <ele>2166.2502</ele>
        <time>2014-09-01T15:14:28Z</time>
      </trkpt>
      <trkpt lat="45.98416" lon="6.79786">
        <ele>2167.5178</ele>
        <time>2014-09-01T15:14:33Z</time>
      </trkpt>
      <trkpt lat="45.98412" lon="6.79783">
        <ele>2167.5178</ele>
        <time>2014-09-01T15:14:38Z</time>
      </trkpt>
      <trkpt lat="45.9841" lon="6.79782">
        <ele>2167.5178</ele>
        <time>2014-09-01T15:14:43Z</time>
      </trkpt>
      <trkpt lat="45.98409" lon="6.79781">
        <ele>2167.5178</ele>
        <time>2014-09-01T15:14:48Z</time>
      </trkpt>
      <trkpt lat="45.98405" lon="6.79781">
        <ele>2168.6646</ele>
        <time>2014-09-01T15:14:53Z</time>
      </trkpt>
      <trkpt lat="45.98402" lon="6.79781">
        <ele>2168.6646</ele>
        <time>2014-09-01T15:14:58Z</time>
      </trkpt>
      <trkpt lat="45.98402" lon="6.7978">
        <ele>2168.6646</ele>
        <time>2014-09-01T15:15:03Z</time>
      </trkpt>
      <trkpt lat="45.98401" lon="6.79779">
        <ele>2168.6646</ele>
        <time>2014-09-01T15:15:08Z</time>
      </trkpt>
      <trkpt lat="45.984" lon="6.79781">
        <ele>2168.6646</ele>
        <time>2014-09-01T15:15:13Z</time>
      </trkpt>
      <trkpt lat="45.98397" lon="6.79781">
        <ele>2169.702</ele>
        <time>2014-09-01T15:15:18Z</time>
      </trkpt>
      <trkpt lat="45.98394" lon="6.7978">
        <ele>2169.702</ele>
        <time>2014-09-01T15:15:23Z</time>
      </trkpt>
      <trkpt lat="45.98392" lon="6.7978">
        <ele>2169.702</ele>
        <time>2014-09-01T15:15:28Z</time>
      </trkpt>
      <trkpt lat="45.9839" lon="6.79781">
        <ele>2169.702</ele>
        <time>2014-09-01T15:15:33Z</time>
      </trkpt>
      <trkpt lat="45.98388" lon="6.79783">
        <ele>2170.785</ele>
        <time>2014-09-01T15:15:38Z</time>
      </trkpt>
      <trkpt lat="45.98386" lon="6.79785">
        <ele>2170.785</ele>
        <time>2014-09-01T15:15:43Z</time>
      </trkpt>
      <trkpt lat="45.98383" lon="6.79786">
        <ele>2170.785</ele>
        <time>2014-09-01T15:15:48Z</time>
      </trkpt>
      <trkpt lat="45.98381" lon="6.79784">
        <ele>2170.785</ele>
        <time>2014-09-01T15:15:53Z</time>
      </trkpt>
      <trkpt lat="45.98379" lon="6.79784">
        <ele>2171.8845</ele>
        <time>2014-09-01T15:15:58Z</time>
      </trkpt>
      <trkpt lat="45.98377" lon="6.79784">
        <ele>2171.8845</ele>
        <time>2014-09-01T15:16:03Z</time>
      </trkpt>
      <trkpt lat="45.98375" lon="6.79783">
        <ele>2171.8845</ele>
        <time>2014-09-01T15:16:08Z</time>
      </trkpt>
      <trkpt lat="45.98371" lon="6.79783">
        <ele>2171.8845</ele>
        <time>2014-09-01T15:16:13Z</time>
      </trkpt>
      <trkpt lat="45.9837" lon="6.79784">
        <ele>2173.1606</ele>
        <time>2014-09-01T15:16:18Z</time>
      </trkpt>
      <trkpt lat="45.98369" lon="6.79787">
        <ele>2173.1606</ele>
        <time>2014-09-01T15:16:23Z</time>
      </trkpt>
      <trkpt lat="45.98369" lon="6.79787">
        <ele>2173.1606</ele>
        <time>2014-09-01T15:16:28Z</time>
      </trkpt>
      <trkpt lat="45.98369" lon="6.79786">
        <ele>2173.1606</ele>
        <time>2014-09-01T15:16:33Z</time>
      </trkpt>
      <trkpt lat="45.98367" lon="6.79785">
        <ele>2173.1606</ele>
        <time>2014-09-01T15:16:38Z</time>
      </trkpt>
      <trkpt lat="45.98365" lon="6.79784">
        <ele>2173.1606</ele>
        <time>2014-09-01T15:16:43Z</time>
      </trkpt>
      <trkpt lat="45.9836" lon="6.79783">
        <ele>2174.6743</ele>
        <time>2014-09-01T15:16:48Z</time>
      </trkpt>
      <trkpt lat="45.98359" lon="6.79783">
        <ele>2174.6743</ele>
        <time>2014-09-01T15:16:53Z</time>
      </trkpt>
      <trkpt lat="45.98356" lon="6.79784">
        <ele>2174.6743</ele>
        <time>2014-09-01T15:16:58Z</time>
      </trkpt>
      <trkpt lat="45.98353" lon="6.79783">
        <ele>2174.6743</ele>
        <time>2014-09-01T15:17:03Z</time>
      </trkpt>
      <trkpt lat="45.9835" lon="6.79782">
        <ele>2176.41</ele>
        <time>2014-09-01T15:17:08Z</time>
      </trkpt>
      <trkpt lat="45.98348" lon="6.79781">
        <ele>2176.41</ele>
        <time>2014-09-01T15:17:13Z</time>
      </trkpt>
      <trkpt lat="45.98345" lon="6.79782">
        <ele>2176.41</ele>
        <time>2014-09-01T15:17:18Z</time>
      </trkpt>
      <trkpt lat="45.98343" lon="6.79782">
        <ele>2176.41</ele>
        <time>2014-09-01T15:17:23Z</time>
      </trkpt>
      <trkpt lat="45.9834" lon="6.79781">
        <ele>2178.3518</ele>
        <time>2014-09-01T15:17:28Z</time>
      </trkpt>
      <trkpt lat="45.98337" lon="6.7978">
        <ele>2178.3518</ele>
        <time>2014-09-01T15:17:33Z</time>
      </trkpt>
      <trkpt lat="45.98335" lon="6.79779">
        <ele>2178.3518</ele>
        <time>2014-09-01T15:17:38Z</time>
      </trkpt>
      <trkpt lat="45.98332" lon="6.79779">
        <ele>2178.3518</ele>
        <time>2014-09-01T15:17:43Z</time>
      </trkpt>
      <trkpt lat="45.98331" lon="6.79778">
        <ele>2180.4417</ele>
        <time>2014-09-01T15:17:48Z</time>
      </trkpt>
      <trkpt lat="45.9833" lon="6.79778">
        <ele>2180.4417</ele>
        <time>2014-09-01T15:17:53Z</time>
      </trkpt>
      <trkpt lat="45.98327" lon="6.79775">
        <ele>2180.4417</ele>
        <time>2014-09-01T15:17:58Z</time>
      </trkpt>
      <trkpt lat="45.98324" lon="6.79777">
        <ele>2180.4417</ele>
        <time>2014-09-01T15:18:03Z</time>
      </trkpt>
      <trkpt lat="45.9832" lon="6.79775">
        <ele>2182.5823</ele>
        <time>2014-09-01T15:18:08Z</time>
      </trkpt>
      <trkpt lat="45.98316" lon="6.79772">
        <ele>2182.5823</ele>
        <time>2014-09-01T15:18:13Z</time>
      </trkpt>
      <trkpt lat="45.98313" lon="6.79771">
        <ele>2182.5823</ele>
        <time>2014-09-01T15:18:18Z</time>
      </trkpt>
      <trkpt lat="45.9831" lon="6.7977">
        <ele>2184.596</ele>
        <time>2014-09-01T15:18:23Z</time>
      </trkpt>
      <trkpt lat="45.98306" lon="6.79769">
        <ele>2184.596</ele>
        <time>2014-09-01T15:18:28Z</time>
      </trkpt>
      <trkpt lat="45.98303" lon="6.7977">
        <ele>2184.596</ele>
        <time>2014-09-01T15:18:33Z</time>
      </trkpt>
      <trkpt lat="45.98301" lon="6.79769">
        <ele>2186.6797</ele>
        <time>2014-09-01T15:18:38Z</time>
      </trkpt>
      <trkpt lat="45.98298" lon="6.79767">
        <ele>2186.6797</ele>
        <time>2014-09-01T15:18:43Z</time>
      </trkpt>
      <trkpt lat="45.98292" lon="6.79766">
        <ele>2188.41</ele>
        <time>2014-09-01T15:18:48Z</time>
      </trkpt>
      <trkpt lat="45.98288" lon="6.79766">
        <ele>2188.41</ele>
        <time>2014-09-01T15:18:53Z</time>
      </trkpt>
      <trkpt lat="45.98283" lon="6.79764">
        <ele>2188.41</ele>
        <time>2014-09-01T15:18:58Z</time>
      </trkpt>
      <trkpt lat="45.98279" lon="6.79763">
        <ele>2189.957</ele>
        <time>2014-09-01T15:19:03Z</time>
      </trkpt>
      <trkpt lat="45.98276" lon="6.79762">
        <ele>2189.957</ele>
        <time>2014-09-01T15:19:08Z</time>
      </trkpt>
      <trkpt lat="45.98275" lon="6.79762">
        <ele>2189.957</ele>
        <time>2014-09-01T15:19:13Z</time>
      </trkpt>
      <trkpt lat="45.98273" lon="6.79763">
        <ele>2189.957</ele>
        <time>2014-09-01T15:19:18Z</time>
      </trkpt>
      <trkpt lat="45.98269" lon="6.79763">
        <ele>2191.3506</ele>
        <time>2014-09-01T15:19:23Z</time>
      </trkpt>
      <trkpt lat="45.98265" lon="6.79765">
        <ele>2191.3506</ele>
        <time>2014-09-01T15:19:28Z</time>
      </trkpt>
      <trkpt lat="45.98262" lon="6.79766">
        <ele>2191.3506</ele>
        <time>2014-09-01T15:19:33Z</time>
      </trkpt>
      <trkpt lat="45.98261" lon="6.79769">
        <ele>2192.7612</ele>
        <time>2014-09-01T15:19:38Z</time>
      </trkpt>
      <trkpt lat="45.98258" lon="6.79771">
        <ele>2192.7612</ele>
        <time>2014-09-01T15:19:43Z</time>
      </trkpt>
      <trkpt lat="45.98256" lon="6.79772">
        <ele>2192.7612</ele>
        <time>2014-09-01T15:19:48Z</time>
      </trkpt>
      <trkpt lat="45.98254" lon="6.79773">
        <ele>2192.7612</ele>
        <time>2014-09-01T15:19:53Z</time>
      </trkpt>
      <trkpt lat="45.98254" lon="6.79773">
        <ele>2192.7612</ele>
        <time>2014-09-01T15:19:58Z</time>
      </trkpt>
      <trkpt lat="45.98249" lon="6.79771">
        <ele>2194.4922</ele>
        <time>2014-09-01T15:20:03Z</time>
      </trkpt>
      <trkpt lat="45.98244" lon="6.79771">
        <ele>2194.4922</ele>
        <time>2014-09-01T15:20:08Z</time>
      </trkpt>
      <trkpt lat="45.98242" lon="6.79772">
        <ele>2194.4922</ele>
        <time>2014-09-01T15:20:13Z</time>
      </trkpt>
      <trkpt lat="45.98239" lon="6.79774">
        <ele>2196.088</ele>
        <time>2014-09-01T15:20:18Z</time>
      </trkpt>
      <trkpt lat="45.98234" lon="6.79775">
        <ele>2196.088</ele>
        <time>2014-09-01T15:20:23Z</time>
      </trkpt>
      <trkpt lat="45.98231" lon="6.79775">
        <ele>2196.088</ele>
        <time>2014-09-01T15:20:28Z</time>
      </trkpt>
      <trkpt lat="45.98228" lon="6.79776">
        <ele>2197.6887</ele>
        <time>2014-09-01T15:20:33Z</time>
      </trkpt>
      <trkpt lat="45.98225" lon="6.79777">
        <ele>2197.6887</ele>
        <time>2014-09-01T15:20:38Z</time>
      </trkpt>
      <trkpt lat="45.98225" lon="6.79777">
        <ele>2197.6887</ele>
        <time>2014-09-01T15:20:43Z</time>
      </trkpt>
      <trkpt lat="45.98223" lon="6.79778">
        <ele>2197.6887</ele>
        <time>2014-09-01T15:20:48Z</time>
      </trkpt>
      <trkpt lat="45.9822" lon="6.7978">
        <ele>2197.6887</ele>
        <time>2014-09-01T15:20:53Z</time>
      </trkpt>
      <trkpt lat="45.98216" lon="6.7978">
        <ele>2199.3386</ele>
        <time>2014-09-01T15:20:58Z</time>
      </trkpt>
      <trkpt lat="45.98213" lon="6.7978">
        <ele>2199.3386</ele>
        <time>2014-09-01T15:21:03Z</time>
      </trkpt>
      <trkpt lat="45.9821" lon="6.7978">
        <ele>2199.3386</ele>
        <time>2014-09-01T15:21:08Z</time>
      </trkpt>
      <trkpt lat="45.98207" lon="6.79779">
        <ele>2199.3386</ele>
        <time>2014-09-01T15:21:13Z</time>
      </trkpt>
      <trkpt lat="45.98203" lon="6.7978">
        <ele>2201.207</ele>
        <time>2014-09-01T15:21:18Z</time>
      </trkpt>
      <trkpt lat="45.982" lon="6.79781">
        <ele>2201.207</ele>
        <time>2014-09-01T15:21:23Z</time>
      </trkpt>
      <trkpt lat="45.98199" lon="6.79782">
        <ele>2201.207</ele>
        <time>2014-09-01T15:21:28Z</time>
      </trkpt>
      <trkpt lat="45.98198" lon="6.79783">
        <ele>2201.207</ele>
        <time>2014-09-01T15:21:33Z</time>
      </trkpt>
      <trkpt lat="45.98195" lon="6.79786">
        <ele>2203.1917</ele>
        <time>2014-09-01T15:21:38Z</time>
      </trkpt>
      <trkpt lat="45.98193" lon="6.79786">
        <ele>2203.1917</ele>
        <time>2014-09-01T15:21:43Z</time>
      </trkpt>
      <trkpt lat="45.9819" lon="6.79784">
        <ele>2203.1917</ele>
        <time>2014-09-01T15:21:48Z</time>
      </trkpt>
      <trkpt lat="45.98188" lon="6.79782">
        <ele>2203.1917</ele>
        <time>2014-09-01T15:21:53Z</time>
      </trkpt>
      <trkpt lat="45.98186" lon="6.7978">
        <ele>2205.2117</ele>
        <time>2014-09-01T15:21:58Z</time>
      </trkpt>
      <trkpt lat="45.98186" lon="6.79781">
        <ele>2205.2117</ele>
        <time>2014-09-01T15:22:03Z</time>
      </trkpt>
      <trkpt lat="45.98183" lon="6.7978">
        <ele>2205.2117</ele>
        <time>2014-09-01T15:22:08Z</time>
      </trkpt>
      <trkpt lat="45.9818" lon="6.79779">
        <ele>2205.2117</ele>
        <time>2014-09-01T15:22:13Z</time>
      </trkpt>
      <trkpt lat="45.98178" lon="6.79779">
        <ele>2205.2117</ele>
        <time>2014-09-01T15:22:18Z</time>
      </trkpt>
      <trkpt lat="45.98175" lon="6.79777">
        <ele>2207.2349</ele>
        <time>2014-09-01T15:22:23Z</time>
      </trkpt>
      <trkpt lat="45.98172" lon="6.79776">
        <ele>2207.2349</ele>
        <time>2014-09-01T15:22:28Z</time>
      </trkpt>
      <trkpt lat="45.9817" lon="6.79771">
        <ele>2207.2349</ele>
        <time>2014-09-01T15:22:33Z</time>
      </trkpt>
      <trkpt lat="45.98168" lon="6.7977">
        <ele>2207.2349</ele>
        <time>2014-09-01T15:22:38Z</time>
      </trkpt>
      <trkpt lat="45.98166" lon="6.79769">
        <ele>2209.2605</ele>
        <time>2014-09-01T15:22:43Z</time>
      </trkpt>
      <trkpt lat="45.98164" lon="6.79768">
        <ele>2209.2605</ele>
        <time>2014-09-01T15:22:48Z</time>
      </trkpt>
      <trkpt lat="45.98162" lon="6.79766">
        <ele>2209.2605</ele>
        <time>2014-09-01T15:22:53Z</time>
      </trkpt>
      <trkpt lat="45.98161" lon="6.79764">
        <ele>2209.2605</ele>
        <time>2014-09-01T15:22:58Z</time>
      </trkpt>
      <trkpt lat="45.9816" lon="6.79764">
        <ele>2209.2605</ele>
        <time>2014-09-01T15:23:03Z</time>
      </trkpt>
      <trkpt lat="45.98159" lon="6.79762">
        <ele>2209.2605</ele>
        <time>2014-09-01T15:23:08Z</time>
      </trkpt>
      <trkpt lat="45.98157" lon="6.79761">
        <ele>2211.475</ele>
        <time>2014-09-01T15:23:13Z</time>
      </trkpt>
      <trkpt lat="45.98155" lon="6.79758">
        <ele>2211.475</ele>
        <time>2014-09-01T15:23:18Z</time>
      </trkpt>
      <trkpt lat="45.98152" lon="6.79757">
        <ele>2211.475</ele>
        <time>2014-09-01T15:23:23Z</time>
      </trkpt>
      <trkpt lat="45.9815" lon="6.79754">
        <ele>2213.518</ele>
        <time>2014-09-01T15:23:28Z</time>
      </trkpt>
      <trkpt lat="45.98148" lon="6.79753">
        <ele>2213.518</ele>
        <time>2014-09-01T15:23:33Z</time>
      </trkpt>
      <trkpt lat="45.98146" lon="6.79752">
        <ele>2213.518</ele>
        <time>2014-09-01T15:23:38Z</time>
      </trkpt>
      <trkpt lat="45.98144" lon="6.79752">
        <ele>2213.518</ele>
        <time>2014-09-01T15:23:43Z</time>
      </trkpt>
      <trkpt lat="45.98141" lon="6.79749">
        <ele>2215.4875</ele>
        <time>2014-09-01T15:23:48Z</time>
      </trkpt>
      <trkpt lat="45.98139" lon="6.7975">
        <ele>2215.4875</ele>
        <time>2014-09-01T15:23:53Z</time>
      </trkpt>
      <trkpt lat="45.98137" lon="6.7975">
        <ele>2215.4875</ele>
        <time>2014-09-01T15:23:58Z</time>
      </trkpt>
      <trkpt lat="45.98137" lon="6.79748">
        <ele>2215.4875</ele>
        <time>2014-09-01T15:24:03Z</time>
      </trkpt>
      <trkpt lat="45.98136" lon="6.79747">
        <ele>2215.4875</ele>
        <time>2014-09-01T15:24:08Z</time>
      </trkpt>
      <trkpt lat="45.98134" lon="6.79747">
        <ele>2215.4875</ele>
        <time>2014-09-01T15:24:13Z</time>
      </trkpt>
      <trkpt lat="45.98132" lon="6.79745">
        <ele>2217.6047</ele>
        <time>2014-09-01T15:24:18Z</time>
      </trkpt>
      <trkpt lat="45.98131" lon="6.79742">
        <ele>2217.6047</ele>
        <time>2014-09-01T15:24:23Z</time>
      </trkpt>
      <trkpt lat="45.9813" lon="6.7974">
        <ele>2217.6047</ele>
        <time>2014-09-01T15:24:28Z</time>
      </trkpt>
      <trkpt lat="45.98127" lon="6.79738">
        <ele>2217.6047</ele>
        <time>2014-09-01T15:24:33Z</time>
      </trkpt>
      <trkpt lat="45.98124" lon="6.79734">
        <ele>2219.743</ele>
        <time>2014-09-01T15:24:38Z</time>
      </trkpt>
      <trkpt lat="45.98121" lon="6.79732">
        <ele>2219.743</ele>
        <time>2014-09-01T15:24:43Z</time>
      </trkpt>
      <trkpt lat="45.98119" lon="6.7973">
        <ele>2219.743</ele>
        <time>2014-09-01T15:24:48Z</time>
      </trkpt>
      <trkpt lat="45.98117" lon="6.79729">
        <ele>2219.743</ele>
        <time>2014-09-01T15:24:53Z</time>
      </trkpt>
      <trkpt lat="45.98114" lon="6.79727">
        <ele>2222.0576</ele>
        <time>2014-09-01T15:24:58Z</time>
      </trkpt>
      <trkpt lat="45.98112" lon="6.79725">
        <ele>2222.0576</ele>
        <time>2014-09-01T15:25:03Z</time>
      </trkpt>
      <trkpt lat="45.9811" lon="6.79723">
        <ele>2222.0576</ele>
        <time>2014-09-01T15:25:08Z</time>
      </trkpt>
      <trkpt lat="45.98109" lon="6.7972">
        <ele>2222.0576</ele>
        <time>2014-09-01T15:25:13Z</time>
      </trkpt>
      <trkpt lat="45.98109" lon="6.7972">
        <ele>2222.0576</ele>
        <time>2014-09-01T15:25:18Z</time>
      </trkpt>
      <trkpt lat="45.98106" lon="6.79718">
        <ele>2224.5203</ele>
        <time>2014-09-01T15:25:23Z</time>
      </trkpt>
      <trkpt lat="45.98104" lon="6.79715">
        <ele>2224.5203</ele>
        <time>2014-09-01T15:25:28Z</time>
      </trkpt>
      <trkpt lat="45.98104" lon="6.79714">
        <ele>2224.5203</ele>
        <time>2014-09-01T15:25:33Z</time>
      </trkpt>
      <trkpt lat="45.98102" lon="6.79712">
        <ele>2224.5203</ele>
        <time>2014-09-01T15:25:38Z</time>
      </trkpt>
      <trkpt lat="45.98101" lon="6.7971">
        <ele>2224.5203</ele>
        <time>2014-09-01T15:25:43Z</time>
      </trkpt>
      <trkpt lat="45.98099" lon="6.79707">
        <ele>2227.2622</ele>
        <time>2014-09-01T15:25:48Z</time>
      </trkpt>
      <trkpt lat="45.98098" lon="6.79705">
        <ele>2227.2622</ele>
        <time>2014-09-01T15:25:53Z</time>
      </trkpt>
      <trkpt lat="45.98096" lon="6.79702">
        <ele>2227.2622</ele>
        <time>2014-09-01T15:25:58Z</time>
      </trkpt>
      <trkpt lat="45.98094" lon="6.79699">
        <ele>2227.2622</ele>
        <time>2014-09-01T15:26:03Z</time>
      </trkpt>
      <trkpt lat="45.98092" lon="6.79696">
        <ele>2229.857</ele>
        <time>2014-09-01T15:26:08Z</time>
      </trkpt>
      <trkpt lat="45.9809" lon="6.79693">
        <ele>2229.857</ele>
        <time>2014-09-01T15:26:13Z</time>
      </trkpt>
      <trkpt lat="45.98087" lon="6.79691">
        <ele>2229.857</ele>
        <time>2014-09-01T15:26:18Z</time>
      </trkpt>
      <trkpt lat="45.98084" lon="6.79689">
        <ele>2232.1975</ele>
        <time>2014-09-01T15:26:23Z</time>
      </trkpt>
      <trkpt lat="45.9808" lon="6.79686">
        <ele>2232.1975</ele>
        <time>2014-09-01T15:26:28Z</time>
      </trkpt>
      <trkpt lat="45.98078" lon="6.79684">
        <ele>2232.1975</ele>
        <time>2014-09-01T15:26:33Z</time>
      </trkpt>
      <trkpt lat="45.98076" lon="6.7968">
        <ele>2234.0852</ele>
        <time>2014-09-01T15:26:38Z</time>
      </trkpt>
      <trkpt lat="45.98074" lon="6.79676">
        <ele>2234.0852</ele>
        <time>2014-09-01T15:26:43Z</time>
      </trkpt>
      <trkpt lat="45.98071" lon="6.79672">
        <ele>2234.0852</ele>
        <time>2014-09-01T15:26:48Z</time>
      </trkpt>
      <trkpt lat="45.9807" lon="6.79668">
        <ele>2236</ele>
        <time>2014-09-01T15:26:53Z</time>
      </trkpt>
      <trkpt lat="45.98067" lon="6.79666">
        <ele>2236</ele>
        <time>2014-09-01T15:26:58Z</time>
      </trkpt>
      <trkpt lat="45.98065" lon="6.79664">
        <ele>2236</ele>
        <time>2014-09-01T15:27:03Z</time>
      </trkpt>
      <trkpt lat="45.98063" lon="6.7966">
        <ele>2236</ele>
        <time>2014-09-01T15:27:08Z</time>
      </trkpt>
      <trkpt lat="45.98062" lon="6.7966">
        <ele>2237.8098</ele>
        <time>2014-09-01T15:27:13Z</time>
      </trkpt>
      <trkpt lat="45.98061" lon="6.79661">
        <ele>2237.8098</ele>
        <time>2014-09-01T15:27:18Z</time>
      </trkpt>
      <trkpt lat="45.98061" lon="6.7966">
        <ele>2237.8098</ele>
        <time>2014-09-01T15:27:23Z</time>
      </trkpt>
      <trkpt lat="45.9806" lon="6.7966">
        <ele>2237.8098</ele>
        <time>2014-09-01T15:27:28Z</time>
      </trkpt>
      <trkpt lat="45.98058" lon="6.79658">
        <ele>2237.8098</ele>
        <time>2014-09-01T15:27:33Z</time>
      </trkpt>
      <trkpt lat="45.98055" lon="6.79656">
        <ele>2237.8098</ele>
        <time>2014-09-01T15:27:38Z</time>
      </trkpt>
      <trkpt lat="45.98053" lon="6.79656">
        <ele>2239.969</ele>
        <time>2014-09-01T15:27:43Z</time>
      </trkpt>
      <trkpt lat="45.98051" lon="6.79657">
        <ele>2239.969</ele>
        <time>2014-09-01T15:27:48Z</time>
      </trkpt>
      <trkpt lat="45.98049" lon="6.79655">
        <ele>2239.969</ele>
        <time>2014-09-01T15:27:53Z</time>
      </trkpt>
      <trkpt lat="45.98045" lon="6.79654">
        <ele>2239.969</ele>
        <time>2014-09-01T15:27:58Z</time>
      </trkpt>
      <trkpt lat="45.98042" lon="6.79651">
        <ele>2242.1343</ele>
        <time>2014-09-01T15:28:03Z</time>
      </trkpt>
      <trkpt lat="45.98042" lon="6.7965">
        <ele>2242.1343</ele>
        <time>2014-09-01T15:28:08Z</time>
      </trkpt>
      <trkpt lat="45.98039" lon="6.79646">
        <ele>2242.1343</ele>
        <time>2014-09-01T15:28:13Z</time>
      </trkpt>
      <trkpt lat="45.98035" lon="6.79641">
        <ele>2244.2612</ele>
        <time>2014-09-01T15:28:18Z</time>
      </trkpt>
      <trkpt lat="45.98033" lon="6.79641">
        <ele>2244.2612</ele>
        <time>2014-09-01T15:28:23Z</time>
      </trkpt>
      <trkpt lat="45.98031" lon="6.7964">
        <ele>2244.2612</ele>
        <time>2014-09-01T15:28:28Z</time>
      </trkpt>
      <trkpt lat="45.98029" lon="6.79643">
        <ele>2244.2612</ele>
        <time>2014-09-01T15:28:33Z</time>
      </trkpt>
      <trkpt lat="45.98027" lon="6.79645">
        <ele>2246.5964</ele>
        <time>2014-09-01T15:28:38Z</time>
      </trkpt>
      <trkpt lat="45.98025" lon="6.79645">
        <ele>2246.5964</ele>
        <time>2014-09-01T15:28:43Z</time>
      </trkpt>
      <trkpt lat="45.98024" lon="6.79645">
        <ele>2246.5964</ele>
        <time>2014-09-01T15:28:48Z</time>
      </trkpt>
      <trkpt lat="45.98023" lon="6.79644">
        <ele>2246.5964</ele>
        <time>2014-09-01T15:28:53Z</time>
      </trkpt>
      <trkpt lat="45.98023" lon="6.79643">
        <ele>2246.5964</ele>
        <time>2014-09-01T15:28:58Z</time>
      </trkpt>
      <trkpt lat="45.98024" lon="6.79641">
        <ele>2246.5964</ele>
        <time>2014-09-01T15:29:03Z</time>
      </trkpt>
      <trkpt lat="45.98024" lon="6.79641">
        <ele>2246.5964</ele>
        <time>2014-09-01T15:29:08Z</time>
      </trkpt>
      <trkpt lat="45.98024" lon="6.79641">
        <ele>2246.5964</ele>
        <time>2014-09-01T15:29:13Z</time>
      </trkpt>
      <trkpt lat="45.98024" lon="6.79641">
        <ele>2246.5964</ele>
        <time>2014-09-01T15:29:18Z</time>
      </trkpt>
      <trkpt lat="45.98023" lon="6.79641">
        <ele>2246.5964</ele>
        <time>2014-09-01T15:29:23Z</time>
      </trkpt>
      <trkpt lat="45.98023" lon="6.79641">
        <ele>2246.5964</ele>
        <time>2014-09-01T15:29:28Z</time>
      </trkpt>
      <trkpt lat="45.98023" lon="6.79641">
        <ele>2249.167</ele>
        <time>2014-09-01T15:29:33Z</time>
      </trkpt>
      <trkpt lat="45.98022" lon="6.79641">
        <ele>2249.167</ele>
        <time>2014-09-01T15:29:38Z</time>
      </trkpt>
      <trkpt lat="45.98023" lon="6.79641">
        <ele>2249.167</ele>
        <time>2014-09-01T15:29:43Z</time>
      </trkpt>
      <trkpt lat="45.98023" lon="6.79642">
        <ele>2249.167</ele>
        <time>2014-09-01T15:29:48Z</time>
      </trkpt>
      <trkpt lat="45.98023" lon="6.79641">
        <ele>2249.167</ele>
        <time>2014-09-01T15:29:53Z</time>
      </trkpt>
      <trkpt lat="45.98023" lon="6.7964">
        <ele>2249.167</ele>
        <time>2014-09-01T15:29:58Z</time>
      </trkpt>
      <trkpt lat="45.98023" lon="6.7964">
        <ele>2249.167</ele>
        <time>2014-09-01T15:30:03Z</time>
      </trkpt>
      <trkpt lat="45.98024" lon="6.7964">
        <ele>2249.167</ele>
        <time>2014-09-01T15:30:08Z</time>
      </trkpt>
      <trkpt lat="45.98024" lon="6.7964">
        <ele>2249.167</ele>
        <time>2014-09-01T15:30:13Z</time>
      </trkpt>
      <trkpt lat="45.98026" lon="6.79641">
        <ele>2249.167</ele>
        <time>2014-09-01T15:30:18Z</time>
      </trkpt>
      <trkpt lat="45.98026" lon="6.7964">
        <ele>2249.167</ele>
        <time>2014-09-01T15:30:23Z</time>
      </trkpt>
      <trkpt lat="45.98027" lon="6.7964">
        <ele>2249.167</ele>
        <time>2014-09-01T15:30:28Z</time>
      </trkpt>
      <trkpt lat="45.98027" lon="6.7964">
        <ele>2249.167</ele>
        <time>2014-09-01T15:30:33Z</time>
      </trkpt>
      <trkpt lat="45.98027" lon="6.79642">
        <ele>2251.896</ele>
        <time>2014-09-01T15:30:38Z</time>
      </trkpt>
      <trkpt lat="45.98021" lon="6.79634">
        <ele>2251.896</ele>
        <time>2014-09-01T15:38:39Z</time>
      </trkpt>
      <trkpt lat="45.98018" lon="6.79642">
        <ele>2254.4668</ele>
        <time>2014-09-01T15:38:49Z</time>
      </trkpt>
      <trkpt lat="45.98022" lon="6.79641">
        <ele>2254.4668</ele>
        <time>2014-09-01T15:38:54Z</time>
      </trkpt>
      <trkpt lat="45.98022" lon="6.79641">
        <ele>2254.4668</ele>
        <time>2014-09-01T15:39:09Z</time>
      </trkpt>
      <trkpt lat="45.98022" lon="6.79641">
        <ele>2254.4668</ele>
        <time>2014-09-01T15:39:14Z</time>
      </trkpt>
      <trkpt lat="45.98022" lon="6.79642">
        <ele>2254.4668</ele>
        <time>2014-09-01T15:39:19Z</time>
      </trkpt>
      <trkpt lat="45.98022" lon="6.79643">
        <ele>2254.4668</ele>
        <time>2014-09-01T15:39:24Z</time>
      </trkpt>
      <trkpt lat="45.98022" lon="6.79642">
        <ele>2254.4668</ele>
        <time>2014-09-01T15:39:29Z</time>
      </trkpt>
      <trkpt lat="45.98022" lon="6.79642">
        <ele>2254.4668</ele>
        <time>2014-09-01T15:39:34Z</time>
      </trkpt>
      <trkpt lat="45.98023" lon="6.79643">
        <ele>2254.4668</ele>
        <time>2014-09-01T15:39:39Z</time>
      </trkpt>
      <trkpt lat="45.98024" lon="6.79643">
        <ele>2254.4668</ele>
        <time>2014-09-01T15:39:44Z</time>
      </trkpt>
      <trkpt lat="45.98025" lon="6.79644">
        <ele>2256.7737</ele>
        <time>2014-09-01T15:39:49Z</time>
      </trkpt>
      <trkpt lat="45.98025" lon="6.79644">
        <ele>2256.7737</ele>
        <time>2014-09-01T15:39:54Z</time>
      </trkpt>
      <trkpt lat="45.98024" lon="6.79644">
        <ele>2256.7737</ele>
        <time>2014-09-01T15:39:59Z</time>
      </trkpt>
      <trkpt lat="45.98023" lon="6.79643">
        <ele>2256.7737</ele>
        <time>2014-09-01T15:40:04Z</time>
      </trkpt>
      <trkpt lat="45.9802" lon="6.79642">
        <ele>2256.7737</ele>
        <time>2014-09-01T15:40:09Z</time>
      </trkpt>
      <trkpt lat="45.98018" lon="6.79641">
        <ele>2256.7737</ele>
        <time>2014-09-01T15:40:14Z</time>
      </trkpt>
      <trkpt lat="45.98017" lon="6.79642">
        <ele>2256.7737</ele>
        <time>2014-09-01T15:40:19Z</time>
      </trkpt>
      <trkpt lat="45.98016" lon="6.79641">
        <ele>2258.6912</ele>
        <time>2014-09-01T15:40:24Z</time>
      </trkpt>
      <trkpt lat="45.98013" lon="6.79641">
        <ele>2258.6912</ele>
        <time>2014-09-01T15:40:29Z</time>
      </trkpt>
      <trkpt lat="45.98012" lon="6.79641">
        <ele>2258.6912</ele>
        <time>2014-09-01T15:40:34Z</time>
      </trkpt>
      <trkpt lat="45.98014" lon="6.79646">
        <ele>2258.6912</ele>
        <time>2014-09-01T15:40:39Z</time>
      </trkpt>
      <trkpt lat="45.98018" lon="6.79653">
        <ele>2260.1035</ele>
        <time>2014-09-01T15:40:44Z</time>
      </trkpt>
      <trkpt lat="45.98017" lon="6.79653">
        <ele>2260.1035</ele>
        <time>2014-09-01T15:40:49Z</time>
      </trkpt>
      <trkpt lat="45.98015" lon="6.79654">
        <ele>2260.1035</ele>
        <time>2014-09-01T15:40:54Z</time>
      </trkpt>
      <trkpt lat="45.98015" lon="6.79655">
        <ele>2260.1035</ele>
        <time>2014-09-01T15:40:59Z</time>
      </trkpt>
      <trkpt lat="45.98014" lon="6.79656">
        <ele>2260.1035</ele>
        <time>2014-09-01T15:41:04Z</time>
      </trkpt>
      <trkpt lat="45.98013" lon="6.79656">
        <ele>2260.1035</ele>
        <time>2014-09-01T15:41:09Z</time>
      </trkpt>
      <trkpt lat="45.98012" lon="6.79655">
        <ele>2260.1035</ele>
        <time>2014-09-01T15:41:14Z</time>
      </trkpt>
      <trkpt lat="45.9801" lon="6.79655">
        <ele>2261.1936</ele>
        <time>2014-09-01T15:41:19Z</time>
      </trkpt>
      <trkpt lat="45.98009" lon="6.79655">
        <ele>2261.1936</ele>
        <time>2014-09-01T15:41:24Z</time>
      </trkpt>
      <trkpt lat="45.98007" lon="6.79654">
        <ele>2261.1936</ele>
        <time>2014-09-01T15:41:29Z</time>
      </trkpt>
      <trkpt lat="45.98005" lon="6.79652">
        <ele>2261.1936</ele>
        <time>2014-09-01T15:41:34Z</time>
      </trkpt>
      <trkpt lat="45.98003" lon="6.79651">
        <ele>2261.1936</ele>
        <time>2014-09-01T15:41:39Z</time>
      </trkpt>
      <trkpt lat="45.98001" lon="6.79649">
        <ele>2261.6992</ele>
        <time>2014-09-01T15:41:44Z</time>
      </trkpt>
      <trkpt lat="45.98" lon="6.7965">
        <ele>2261.6992</ele>
        <time>2014-09-01T15:41:49Z</time>
      </trkpt>
      <trkpt lat="45.97999" lon="6.79652">
        <ele>2261.6992</ele>
        <time>2014-09-01T15:41:54Z</time>
      </trkpt>
      <trkpt lat="45.98" lon="6.79655">
        <ele>2261.6992</ele>
        <time>2014-09-01T15:41:59Z</time>
      </trkpt>
      <trkpt lat="45.97999" lon="6.79656">
        <ele>2261.6992</ele>
        <time>2014-09-01T15:42:04Z</time>
      </trkpt>
      <trkpt lat="45.98" lon="6.79659">
        <ele>2261.6992</ele>
        <time>2014-09-01T15:42:09Z</time>
      </trkpt>
      <trkpt lat="45.98" lon="6.79658">
        <ele>2261.6992</ele>
        <time>2014-09-01T15:42:14Z</time>
      </trkpt>
      <trkpt lat="45.97999" lon="6.79658">
        <ele>2261.091</ele>
        <time>2014-09-01T15:42:19Z</time>
      </trkpt>
      <trkpt lat="45.98" lon="6.79658">
        <ele>2261.091</ele>
        <time>2014-09-01T15:42:24Z</time>
      </trkpt>
      <trkpt lat="45.98" lon="6.7966">
        <ele>2261.091</ele>
        <time>2014-09-01T15:42:29Z</time>
      </trkpt>
      <trkpt lat="45.98" lon="6.79662">
        <ele>2261.091</ele>
        <time>2014-09-01T15:42:34Z</time>
      </trkpt>
      <trkpt lat="45.98" lon="6.79664">
        <ele>2261.091</ele>
        <time>2014-09-01T15:42:39Z</time>
      </trkpt>
      <trkpt lat="45.98001" lon="6.79668">
        <ele>2261.091</ele>
        <time>2014-09-01T15:42:44Z</time>
      </trkpt>
      <trkpt lat="45.98" lon="6.79669">
        <ele>2261.091</ele>
        <time>2014-09-01T15:42:49Z</time>
      </trkpt>
      <trkpt lat="45.97999" lon="6.79671">
        <ele>2259.8901</ele>
        <time>2014-09-01T15:42:54Z</time>
      </trkpt>
      <trkpt lat="45.97998" lon="6.79674">
        <ele>2259.8901</ele>
        <time>2014-09-01T15:42:59Z</time>
      </trkpt>
      <trkpt lat="45.97998" lon="6.79678">
        <ele>2259.8901</ele>
        <time>2014-09-01T15:43:04Z</time>
      </trkpt>
      <trkpt lat="45.97997" lon="6.79679">
        <ele>2259.8901</ele>
        <time>2014-09-01T15:43:09Z</time>
      </trkpt>
      <trkpt lat="45.97996" lon="6.79679">
        <ele>2259.8901</ele>
        <time>2014-09-01T15:43:14Z</time>
      </trkpt>
      <trkpt lat="45.97994" lon="6.79679">
        <ele>2258.423</ele>
        <time>2014-09-01T15:43:19Z</time>
      </trkpt>
      <trkpt lat="45.97992" lon="6.79678">
        <ele>2258.423</ele>
        <time>2014-09-01T15:43:24Z</time>
      </trkpt>
      <trkpt lat="45.9799" lon="6.79678">
        <ele>2258.423</ele>
        <time>2014-09-01T15:43:29Z</time>
      </trkpt>
      <trkpt lat="45.97989" lon="6.79679">
        <ele>2258.423</ele>
        <time>2014-09-01T15:43:34Z</time>
      </trkpt>
      <trkpt lat="45.9799" lon="6.79684">
        <ele>2256.7476</ele>
        <time>2014-09-01T15:43:39Z</time>
      </trkpt>
      <trkpt lat="45.97993" lon="6.79692">
        <ele>2256.7476</ele>
        <time>2014-09-01T15:43:44Z</time>
      </trkpt>
      <trkpt lat="45.97993" lon="6.79695">
        <ele>2256.7476</ele>
        <time>2014-09-01T15:43:49Z</time>
      </trkpt>
      <trkpt lat="45.97992" lon="6.79696">
        <ele>2255.0332</ele>
        <time>2014-09-01T15:43:54Z</time>
      </trkpt>
      <trkpt lat="45.97991" lon="6.79698">
        <ele>2255.0332</ele>
        <time>2014-09-01T15:43:59Z</time>
      </trkpt>
      <trkpt lat="45.97989" lon="6.79696">
        <ele>2255.0332</ele>
        <time>2014-09-01T15:44:04Z</time>
      </trkpt>
      <trkpt lat="45.97988" lon="6.797">
        <ele>2255.0332</ele>
        <time>2014-09-01T15:44:09Z</time>
      </trkpt>
      <trkpt lat="45.97987" lon="6.79707">
        <ele>2252.5579</ele>
        <time>2014-09-01T15:44:14Z</time>
      </trkpt>
      <trkpt lat="45.97985" lon="6.79711">
        <ele>2252.5579</ele>
        <time>2014-09-01T15:44:19Z</time>
      </trkpt>
      <trkpt lat="45.97985" lon="6.79713">
        <ele>2252.5579</ele>
        <time>2014-09-01T15:44:24Z</time>
      </trkpt>
      <trkpt lat="45.97982" lon="6.7972">
        <ele>2249.9946</ele>
        <time>2014-09-01T15:44:29Z</time>
      </trkpt>
      <trkpt lat="45.97978" lon="6.79723">
        <ele>2249.9946</ele>
        <time>2014-09-01T15:44:34Z</time>
      </trkpt>
      <trkpt lat="45.97979" lon="6.79721">
        <ele>2249.9946</ele>
        <time>2014-09-01T15:44:39Z</time>
      </trkpt>
      <trkpt lat="45.9798" lon="6.79717">
        <ele>2249.9946</ele>
        <time>2014-09-01T15:44:44Z</time>
      </trkpt>
      <trkpt lat="45.97979" lon="6.79717">
        <ele>2247.2327</ele>
        <time>2014-09-01T15:44:49Z</time>
      </trkpt>
      <trkpt lat="45.97978" lon="6.79717">
        <ele>2247.2327</ele>
        <time>2014-09-01T15:44:54Z</time>
      </trkpt>
      <trkpt lat="45.97977" lon="6.7972">
        <ele>2247.2327</ele>
        <time>2014-09-01T15:44:59Z</time>
      </trkpt>
      <trkpt lat="45.97976" lon="6.7972">
        <ele>2247.2327</ele>
        <time>2014-09-01T15:45:04Z</time>
      </trkpt>
      <trkpt lat="45.97975" lon="6.79721">
        <ele>2247.2327</ele>
        <time>2014-09-01T15:45:09Z</time>
      </trkpt>
      <trkpt lat="45.97975" lon="6.79724">
        <ele>2247.2327</ele>
        <time>2014-09-01T15:45:14Z</time>
      </trkpt>
      <trkpt lat="45.97974" lon="6.79726">
        <ele>2247.2327</ele>
        <time>2014-09-01T15:45:19Z</time>
      </trkpt>
      <trkpt lat="45.97972" lon="6.7973">
        <ele>2244.429</ele>
        <time>2014-09-01T15:45:24Z</time>
      </trkpt>
      <trkpt lat="45.97972" lon="6.79734">
        <ele>2244.429</ele>
        <time>2014-09-01T15:45:29Z</time>
      </trkpt>
      <trkpt lat="45.97971" lon="6.79739">
        <ele>2244.429</ele>
        <time>2014-09-01T15:45:34Z</time>
      </trkpt>
      <trkpt lat="45.9797" lon="6.79742">
        <ele>2241.469</ele>
        <time>2014-09-01T15:45:39Z</time>
      </trkpt>
      <trkpt lat="45.97969" lon="6.79747">
        <ele>2241.469</ele>
        <time>2014-09-01T15:45:44Z</time>
      </trkpt>
      <trkpt lat="45.9797" lon="6.79744">
        <ele>2241.469</ele>
        <time>2014-09-01T15:45:49Z</time>
      </trkpt>
      <trkpt lat="45.9797" lon="6.79742">
        <ele>2241.469</ele>
        <time>2014-09-01T15:45:54Z</time>
      </trkpt>
      <trkpt lat="45.97969" lon="6.79747">
        <ele>2238.2764</ele>
        <time>2014-09-01T15:45:59Z</time>
      </trkpt>
      <trkpt lat="45.97969" lon="6.79753">
        <ele>2238.2764</ele>
        <time>2014-09-01T15:46:04Z</time>
      </trkpt>
      <trkpt lat="45.97969" lon="6.79756">
        <ele>2238.2764</ele>
        <time>2014-09-01T15:46:09Z</time>
      </trkpt>
      <trkpt lat="45.97969" lon="6.79758">
        <ele>2238.2764</ele>
        <time>2014-09-01T15:46:14Z</time>
      </trkpt>
      <trkpt lat="45.97968" lon="6.7976">
        <ele>2238.2764</ele>
        <time>2014-09-01T15:46:19Z</time>
      </trkpt>
      <trkpt lat="45.97968" lon="6.7976">
        <ele>2238.2764</ele>
        <time>2014-09-01T15:46:24Z</time>
      </trkpt>
      <trkpt lat="45.97968" lon="6.79761">
        <ele>2234.0454</ele>
        <time>2014-09-01T15:46:29Z</time>
      </trkpt>
      <trkpt lat="45.97968" lon="6.79767">
        <ele>2234.0454</ele>
        <time>2014-09-01T15:46:34Z</time>
      </trkpt>
      <trkpt lat="45.97968" lon="6.7977">
        <ele>2234.0454</ele>
        <time>2014-09-01T15:46:39Z</time>
      </trkpt>
      <trkpt lat="45.97968" lon="6.79771">
        <ele>2234.0454</ele>
        <time>2014-09-01T15:46:44Z</time>
      </trkpt>
      <trkpt lat="45.97967" lon="6.79774">
        <ele>2234.0454</ele>
        <time>2014-09-01T15:46:49Z</time>
      </trkpt>
      <trkpt lat="45.97967" lon="6.7977">
        <ele>2230.0645</ele>
        <time>2014-09-01T15:46:54Z</time>
      </trkpt>
      <trkpt lat="45.97964" lon="6.79767">
        <ele>2230.0645</ele>
        <time>2014-09-01T15:46:59Z</time>
      </trkpt>
      <trkpt lat="45.97959" lon="6.79762">
        <ele>2226.2573</ele>
        <time>2014-09-01T15:47:04Z</time>
      </trkpt>
      <trkpt lat="45.97958" lon="6.79761">
        <ele>2226.2573</ele>
        <time>2014-09-01T15:47:09Z</time>
      </trkpt>
      <trkpt lat="45.97957" lon="6.7976">
        <ele>2226.2573</ele>
        <time>2014-09-01T15:49:04Z</time>
      </trkpt>
      <trkpt lat="45.97957" lon="6.7976">
        <ele>2226.2573</ele>
        <time>2014-09-01T15:49:09Z</time>
      </trkpt>
      <trkpt lat="45.97955" lon="6.79756">
        <ele>2226.2573</ele>
        <time>2014-09-01T15:49:14Z</time>
      </trkpt>
      <trkpt lat="45.97955" lon="6.79756">
        <ele>2226.2573</ele>
        <time>2014-09-01T15:49:19Z</time>
      </trkpt>
      <trkpt lat="45.97953" lon="6.79754">
        <ele>2226.2573</ele>
        <time>2014-09-01T15:49:24Z</time>
      </trkpt>
      <trkpt lat="45.97949" lon="6.79752">
        <ele>2222.0637</ele>
        <time>2014-09-01T15:49:29Z</time>
      </trkpt>
      <trkpt lat="45.97944" lon="6.79748">
        <ele>2222.0637</ele>
        <time>2014-09-01T15:49:34Z</time>
      </trkpt>
      <trkpt lat="45.97941" lon="6.79747">
        <ele>2222.0637</ele>
        <time>2014-09-01T15:49:39Z</time>
      </trkpt>
      <trkpt lat="45.9794" lon="6.79745">
        <ele>2217.642</ele>
        <time>2014-09-01T15:49:44Z</time>
      </trkpt>
      <trkpt lat="45.97938" lon="6.79742">
        <ele>2217.642</ele>
        <time>2014-09-01T15:49:49Z</time>
      </trkpt>
      <trkpt lat="45.97934" lon="6.79739">
        <ele>2217.642</ele>
        <time>2014-09-01T15:49:54Z</time>
      </trkpt>
      <trkpt lat="45.97933" lon="6.79738">
        <ele>2217.642</ele>
        <time>2014-09-01T15:49:59Z</time>
      </trkpt>
      <trkpt lat="45.9793" lon="6.79735">
        <ele>2212.9949</ele>
        <time>2014-09-01T15:50:04Z</time>
      </trkpt>
      <trkpt lat="45.97926" lon="6.79732">
        <ele>2212.9949</ele>
        <time>2014-09-01T15:50:09Z</time>
      </trkpt>
      <trkpt lat="45.97924" lon="6.79728">
        <ele>2212.9949</ele>
        <time>2014-09-01T15:50:14Z</time>
      </trkpt>
      <trkpt lat="45.97921" lon="6.79723">
        <ele>2208.3994</ele>
        <time>2014-09-01T15:50:19Z</time>
      </trkpt>
      <trkpt lat="45.97915" lon="6.79715">
        <ele>2208.3994</ele>
        <time>2014-09-01T15:50:24Z</time>
      </trkpt>
      <trkpt lat="45.97912" lon="6.79708">
        <ele>2203.996</ele>
        <time>2014-09-01T15:50:29Z</time>
      </trkpt>
      <trkpt lat="45.97909" lon="6.79702">
        <ele>2203.996</ele>
        <time>2014-09-01T15:50:34Z</time>
      </trkpt>
      <trkpt lat="45.97903" lon="6.79696">
        <ele>2199.785</ele>
        <time>2014-09-01T15:50:39Z</time>
      </trkpt>
      <trkpt lat="45.97896" lon="6.79692">
        <ele>2199.785</ele>
        <time>2014-09-01T15:50:44Z</time>
      </trkpt>
      <trkpt lat="45.97893" lon="6.79687">
        <ele>2195.7932</ele>
        <time>2014-09-01T15:50:49Z</time>
      </trkpt>
      <trkpt lat="45.97888" lon="6.79683">
        <ele>2195.7932</ele>
        <time>2014-09-01T15:50:54Z</time>
      </trkpt>
      <trkpt lat="45.97884" lon="6.79679">
        <ele>2192.031</ele>
        <time>2014-09-01T15:50:59Z</time>
      </trkpt>
      <trkpt lat="45.97881" lon="6.79675">
        <ele>2192.031</ele>
        <time>2014-09-01T15:51:04Z</time>
      </trkpt>
      <trkpt lat="45.97878" lon="6.79669">
        <ele>2188.5503</ele>
        <time>2014-09-01T15:51:09Z</time>
      </trkpt>
      <trkpt lat="45.97873" lon="6.79665">
        <ele>2188.5503</ele>
        <time>2014-09-01T15:51:14Z</time>
      </trkpt>
      <trkpt lat="45.97868" lon="6.79666">
        <ele>2185.0513</ele>
        <time>2014-09-01T15:51:19Z</time>
      </trkpt>
      <trkpt lat="45.97863" lon="6.79666">
        <ele>2185.0513</ele>
        <time>2014-09-01T15:51:24Z</time>
      </trkpt>
      <trkpt lat="45.97858" lon="6.79662">
        <ele>2181.5735</ele>
        <time>2014-09-01T15:51:29Z</time>
      </trkpt>
      <trkpt lat="45.97855" lon="6.7966">
        <ele>2181.5735</ele>
        <time>2014-09-01T15:51:34Z</time>
      </trkpt>
      <trkpt lat="45.97851" lon="6.79659">
        <ele>2181.5735</ele>
        <time>2014-09-01T15:51:39Z</time>
      </trkpt>
      <trkpt lat="45.97847" lon="6.79659">
        <ele>2178.0232</ele>
        <time>2014-09-01T15:51:44Z</time>
      </trkpt>
      <trkpt lat="45.97843" lon="6.79656">
        <ele>2178.0232</ele>
        <time>2014-09-01T15:51:49Z</time>
      </trkpt>
      <trkpt lat="45.97839" lon="6.79656">
        <ele>2178.0232</ele>
        <time>2014-09-01T15:51:54Z</time>
      </trkpt>
      <trkpt lat="45.97835" lon="6.79652">
        <ele>2174.3567</ele>
        <time>2014-09-01T15:51:59Z</time>
      </trkpt>
      <trkpt lat="45.9783" lon="6.7965">
        <ele>2174.3567</ele>
        <time>2014-09-01T15:52:04Z</time>
      </trkpt>
      <trkpt lat="45.97826" lon="6.79645">
        <ele>2170.6772</ele>
        <time>2014-09-01T15:52:09Z</time>
      </trkpt>
      <trkpt lat="45.97822" lon="6.7964">
        <ele>2170.6772</ele>
        <time>2014-09-01T15:52:14Z</time>
      </trkpt>
      <trkpt lat="45.97814" lon="6.79637">
        <ele>2167.0662</ele>
        <time>2014-09-01T15:52:19Z</time>
      </trkpt>
      <trkpt lat="45.97818" lon="6.79653">
        <ele>2163.5256</ele>
        <time>2014-09-01T15:52:24Z</time>
      </trkpt>
      <trkpt lat="45.97819" lon="6.79657">
        <ele>2163.5256</ele>
        <time>2014-09-01T15:52:29Z</time>
      </trkpt>
      <trkpt lat="45.97824" lon="6.79667">
        <ele>2159.5242</ele>
        <time>2014-09-01T15:52:34Z</time>
      </trkpt>
      <trkpt lat="45.9783" lon="6.79678">
        <ele>2155.7666</ele>
        <time>2014-09-01T15:52:39Z</time>
      </trkpt>
      <trkpt lat="45.9783" lon="6.79685">
        <ele>2155.7666</ele>
        <time>2014-09-01T15:52:44Z</time>
      </trkpt>
      <trkpt lat="45.97829" lon="6.7969">
        <ele>2155.7666</ele>
        <time>2014-09-01T15:52:49Z</time>
      </trkpt>
      <trkpt lat="45.97829" lon="6.79697">
        <ele>2151.4634</ele>
        <time>2014-09-01T15:52:54Z</time>
      </trkpt>
      <trkpt lat="45.97828" lon="6.79702">
        <ele>2151.4634</ele>
        <time>2014-09-01T15:52:59Z</time>
      </trkpt>
      <trkpt lat="45.97828" lon="6.79703">
        <ele>2151.4634</ele>
        <time>2014-09-01T15:53:04Z</time>
      </trkpt>
      <trkpt lat="45.97826" lon="6.79711">
        <ele>2146.9075</ele>
        <time>2014-09-01T15:53:09Z</time>
      </trkpt>
      <trkpt lat="45.97821" lon="6.79719">
        <ele>2146.9075</ele>
        <time>2014-09-01T15:53:14Z</time>
      </trkpt>
      <trkpt lat="45.9782" lon="6.79729">
        <ele>2142.5002</ele>
        <time>2014-09-01T15:53:19Z</time>
      </trkpt>
      <trkpt lat="45.97819" lon="6.79739">
        <ele>2142.5002</ele>
        <time>2014-09-01T15:53:24Z</time>
      </trkpt>
      <trkpt lat="45.97818" lon="6.79742">
        <ele>2138.7864</ele>
        <time>2014-09-01T15:53:29Z</time>
      </trkpt>
      <trkpt lat="45.97815" lon="6.79745">
        <ele>2138.7864</ele>
        <time>2014-09-01T15:53:34Z</time>
      </trkpt>
      <trkpt lat="45.97812" lon="6.79748">
        <ele>2138.7864</ele>
        <time>2014-09-01T15:53:39Z</time>
      </trkpt>
      <trkpt lat="45.9781" lon="6.79752">
        <ele>2135.2583</ele>
        <time>2014-09-01T15:53:44Z</time>
      </trkpt>
      <trkpt lat="45.97807" lon="6.79752">
        <ele>2135.2583</ele>
        <time>2014-09-01T15:53:49Z</time>
      </trkpt>
      <trkpt lat="45.97807" lon="6.79752">
        <ele>2135.2583</ele>
        <time>2014-09-01T15:53:54Z</time>
      </trkpt>
      <trkpt lat="45.97807" lon="6.7975">
        <ele>2135.2583</ele>
        <time>2014-09-01T15:54:04Z</time>
      </trkpt>
      <trkpt lat="45.97807" lon="6.79748">
        <ele>2135.2583</ele>
        <time>2014-09-01T15:54:09Z</time>
      </trkpt>
      <trkpt lat="45.97808" lon="6.79747">
        <ele>2135.2583</ele>
        <time>2014-09-01T15:54:14Z</time>
      </trkpt>
      <trkpt lat="45.97808" lon="6.79745">
        <ele>2135.2583</ele>
        <time>2014-09-01T15:54:19Z</time>
      </trkpt>
      <trkpt lat="45.97808" lon="6.79745">
        <ele>2135.2583</ele>
        <time>2014-09-01T15:54:24Z</time>
      </trkpt>
      <trkpt lat="45.97808" lon="6.79745">
        <ele>2135.2583</ele>
        <time>2014-09-01T15:54:29Z</time>
      </trkpt>
      <trkpt lat="45.97808" lon="6.79747">
        <ele>2131.7632</ele>
        <time>2014-09-01T15:54:34Z</time>
      </trkpt>
      <trkpt lat="45.97809" lon="6.79746">
        <ele>2131.7632</ele>
        <time>2014-09-01T15:54:39Z</time>
      </trkpt>
      <trkpt lat="45.97809" lon="6.79745">
        <ele>2131.7632</ele>
        <time>2014-09-01T15:54:44Z</time>
      </trkpt>
      <trkpt lat="45.97807" lon="6.79743">
        <ele>2131.7632</ele>
        <time>2014-09-01T15:54:49Z</time>
      </trkpt>
      <trkpt lat="45.97803" lon="6.79735">
        <ele>2127.985</ele>
        <time>2014-09-01T15:54:54Z</time>
      </trkpt>
      <trkpt lat="45.978" lon="6.79733">
        <ele>2127.985</ele>
        <time>2014-09-01T15:54:59Z</time>
      </trkpt>
      <trkpt lat="45.97798" lon="6.79732">
        <ele>2127.985</ele>
        <time>2014-09-01T15:55:04Z</time>
      </trkpt>
      <trkpt lat="45.97797" lon="6.79733">
        <ele>2127.985</ele>
        <time>2014-09-01T15:55:09Z</time>
      </trkpt>
      <trkpt lat="45.97794" lon="6.79737">
        <ele>2123.8054</ele>
        <time>2014-09-01T15:55:14Z</time>
      </trkpt>
      <trkpt lat="45.97794" lon="6.79737">
        <ele>2123.8054</ele>
        <time>2014-09-01T15:55:19Z</time>
      </trkpt>
      <trkpt lat="45.97793" lon="6.79734">
        <ele>2123.8054</ele>
        <time>2014-09-01T15:55:29Z</time>
      </trkpt>
      <trkpt lat="45.97793" lon="6.79734">
        <ele>2123.8054</ele>
        <time>2014-09-01T15:55:34Z</time>
      </trkpt>
      <trkpt lat="45.97793" lon="6.79735">
        <ele>2123.8054</ele>
        <time>2014-09-01T15:55:44Z</time>
      </trkpt>
      <trkpt lat="45.97792" lon="6.79735">
        <ele>2123.8054</ele>
        <time>2014-09-01T15:56:04Z</time>
      </trkpt>
      <trkpt lat="45.97791" lon="6.79732">
        <ele>2123.8054</ele>
        <time>2014-09-01T15:56:39Z</time>
      </trkpt>
      <trkpt lat="45.9779" lon="6.79729">
        <ele>2123.8054</ele>
        <time>2014-09-01T15:56:44Z</time>
      </trkpt>
      <trkpt lat="45.97788" lon="6.79727">
        <ele>2119.273</ele>
        <time>2014-09-01T15:56:49Z</time>
      </trkpt>
      <trkpt lat="45.97786" lon="6.79723">
        <ele>2119.273</ele>
        <time>2014-09-01T15:56:54Z</time>
      </trkpt>
      <trkpt lat="45.97785" lon="6.79716">
        <ele>2119.273</ele>
        <time>2014-09-01T15:56:59Z</time>
      </trkpt>
      <trkpt lat="45.97784" lon="6.7971">
        <ele>2114.5637</ele>
        <time>2014-09-01T15:57:04Z</time>
      </trkpt>
      <trkpt lat="45.97783" lon="6.79704">
        <ele>2114.5637</ele>
        <time>2014-09-01T15:57:09Z</time>
      </trkpt>
      <trkpt lat="45.97783" lon="6.79693">
        <ele>2110.2876</ele>
        <time>2014-09-01T15:57:14Z</time>
      </trkpt>
      <trkpt lat="45.97781" lon="6.79686">
        <ele>2110.2876</ele>
        <time>2014-09-01T15:57:19Z</time>
      </trkpt>
      <trkpt lat="45.97776" lon="6.79684">
        <ele>2106.475</ele>
        <time>2014-09-01T15:57:24Z</time>
      </trkpt>
      <trkpt lat="45.97771" lon="6.79682">
        <ele>2106.475</ele>
        <time>2014-09-01T15:57:29Z</time>
      </trkpt>
      <trkpt lat="45.97767" lon="6.7968">
        <ele>2103.3545</ele>
        <time>2014-09-01T15:57:34Z</time>
      </trkpt>
      <trkpt lat="45.97762" lon="6.79676">
        <ele>2103.3545</ele>
        <time>2014-09-01T15:57:39Z</time>
      </trkpt>
      <trkpt lat="45.97759" lon="6.79672">
        <ele>2100.775</ele>
        <time>2014-09-01T15:57:44Z</time>
      </trkpt>
      <trkpt lat="45.97758" lon="6.79664">
        <ele>2100.775</ele>
        <time>2014-09-01T15:57:49Z</time>
      </trkpt>
      <trkpt lat="45.97757" lon="6.79659">
        <ele>2098.595</ele>
        <time>2014-09-01T15:57:54Z</time>
      </trkpt>
      <trkpt lat="45.97757" lon="6.79659">
        <ele>2098.595</ele>
        <time>2014-09-01T15:57:59Z</time>
      </trkpt>
      <trkpt lat="45.97757" lon="6.79658">
        <ele>2098.595</ele>
        <time>2014-09-01T15:58:04Z</time>
      </trkpt>
      <trkpt lat="45.97756" lon="6.79656">
        <ele>2098.595</ele>
        <time>2014-09-01T15:58:09Z</time>
      </trkpt>
      <trkpt lat="45.97755" lon="6.79655">
        <ele>2098.595</ele>
        <time>2014-09-01T15:58:14Z</time>
      </trkpt>
      <trkpt lat="45.97753" lon="6.79654">
        <ele>2098.595</ele>
        <time>2014-09-01T15:58:19Z</time>
      </trkpt>
      <trkpt lat="45.9775" lon="6.79653">
        <ele>2098.595</ele>
        <time>2014-09-01T15:58:24Z</time>
      </trkpt>
      <trkpt lat="45.97749" lon="6.79653">
        <ele>2096.5378</ele>
        <time>2014-09-01T15:58:29Z</time>
      </trkpt>
      <trkpt lat="45.97749" lon="6.79653">
        <ele>2096.5378</ele>
        <time>2014-09-01T15:58:34Z</time>
      </trkpt>
      <trkpt lat="45.97746" lon="6.79652">
        <ele>2096.5378</ele>
        <time>2014-09-01T15:58:44Z</time>
      </trkpt>
      <trkpt lat="45.97745" lon="6.79652">
        <ele>2096.5378</ele>
        <time>2014-09-01T15:58:49Z</time>
      </trkpt>
      <trkpt lat="45.97743" lon="6.79652">
        <ele>2096.5378</ele>
        <time>2014-09-01T15:58:54Z</time>
      </trkpt>
      <trkpt lat="45.97739" lon="6.79654">
        <ele>2095.0671</ele>
        <time>2014-09-01T15:58:59Z</time>
      </trkpt>
      <trkpt lat="45.97739" lon="6.79654">
        <ele>2095.0671</ele>
        <time>2014-09-01T15:59:04Z</time>
      </trkpt>
      <trkpt lat="45.97736" lon="6.79654">
        <ele>2095.0671</ele>
        <time>2014-09-01T15:59:09Z</time>
      </trkpt>
      <trkpt lat="45.97734" lon="6.79654">
        <ele>2095.0671</ele>
        <time>2014-09-01T15:59:14Z</time>
      </trkpt>
      <trkpt lat="45.97732" lon="6.79653">
        <ele>2095.0671</ele>
        <time>2014-09-01T15:59:24Z</time>
      </trkpt>
      <trkpt lat="45.9773" lon="6.79654">
        <ele>2094.0776</ele>
        <time>2014-09-01T15:59:29Z</time>
      </trkpt>
      <trkpt lat="45.97729" lon="6.7966">
        <ele>2094.0776</ele>
        <time>2014-09-01T15:59:34Z</time>
      </trkpt>
      <trkpt lat="45.97728" lon="6.79664">
        <ele>2094.0776</ele>
        <time>2014-09-01T15:59:39Z</time>
      </trkpt>
      <trkpt lat="45.97727" lon="6.79665">
        <ele>2094.0776</ele>
        <time>2014-09-01T15:59:44Z</time>
      </trkpt>
      <trkpt lat="45.97727" lon="6.79667">
        <ele>2092.4756</ele>
        <time>2014-09-01T15:59:49Z</time>
      </trkpt>
      <trkpt lat="45.97728" lon="6.79668">
        <ele>2092.4756</ele>
        <time>2014-09-01T15:59:54Z</time>
      </trkpt>
      <trkpt lat="45.97729" lon="6.79669">
        <ele>2092.4756</ele>
        <time>2014-09-01T15:59:59Z</time>
      </trkpt>
      <trkpt lat="45.97729" lon="6.79669">
        <ele>2092.4756</ele>
        <time>2014-09-01T16:00:09Z</time>
      </trkpt>
      <trkpt lat="45.97729" lon="6.7967">
        <ele>2092.4756</ele>
        <time>2014-09-01T16:00:14Z</time>
      </trkpt>
      <trkpt lat="45.97725" lon="6.79672">
        <ele>2092.4756</ele>
        <time>2014-09-01T16:00:19Z</time>
      </trkpt>
      <trkpt lat="45.9772" lon="6.79672">
        <ele>2090.1863</ele>
        <time>2014-09-01T16:00:24Z</time>
      </trkpt>
      <trkpt lat="45.97717" lon="6.79673">
        <ele>2090.1863</ele>
        <time>2014-09-01T16:00:29Z</time>
      </trkpt>
      <trkpt lat="45.97717" lon="6.79673">
        <ele>2090.1863</ele>
        <time>2014-09-01T16:00:34Z</time>
      </trkpt>
      <trkpt lat="45.97716" lon="6.79671">
        <ele>2090.1863</ele>
        <time>2014-09-01T16:00:49Z</time>
      </trkpt>
      <trkpt lat="45.97716" lon="6.79671">
        <ele>2090.1863</ele>
        <time>2014-09-01T16:00:54Z</time>
      </trkpt>
      <trkpt lat="45.97714" lon="6.79669">
        <ele>2090.1863</ele>
        <time>2014-09-01T16:00:59Z</time>
      </trkpt>
      <trkpt lat="45.97713" lon="6.79668">
        <ele>2090.1863</ele>
        <time>2014-09-01T16:01:04Z</time>
      </trkpt>
      <trkpt lat="45.97711" lon="6.79667">
        <ele>2086.9836</ele>
        <time>2014-09-01T16:01:09Z</time>
      </trkpt>
      <trkpt lat="45.97707" lon="6.79669">
        <ele>2086.9836</ele>
        <time>2014-09-01T16:01:14Z</time>
      </trkpt>
      <trkpt lat="45.97703" lon="6.79674">
        <ele>2083.9146</ele>
        <time>2014-09-01T16:01:19Z</time>
      </trkpt>
      <trkpt lat="45.97698" lon="6.79678">
        <ele>2083.9146</ele>
        <time>2014-09-01T16:01:24Z</time>
      </trkpt>
      <trkpt lat="45.97695" lon="6.7968">
        <ele>2083.9146</ele>
        <time>2014-09-01T16:01:29Z</time>
      </trkpt>
      <trkpt lat="45.97691" lon="6.79685">
        <ele>2081.0835</ele>
        <time>2014-09-01T16:01:34Z</time>
      </trkpt>
      <trkpt lat="45.97687" lon="6.79683">
        <ele>2081.0835</ele>
        <time>2014-09-01T16:01:39Z</time>
      </trkpt>
      <trkpt lat="45.97682" lon="6.7968">
        <ele>2078.5725</ele>
        <time>2014-09-01T16:01:44Z</time>
      </trkpt>
      <trkpt lat="45.97679" lon="6.7968">
        <ele>2078.5725</ele>
        <time>2014-09-01T16:01:49Z</time>
      </trkpt>
      <trkpt lat="45.97676" lon="6.79676">
        <ele>2078.5725</ele>
        <time>2014-09-01T16:01:54Z</time>
      </trkpt>
      <trkpt lat="45.97671" lon="6.7967">
        <ele>2075.7937</ele>
        <time>2014-09-01T16:01:59Z</time>
      </trkpt>
      <trkpt lat="45.97668" lon="6.79667">
        <ele>2075.7937</ele>
        <time>2014-09-01T16:02:04Z</time>
      </trkpt>
      <trkpt lat="45.97666" lon="6.79664">
        <ele>2075.7937</ele>
        <time>2014-09-01T16:02:09Z</time>
      </trkpt>
      <trkpt lat="45.97663" lon="6.79663">
        <ele>2073.226</ele>
        <time>2014-09-01T16:02:14Z</time>
      </trkpt>
      <trkpt lat="45.9766" lon="6.79663">
        <ele>2073.226</ele>
        <time>2014-09-01T16:02:19Z</time>
      </trkpt>
      <trkpt lat="45.9766" lon="6.79663">
        <ele>2073.226</ele>
        <time>2014-09-01T16:02:24Z</time>
      </trkpt>
      <trkpt lat="45.97661" lon="6.79664">
        <ele>2073.226</ele>
        <time>2014-09-01T16:02:29Z</time>
      </trkpt>
      <trkpt lat="45.97661" lon="6.79665">
        <ele>2073.226</ele>
        <time>2014-09-01T16:02:34Z</time>
      </trkpt>
      <trkpt lat="45.97659" lon="6.79666">
        <ele>2073.226</ele>
        <time>2014-09-01T16:02:39Z</time>
      </trkpt>
      <trkpt lat="45.97659" lon="6.79666">
        <ele>2073.226</ele>
        <time>2014-09-01T16:02:44Z</time>
      </trkpt>
      <trkpt lat="45.9766" lon="6.79663">
        <ele>2073.226</ele>
        <time>2014-09-01T16:02:49Z</time>
      </trkpt>
      <trkpt lat="45.97658" lon="6.79663">
        <ele>2070.7507</ele>
        <time>2014-09-01T16:02:54Z</time>
      </trkpt>
      <trkpt lat="45.97654" lon="6.79662">
        <ele>2070.7507</ele>
        <time>2014-09-01T16:02:59Z</time>
      </trkpt>
      <trkpt lat="45.97649" lon="6.7966">
        <ele>2070.7507</ele>
        <time>2014-09-01T16:03:04Z</time>
      </trkpt>
      <trkpt lat="45.97645" lon="6.79657">
        <ele>2068.1138</ele>
        <time>2014-09-01T16:03:09Z</time>
      </trkpt>
      <trkpt lat="45.9764" lon="6.79653">
        <ele>2068.1138</ele>
        <time>2014-09-01T16:03:14Z</time>
      </trkpt>
      <trkpt lat="45.97639" lon="6.79651">
        <ele>2068.1138</ele>
        <time>2014-09-01T16:03:19Z</time>
      </trkpt>
      <trkpt lat="45.97635" lon="6.79646">
        <ele>2065.4685</ele>
        <time>2014-09-01T16:03:24Z</time>
      </trkpt>
      <trkpt lat="45.97632" lon="6.79647">
        <ele>2065.4685</ele>
        <time>2014-09-01T16:03:29Z</time>
      </trkpt>
      <trkpt lat="45.97633" lon="6.79651">
        <ele>2065.4685</ele>
        <time>2014-09-01T16:03:34Z</time>
      </trkpt>
      <trkpt lat="45.97631" lon="6.79661">
        <ele>2062.6262</ele>
        <time>2014-09-01T16:03:39Z</time>
      </trkpt>
      <trkpt lat="45.97632" lon="6.79668">
        <ele>2062.6262</ele>
        <time>2014-09-01T16:03:44Z</time>
      </trkpt>
      <trkpt lat="45.97632" lon="6.79669">
        <ele>2062.6262</ele>
        <time>2014-09-01T16:03:49Z</time>
      </trkpt>
      <trkpt lat="45.97631" lon="6.79676">
        <ele>2059.1816</ele>
        <time>2014-09-01T16:03:54Z</time>
      </trkpt>
      <trkpt lat="45.97633" lon="6.79685">
        <ele>2059.1816</ele>
        <time>2014-09-01T16:03:59Z</time>
      </trkpt>
      <trkpt lat="45.97633" lon="6.79689">
        <ele>2055.7559</ele>
        <time>2014-09-01T16:04:04Z</time>
      </trkpt>
      <trkpt lat="45.97634" lon="6.79695">
        <ele>2055.7559</ele>
        <time>2014-09-01T16:04:09Z</time>
      </trkpt>
      <trkpt lat="45.97633" lon="6.797">
        <ele>2055.7559</ele>
        <time>2014-09-01T16:04:14Z</time>
      </trkpt>
      <trkpt lat="45.97632" lon="6.79705">
        <ele>2051.7563</ele>
        <time>2014-09-01T16:04:19Z</time>
      </trkpt>
      <trkpt lat="45.9763" lon="6.79716">
        <ele>2051.7563</ele>
        <time>2014-09-01T16:04:24Z</time>
      </trkpt>
      <trkpt lat="45.97627" lon="6.79721">
        <ele>2047.962</ele>
        <time>2014-09-01T16:04:29Z</time>
      </trkpt>
      <trkpt lat="45.97628" lon="6.79728">
        <ele>2047.962</ele>
        <time>2014-09-01T16:04:34Z</time>
      </trkpt>
      <trkpt lat="45.97629" lon="6.79733">
        <ele>2047.962</ele>
        <time>2014-09-01T16:04:39Z</time>
      </trkpt>
      <trkpt lat="45.9763" lon="6.79737">
        <ele>2044.1569</ele>
        <time>2014-09-01T16:04:44Z</time>
      </trkpt>
      <trkpt lat="45.97631" lon="6.79743">
        <ele>2044.1569</ele>
        <time>2014-09-01T16:04:49Z</time>
      </trkpt>
      <trkpt lat="45.97631" lon="6.7975">
        <ele>2040.5159</ele>
        <time>2014-09-01T16:04:54Z</time>
      </trkpt>
      <trkpt lat="45.97632" lon="6.79753">
        <ele>2040.5159</ele>
        <time>2014-09-01T16:04:59Z</time>
      </trkpt>
      <trkpt lat="45.97633" lon="6.79757">
        <ele>2040.5159</ele>
        <time>2014-09-01T16:05:04Z</time>
      </trkpt>
      <trkpt lat="45.97633" lon="6.79765">
        <ele>2036.7247</ele>
        <time>2014-09-01T16:05:09Z</time>
      </trkpt>
      <trkpt lat="45.97635" lon="6.79771">
        <ele>2036.7247</ele>
        <time>2014-09-01T16:05:14Z</time>
      </trkpt>
      <trkpt lat="45.97635" lon="6.79778">
        <ele>2033.3289</ele>
        <time>2014-09-01T16:05:19Z</time>
      </trkpt>
      <trkpt lat="45.97634" lon="6.79784">
        <ele>2033.3289</ele>
        <time>2014-09-01T16:05:24Z</time>
      </trkpt>
      <trkpt lat="45.97633" lon="6.79789">
        <ele>2033.3289</ele>
        <time>2014-09-01T16:05:29Z</time>
      </trkpt>
      <trkpt lat="45.9763" lon="6.79789">
        <ele>2030.4288</ele>
        <time>2014-09-01T16:05:34Z</time>
      </trkpt>
      <trkpt lat="45.97629" lon="6.79795">
        <ele>2030.4288</ele>
        <time>2014-09-01T16:05:39Z</time>
      </trkpt>
      <trkpt lat="45.97628" lon="6.79797">
        <ele>2030.4288</ele>
        <time>2014-09-01T16:05:44Z</time>
      </trkpt>
      <trkpt lat="45.97626" lon="6.79799">
        <ele>2030.4288</ele>
        <time>2014-09-01T16:05:49Z</time>
      </trkpt>
      <trkpt lat="45.97627" lon="6.79802">
        <ele>2027.7128</ele>
        <time>2014-09-01T16:05:54Z</time>
      </trkpt>
      <trkpt lat="45.97626" lon="6.79805">
        <ele>2027.7128</ele>
        <time>2014-09-01T16:05:59Z</time>
      </trkpt>
      <trkpt lat="45.97622" lon="6.79809">
        <ele>2027.7128</ele>
        <time>2014-09-01T16:06:04Z</time>
      </trkpt>
      <trkpt lat="45.97619" lon="6.79816">
        <ele>2025.1796</ele>
        <time>2014-09-01T16:06:09Z</time>
      </trkpt>
      <trkpt lat="45.97617" lon="6.79821">
        <ele>2025.1796</ele>
        <time>2014-09-01T16:06:14Z</time>
      </trkpt>
      <trkpt lat="45.97615" lon="6.7983">
        <ele>2022.943</ele>
        <time>2014-09-01T16:06:19Z</time>
      </trkpt>
      <trkpt lat="45.97617" lon="6.79835">
        <ele>2022.943</ele>
        <time>2014-09-01T16:06:24Z</time>
      </trkpt>
      <trkpt lat="45.97618" lon="6.79837">
        <ele>2022.943</ele>
        <time>2014-09-01T16:06:29Z</time>
      </trkpt>
      <trkpt lat="45.9762" lon="6.79843">
        <ele>2020.8481</ele>
        <time>2014-09-01T16:06:34Z</time>
      </trkpt>
      <trkpt lat="45.9762" lon="6.79849">
        <ele>2020.8481</ele>
        <time>2014-09-01T16:06:39Z</time>
      </trkpt>
      <trkpt lat="45.97618" lon="6.79859">
        <ele>2019.1691</ele>
        <time>2014-09-01T16:06:44Z</time>
      </trkpt>
      <trkpt lat="45.97618" lon="6.79867">
        <ele>2019.1691</ele>
        <time>2014-09-01T16:06:49Z</time>
      </trkpt>
      <trkpt lat="45.97619" lon="6.79874">
        <ele>2017.4813</ele>
        <time>2014-09-01T16:06:54Z</time>
      </trkpt>
      <trkpt lat="45.9762" lon="6.7988">
        <ele>2017.4813</ele>
        <time>2014-09-01T16:06:59Z</time>
      </trkpt>
      <trkpt lat="45.97619" lon="6.79886">
        <ele>2017.4813</ele>
        <time>2014-09-01T16:07:04Z</time>
      </trkpt>
      <trkpt lat="45.97616" lon="6.7989">
        <ele>2015.8528</ele>
        <time>2014-09-01T16:07:09Z</time>
      </trkpt>
      <trkpt lat="45.97613" lon="6.79893">
        <ele>2015.8528</ele>
        <time>2014-09-01T16:07:14Z</time>
      </trkpt>
      <trkpt lat="45.97612" lon="6.79897">
        <ele>2015.8528</ele>
        <time>2014-09-01T16:07:19Z</time>
      </trkpt>
      <trkpt lat="45.97611" lon="6.79903">
        <ele>2014.2454</ele>
        <time>2014-09-01T16:07:24Z</time>
      </trkpt>
      <trkpt lat="45.97611" lon="6.79905">
        <ele>2014.2454</ele>
        <time>2014-09-01T16:07:29Z</time>
      </trkpt>
      <trkpt lat="45.97612" lon="6.79906">
        <ele>2014.2454</ele>
        <time>2014-09-01T16:07:34Z</time>
      </trkpt>
      <trkpt lat="45.97611" lon="6.79905">
        <ele>2014.2454</ele>
        <time>2014-09-01T16:07:39Z</time>
      </trkpt>
      <trkpt lat="45.97609" lon="6.79906">
        <ele>2014.2454</ele>
        <time>2014-09-01T16:07:44Z</time>
      </trkpt>
      <trkpt lat="45.97609" lon="6.79908">
        <ele>2014.2454</ele>
        <time>2014-09-01T16:07:49Z</time>
      </trkpt>
      <trkpt lat="45.9761" lon="6.7991">
        <ele>2014.2454</ele>
        <time>2014-09-01T16:07:54Z</time>
      </trkpt>
      <trkpt lat="45.97615" lon="6.79913">
        <ele>2012.4795</ele>
        <time>2014-09-01T16:07:59Z</time>
      </trkpt>
      <trkpt lat="45.97622" lon="6.79914">
        <ele>2012.4795</ele>
        <time>2014-09-01T16:08:04Z</time>
      </trkpt>
      <trkpt lat="45.97627" lon="6.79921">
        <ele>2011.0382</ele>
        <time>2014-09-01T16:08:09Z</time>
      </trkpt>
      <trkpt lat="45.97635" lon="6.79929">
        <ele>2009.9498</ele>
        <time>2014-09-01T16:08:14Z</time>
      </trkpt>
      <trkpt lat="45.97636" lon="6.79933">
        <ele>2009.9498</ele>
        <time>2014-09-01T16:08:19Z</time>
      </trkpt>
      <trkpt lat="45.97634" lon="6.79943">
        <ele>2009.1681</ele>
        <time>2014-09-01T16:08:24Z</time>
      </trkpt>
      <trkpt lat="45.97633" lon="6.79947">
        <ele>2009.1681</ele>
        <time>2014-09-01T16:08:29Z</time>
      </trkpt>
      <trkpt lat="45.97632" lon="6.79949">
        <ele>2009.1681</ele>
        <time>2014-09-01T16:08:34Z</time>
      </trkpt>
      <trkpt lat="45.97631" lon="6.79948">
        <ele>2009.1681</ele>
        <time>2014-09-01T16:08:39Z</time>
      </trkpt>
      <trkpt lat="45.9763" lon="6.79949">
        <ele>2009.1681</ele>
        <time>2014-09-01T16:08:44Z</time>
      </trkpt>
      <trkpt lat="45.9763" lon="6.79949">
        <ele>2009.1681</ele>
        <time>2014-09-01T16:08:49Z</time>
      </trkpt>
      <trkpt lat="45.9763" lon="6.79951">
        <ele>2009.1681</ele>
        <time>2014-09-01T16:08:54Z</time>
      </trkpt>
      <trkpt lat="45.9763" lon="6.79954">
        <ele>2008.6202</ele>
        <time>2014-09-01T16:08:59Z</time>
      </trkpt>
      <trkpt lat="45.97629" lon="6.79964">
        <ele>2008.6202</ele>
        <time>2014-09-01T16:09:04Z</time>
      </trkpt>
      <trkpt lat="45.97628" lon="6.79969">
        <ele>2008.1953</ele>
        <time>2014-09-01T16:09:09Z</time>
      </trkpt>
      <trkpt lat="45.97627" lon="6.79975">
        <ele>2008.1953</ele>
        <time>2014-09-01T16:09:14Z</time>
      </trkpt>
      <trkpt lat="45.97624" lon="6.79977">
        <ele>2008.1953</ele>
        <time>2014-09-01T16:09:19Z</time>
      </trkpt>
      <trkpt lat="45.97621" lon="6.79982">
        <ele>2008.0061</ele>
        <time>2014-09-01T16:09:24Z</time>
      </trkpt>
      <trkpt lat="45.97618" lon="6.79984">
        <ele>2008.0061</ele>
        <time>2014-09-01T16:09:29Z</time>
      </trkpt>
      <trkpt lat="45.97616" lon="6.79989">
        <ele>2008.0061</ele>
        <time>2014-09-01T16:09:34Z</time>
      </trkpt>
      <trkpt lat="45.97611" lon="6.79994">
        <ele>2007.8977</ele>
        <time>2014-09-01T16:09:39Z</time>
      </trkpt>
      <trkpt lat="45.97606" lon="6.79996">
        <ele>2007.8977</ele>
        <time>2014-09-01T16:09:44Z</time>
      </trkpt>
      <trkpt lat="45.97602" lon="6.80002">
        <ele>2007.827</ele>
        <time>2014-09-01T16:09:49Z</time>
      </trkpt>
      <trkpt lat="45.97596" lon="6.80004">
        <ele>2007.827</ele>
        <time>2014-09-01T16:09:54Z</time>
      </trkpt>
      <trkpt lat="45.97591" lon="6.80011">
        <ele>2007.7397</ele>
        <time>2014-09-01T16:09:59Z</time>
      </trkpt>
      <trkpt lat="45.97586" lon="6.80014">
        <ele>2007.7397</ele>
        <time>2014-09-01T16:10:04Z</time>
      </trkpt>
      <trkpt lat="45.97585" lon="6.80015">
        <ele>2007.7397</ele>
        <time>2014-09-01T16:10:09Z</time>
      </trkpt>
      <trkpt lat="45.97585" lon="6.80016">
        <ele>2007.7397</ele>
        <time>2014-09-01T16:10:14Z</time>
      </trkpt>
      <trkpt lat="45.97581" lon="6.80019">
        <ele>2007.4996</ele>
        <time>2014-09-01T16:10:19Z</time>
      </trkpt>
      <trkpt lat="45.9758" lon="6.80019">
        <ele>2007.4996</ele>
        <time>2014-09-01T16:10:24Z</time>
      </trkpt>
      <trkpt lat="45.97581" lon="6.80019">
        <ele>2007.4996</ele>
        <time>2014-09-01T16:10:29Z</time>
      </trkpt>
      <trkpt lat="45.97579" lon="6.80023">
        <ele>2007.4996</ele>
        <time>2014-09-01T16:10:34Z</time>
      </trkpt>
      <trkpt lat="45.97575" lon="6.80029">
        <ele>2007.2836</ele>
        <time>2014-09-01T16:10:39Z</time>
      </trkpt>
      <trkpt lat="45.97573" lon="6.80035">
        <ele>2007.2836</ele>
        <time>2014-09-01T16:10:44Z</time>
      </trkpt>
      <trkpt lat="45.9757" lon="6.80039">
        <ele>2007.2836</ele>
        <time>2014-09-01T16:10:49Z</time>
      </trkpt>
      <trkpt lat="45.97567" lon="6.80041">
        <ele>2006.8662</ele>
        <time>2014-09-01T16:10:54Z</time>
      </trkpt>
      <trkpt lat="45.97565" lon="6.80043">
        <ele>2006.8662</ele>
        <time>2014-09-01T16:10:59Z</time>
      </trkpt>
      <trkpt lat="45.97562" lon="6.80045">
        <ele>2006.8662</ele>
        <time>2014-09-01T16:11:04Z</time>
      </trkpt>
      <trkpt lat="45.97557" lon="6.80048">
        <ele>2006.3137</ele>
        <time>2014-09-01T16:11:09Z</time>
      </trkpt>
      <trkpt lat="45.97554" lon="6.80052">
        <ele>2006.3137</ele>
        <time>2014-09-01T16:11:14Z</time>
      </trkpt>
      <trkpt lat="45.97552" lon="6.80057">
        <ele>2006.3137</ele>
        <time>2014-09-01T16:11:19Z</time>
      </trkpt>
      <trkpt lat="45.97548" lon="6.80061">
        <ele>2005.558</ele>
        <time>2014-09-01T16:11:24Z</time>
      </trkpt>
      <trkpt lat="45.97543" lon="6.80066">
        <ele>2005.558</ele>
        <time>2014-09-01T16:11:29Z</time>
      </trkpt>
      <trkpt lat="45.97538" lon="6.80067">
        <ele>2004.6956</ele>
        <time>2014-09-01T16:11:34Z</time>
      </trkpt>
      <trkpt lat="45.97534" lon="6.80067">
        <ele>2004.6956</ele>
        <time>2014-09-01T16:11:39Z</time>
      </trkpt>
      <trkpt lat="45.97532" lon="6.80066">
        <ele>2004.6956</ele>
        <time>2014-09-01T16:11:44Z</time>
      </trkpt>
      <trkpt lat="45.97529" lon="6.80065">
        <ele>2003.5566</ele>
        <time>2014-09-01T16:11:49Z</time>
      </trkpt>
      <trkpt lat="45.97526" lon="6.80063">
        <ele>2003.5566</ele>
        <time>2014-09-01T16:11:54Z</time>
      </trkpt>
      <trkpt lat="45.97523" lon="6.80064">
        <ele>2003.5566</ele>
        <time>2014-09-01T16:11:59Z</time>
      </trkpt>
      <trkpt lat="45.9752" lon="6.8006">
        <ele>2001.9562</ele>
        <time>2014-09-01T16:12:04Z</time>
      </trkpt>
      <trkpt lat="45.97516" lon="6.80055">
        <ele>2001.9562</ele>
        <time>2014-09-01T16:12:09Z</time>
      </trkpt>
      <trkpt lat="45.97517" lon="6.80058">
        <ele>2001.9562</ele>
        <time>2014-09-01T16:12:14Z</time>
      </trkpt>
      <trkpt lat="45.97518" lon="6.80062">
        <ele>2000.4594</ele>
        <time>2014-09-01T16:12:19Z</time>
      </trkpt>
      <trkpt lat="45.97513" lon="6.80062">
        <ele>2000.4594</ele>
        <time>2014-09-01T16:12:24Z</time>
      </trkpt>
      <trkpt lat="45.97505" lon="6.80062">
        <ele>1999.1284</ele>
        <time>2014-09-01T16:12:29Z</time>
      </trkpt>
      <trkpt lat="45.97501" lon="6.80061">
        <ele>1999.1284</ele>
        <time>2014-09-01T16:12:34Z</time>
      </trkpt>
      <trkpt lat="45.97496" lon="6.80061">
        <ele>1999.1284</ele>
        <time>2014-09-01T16:12:39Z</time>
      </trkpt>
      <trkpt lat="45.97493" lon="6.80063">
        <ele>1997.5884</ele>
        <time>2014-09-01T16:12:44Z</time>
      </trkpt>
      <trkpt lat="45.97491" lon="6.80063">
        <ele>1997.5884</ele>
        <time>2014-09-01T16:12:49Z</time>
      </trkpt>
      <trkpt lat="45.9749" lon="6.80064">
        <ele>1997.5884</ele>
        <time>2014-09-01T16:12:54Z</time>
      </trkpt>
      <trkpt lat="45.97489" lon="6.80062">
        <ele>1997.5884</ele>
        <time>2014-09-01T16:12:59Z</time>
      </trkpt>
      <trkpt lat="45.97487" lon="6.80061">
        <ele>1997.5884</ele>
        <time>2014-09-01T16:13:04Z</time>
      </trkpt>
      <trkpt lat="45.97487" lon="6.80061">
        <ele>1997.5884</ele>
        <time>2014-09-01T16:13:09Z</time>
      </trkpt>
      <trkpt lat="45.97485" lon="6.80061">
        <ele>1997.5884</ele>
        <time>2014-09-01T16:13:19Z</time>
      </trkpt>
      <trkpt lat="45.97486" lon="6.80059">
        <ele>1996.1267</ele>
        <time>2014-09-01T16:13:24Z</time>
      </trkpt>
      <trkpt lat="45.97487" lon="6.80054">
        <ele>1996.1267</ele>
        <time>2014-09-01T16:13:29Z</time>
      </trkpt>
      <trkpt lat="45.97485" lon="6.80049">
        <ele>1996.1267</ele>
        <time>2014-09-01T16:13:34Z</time>
      </trkpt>
      <trkpt lat="45.97481" lon="6.80049">
        <ele>1994.664</ele>
        <time>2014-09-01T16:13:39Z</time>
      </trkpt>
      <trkpt lat="45.97479" lon="6.80048">
        <ele>1994.664</ele>
        <time>2014-09-01T16:13:44Z</time>
      </trkpt>
      <trkpt lat="45.97478" lon="6.8005">
        <ele>1994.664</ele>
        <time>2014-09-01T16:13:49Z</time>
      </trkpt>
      <trkpt lat="45.97478" lon="6.80052">
        <ele>1994.664</ele>
        <time>2014-09-01T16:13:54Z</time>
      </trkpt>
      <trkpt lat="45.97481" lon="6.80053">
        <ele>1994.4465</ele>
        <time>2014-09-01T16:13:59Z</time>
      </trkpt>
      <trkpt lat="45.97489" lon="6.79998">
        <ele>1994.2291</ele>
        <time>2014-09-01T16:15:19Z</time>
      </trkpt>
      <trkpt lat="45.97484" lon="6.79991">
        <ele>1994.0117</ele>
        <time>2014-09-01T16:15:24Z</time>
      </trkpt>
      <trkpt lat="45.97479" lon="6.79984">
        <ele>1993.7943</ele>
        <time>2014-09-01T16:15:29Z</time>
      </trkpt>
      <trkpt lat="45.97473" lon="6.79975">
        <ele>1993.5769</ele>
        <time>2014-09-01T16:15:34Z</time>
      </trkpt>
      <trkpt lat="45.97471" lon="6.79969">
        <ele>1993.3595</ele>
        <time>2014-09-01T16:15:49Z</time>
      </trkpt>
      <trkpt lat="45.97472" lon="6.79968">
        <ele>1993.1421</ele>
        <time>2014-09-01T16:15:54Z</time>
      </trkpt>
      <trkpt lat="45.97485" lon="6.79994">
        <ele>1992.9247</ele>
        <time>2014-09-01T16:15:59Z</time>
      </trkpt>
      <trkpt lat="45.97492" lon="6.80012">
        <ele>1991.3755</ele>
        <time>2014-09-01T16:16:04Z</time>
      </trkpt>
      <trkpt lat="45.97492" lon="6.80012">
        <ele>1991.3755</ele>
        <time>2014-09-01T16:16:09Z</time>
      </trkpt>
      <trkpt lat="45.97492" lon="6.80016">
        <ele>1991.3755</ele>
        <time>2014-09-01T16:16:19Z</time>
      </trkpt>
      <trkpt lat="45.97493" lon="6.80019">
        <ele>1991.3755</ele>
        <time>2014-09-01T16:16:24Z</time>
      </trkpt>
      <trkpt lat="45.9749" lon="6.80028">
        <ele>1990.1454</ele>
        <time>2014-09-01T16:16:29Z</time>
      </trkpt>
      <trkpt lat="45.9749" lon="6.80028">
        <ele>1990.1454</ele>
        <time>2014-09-01T16:16:34Z</time>
      </trkpt>
      <trkpt lat="45.97489" lon="6.80036">
        <ele>1990.1454</ele>
        <time>2014-09-01T16:16:59Z</time>
      </trkpt>
      <trkpt lat="45.97487" lon="6.80041">
        <ele>1989.2667</ele>
        <time>2014-09-01T16:17:04Z</time>
      </trkpt>
      <trkpt lat="45.97487" lon="6.80041">
        <ele>1989.2667</ele>
        <time>2014-09-01T16:17:09Z</time>
      </trkpt>
    </trkseg>
  </trk>
</gpx>